<?xml version="1.0" encoding="UTF-8" standalone="no" ?>
<gpx xmlns="http://www.topografix.com/GPX/1/1" xmlns:xsi="http://www.w3.org/2001/XMLSchema-instance" xsi:schemaLocation="http://www.topografix.com/GPX/1/1 http://www.topografix.com/GPX/1/1/gpx.xsd" version="1.1" creator="VisuGPX - https://www.visugpx.com">
  <metadata>
    <name>Traversée Sud Nord Marocaz Ecole par les crêtes</name>
    <desc><![CDATA[Départ du col de marocaz.Belle rando mais  très sportive, dans les Bauges, avec des superbes points de vue sur la crête. Sur la fin du parcours repasser par le Lindar, et surtout ne pas couper droit vers le Marocaz.]]></desc>
  </metadata>
  <trk>
    <name><![CDATA[Traversée Sud Nord Marocaz Ecole par les crêtes_1]]></name>
    <trkseg>
      <trkpt lat="45.55001" lon="6.0762">
        <ele>967.62298583984</ele>
        <time>2010-10-07T08:43:04Z</time>
      </trkpt>
      <trkpt lat="45.55001" lon="6.0762">
        <ele>967.61901855469</ele>
        <time>2010-10-07T08:43:05Z</time>
      </trkpt>
      <trkpt lat="45.55006" lon="6.07623">
        <ele>965.91198730469</ele>
        <time>2010-10-07T08:46:39Z</time>
      </trkpt>
      <trkpt lat="45.55008" lon="6.07626">
        <ele>965.80902099609</ele>
        <time>2010-10-07T08:46:44Z</time>
      </trkpt>
      <trkpt lat="45.55015" lon="6.07627">
        <ele>965.89801025391</ele>
        <time>2010-10-07T08:46:49Z</time>
      </trkpt>
      <trkpt lat="45.55024" lon="6.07618">
        <ele>966.8759765625</ele>
        <time>2010-10-07T08:46:56Z</time>
      </trkpt>
      <trkpt lat="45.55029" lon="6.07611">
        <ele>967.69500732422</ele>
        <time>2010-10-07T08:47:00Z</time>
      </trkpt>
      <trkpt lat="45.5503" lon="6.07609">
        <ele>967.75897216797</ele>
        <time>2010-10-07T08:47:01Z</time>
      </trkpt>
      <trkpt lat="45.55039" lon="6.07606">
        <ele>968.49798583984</ele>
        <time>2010-10-07T08:47:06Z</time>
      </trkpt>
      <trkpt lat="45.55046" lon="6.076">
        <ele>969.17401123047</ele>
        <time>2010-10-07T08:47:10Z</time>
      </trkpt>
      <trkpt lat="45.5506" lon="6.07585">
        <ele>970.64801025391</ele>
        <time>2010-10-07T08:47:18Z</time>
      </trkpt>
      <trkpt lat="45.5507" lon="6.07579">
        <ele>971.51300048828</ele>
        <time>2010-10-07T08:47:23Z</time>
      </trkpt>
      <trkpt lat="45.55085" lon="6.07575">
        <ele>972.27398681641</ele>
        <time>2010-10-07T08:47:30Z</time>
      </trkpt>
      <trkpt lat="45.55094" lon="6.0758">
        <ele>973.09899902344</ele>
        <time>2010-10-07T08:47:35Z</time>
      </trkpt>
      <trkpt lat="45.55105" lon="6.07587">
        <ele>973.99200439453</ele>
        <time>2010-10-07T08:47:41Z</time>
      </trkpt>
      <trkpt lat="45.55119" lon="6.07599">
        <ele>975.11602783203</ele>
        <time>2010-10-07T08:47:48Z</time>
      </trkpt>
      <trkpt lat="45.55133" lon="6.07603">
        <ele>976.07702636719</ele>
        <time>2010-10-07T08:47:54Z</time>
      </trkpt>
      <trkpt lat="45.55147" lon="6.07609">
        <ele>977.64202880859</ele>
        <time>2010-10-07T08:48:02Z</time>
      </trkpt>
      <trkpt lat="45.55161" lon="6.07614">
        <ele>978.85302734375</ele>
        <time>2010-10-07T08:48:09Z</time>
      </trkpt>
      <trkpt lat="45.55175" lon="6.07619">
        <ele>980.09600830078</ele>
        <time>2010-10-07T08:48:16Z</time>
      </trkpt>
      <trkpt lat="45.55185" lon="6.0762">
        <ele>980.41198730469</ele>
        <time>2010-10-07T08:48:21Z</time>
      </trkpt>
      <trkpt lat="45.55202" lon="6.07617">
        <ele>981.41101074219</ele>
        <time>2010-10-07T08:48:29Z</time>
      </trkpt>
      <trkpt lat="45.5521" lon="6.07622">
        <ele>982.01800537109</ele>
        <time>2010-10-07T08:48:33Z</time>
      </trkpt>
      <trkpt lat="45.55207" lon="6.07633">
        <ele>983.15197753906</ele>
        <time>2010-10-07T08:48:38Z</time>
      </trkpt>
      <trkpt lat="45.55202" lon="6.07634">
        <ele>983.47198486328</ele>
        <time>2010-10-07T08:48:41Z</time>
      </trkpt>
      <trkpt lat="45.5519" lon="6.07633">
        <ele>984.60302734375</ele>
        <time>2010-10-07T08:48:48Z</time>
      </trkpt>
      <trkpt lat="45.55175" lon="6.07636">
        <ele>985.63201904297</ele>
        <time>2010-10-07T08:48:55Z</time>
      </trkpt>
      <trkpt lat="45.5516" lon="6.07641">
        <ele>986.63201904297</ele>
        <time>2010-10-07T08:49:02Z</time>
      </trkpt>
      <trkpt lat="45.55142" lon="6.07645">
        <ele>987.7080078125</ele>
        <time>2010-10-07T08:49:10Z</time>
      </trkpt>
      <trkpt lat="45.55125" lon="6.07647">
        <ele>988.52398681641</ele>
        <time>2010-10-07T08:49:17Z</time>
      </trkpt>
      <trkpt lat="45.55101" lon="6.07654">
        <ele>990.27398681641</ele>
        <time>2010-10-07T08:49:27Z</time>
      </trkpt>
      <trkpt lat="45.55096" lon="6.0766">
        <ele>990.68402099609</ele>
        <time>2010-10-07T08:49:30Z</time>
      </trkpt>
      <trkpt lat="45.55101" lon="6.07668">
        <ele>991.33502197266</ele>
        <time>2010-10-07T08:49:35Z</time>
      </trkpt>
      <trkpt lat="45.55104" lon="6.07669">
        <ele>991.34002685547</ele>
        <time>2010-10-07T08:49:36Z</time>
      </trkpt>
      <trkpt lat="45.55123" lon="6.07667">
        <ele>992.7080078125</ele>
        <time>2010-10-07T08:49:44Z</time>
      </trkpt>
      <trkpt lat="45.5514" lon="6.07668">
        <ele>993.90899658203</ele>
        <time>2010-10-07T08:49:52Z</time>
      </trkpt>
      <trkpt lat="45.55161" lon="6.07671">
        <ele>995.42297363281</ele>
        <time>2010-10-07T08:50:01Z</time>
      </trkpt>
      <trkpt lat="45.55183" lon="6.07671">
        <ele>997.55200195312</ele>
        <time>2010-10-07T08:50:11Z</time>
      </trkpt>
      <trkpt lat="45.55196" lon="6.07674">
        <ele>998.43902587891</ele>
        <time>2010-10-07T08:50:16Z</time>
      </trkpt>
      <trkpt lat="45.55211" lon="6.07675">
        <ele>999.28802490234</ele>
        <time>2010-10-07T08:50:23Z</time>
      </trkpt>
      <trkpt lat="45.5523" lon="6.07675">
        <ele>1000.7639770508</ele>
        <time>2010-10-07T08:50:31Z</time>
      </trkpt>
      <trkpt lat="45.55249" lon="6.07676">
        <ele>1001.9600219727</ele>
        <time>2010-10-07T08:50:39Z</time>
      </trkpt>
      <trkpt lat="45.55268" lon="6.07679">
        <ele>1003.1890258789</ele>
        <time>2010-10-07T08:50:47Z</time>
      </trkpt>
      <trkpt lat="45.55277" lon="6.07681">
        <ele>1003.9459838867</ele>
        <time>2010-10-07T08:50:51Z</time>
      </trkpt>
      <trkpt lat="45.5529" lon="6.07688">
        <ele>1005.1329956055</ele>
        <time>2010-10-07T08:50:57Z</time>
      </trkpt>
      <trkpt lat="45.5531" lon="6.07705">
        <ele>1006.8229980469</ele>
        <time>2010-10-07T08:51:07Z</time>
      </trkpt>
      <trkpt lat="45.55318" lon="6.0772">
        <ele>1007.8740234375</ele>
        <time>2010-10-07T08:51:13Z</time>
      </trkpt>
      <trkpt lat="45.55326" lon="6.07736">
        <ele>1008.9790039062</ele>
        <time>2010-10-07T08:51:19Z</time>
      </trkpt>
      <trkpt lat="45.55332" lon="6.07747">
        <ele>1010.1920166016</ele>
        <time>2010-10-07T08:51:24Z</time>
      </trkpt>
      <trkpt lat="45.55341" lon="6.07759">
        <ele>1010.7949829102</ele>
        <time>2010-10-07T08:51:29Z</time>
      </trkpt>
      <trkpt lat="45.55353" lon="6.07773">
        <ele>1012.0449829102</ele>
        <time>2010-10-07T08:51:35Z</time>
      </trkpt>
      <trkpt lat="45.55356" lon="6.0778">
        <ele>1012.5139770508</ele>
        <time>2010-10-07T08:51:38Z</time>
      </trkpt>
      <trkpt lat="45.55366" lon="6.07792">
        <ele>1013.5729980469</ele>
        <time>2010-10-07T08:51:45Z</time>
      </trkpt>
      <trkpt lat="45.5538" lon="6.07798">
        <ele>1015.3920288086</ele>
        <time>2010-10-07T08:51:53Z</time>
      </trkpt>
      <trkpt lat="45.55391" lon="6.07811">
        <ele>1016.3330078125</ele>
        <time>2010-10-07T08:52:00Z</time>
      </trkpt>
      <trkpt lat="45.55406" lon="6.07825">
        <ele>1017.4890136719</ele>
        <time>2010-10-07T08:52:09Z</time>
      </trkpt>
      <trkpt lat="45.55419" lon="6.07824">
        <ele>1018.1510009766</ele>
        <time>2010-10-07T08:52:15Z</time>
      </trkpt>
      <trkpt lat="45.55427" lon="6.07815">
        <ele>1018.9279785156</ele>
        <time>2010-10-07T08:52:20Z</time>
      </trkpt>
      <trkpt lat="45.55436" lon="6.07813">
        <ele>1019.4790039062</ele>
        <time>2010-10-07T08:52:25Z</time>
      </trkpt>
      <trkpt lat="45.55441" lon="6.07815">
        <ele>1019.9290161133</ele>
        <time>2010-10-07T08:52:27Z</time>
      </trkpt>
      <trkpt lat="45.55454" lon="6.07826">
        <ele>1020.9390258789</ele>
        <time>2010-10-07T08:52:34Z</time>
      </trkpt>
      <trkpt lat="45.55465" lon="6.07833">
        <ele>1021.8239746094</ele>
        <time>2010-10-07T08:52:40Z</time>
      </trkpt>
      <trkpt lat="45.55481" lon="6.07839">
        <ele>1023.0040283203</ele>
        <time>2010-10-07T08:52:48Z</time>
      </trkpt>
      <trkpt lat="45.55494" lon="6.07834">
        <ele>1023.5670166016</ele>
        <time>2010-10-07T08:52:54Z</time>
      </trkpt>
      <trkpt lat="45.55499" lon="6.07826">
        <ele>1024.0389404297</ele>
        <time>2010-10-07T08:52:57Z</time>
      </trkpt>
      <trkpt lat="45.55498" lon="6.07813">
        <ele>1024.6049804688</ele>
        <time>2010-10-07T08:53:01Z</time>
      </trkpt>
      <trkpt lat="45.55494" lon="6.07782">
        <ele>1026.0229492188</ele>
        <time>2010-10-07T08:53:11Z</time>
      </trkpt>
      <trkpt lat="45.555" lon="6.07752">
        <ele>1027.3709716797</ele>
        <time>2010-10-07T08:53:21Z</time>
      </trkpt>
      <trkpt lat="45.55513" lon="6.07738">
        <ele>1028.1040039062</ele>
        <time>2010-10-07T08:53:29Z</time>
      </trkpt>
      <trkpt lat="45.55532" lon="6.07735">
        <ele>1029.1090087891</ele>
        <time>2010-10-07T08:53:37Z</time>
      </trkpt>
      <trkpt lat="45.55553" lon="6.0774">
        <ele>1030</ele>
        <time>2010-10-07T08:53:45Z</time>
      </trkpt>
      <trkpt lat="45.55569" lon="6.0775">
        <ele>1031.0460205078</ele>
        <time>2010-10-07T08:53:53Z</time>
      </trkpt>
      <trkpt lat="45.55584" lon="6.07759">
        <ele>1032.1240234375</ele>
        <time>2010-10-07T08:54:00Z</time>
      </trkpt>
      <trkpt lat="45.55593" lon="6.07772">
        <ele>1033.4189453125</ele>
        <time>2010-10-07T08:54:06Z</time>
      </trkpt>
      <trkpt lat="45.55605" lon="6.07783">
        <ele>1034.3139648438</ele>
        <time>2010-10-07T08:54:12Z</time>
      </trkpt>
      <trkpt lat="45.55617" lon="6.0779">
        <ele>1035.291015625</ele>
        <time>2010-10-07T08:54:18Z</time>
      </trkpt>
      <trkpt lat="45.55628" lon="6.07801">
        <ele>1036.3709716797</ele>
        <time>2010-10-07T08:54:25Z</time>
      </trkpt>
      <trkpt lat="45.5564" lon="6.07814">
        <ele>1036.8859863281</ele>
        <time>2010-10-07T08:54:32Z</time>
      </trkpt>
      <trkpt lat="45.55656" lon="6.07828">
        <ele>1038.3890380859</ele>
        <time>2010-10-07T08:54:40Z</time>
      </trkpt>
      <trkpt lat="45.55668" lon="6.07845">
        <ele>1039.3420410156</ele>
        <time>2010-10-07T08:54:48Z</time>
      </trkpt>
      <trkpt lat="45.55682" lon="6.0785">
        <ele>1040.4959716797</ele>
        <time>2010-10-07T08:54:55Z</time>
      </trkpt>
      <trkpt lat="45.55698" lon="6.07859">
        <ele>1041.1540527344</ele>
        <time>2010-10-07T08:55:03Z</time>
      </trkpt>
      <trkpt lat="45.55711" lon="6.07868">
        <ele>1042.0720214844</ele>
        <time>2010-10-07T08:55:10Z</time>
      </trkpt>
      <trkpt lat="45.55726" lon="6.07876">
        <ele>1043.4790039062</ele>
        <time>2010-10-07T08:55:17Z</time>
      </trkpt>
      <trkpt lat="45.55736" lon="6.07885">
        <ele>1044.6259765625</ele>
        <time>2010-10-07T08:55:23Z</time>
      </trkpt>
      <trkpt lat="45.55745" lon="6.07904">
        <ele>1046.4649658203</ele>
        <time>2010-10-07T08:55:31Z</time>
      </trkpt>
      <trkpt lat="45.55757" lon="6.0792">
        <ele>1047.6059570312</ele>
        <time>2010-10-07T08:55:38Z</time>
      </trkpt>
      <trkpt lat="45.55766" lon="6.07931">
        <ele>1048.6860351562</ele>
        <time>2010-10-07T08:55:43Z</time>
      </trkpt>
      <trkpt lat="45.55774" lon="6.07947">
        <ele>1049.4949951172</ele>
        <time>2010-10-07T08:55:50Z</time>
      </trkpt>
      <trkpt lat="45.55784" lon="6.07954">
        <ele>1050.0930175781</ele>
        <time>2010-10-07T08:55:56Z</time>
      </trkpt>
      <trkpt lat="45.55793" lon="6.07951">
        <ele>1050.9820556641</ele>
        <time>2010-10-07T08:56:02Z</time>
      </trkpt>
      <trkpt lat="45.55803" lon="6.0795">
        <ele>1051.7619628906</ele>
        <time>2010-10-07T08:56:08Z</time>
      </trkpt>
      <trkpt lat="45.55817" lon="6.07948">
        <ele>1052.6450195312</ele>
        <time>2010-10-07T08:56:15Z</time>
      </trkpt>
      <trkpt lat="45.55837" lon="6.07945">
        <ele>1053.6479492188</ele>
        <time>2010-10-07T08:56:24Z</time>
      </trkpt>
      <trkpt lat="45.55849" lon="6.07949">
        <ele>1054.5860595703</ele>
        <time>2010-10-07T08:56:30Z</time>
      </trkpt>
      <trkpt lat="45.55865" lon="6.07948">
        <ele>1055.1770019531</ele>
        <time>2010-10-07T08:56:37Z</time>
      </trkpt>
      <trkpt lat="45.5587" lon="6.07939">
        <ele>1054.7989501953</ele>
        <time>2010-10-07T08:56:40Z</time>
      </trkpt>
      <trkpt lat="45.55872" lon="6.07927">
        <ele>1055.0319824219</ele>
        <time>2010-10-07T08:56:44Z</time>
      </trkpt>
      <trkpt lat="45.5587" lon="6.07906">
        <ele>1055.4720458984</ele>
        <time>2010-10-07T08:56:50Z</time>
      </trkpt>
      <trkpt lat="45.55866" lon="6.07883">
        <ele>1055.5510253906</ele>
        <time>2010-10-07T08:56:57Z</time>
      </trkpt>
      <trkpt lat="45.55869" lon="6.0787">
        <ele>1055.4899902344</ele>
        <time>2010-10-07T08:57:01Z</time>
      </trkpt>
      <trkpt lat="45.55882" lon="6.07864">
        <ele>1055.8199462891</ele>
        <time>2010-10-07T08:57:07Z</time>
      </trkpt>
      <trkpt lat="45.55901" lon="6.07869">
        <ele>1056.0679931641</ele>
        <time>2010-10-07T08:57:13Z</time>
      </trkpt>
      <trkpt lat="45.55912" lon="6.0788">
        <ele>1056.0789794922</ele>
        <time>2010-10-07T08:57:18Z</time>
      </trkpt>
      <trkpt lat="45.55934" lon="6.07898">
        <ele>1056.2540283203</ele>
        <time>2010-10-07T08:57:25Z</time>
      </trkpt>
      <trkpt lat="45.5594" lon="6.07917">
        <ele>1056.3299560547</ele>
        <time>2010-10-07T08:57:29Z</time>
      </trkpt>
      <trkpt lat="45.55952" lon="6.07931">
        <ele>1056.4659423828</ele>
        <time>2010-10-07T08:57:34Z</time>
      </trkpt>
      <trkpt lat="45.55966" lon="6.07935">
        <ele>1056.6180419922</ele>
        <time>2010-10-07T08:57:39Z</time>
      </trkpt>
      <trkpt lat="45.5598" lon="6.07925">
        <ele>1056.6459960938</ele>
        <time>2010-10-07T08:57:43Z</time>
      </trkpt>
      <trkpt lat="45.55985" lon="6.07919">
        <ele>1056.708984375</ele>
        <time>2010-10-07T08:57:45Z</time>
      </trkpt>
      <trkpt lat="45.56013" lon="6.07926">
        <ele>1057.4239501953</ele>
        <time>2010-10-07T08:57:54Z</time>
      </trkpt>
      <trkpt lat="45.56029" lon="6.07945">
        <ele>1057.4090576172</ele>
        <time>2010-10-07T08:58:00Z</time>
      </trkpt>
      <trkpt lat="45.56033" lon="6.07949">
        <ele>1057.3620605469</ele>
        <time>2010-10-07T08:58:01Z</time>
      </trkpt>
      <trkpt lat="45.56049" lon="6.07958">
        <ele>1057.4770507812</ele>
        <time>2010-10-07T08:58:06Z</time>
      </trkpt>
      <trkpt lat="45.56058" lon="6.07962">
        <ele>1057.3890380859</ele>
        <time>2010-10-07T08:58:11Z</time>
      </trkpt>
      <trkpt lat="45.56072" lon="6.07968">
        <ele>1057.2810058594</ele>
        <time>2010-10-07T08:58:16Z</time>
      </trkpt>
      <trkpt lat="45.56086" lon="6.0798">
        <ele>1057.3280029297</ele>
        <time>2010-10-07T08:58:21Z</time>
      </trkpt>
      <trkpt lat="45.56107" lon="6.08001">
        <ele>1057.041015625</ele>
        <time>2010-10-07T08:58:28Z</time>
      </trkpt>
      <trkpt lat="45.56123" lon="6.08006">
        <ele>1057.7760009766</ele>
        <time>2010-10-07T08:58:33Z</time>
      </trkpt>
      <trkpt lat="45.56137" lon="6.08013">
        <ele>1058.8389892578</ele>
        <time>2010-10-07T08:58:39Z</time>
      </trkpt>
      <trkpt lat="45.56156" lon="6.08016">
        <ele>1059.5069580078</ele>
        <time>2010-10-07T08:58:45Z</time>
      </trkpt>
      <trkpt lat="45.56177" lon="6.08016">
        <ele>1060.6359863281</ele>
        <time>2010-10-07T08:58:52Z</time>
      </trkpt>
      <trkpt lat="45.5619" lon="6.08007">
        <ele>1062.0649414062</ele>
        <time>2010-10-07T08:58:58Z</time>
      </trkpt>
      <trkpt lat="45.56203" lon="6.0801">
        <ele>1062.3840332031</ele>
        <time>2010-10-07T08:59:03Z</time>
      </trkpt>
      <trkpt lat="45.56213" lon="6.08016">
        <ele>1063.4420166016</ele>
        <time>2010-10-07T08:59:08Z</time>
      </trkpt>
      <trkpt lat="45.56227" lon="6.08024">
        <ele>1064.2860107422</ele>
        <time>2010-10-07T08:59:15Z</time>
      </trkpt>
      <trkpt lat="45.56237" lon="6.08033">
        <ele>1065.5260009766</ele>
        <time>2010-10-07T08:59:21Z</time>
      </trkpt>
      <trkpt lat="45.56245" lon="6.08037">
        <ele>1066.748046875</ele>
        <time>2010-10-07T08:59:26Z</time>
      </trkpt>
      <trkpt lat="45.56246" lon="6.08037">
        <ele>1067.1650390625</ele>
        <time>2010-10-07T08:59:27Z</time>
      </trkpt>
      <trkpt lat="45.56254" lon="6.08044">
        <ele>1068.2370605469</ele>
        <time>2010-10-07T08:59:33Z</time>
      </trkpt>
      <trkpt lat="45.56257" lon="6.08047">
        <ele>1068.6650390625</ele>
        <time>2010-10-07T08:59:35Z</time>
      </trkpt>
      <trkpt lat="45.56261" lon="6.08048">
        <ele>1069.45703125</ele>
        <time>2010-10-07T08:59:38Z</time>
      </trkpt>
      <trkpt lat="45.56268" lon="6.08041">
        <ele>1069.9289550781</ele>
        <time>2010-10-07T08:59:43Z</time>
      </trkpt>
      <trkpt lat="45.56268" lon="6.08032">
        <ele>1070.9549560547</ele>
        <time>2010-10-07T08:59:47Z</time>
      </trkpt>
      <trkpt lat="45.56267" lon="6.08023">
        <ele>1071.9010009766</ele>
        <time>2010-10-07T08:59:53Z</time>
      </trkpt>
      <trkpt lat="45.56263" lon="6.08012">
        <ele>1072.0810546875</ele>
        <time>2010-10-07T08:59:58Z</time>
      </trkpt>
      <trkpt lat="45.56262" lon="6.08007">
        <ele>1072.3540039062</ele>
        <time>2010-10-07T09:00:00Z</time>
      </trkpt>
      <trkpt lat="45.5626" lon="6.07986">
        <ele>1072.0300292969</ele>
        <time>2010-10-07T09:00:06Z</time>
      </trkpt>
      <trkpt lat="45.5626" lon="6.07975">
        <ele>1073.5550537109</ele>
        <time>2010-10-07T09:00:10Z</time>
      </trkpt>
      <trkpt lat="45.56263" lon="6.07966">
        <ele>1074.8929443359</ele>
        <time>2010-10-07T09:00:15Z</time>
      </trkpt>
      <trkpt lat="45.5627" lon="6.07968">
        <ele>1075.7690429688</ele>
        <time>2010-10-07T09:00:21Z</time>
      </trkpt>
      <trkpt lat="45.5627" lon="6.07972">
        <ele>1076.5190429688</ele>
        <time>2010-10-07T09:00:24Z</time>
      </trkpt>
      <trkpt lat="45.56276" lon="6.07991">
        <ele>1078.2330322266</ele>
        <time>2010-10-07T09:00:34Z</time>
      </trkpt>
      <trkpt lat="45.56279" lon="6.08002">
        <ele>1079.0100097656</ele>
        <time>2010-10-07T09:00:40Z</time>
      </trkpt>
      <trkpt lat="45.56281" lon="6.08006">
        <ele>1079.291015625</ele>
        <time>2010-10-07T09:00:42Z</time>
      </trkpt>
      <trkpt lat="45.56285" lon="6.08018">
        <ele>1080.4780273438</ele>
        <time>2010-10-07T09:00:48Z</time>
      </trkpt>
      <trkpt lat="45.5629" lon="6.08031">
        <ele>1082.8189697266</ele>
        <time>2010-10-07T09:00:54Z</time>
      </trkpt>
      <trkpt lat="45.56295" lon="6.08039">
        <ele>1083.6099853516</ele>
        <time>2010-10-07T09:00:58Z</time>
      </trkpt>
      <trkpt lat="45.56298" lon="6.08045">
        <ele>1083.7969970703</ele>
        <time>2010-10-07T09:01:02Z</time>
      </trkpt>
      <trkpt lat="45.56298" lon="6.08051">
        <ele>1083.3399658203</ele>
        <time>2010-10-07T09:01:05Z</time>
      </trkpt>
      <trkpt lat="45.56306" lon="6.08061">
        <ele>1083.7390136719</ele>
        <time>2010-10-07T09:01:12Z</time>
      </trkpt>
      <trkpt lat="45.56308" lon="6.08071">
        <ele>1085.4090576172</ele>
        <time>2010-10-07T09:01:19Z</time>
      </trkpt>
      <trkpt lat="45.56308" lon="6.08076">
        <ele>1087.1560058594</ele>
        <time>2010-10-07T09:01:24Z</time>
      </trkpt>
      <trkpt lat="45.5629" lon="6.08073">
        <ele>1088.9870605469</ele>
        <time>2010-10-07T09:02:34Z</time>
      </trkpt>
      <trkpt lat="45.5629" lon="6.08072">
        <ele>1089.4730224609</ele>
        <time>2010-10-07T09:02:46Z</time>
      </trkpt>
      <trkpt lat="45.56325" lon="6.08077">
        <ele>1090.4670410156</ele>
        <time>2010-10-07T09:04:11Z</time>
      </trkpt>
      <trkpt lat="45.5633" lon="6.0808">
        <ele>1090.3189697266</ele>
        <time>2010-10-07T09:04:19Z</time>
      </trkpt>
      <trkpt lat="45.56313" lon="6.08084">
        <ele>1092.0930175781</ele>
        <time>2010-10-07T09:06:37Z</time>
      </trkpt>
      <trkpt lat="45.56316" lon="6.08084">
        <ele>1092.1820068359</ele>
        <time>2010-10-07T09:06:44Z</time>
      </trkpt>
      <trkpt lat="45.56316" lon="6.08085">
        <ele>1092.6240234375</ele>
        <time>2010-10-07T09:07:53Z</time>
      </trkpt>
      <trkpt lat="45.56315" lon="6.08088">
        <ele>1093.5129394531</ele>
        <time>2010-10-07T09:07:57Z</time>
      </trkpt>
      <trkpt lat="45.56316" lon="6.08097">
        <ele>1095.5799560547</ele>
        <time>2010-10-07T09:08:08Z</time>
      </trkpt>
      <trkpt lat="45.56322" lon="6.08104">
        <ele>1097.2580566406</ele>
        <time>2010-10-07T09:08:18Z</time>
      </trkpt>
      <trkpt lat="45.56326" lon="6.08106">
        <ele>1097.4639892578</ele>
        <time>2010-10-07T09:08:22Z</time>
      </trkpt>
      <trkpt lat="45.56334" lon="6.0811">
        <ele>1097.9110107422</ele>
        <time>2010-10-07T09:08:26Z</time>
      </trkpt>
      <trkpt lat="45.5635" lon="6.08114">
        <ele>1099.1330566406</ele>
        <time>2010-10-07T09:08:33Z</time>
      </trkpt>
      <trkpt lat="45.56353" lon="6.08116">
        <ele>1100.6280517578</ele>
        <time>2010-10-07T09:08:37Z</time>
      </trkpt>
      <trkpt lat="45.56352" lon="6.08117">
        <ele>1100.6760253906</ele>
        <time>2010-10-07T09:08:39Z</time>
      </trkpt>
      <trkpt lat="45.56355" lon="6.08121">
        <ele>1101.8659667969</ele>
        <time>2010-10-07T09:08:45Z</time>
      </trkpt>
      <trkpt lat="45.56358" lon="6.08125">
        <ele>1103.7159423828</ele>
        <time>2010-10-07T09:08:54Z</time>
      </trkpt>
      <trkpt lat="45.56365" lon="6.0813">
        <ele>1104.3640136719</ele>
        <time>2010-10-07T09:08:59Z</time>
      </trkpt>
      <trkpt lat="45.56364" lon="6.08132">
        <ele>1105.3680419922</ele>
        <time>2010-10-07T09:09:04Z</time>
      </trkpt>
      <trkpt lat="45.56371" lon="6.08135">
        <ele>1106.0589599609</ele>
        <time>2010-10-07T09:09:09Z</time>
      </trkpt>
      <trkpt lat="45.56382" lon="6.08137">
        <ele>1106.8260498047</ele>
        <time>2010-10-07T09:09:19Z</time>
      </trkpt>
      <trkpt lat="45.56384" lon="6.08138">
        <ele>1107.4399414062</ele>
        <time>2010-10-07T09:09:22Z</time>
      </trkpt>
      <trkpt lat="45.56384" lon="6.0814">
        <ele>1108.7080078125</ele>
        <time>2010-10-07T09:09:27Z</time>
      </trkpt>
      <trkpt lat="45.56383" lon="6.08142">
        <ele>1109.7359619141</ele>
        <time>2010-10-07T09:09:32Z</time>
      </trkpt>
      <trkpt lat="45.56387" lon="6.08143">
        <ele>1111.248046875</ele>
        <time>2010-10-07T09:09:38Z</time>
      </trkpt>
      <trkpt lat="45.56387" lon="6.08144">
        <ele>1112.9530029297</ele>
        <time>2010-10-07T09:09:46Z</time>
      </trkpt>
      <trkpt lat="45.5639" lon="6.08143">
        <ele>1114.2099609375</ele>
        <time>2010-10-07T09:09:51Z</time>
      </trkpt>
      <trkpt lat="45.56392" lon="6.08141">
        <ele>1115.5450439453</ele>
        <time>2010-10-07T09:09:58Z</time>
      </trkpt>
      <trkpt lat="45.56395" lon="6.08141">
        <ele>1116.3969726562</ele>
        <time>2010-10-07T09:10:02Z</time>
      </trkpt>
      <trkpt lat="45.56403" lon="6.08138">
        <ele>1118.0789794922</ele>
        <time>2010-10-07T09:10:10Z</time>
      </trkpt>
      <trkpt lat="45.56405" lon="6.08138">
        <ele>1118.4360351562</ele>
        <time>2010-10-07T09:10:12Z</time>
      </trkpt>
      <trkpt lat="45.56413" lon="6.08136">
        <ele>1119.5899658203</ele>
        <time>2010-10-07T09:10:19Z</time>
      </trkpt>
      <trkpt lat="45.56421" lon="6.08132">
        <ele>1120.8959960938</ele>
        <time>2010-10-07T09:10:26Z</time>
      </trkpt>
      <trkpt lat="45.56427" lon="6.08132">
        <ele>1121.7879638672</ele>
        <time>2010-10-07T09:10:32Z</time>
      </trkpt>
      <trkpt lat="45.5643" lon="6.08132">
        <ele>1122.4460449219</ele>
        <time>2010-10-07T09:10:36Z</time>
      </trkpt>
      <trkpt lat="45.56437" lon="6.08132">
        <ele>1123.9139404297</ele>
        <time>2010-10-07T09:10:43Z</time>
      </trkpt>
      <trkpt lat="45.56442" lon="6.08134">
        <ele>1124.2790527344</ele>
        <time>2010-10-07T09:10:50Z</time>
      </trkpt>
      <trkpt lat="45.56448" lon="6.08138">
        <ele>1124.6560058594</ele>
        <time>2010-10-07T09:10:59Z</time>
      </trkpt>
      <trkpt lat="45.56451" lon="6.08144">
        <ele>1125.4460449219</ele>
        <time>2010-10-07T09:11:05Z</time>
      </trkpt>
      <trkpt lat="45.56448" lon="6.08148">
        <ele>1126.2679443359</ele>
        <time>2010-10-07T09:11:09Z</time>
      </trkpt>
      <trkpt lat="45.56445" lon="6.08155">
        <ele>1127.2280273438</ele>
        <time>2010-10-07T09:11:14Z</time>
      </trkpt>
      <trkpt lat="45.56445" lon="6.08156">
        <ele>1127.5030517578</ele>
        <time>2010-10-07T09:11:15Z</time>
      </trkpt>
      <trkpt lat="45.56441" lon="6.08166">
        <ele>1128.2359619141</ele>
        <time>2010-10-07T09:11:21Z</time>
      </trkpt>
      <trkpt lat="45.56438" lon="6.08178">
        <ele>1129.5579833984</ele>
        <time>2010-10-07T09:11:28Z</time>
      </trkpt>
      <trkpt lat="45.56432" lon="6.0819">
        <ele>1130.2469482422</ele>
        <time>2010-10-07T09:11:34Z</time>
      </trkpt>
      <trkpt lat="45.56427" lon="6.08195">
        <ele>1131.4709472656</ele>
        <time>2010-10-07T09:11:41Z</time>
      </trkpt>
      <trkpt lat="45.56427" lon="6.08196">
        <ele>1131.7370605469</ele>
        <time>2010-10-07T09:11:43Z</time>
      </trkpt>
      <trkpt lat="45.56425" lon="6.08208">
        <ele>1132.7869873047</ele>
        <time>2010-10-07T09:11:49Z</time>
      </trkpt>
      <trkpt lat="45.56429" lon="6.08212">
        <ele>1133.2259521484</ele>
        <time>2010-10-07T09:11:52Z</time>
      </trkpt>
      <trkpt lat="45.5644" lon="6.0821">
        <ele>1134.3389892578</ele>
        <time>2010-10-07T09:11:58Z</time>
      </trkpt>
      <trkpt lat="45.56448" lon="6.08204">
        <ele>1135.2969970703</ele>
        <time>2010-10-07T09:12:03Z</time>
      </trkpt>
      <trkpt lat="45.56452" lon="6.08202">
        <ele>1136.0350341797</ele>
        <time>2010-10-07T09:12:06Z</time>
      </trkpt>
      <trkpt lat="45.56457" lon="6.08196">
        <ele>1136.5930175781</ele>
        <time>2010-10-07T09:12:09Z</time>
      </trkpt>
      <trkpt lat="45.56466" lon="6.08188">
        <ele>1137.5340576172</ele>
        <time>2010-10-07T09:12:14Z</time>
      </trkpt>
      <trkpt lat="45.56479" lon="6.08171">
        <ele>1138.9749755859</ele>
        <time>2010-10-07T09:12:22Z</time>
      </trkpt>
      <trkpt lat="45.5648" lon="6.08168">
        <ele>1139.6929931641</ele>
        <time>2010-10-07T09:12:24Z</time>
      </trkpt>
      <trkpt lat="45.5648" lon="6.08159">
        <ele>1141.4969482422</ele>
        <time>2010-10-07T09:12:31Z</time>
      </trkpt>
      <trkpt lat="45.56477" lon="6.08152">
        <ele>1141.8349609375</ele>
        <time>2010-10-07T09:12:36Z</time>
      </trkpt>
      <trkpt lat="45.56475" lon="6.08149">
        <ele>1141.5660400391</ele>
        <time>2010-10-07T09:12:40Z</time>
      </trkpt>
      <trkpt lat="45.56468" lon="6.08139">
        <ele>1142.6140136719</ele>
        <time>2010-10-07T09:12:46Z</time>
      </trkpt>
      <trkpt lat="45.56461" lon="6.08129">
        <ele>1144.3330078125</ele>
        <time>2010-10-07T09:12:52Z</time>
      </trkpt>
      <trkpt lat="45.56459" lon="6.08127">
        <ele>1144.4890136719</ele>
        <time>2010-10-07T09:12:53Z</time>
      </trkpt>
      <trkpt lat="45.56452" lon="6.08115">
        <ele>1144.9100341797</ele>
        <time>2010-10-07T09:12:58Z</time>
      </trkpt>
      <trkpt lat="45.56447" lon="6.08105">
        <ele>1147.4930419922</ele>
        <time>2010-10-07T09:13:04Z</time>
      </trkpt>
      <trkpt lat="45.56445" lon="6.081">
        <ele>1147.8570556641</ele>
        <time>2010-10-07T09:13:07Z</time>
      </trkpt>
      <trkpt lat="45.56436" lon="6.08095">
        <ele>1147.4680175781</ele>
        <time>2010-10-07T09:13:12Z</time>
      </trkpt>
      <trkpt lat="45.56428" lon="6.08083">
        <ele>1148.4200439453</ele>
        <time>2010-10-07T09:13:19Z</time>
      </trkpt>
      <trkpt lat="45.56421" lon="6.08077">
        <ele>1149.1350097656</ele>
        <time>2010-10-07T09:13:23Z</time>
      </trkpt>
      <trkpt lat="45.56411" lon="6.08061">
        <ele>1150.6109619141</ele>
        <time>2010-10-07T09:13:31Z</time>
      </trkpt>
      <trkpt lat="45.56401" lon="6.08048">
        <ele>1151.2750244141</ele>
        <time>2010-10-07T09:13:39Z</time>
      </trkpt>
      <trkpt lat="45.56399" lon="6.08044">
        <ele>1151.5789794922</ele>
        <time>2010-10-07T09:13:43Z</time>
      </trkpt>
      <trkpt lat="45.56395" lon="6.08031">
        <ele>1152.3380126953</ele>
        <time>2010-10-07T09:13:50Z</time>
      </trkpt>
      <trkpt lat="45.56392" lon="6.08014">
        <ele>1153.6650390625</ele>
        <time>2010-10-07T09:13:57Z</time>
      </trkpt>
      <trkpt lat="45.56379" lon="6.07997">
        <ele>1154.7020263672</ele>
        <time>2010-10-07T09:14:06Z</time>
      </trkpt>
      <trkpt lat="45.56373" lon="6.0798">
        <ele>1156.1290283203</ele>
        <time>2010-10-07T09:14:13Z</time>
      </trkpt>
      <trkpt lat="45.56366" lon="6.07965">
        <ele>1157.4479980469</ele>
        <time>2010-10-07T09:14:20Z</time>
      </trkpt>
      <trkpt lat="45.56364" lon="6.07954">
        <ele>1157.9739990234</ele>
        <time>2010-10-07T09:14:24Z</time>
      </trkpt>
      <trkpt lat="45.5637" lon="6.0795">
        <ele>1158.9770507812</ele>
        <time>2010-10-07T09:14:29Z</time>
      </trkpt>
      <trkpt lat="45.56371" lon="6.07953">
        <ele>1159.291015625</ele>
        <time>2010-10-07T09:14:31Z</time>
      </trkpt>
      <trkpt lat="45.56378" lon="6.07972">
        <ele>1160.4000244141</ele>
        <time>2010-10-07T09:14:40Z</time>
      </trkpt>
      <trkpt lat="45.56387" lon="6.07984">
        <ele>1162.3249511719</ele>
        <time>2010-10-07T09:14:47Z</time>
      </trkpt>
      <trkpt lat="45.56397" lon="6.07996">
        <ele>1163.8000488281</ele>
        <time>2010-10-07T09:14:55Z</time>
      </trkpt>
      <trkpt lat="45.56404" lon="6.08008">
        <ele>1164.1180419922</ele>
        <time>2010-10-07T09:15:01Z</time>
      </trkpt>
      <trkpt lat="45.56415" lon="6.08024">
        <ele>1163.9100341797</ele>
        <time>2010-10-07T09:15:08Z</time>
      </trkpt>
      <trkpt lat="45.56424" lon="6.08037">
        <ele>1164.20703125</ele>
        <time>2010-10-07T09:15:14Z</time>
      </trkpt>
      <trkpt lat="45.56437" lon="6.08049">
        <ele>1165.2060546875</ele>
        <time>2010-10-07T09:15:21Z</time>
      </trkpt>
      <trkpt lat="45.56453" lon="6.08056">
        <ele>1166.0059814453</ele>
        <time>2010-10-07T09:15:28Z</time>
      </trkpt>
      <trkpt lat="45.5647" lon="6.08065">
        <ele>1167.8089599609</ele>
        <time>2010-10-07T09:15:36Z</time>
      </trkpt>
      <trkpt lat="45.56483" lon="6.0807">
        <ele>1168.8409423828</ele>
        <time>2010-10-07T09:15:42Z</time>
      </trkpt>
      <trkpt lat="45.56491" lon="6.08075">
        <ele>1169.4470214844</ele>
        <time>2010-10-07T09:15:46Z</time>
      </trkpt>
      <trkpt lat="45.56501" lon="6.0808">
        <ele>1170.9339599609</ele>
        <time>2010-10-07T09:15:52Z</time>
      </trkpt>
      <trkpt lat="45.56507" lon="6.08087">
        <ele>1171.66796875</ele>
        <time>2010-10-07T09:15:56Z</time>
      </trkpt>
      <trkpt lat="45.56518" lon="6.08096">
        <ele>1172.9520263672</ele>
        <time>2010-10-07T09:16:02Z</time>
      </trkpt>
      <trkpt lat="45.56528" lon="6.08106">
        <ele>1174.1960449219</ele>
        <time>2010-10-07T09:16:08Z</time>
      </trkpt>
      <trkpt lat="45.56529" lon="6.08107">
        <ele>1174.291015625</ele>
        <time>2010-10-07T09:16:09Z</time>
      </trkpt>
      <trkpt lat="45.56538" lon="6.08125">
        <ele>1175.8590087891</ele>
        <time>2010-10-07T09:16:17Z</time>
      </trkpt>
      <trkpt lat="45.56544" lon="6.08147">
        <ele>1177.54296875</ele>
        <time>2010-10-07T09:16:26Z</time>
      </trkpt>
      <trkpt lat="45.56546" lon="6.08168">
        <ele>1179.7459716797</ele>
        <time>2010-10-07T09:16:34Z</time>
      </trkpt>
      <trkpt lat="45.56549" lon="6.08184">
        <ele>1180.5489501953</ele>
        <time>2010-10-07T09:16:40Z</time>
      </trkpt>
      <trkpt lat="45.56545" lon="6.08197">
        <ele>1180.5360107422</ele>
        <time>2010-10-07T09:16:45Z</time>
      </trkpt>
      <trkpt lat="45.56543" lon="6.08207">
        <ele>1181.2290039062</ele>
        <time>2010-10-07T09:16:49Z</time>
      </trkpt>
      <trkpt lat="45.5654" lon="6.08222">
        <ele>1182.6550292969</ele>
        <time>2010-10-07T09:16:57Z</time>
      </trkpt>
      <trkpt lat="45.56539" lon="6.08225">
        <ele>1182.8239746094</ele>
        <time>2010-10-07T09:17:08Z</time>
      </trkpt>
      <trkpt lat="45.56541" lon="6.08238">
        <ele>1183.8680419922</ele>
        <time>2010-10-07T09:17:16Z</time>
      </trkpt>
      <trkpt lat="45.56542" lon="6.08244">
        <ele>1184.0059814453</ele>
        <time>2010-10-07T09:17:22Z</time>
      </trkpt>
      <trkpt lat="45.56541" lon="6.08248">
        <ele>1184.2810058594</ele>
        <time>2010-10-07T09:18:14Z</time>
      </trkpt>
      <trkpt lat="45.56544" lon="6.08253">
        <ele>1184.4219970703</ele>
        <time>2010-10-07T09:18:18Z</time>
      </trkpt>
      <trkpt lat="45.56559" lon="6.08275">
        <ele>1183.7449951172</ele>
        <time>2010-10-07T09:18:27Z</time>
      </trkpt>
      <trkpt lat="45.56573" lon="6.08293">
        <ele>1183.3719482422</ele>
        <time>2010-10-07T09:18:33Z</time>
      </trkpt>
      <trkpt lat="45.56582" lon="6.08309">
        <ele>1182.4639892578</ele>
        <time>2010-10-07T09:18:37Z</time>
      </trkpt>
      <trkpt lat="45.56596" lon="6.08328">
        <ele>1181.8489990234</ele>
        <time>2010-10-07T09:18:42Z</time>
      </trkpt>
      <trkpt lat="45.56609" lon="6.0834">
        <ele>1181.20703125</ele>
        <time>2010-10-07T09:18:45Z</time>
      </trkpt>
      <trkpt lat="45.56625" lon="6.08363">
        <ele>1180.3969726562</ele>
        <time>2010-10-07T09:18:51Z</time>
      </trkpt>
      <trkpt lat="45.56643" lon="6.08375">
        <ele>1179.7419433594</ele>
        <time>2010-10-07T09:18:55Z</time>
      </trkpt>
      <trkpt lat="45.56665" lon="6.08392">
        <ele>1178.2030029297</ele>
        <time>2010-10-07T09:19:00Z</time>
      </trkpt>
      <trkpt lat="45.56694" lon="6.08409">
        <ele>1176.9770507812</ele>
        <time>2010-10-07T09:19:06Z</time>
      </trkpt>
      <trkpt lat="45.56719" lon="6.08426">
        <ele>1176.1710205078</ele>
        <time>2010-10-07T09:19:11Z</time>
      </trkpt>
      <trkpt lat="45.56742" lon="6.08442">
        <ele>1174.8879394531</ele>
        <time>2010-10-07T09:19:16Z</time>
      </trkpt>
      <trkpt lat="45.5676" lon="6.08463">
        <ele>1173.4940185547</ele>
        <time>2010-10-07T09:19:22Z</time>
      </trkpt>
      <trkpt lat="45.56762" lon="6.08468">
        <ele>1173.2840576172</ele>
        <time>2010-10-07T09:19:23Z</time>
      </trkpt>
      <trkpt lat="45.56774" lon="6.08483">
        <ele>1172.6469726562</ele>
        <time>2010-10-07T09:19:26Z</time>
      </trkpt>
      <trkpt lat="45.56799" lon="6.08503">
        <ele>1171.2340087891</ele>
        <time>2010-10-07T09:19:31Z</time>
      </trkpt>
      <trkpt lat="45.56813" lon="6.08498">
        <ele>1170.7640380859</ele>
        <time>2010-10-07T09:19:36Z</time>
      </trkpt>
      <trkpt lat="45.56829" lon="6.08498">
        <ele>1169.6469726562</ele>
        <time>2010-10-07T09:19:41Z</time>
      </trkpt>
      <trkpt lat="45.56845" lon="6.0851">
        <ele>1168.3649902344</ele>
        <time>2010-10-07T09:19:45Z</time>
      </trkpt>
      <trkpt lat="45.56848" lon="6.08513">
        <ele>1168.1090087891</ele>
        <time>2010-10-07T09:19:46Z</time>
      </trkpt>
      <trkpt lat="45.5687" lon="6.08513">
        <ele>1167.6590576172</ele>
        <time>2010-10-07T09:19:51Z</time>
      </trkpt>
      <trkpt lat="45.56878" lon="6.08511">
        <ele>1167.3389892578</ele>
        <time>2010-10-07T09:19:53Z</time>
      </trkpt>
      <trkpt lat="45.5691" lon="6.08499">
        <ele>1166.751953125</ele>
        <time>2010-10-07T09:19:58Z</time>
      </trkpt>
      <trkpt lat="45.5692" lon="6.08496">
        <ele>1166.7469482422</ele>
        <time>2010-10-07T09:19:59Z</time>
      </trkpt>
      <trkpt lat="45.5696" lon="6.08467">
        <ele>1166.2060546875</ele>
        <time>2010-10-07T09:20:05Z</time>
      </trkpt>
      <trkpt lat="45.56992" lon="6.08461">
        <ele>1165.5610351562</ele>
        <time>2010-10-07T09:20:10Z</time>
      </trkpt>
      <trkpt lat="45.57016" lon="6.08463">
        <ele>1165.4739990234</ele>
        <time>2010-10-07T09:20:14Z</time>
      </trkpt>
      <trkpt lat="45.57029" lon="6.08464">
        <ele>1165.4620361328</ele>
        <time>2010-10-07T09:20:16Z</time>
      </trkpt>
      <trkpt lat="45.57061" lon="6.08472">
        <ele>1165.4799804688</ele>
        <time>2010-10-07T09:20:23Z</time>
      </trkpt>
      <trkpt lat="45.57068" lon="6.08477">
        <ele>1165.3599853516</ele>
        <time>2010-10-07T09:20:27Z</time>
      </trkpt>
      <trkpt lat="45.57081" lon="6.08489">
        <ele>1164.8299560547</ele>
        <time>2010-10-07T09:20:32Z</time>
      </trkpt>
      <trkpt lat="45.57096" lon="6.08504">
        <ele>1163.8100585938</ele>
        <time>2010-10-07T09:20:36Z</time>
      </trkpt>
      <trkpt lat="45.57109" lon="6.08528">
        <ele>1162.3940429688</ele>
        <time>2010-10-07T09:20:40Z</time>
      </trkpt>
      <trkpt lat="45.57114" lon="6.08541">
        <ele>1161.7230224609</ele>
        <time>2010-10-07T09:20:42Z</time>
      </trkpt>
      <trkpt lat="45.57116" lon="6.08576">
        <ele>1160.1070556641</ele>
        <time>2010-10-07T09:20:46Z</time>
      </trkpt>
      <trkpt lat="45.57119" lon="6.08602">
        <ele>1158.8060302734</ele>
        <time>2010-10-07T09:20:49Z</time>
      </trkpt>
      <trkpt lat="45.57121" lon="6.08628">
        <ele>1157.7609863281</ele>
        <time>2010-10-07T09:20:52Z</time>
      </trkpt>
      <trkpt lat="45.5713" lon="6.08677">
        <ele>1156.1760253906</ele>
        <time>2010-10-07T09:20:58Z</time>
      </trkpt>
      <trkpt lat="45.57133" lon="6.08713">
        <ele>1154.5539550781</ele>
        <time>2010-10-07T09:21:02Z</time>
      </trkpt>
      <trkpt lat="45.57119" lon="6.08741">
        <ele>1152.79296875</ele>
        <time>2010-10-07T09:21:06Z</time>
      </trkpt>
      <trkpt lat="45.57111" lon="6.08769">
        <ele>1151.2819824219</ele>
        <time>2010-10-07T09:21:09Z</time>
      </trkpt>
      <trkpt lat="45.57111" lon="6.08805">
        <ele>1149.1209716797</ele>
        <time>2010-10-07T09:21:14Z</time>
      </trkpt>
      <trkpt lat="45.57113" lon="6.08811">
        <ele>1148.8000488281</ele>
        <time>2010-10-07T09:21:15Z</time>
      </trkpt>
      <trkpt lat="45.57117" lon="6.08828">
        <ele>1148</ele>
        <time>2010-10-07T09:21:17Z</time>
      </trkpt>
      <trkpt lat="45.57132" lon="6.08869">
        <ele>1145.6929931641</ele>
        <time>2010-10-07T09:21:21Z</time>
      </trkpt>
      <trkpt lat="45.57151" lon="6.08896">
        <ele>1143.708984375</ele>
        <time>2010-10-07T09:21:25Z</time>
      </trkpt>
      <trkpt lat="45.57171" lon="6.08895">
        <ele>1142.5550537109</ele>
        <time>2010-10-07T09:21:28Z</time>
      </trkpt>
      <trkpt lat="45.57199" lon="6.089">
        <ele>1140.3950195312</ele>
        <time>2010-10-07T09:21:32Z</time>
      </trkpt>
      <trkpt lat="45.57233" lon="6.08934">
        <ele>1141.9799804688</ele>
        <time>2010-10-07T09:21:37Z</time>
      </trkpt>
      <trkpt lat="45.57249" lon="6.08953">
        <ele>1143.9930419922</ele>
        <time>2010-10-07T09:21:41Z</time>
      </trkpt>
      <trkpt lat="45.57263" lon="6.08966">
        <ele>1145.1989746094</ele>
        <time>2010-10-07T09:21:45Z</time>
      </trkpt>
      <trkpt lat="45.57264" lon="6.08984">
        <ele>1146.7330322266</ele>
        <time>2010-10-07T09:21:50Z</time>
      </trkpt>
      <trkpt lat="45.57265" lon="6.08986">
        <ele>1146.9580078125</ele>
        <time>2010-10-07T09:21:51Z</time>
      </trkpt>
      <trkpt lat="45.5727" lon="6.09007">
        <ele>1148.3900146484</ele>
        <time>2010-10-07T09:21:58Z</time>
      </trkpt>
      <trkpt lat="45.57275" lon="6.0902">
        <ele>1149.5240478516</ele>
        <time>2010-10-07T09:22:03Z</time>
      </trkpt>
      <trkpt lat="45.5728" lon="6.09032">
        <ele>1150.6619873047</ele>
        <time>2010-10-07T09:22:08Z</time>
      </trkpt>
      <trkpt lat="45.57294" lon="6.09056">
        <ele>1152.6359863281</ele>
        <time>2010-10-07T09:22:17Z</time>
      </trkpt>
      <trkpt lat="45.57308" lon="6.09071">
        <ele>1154.2330322266</ele>
        <time>2010-10-07T09:22:23Z</time>
      </trkpt>
      <trkpt lat="45.5731" lon="6.09085">
        <ele>1154.9930419922</ele>
        <time>2010-10-07T09:22:27Z</time>
      </trkpt>
      <trkpt lat="45.57319" lon="6.09111">
        <ele>1156.8540039062</ele>
        <time>2010-10-07T09:22:35Z</time>
      </trkpt>
      <trkpt lat="45.57327" lon="6.09129">
        <ele>1158.4510498047</ele>
        <time>2010-10-07T09:22:41Z</time>
      </trkpt>
      <trkpt lat="45.57328" lon="6.09146">
        <ele>1159.6459960938</ele>
        <time>2010-10-07T09:22:46Z</time>
      </trkpt>
      <trkpt lat="45.57333" lon="6.09171">
        <ele>1161.4479980469</ele>
        <time>2010-10-07T09:22:54Z</time>
      </trkpt>
      <trkpt lat="45.57329" lon="6.09191">
        <ele>1162.9680175781</ele>
        <time>2010-10-07T09:23:01Z</time>
      </trkpt>
      <trkpt lat="45.57315" lon="6.0921">
        <ele>1163.9959716797</ele>
        <time>2010-10-07T09:23:09Z</time>
      </trkpt>
      <trkpt lat="45.57293" lon="6.09229">
        <ele>1165.6750488281</ele>
        <time>2010-10-07T09:23:19Z</time>
      </trkpt>
      <trkpt lat="45.57271" lon="6.09244">
        <ele>1167.2459716797</ele>
        <time>2010-10-07T09:23:29Z</time>
      </trkpt>
      <trkpt lat="45.57256" lon="6.09255">
        <ele>1168.3969726562</ele>
        <time>2010-10-07T09:23:36Z</time>
      </trkpt>
      <trkpt lat="45.57238" lon="6.09266">
        <ele>1170.0760498047</ele>
        <time>2010-10-07T09:23:44Z</time>
      </trkpt>
      <trkpt lat="45.57223" lon="6.09279">
        <ele>1171.3680419922</ele>
        <time>2010-10-07T09:23:51Z</time>
      </trkpt>
      <trkpt lat="45.57209" lon="6.09295">
        <ele>1173.1669921875</ele>
        <time>2010-10-07T09:23:59Z</time>
      </trkpt>
      <trkpt lat="45.57199" lon="6.09307">
        <ele>1174.0620117188</ele>
        <time>2010-10-07T09:24:04Z</time>
      </trkpt>
      <trkpt lat="45.57194" lon="6.09324">
        <ele>1175.0729980469</ele>
        <time>2010-10-07T09:24:09Z</time>
      </trkpt>
      <trkpt lat="45.57197" lon="6.09345">
        <ele>1175.373046875</ele>
        <time>2010-10-07T09:24:15Z</time>
      </trkpt>
      <trkpt lat="45.57209" lon="6.09366">
        <ele>1176.8499755859</ele>
        <time>2010-10-07T09:24:22Z</time>
      </trkpt>
      <trkpt lat="45.57215" lon="6.09382">
        <ele>1177.5699462891</ele>
        <time>2010-10-07T09:24:27Z</time>
      </trkpt>
      <trkpt lat="45.57217" lon="6.09403">
        <ele>1178.333984375</ele>
        <time>2010-10-07T09:24:33Z</time>
      </trkpt>
      <trkpt lat="45.57224" lon="6.09412">
        <ele>1178.9880371094</ele>
        <time>2010-10-07T09:24:36Z</time>
      </trkpt>
      <trkpt lat="45.57233" lon="6.09437">
        <ele>1180.0889892578</ele>
        <time>2010-10-07T09:24:43Z</time>
      </trkpt>
      <trkpt lat="45.57246" lon="6.09467">
        <ele>1181.2220458984</ele>
        <time>2010-10-07T09:24:51Z</time>
      </trkpt>
      <trkpt lat="45.57254" lon="6.0951">
        <ele>1181.5760498047</ele>
        <time>2010-10-07T09:25:01Z</time>
      </trkpt>
      <trkpt lat="45.57267" lon="6.09526">
        <ele>1181.6369628906</ele>
        <time>2010-10-07T09:25:06Z</time>
      </trkpt>
      <trkpt lat="45.5727" lon="6.09526">
        <ele>1181.7760009766</ele>
        <time>2010-10-07T09:25:07Z</time>
      </trkpt>
      <trkpt lat="45.57286" lon="6.0952">
        <ele>1181.7790527344</ele>
        <time>2010-10-07T09:25:12Z</time>
      </trkpt>
      <trkpt lat="45.57312" lon="6.09508">
        <ele>1182.0179443359</ele>
        <time>2010-10-07T09:25:18Z</time>
      </trkpt>
      <trkpt lat="45.57337" lon="6.09501">
        <ele>1182.2459716797</ele>
        <time>2010-10-07T09:25:24Z</time>
      </trkpt>
      <trkpt lat="45.57357" lon="6.09493">
        <ele>1182.3100585938</ele>
        <time>2010-10-07T09:25:28Z</time>
      </trkpt>
      <trkpt lat="45.5738" lon="6.09482">
        <ele>1182.3640136719</ele>
        <time>2010-10-07T09:25:33Z</time>
      </trkpt>
      <trkpt lat="45.57396" lon="6.09483">
        <ele>1182.5150146484</ele>
        <time>2010-10-07T09:25:38Z</time>
      </trkpt>
      <trkpt lat="45.57415" lon="6.09497">
        <ele>1182.1500244141</ele>
        <time>2010-10-07T09:25:42Z</time>
      </trkpt>
      <trkpt lat="45.5742" lon="6.09501">
        <ele>1182.1040039062</ele>
        <time>2010-10-07T09:25:43Z</time>
      </trkpt>
      <trkpt lat="45.57435" lon="6.09516">
        <ele>1182.2159423828</ele>
        <time>2010-10-07T09:25:48Z</time>
      </trkpt>
      <trkpt lat="45.57483" lon="6.09475">
        <ele>1182.7259521484</ele>
        <time>2010-10-07T09:26:01Z</time>
      </trkpt>
      <trkpt lat="45.575" lon="6.09473">
        <ele>1182.7779541016</ele>
        <time>2010-10-07T09:26:06Z</time>
      </trkpt>
      <trkpt lat="45.57515" lon="6.09468">
        <ele>1182.7130126953</ele>
        <time>2010-10-07T09:26:12Z</time>
      </trkpt>
      <trkpt lat="45.57529" lon="6.0945">
        <ele>1182.5489501953</ele>
        <time>2010-10-07T09:26:16Z</time>
      </trkpt>
      <trkpt lat="45.57551" lon="6.09421">
        <ele>1182.6169433594</ele>
        <time>2010-10-07T09:26:23Z</time>
      </trkpt>
      <trkpt lat="45.5757" lon="6.09406">
        <ele>1182.5710449219</ele>
        <time>2010-10-07T09:26:29Z</time>
      </trkpt>
      <trkpt lat="45.57584" lon="6.09396">
        <ele>1182.8470458984</ele>
        <time>2010-10-07T09:26:33Z</time>
      </trkpt>
      <trkpt lat="45.57604" lon="6.09385">
        <ele>1183.2709960938</ele>
        <time>2010-10-07T09:26:38Z</time>
      </trkpt>
      <trkpt lat="45.57623" lon="6.09379">
        <ele>1183.2419433594</ele>
        <time>2010-10-07T09:26:43Z</time>
      </trkpt>
      <trkpt lat="45.57647" lon="6.09372">
        <ele>1183.0209960938</ele>
        <time>2010-10-07T09:26:49Z</time>
      </trkpt>
      <trkpt lat="45.57676" lon="6.09362">
        <ele>1183.2840576172</ele>
        <time>2010-10-07T09:26:55Z</time>
      </trkpt>
      <trkpt lat="45.57705" lon="6.09352">
        <ele>1183.2390136719</ele>
        <time>2010-10-07T09:27:01Z</time>
      </trkpt>
      <trkpt lat="45.57721" lon="6.09343">
        <ele>1183.2180175781</ele>
        <time>2010-10-07T09:27:05Z</time>
      </trkpt>
      <trkpt lat="45.57742" lon="6.09331">
        <ele>1183.3680419922</ele>
        <time>2010-10-07T09:27:10Z</time>
      </trkpt>
      <trkpt lat="45.57759" lon="6.09323">
        <ele>1183.2979736328</ele>
        <time>2010-10-07T09:27:15Z</time>
      </trkpt>
      <trkpt lat="45.57779" lon="6.09323">
        <ele>1183.1159667969</ele>
        <time>2010-10-07T09:27:20Z</time>
      </trkpt>
      <trkpt lat="45.57792" lon="6.09331">
        <ele>1182.9460449219</ele>
        <time>2010-10-07T09:27:23Z</time>
      </trkpt>
      <trkpt lat="45.57801" lon="6.0934">
        <ele>1183.0959472656</ele>
        <time>2010-10-07T09:27:25Z</time>
      </trkpt>
      <trkpt lat="45.57829" lon="6.09376">
        <ele>1182.8530273438</ele>
        <time>2010-10-07T09:27:32Z</time>
      </trkpt>
      <trkpt lat="45.57843" lon="6.09399">
        <ele>1183.0279541016</ele>
        <time>2010-10-07T09:27:37Z</time>
      </trkpt>
      <trkpt lat="45.57851" lon="6.09422">
        <ele>1182.9250488281</ele>
        <time>2010-10-07T09:27:42Z</time>
      </trkpt>
      <trkpt lat="45.57853" lon="6.09426">
        <ele>1182.9270019531</ele>
        <time>2010-10-07T09:27:43Z</time>
      </trkpt>
      <trkpt lat="45.57863" lon="6.0945">
        <ele>1183.2020263672</ele>
        <time>2010-10-07T09:27:48Z</time>
      </trkpt>
      <trkpt lat="45.57877" lon="6.09468">
        <ele>1183.1820068359</ele>
        <time>2010-10-07T09:27:51Z</time>
      </trkpt>
      <trkpt lat="45.57886" lon="6.09497">
        <ele>1183.1369628906</ele>
        <time>2010-10-07T09:27:55Z</time>
      </trkpt>
      <trkpt lat="45.57882" lon="6.09539">
        <ele>1183.4219970703</ele>
        <time>2010-10-07T09:28:01Z</time>
      </trkpt>
      <trkpt lat="45.57875" lon="6.09559">
        <ele>1183.2340087891</ele>
        <time>2010-10-07T09:28:04Z</time>
      </trkpt>
      <trkpt lat="45.5787" lon="6.09586">
        <ele>1183.2049560547</ele>
        <time>2010-10-07T09:28:08Z</time>
      </trkpt>
      <trkpt lat="45.57876" lon="6.0962">
        <ele>1183.2390136719</ele>
        <time>2010-10-07T09:28:13Z</time>
      </trkpt>
      <trkpt lat="45.57883" lon="6.09648">
        <ele>1183.1949462891</ele>
        <time>2010-10-07T09:28:17Z</time>
      </trkpt>
      <trkpt lat="45.57887" lon="6.09683">
        <ele>1183.5389404297</ele>
        <time>2010-10-07T09:28:22Z</time>
      </trkpt>
      <trkpt lat="45.57902" lon="6.09696">
        <ele>1183.2979736328</ele>
        <time>2010-10-07T09:28:26Z</time>
      </trkpt>
      <trkpt lat="45.57907" lon="6.09695">
        <ele>1183.4830322266</ele>
        <time>2010-10-07T09:28:27Z</time>
      </trkpt>
      <trkpt lat="45.57932" lon="6.09691">
        <ele>1183.7349853516</ele>
        <time>2010-10-07T09:28:32Z</time>
      </trkpt>
      <trkpt lat="45.57963" lon="6.09698">
        <ele>1183.4580078125</ele>
        <time>2010-10-07T09:28:37Z</time>
      </trkpt>
      <trkpt lat="45.57989" lon="6.09708">
        <ele>1183.7939453125</ele>
        <time>2010-10-07T09:28:42Z</time>
      </trkpt>
      <trkpt lat="45.57999" lon="6.09714">
        <ele>1183.9859619141</ele>
        <time>2010-10-07T09:28:45Z</time>
      </trkpt>
      <trkpt lat="45.58011" lon="6.09725">
        <ele>1184.3940429688</ele>
        <time>2010-10-07T09:28:50Z</time>
      </trkpt>
      <trkpt lat="45.58014" lon="6.09728">
        <ele>1184.4200439453</ele>
        <time>2010-10-07T09:28:51Z</time>
      </trkpt>
      <trkpt lat="45.58037" lon="6.09734">
        <ele>1184.5959472656</ele>
        <time>2010-10-07T09:28:56Z</time>
      </trkpt>
      <trkpt lat="45.58042" lon="6.09734">
        <ele>1184.5789794922</ele>
        <time>2010-10-07T09:28:57Z</time>
      </trkpt>
      <trkpt lat="45.5806" lon="6.09727">
        <ele>1184.4229736328</ele>
        <time>2010-10-07T09:29:00Z</time>
      </trkpt>
      <trkpt lat="45.58091" lon="6.09732">
        <ele>1184.0660400391</ele>
        <time>2010-10-07T09:29:05Z</time>
      </trkpt>
      <trkpt lat="45.58131" lon="6.09764">
        <ele>1184.2010498047</ele>
        <time>2010-10-07T09:29:12Z</time>
      </trkpt>
      <trkpt lat="45.58139" lon="6.09785">
        <ele>1184.3220214844</ele>
        <time>2010-10-07T09:29:16Z</time>
      </trkpt>
      <trkpt lat="45.58152" lon="6.09797">
        <ele>1184.8599853516</ele>
        <time>2010-10-07T09:29:20Z</time>
      </trkpt>
      <trkpt lat="45.5816" lon="6.09801">
        <ele>1186.1579589844</ele>
        <time>2010-10-07T09:29:23Z</time>
      </trkpt>
      <trkpt lat="45.58167" lon="6.09813">
        <ele>1187.8129882812</ele>
        <time>2010-10-07T09:29:30Z</time>
      </trkpt>
      <trkpt lat="45.58171" lon="6.09825">
        <ele>1188.4370117188</ele>
        <time>2010-10-07T09:29:35Z</time>
      </trkpt>
      <trkpt lat="45.58176" lon="6.09844">
        <ele>1190.2099609375</ele>
        <time>2010-10-07T09:29:42Z</time>
      </trkpt>
      <trkpt lat="45.5818" lon="6.09861">
        <ele>1191.6500244141</ele>
        <time>2010-10-07T09:29:48Z</time>
      </trkpt>
      <trkpt lat="45.58184" lon="6.09879">
        <ele>1192.9689941406</ele>
        <time>2010-10-07T09:29:54Z</time>
      </trkpt>
      <trkpt lat="45.58188" lon="6.09894">
        <ele>1194.2969970703</ele>
        <time>2010-10-07T09:30:00Z</time>
      </trkpt>
      <trkpt lat="45.58189" lon="6.09896">
        <ele>1194.5909423828</ele>
        <time>2010-10-07T09:30:01Z</time>
      </trkpt>
      <trkpt lat="45.58193" lon="6.09905">
        <ele>1195.5710449219</ele>
        <time>2010-10-07T09:30:05Z</time>
      </trkpt>
      <trkpt lat="45.58197" lon="6.09914">
        <ele>1196.6949462891</ele>
        <time>2010-10-07T09:30:10Z</time>
      </trkpt>
      <trkpt lat="45.58203" lon="6.09923">
        <ele>1197.7170410156</ele>
        <time>2010-10-07T09:30:14Z</time>
      </trkpt>
      <trkpt lat="45.5821" lon="6.09933">
        <ele>1199.2790527344</ele>
        <time>2010-10-07T09:30:20Z</time>
      </trkpt>
      <trkpt lat="45.58219" lon="6.09937">
        <ele>1200.0970458984</ele>
        <time>2010-10-07T09:30:25Z</time>
      </trkpt>
      <trkpt lat="45.58227" lon="6.09937">
        <ele>1200.8890380859</ele>
        <time>2010-10-07T09:30:29Z</time>
      </trkpt>
      <trkpt lat="45.58241" lon="6.09936">
        <ele>1202.6479492188</ele>
        <time>2010-10-07T09:30:38Z</time>
      </trkpt>
      <trkpt lat="45.58243" lon="6.09937">
        <ele>1203.0140380859</ele>
        <time>2010-10-07T09:30:40Z</time>
      </trkpt>
      <trkpt lat="45.5825" lon="6.09938">
        <ele>1203.7049560547</ele>
        <time>2010-10-07T09:30:43Z</time>
      </trkpt>
      <trkpt lat="45.5826" lon="6.09947">
        <ele>1204.9210205078</ele>
        <time>2010-10-07T09:30:49Z</time>
      </trkpt>
      <trkpt lat="45.58268" lon="6.09962">
        <ele>1206.6130371094</ele>
        <time>2010-10-07T09:30:57Z</time>
      </trkpt>
      <trkpt lat="45.5827" lon="6.09974">
        <ele>1207.4820556641</ele>
        <time>2010-10-07T09:31:02Z</time>
      </trkpt>
      <trkpt lat="45.58276" lon="6.09988">
        <ele>1208.998046875</ele>
        <time>2010-10-07T09:31:09Z</time>
      </trkpt>
      <trkpt lat="45.58278" lon="6.0999">
        <ele>1209.2740478516</ele>
        <time>2010-10-07T09:31:10Z</time>
      </trkpt>
      <trkpt lat="45.5828" lon="6.09994">
        <ele>1209.5899658203</ele>
        <time>2010-10-07T09:31:12Z</time>
      </trkpt>
      <trkpt lat="45.58286" lon="6.10005">
        <ele>1211.5729980469</ele>
        <time>2010-10-07T09:31:18Z</time>
      </trkpt>
      <trkpt lat="45.58289" lon="6.1001">
        <ele>1212.2509765625</ele>
        <time>2010-10-07T09:31:21Z</time>
      </trkpt>
      <trkpt lat="45.58294" lon="6.10017">
        <ele>1213.6529541016</ele>
        <time>2010-10-07T09:31:25Z</time>
      </trkpt>
      <trkpt lat="45.58302" lon="6.10031">
        <ele>1215.5460205078</ele>
        <time>2010-10-07T09:31:32Z</time>
      </trkpt>
      <trkpt lat="45.58309" lon="6.1005">
        <ele>1217.791015625</ele>
        <time>2010-10-07T09:31:40Z</time>
      </trkpt>
      <trkpt lat="45.58312" lon="6.10065">
        <ele>1219.251953125</ele>
        <time>2010-10-07T09:31:47Z</time>
      </trkpt>
      <trkpt lat="45.58315" lon="6.10077">
        <ele>1220.1319580078</ele>
        <time>2010-10-07T09:31:53Z</time>
      </trkpt>
      <trkpt lat="45.58315" lon="6.10084">
        <ele>1220.6120605469</ele>
        <time>2010-10-07T09:31:56Z</time>
      </trkpt>
      <trkpt lat="45.58319" lon="6.10097">
        <ele>1222.1579589844</ele>
        <time>2010-10-07T09:32:03Z</time>
      </trkpt>
      <trkpt lat="45.58321" lon="6.10099">
        <ele>1222.2800292969</ele>
        <time>2010-10-07T09:32:04Z</time>
      </trkpt>
      <trkpt lat="45.58326" lon="6.10104">
        <ele>1223.1300048828</ele>
        <time>2010-10-07T09:32:08Z</time>
      </trkpt>
      <trkpt lat="45.58334" lon="6.10104">
        <ele>1225.0310058594</ele>
        <time>2010-10-07T09:32:17Z</time>
      </trkpt>
      <trkpt lat="45.58338" lon="6.10102">
        <ele>1225.3530273438</ele>
        <time>2010-10-07T09:32:20Z</time>
      </trkpt>
      <trkpt lat="45.58345" lon="6.10101">
        <ele>1226.3039550781</ele>
        <time>2010-10-07T09:32:27Z</time>
      </trkpt>
      <trkpt lat="45.58352" lon="6.10108">
        <ele>1227.0190429688</ele>
        <time>2010-10-07T09:32:33Z</time>
      </trkpt>
      <trkpt lat="45.58355" lon="6.10113">
        <ele>1227.3919677734</ele>
        <time>2010-10-07T09:32:36Z</time>
      </trkpt>
      <trkpt lat="45.58361" lon="6.10121">
        <ele>1227.623046875</ele>
        <time>2010-10-07T09:32:41Z</time>
      </trkpt>
      <trkpt lat="45.58368" lon="6.1013">
        <ele>1228.5920410156</ele>
        <time>2010-10-07T09:32:47Z</time>
      </trkpt>
      <trkpt lat="45.58378" lon="6.1014">
        <ele>1230.3649902344</ele>
        <time>2010-10-07T09:32:55Z</time>
      </trkpt>
      <trkpt lat="45.58387" lon="6.10147">
        <ele>1231.5909423828</ele>
        <time>2010-10-07T09:33:02Z</time>
      </trkpt>
      <trkpt lat="45.58397" lon="6.1016">
        <ele>1233.2750244141</ele>
        <time>2010-10-07T09:33:10Z</time>
      </trkpt>
      <trkpt lat="45.58403" lon="6.10178">
        <ele>1234.8520507812</ele>
        <time>2010-10-07T09:33:18Z</time>
      </trkpt>
      <trkpt lat="45.58408" lon="6.1019">
        <ele>1235.4210205078</ele>
        <time>2010-10-07T09:33:23Z</time>
      </trkpt>
      <trkpt lat="45.5841" lon="6.10199">
        <ele>1235.9830322266</ele>
        <time>2010-10-07T09:33:27Z</time>
      </trkpt>
      <trkpt lat="45.58417" lon="6.10212">
        <ele>1237.1979980469</ele>
        <time>2010-10-07T09:33:34Z</time>
      </trkpt>
      <trkpt lat="45.58422" lon="6.10223">
        <ele>1237.7919921875</ele>
        <time>2010-10-07T09:33:39Z</time>
      </trkpt>
      <trkpt lat="45.58424" lon="6.10226">
        <ele>1237.9659423828</ele>
        <time>2010-10-07T09:33:41Z</time>
      </trkpt>
      <trkpt lat="45.58429" lon="6.10238">
        <ele>1238.8869628906</ele>
        <time>2010-10-07T09:33:48Z</time>
      </trkpt>
      <trkpt lat="45.5844" lon="6.10251">
        <ele>1239.9880371094</ele>
        <time>2010-10-07T09:33:56Z</time>
      </trkpt>
      <trkpt lat="45.58448" lon="6.10263">
        <ele>1241.2330322266</ele>
        <time>2010-10-07T09:34:02Z</time>
      </trkpt>
      <trkpt lat="45.58451" lon="6.10277">
        <ele>1242.5040283203</ele>
        <time>2010-10-07T09:34:08Z</time>
      </trkpt>
      <trkpt lat="45.58452" lon="6.10279">
        <ele>1242.7430419922</ele>
        <time>2010-10-07T09:34:09Z</time>
      </trkpt>
      <trkpt lat="45.58443" lon="6.1028">
        <ele>1244.0360107422</ele>
        <time>2010-10-07T09:34:16Z</time>
      </trkpt>
      <trkpt lat="45.5844" lon="6.10275">
        <ele>1244.3890380859</ele>
        <time>2010-10-07T09:34:19Z</time>
      </trkpt>
      <trkpt lat="45.58426" lon="6.10266">
        <ele>1245.3260498047</ele>
        <time>2010-10-07T09:34:27Z</time>
      </trkpt>
      <trkpt lat="45.58414" lon="6.10256">
        <ele>1246.5489501953</ele>
        <time>2010-10-07T09:34:36Z</time>
      </trkpt>
      <trkpt lat="45.58408" lon="6.10252">
        <ele>1246.9289550781</ele>
        <time>2010-10-07T09:34:41Z</time>
      </trkpt>
      <trkpt lat="45.584" lon="6.10248">
        <ele>1247.8800048828</ele>
        <time>2010-10-07T09:34:47Z</time>
      </trkpt>
      <trkpt lat="45.58391" lon="6.10247">
        <ele>1248.5350341797</ele>
        <time>2010-10-07T09:34:52Z</time>
      </trkpt>
      <trkpt lat="45.58372" lon="6.10248">
        <ele>1250.1290283203</ele>
        <time>2010-10-07T09:35:01Z</time>
      </trkpt>
      <trkpt lat="45.58351" lon="6.10253">
        <ele>1251.8780517578</ele>
        <time>2010-10-07T09:35:11Z</time>
      </trkpt>
      <trkpt lat="45.5833" lon="6.10252">
        <ele>1253.7879638672</ele>
        <time>2010-10-07T09:35:21Z</time>
      </trkpt>
      <trkpt lat="45.58314" lon="6.10246">
        <ele>1255.2110595703</ele>
        <time>2010-10-07T09:35:29Z</time>
      </trkpt>
      <trkpt lat="45.58295" lon="6.10237">
        <ele>1256.7270507812</ele>
        <time>2010-10-07T09:35:39Z</time>
      </trkpt>
      <trkpt lat="45.58285" lon="6.10233">
        <ele>1257.8060302734</ele>
        <time>2010-10-07T09:35:45Z</time>
      </trkpt>
      <trkpt lat="45.58282" lon="6.1024">
        <ele>1257.998046875</ele>
        <time>2010-10-07T09:35:51Z</time>
      </trkpt>
      <trkpt lat="45.58284" lon="6.10242">
        <ele>1258.0419921875</ele>
        <time>2010-10-07T09:35:53Z</time>
      </trkpt>
      <trkpt lat="45.58287" lon="6.10243">
        <ele>1258.4780273438</ele>
        <time>2010-10-07T09:35:59Z</time>
      </trkpt>
      <trkpt lat="45.58289" lon="6.10244">
        <ele>1258.5939941406</ele>
        <time>2010-10-07T09:36:15Z</time>
      </trkpt>
      <trkpt lat="45.58289" lon="6.10245">
        <ele>1258.6529541016</ele>
        <time>2010-10-07T09:36:17Z</time>
      </trkpt>
      <trkpt lat="45.58297" lon="6.10253">
        <ele>1259.2729492188</ele>
        <time>2010-10-07T09:36:24Z</time>
      </trkpt>
      <trkpt lat="45.58299" lon="6.10255">
        <ele>1259.291015625</ele>
        <time>2010-10-07T09:36:25Z</time>
      </trkpt>
      <trkpt lat="45.58305" lon="6.10264">
        <ele>1259.8489990234</ele>
        <time>2010-10-07T09:36:30Z</time>
      </trkpt>
      <trkpt lat="45.58311" lon="6.10274">
        <ele>1261.3060302734</ele>
        <time>2010-10-07T09:36:35Z</time>
      </trkpt>
      <trkpt lat="45.58321" lon="6.10285">
        <ele>1263.5970458984</ele>
        <time>2010-10-07T09:36:43Z</time>
      </trkpt>
      <trkpt lat="45.58324" lon="6.10289">
        <ele>1264.4029541016</ele>
        <time>2010-10-07T09:36:46Z</time>
      </trkpt>
      <trkpt lat="45.5833" lon="6.10296">
        <ele>1266.4680175781</ele>
        <time>2010-10-07T09:36:54Z</time>
      </trkpt>
      <trkpt lat="45.58333" lon="6.103">
        <ele>1267.1939697266</ele>
        <time>2010-10-07T09:36:57Z</time>
      </trkpt>
      <trkpt lat="45.58341" lon="6.10306">
        <ele>1269.0689697266</ele>
        <time>2010-10-07T09:37:04Z</time>
      </trkpt>
      <trkpt lat="45.58347" lon="6.10318">
        <ele>1271.2490234375</ele>
        <time>2010-10-07T09:37:12Z</time>
      </trkpt>
      <trkpt lat="45.58352" lon="6.10325">
        <ele>1273.0689697266</ele>
        <time>2010-10-07T09:37:18Z</time>
      </trkpt>
      <trkpt lat="45.58354" lon="6.10331">
        <ele>1274.0290527344</ele>
        <time>2010-10-07T09:37:22Z</time>
      </trkpt>
      <trkpt lat="45.58355" lon="6.10332">
        <ele>1274.4489746094</ele>
        <time>2010-10-07T09:37:23Z</time>
      </trkpt>
      <trkpt lat="45.58357" lon="6.10342">
        <ele>1275.5009765625</ele>
        <time>2010-10-07T09:37:29Z</time>
      </trkpt>
      <trkpt lat="45.58358" lon="6.10346">
        <ele>1275.9289550781</ele>
        <time>2010-10-07T09:37:31Z</time>
      </trkpt>
      <trkpt lat="45.58361" lon="6.10355">
        <ele>1277.5040283203</ele>
        <time>2010-10-07T09:37:37Z</time>
      </trkpt>
      <trkpt lat="45.58362" lon="6.10356">
        <ele>1277.6879882812</ele>
        <time>2010-10-07T09:37:38Z</time>
      </trkpt>
      <trkpt lat="45.58368" lon="6.10363">
        <ele>1278.8620605469</ele>
        <time>2010-10-07T09:37:44Z</time>
      </trkpt>
      <trkpt lat="45.58376" lon="6.10373">
        <ele>1280.7889404297</ele>
        <time>2010-10-07T09:37:53Z</time>
      </trkpt>
      <trkpt lat="45.58382" lon="6.10382">
        <ele>1282.4219970703</ele>
        <time>2010-10-07T09:38:00Z</time>
      </trkpt>
      <trkpt lat="45.58389" lon="6.1039">
        <ele>1283.5830078125</ele>
        <time>2010-10-07T09:38:06Z</time>
      </trkpt>
      <trkpt lat="45.58392" lon="6.10395">
        <ele>1284.08203125</ele>
        <time>2010-10-07T09:38:10Z</time>
      </trkpt>
      <trkpt lat="45.58397" lon="6.10401">
        <ele>1284.8249511719</ele>
        <time>2010-10-07T09:38:14Z</time>
      </trkpt>
      <trkpt lat="45.58406" lon="6.10413">
        <ele>1286.3580322266</ele>
        <time>2010-10-07T09:38:22Z</time>
      </trkpt>
      <trkpt lat="45.58412" lon="6.10423">
        <ele>1287.4820556641</ele>
        <time>2010-10-07T09:38:29Z</time>
      </trkpt>
      <trkpt lat="45.58418" lon="6.1043">
        <ele>1288.1639404297</ele>
        <time>2010-10-07T09:38:34Z</time>
      </trkpt>
      <trkpt lat="45.58427" lon="6.10441">
        <ele>1290.2540283203</ele>
        <time>2010-10-07T09:38:43Z</time>
      </trkpt>
      <trkpt lat="45.58432" lon="6.1045">
        <ele>1291.9880371094</ele>
        <time>2010-10-07T09:38:49Z</time>
      </trkpt>
      <trkpt lat="45.58432" lon="6.10451">
        <ele>1292.0780029297</ele>
        <time>2010-10-07T09:38:50Z</time>
      </trkpt>
      <trkpt lat="45.58439" lon="6.10461">
        <ele>1293.9659423828</ele>
        <time>2010-10-07T09:38:59Z</time>
      </trkpt>
      <trkpt lat="45.58441" lon="6.10463">
        <ele>1294.4219970703</ele>
        <time>2010-10-07T09:39:01Z</time>
      </trkpt>
      <trkpt lat="45.58448" lon="6.1047">
        <ele>1295.9909667969</ele>
        <time>2010-10-07T09:39:08Z</time>
      </trkpt>
      <trkpt lat="45.58456" lon="6.10481">
        <ele>1297.5870361328</ele>
        <time>2010-10-07T09:39:16Z</time>
      </trkpt>
      <trkpt lat="45.58462" lon="6.10487">
        <ele>1299.1689453125</ele>
        <time>2010-10-07T09:39:22Z</time>
      </trkpt>
      <trkpt lat="45.58466" lon="6.10491">
        <ele>1299.6199951172</ele>
        <time>2010-10-07T09:39:25Z</time>
      </trkpt>
      <trkpt lat="45.58473" lon="6.105">
        <ele>1301.2829589844</ele>
        <time>2010-10-07T09:39:32Z</time>
      </trkpt>
      <trkpt lat="45.58477" lon="6.10509">
        <ele>1302.3289794922</ele>
        <time>2010-10-07T09:39:38Z</time>
      </trkpt>
      <trkpt lat="45.58483" lon="6.10517">
        <ele>1302.9129638672</ele>
        <time>2010-10-07T09:39:45Z</time>
      </trkpt>
      <trkpt lat="45.58486" lon="6.10521">
        <ele>1304.7790527344</ele>
        <time>2010-10-07T09:39:49Z</time>
      </trkpt>
      <trkpt lat="45.5849" lon="6.10528">
        <ele>1306.1760253906</ele>
        <time>2010-10-07T09:39:54Z</time>
      </trkpt>
      <trkpt lat="45.58496" lon="6.10535">
        <ele>1308.2060546875</ele>
        <time>2010-10-07T09:40:01Z</time>
      </trkpt>
      <trkpt lat="45.58501" lon="6.10543">
        <ele>1309.4370117188</ele>
        <time>2010-10-07T09:40:07Z</time>
      </trkpt>
      <trkpt lat="45.58508" lon="6.1055">
        <ele>1311.4279785156</ele>
        <time>2010-10-07T09:40:14Z</time>
      </trkpt>
      <trkpt lat="45.58511" lon="6.10552">
        <ele>1312.5989990234</ele>
        <time>2010-10-07T09:40:18Z</time>
      </trkpt>
      <trkpt lat="45.58517" lon="6.10561">
        <ele>1314.9029541016</ele>
        <time>2010-10-07T09:40:27Z</time>
      </trkpt>
      <trkpt lat="45.58519" lon="6.10563">
        <ele>1315.5479736328</ele>
        <time>2010-10-07T09:40:29Z</time>
      </trkpt>
      <trkpt lat="45.58528" lon="6.10569">
        <ele>1317.4100341797</ele>
        <time>2010-10-07T09:40:38Z</time>
      </trkpt>
      <trkpt lat="45.58534" lon="6.10575">
        <ele>1319.0520019531</ele>
        <time>2010-10-07T09:40:45Z</time>
      </trkpt>
      <trkpt lat="45.5854" lon="6.10584">
        <ele>1320.8229980469</ele>
        <time>2010-10-07T09:40:52Z</time>
      </trkpt>
      <trkpt lat="45.58547" lon="6.10593">
        <ele>1323.1280517578</ele>
        <time>2010-10-07T09:41:00Z</time>
      </trkpt>
      <trkpt lat="45.58549" lon="6.10596">
        <ele>1323.5989990234</ele>
        <time>2010-10-07T09:41:03Z</time>
      </trkpt>
      <trkpt lat="45.5855" lon="6.10601">
        <ele>1324.2340087891</ele>
        <time>2010-10-07T09:41:08Z</time>
      </trkpt>
      <trkpt lat="45.58551" lon="6.10605">
        <ele>1324.3969726562</ele>
        <time>2010-10-07T09:41:12Z</time>
      </trkpt>
      <trkpt lat="45.58545" lon="6.10611">
        <ele>1325.6140136719</ele>
        <time>2010-10-07T09:41:20Z</time>
      </trkpt>
      <trkpt lat="45.58536" lon="6.10605">
        <ele>1328.2189941406</ele>
        <time>2010-10-07T09:41:29Z</time>
      </trkpt>
      <trkpt lat="45.5853" lon="6.10602">
        <ele>1329.4239501953</ele>
        <time>2010-10-07T09:41:35Z</time>
      </trkpt>
      <trkpt lat="45.58524" lon="6.10601">
        <ele>1331.2390136719</ele>
        <time>2010-10-07T09:41:43Z</time>
      </trkpt>
      <trkpt lat="45.58518" lon="6.106">
        <ele>1332.9530029297</ele>
        <time>2010-10-07T09:41:51Z</time>
      </trkpt>
      <trkpt lat="45.58514" lon="6.10598">
        <ele>1334.5030517578</ele>
        <time>2010-10-07T09:41:57Z</time>
      </trkpt>
      <trkpt lat="45.58508" lon="6.10598">
        <ele>1336.0369873047</ele>
        <time>2010-10-07T09:42:05Z</time>
      </trkpt>
      <trkpt lat="45.58498" lon="6.10597">
        <ele>1337.9880371094</ele>
        <time>2010-10-07T09:42:14Z</time>
      </trkpt>
      <trkpt lat="45.5849" lon="6.10596">
        <ele>1339.0510253906</ele>
        <time>2010-10-07T09:42:21Z</time>
      </trkpt>
      <trkpt lat="45.58482" lon="6.10597">
        <ele>1339.9549560547</ele>
        <time>2010-10-07T09:42:29Z</time>
      </trkpt>
      <trkpt lat="45.58475" lon="6.10596">
        <ele>1340.9300537109</ele>
        <time>2010-10-07T09:42:36Z</time>
      </trkpt>
      <trkpt lat="45.58468" lon="6.106">
        <ele>1341.9139404297</ele>
        <time>2010-10-07T09:42:43Z</time>
      </trkpt>
      <trkpt lat="45.58464" lon="6.10605">
        <ele>1342.9560546875</ele>
        <time>2010-10-07T09:42:49Z</time>
      </trkpt>
      <trkpt lat="45.58462" lon="6.10605">
        <ele>1342.7709960938</ele>
        <time>2010-10-07T09:42:55Z</time>
      </trkpt>
      <trkpt lat="45.58462" lon="6.10605">
        <ele>1342.8179931641</ele>
        <time>2010-10-07T09:42:56Z</time>
      </trkpt>
      <trkpt lat="45.58459" lon="6.10603">
        <ele>1343.2690429688</ele>
        <time>2010-10-07T09:43:03Z</time>
      </trkpt>
      <trkpt lat="45.58453" lon="6.10604">
        <ele>1342.20703125</ele>
        <time>2010-10-07T09:45:46Z</time>
      </trkpt>
      <trkpt lat="45.58453" lon="6.10609">
        <ele>1342.6989746094</ele>
        <time>2010-10-07T09:45:52Z</time>
      </trkpt>
      <trkpt lat="45.58454" lon="6.10615">
        <ele>1342.2719726562</ele>
        <time>2010-10-07T09:45:56Z</time>
      </trkpt>
      <trkpt lat="45.58451" lon="6.10631">
        <ele>1342.5290527344</ele>
        <time>2010-10-07T09:46:04Z</time>
      </trkpt>
      <trkpt lat="45.5845" lon="6.10652">
        <ele>1342.3959960938</ele>
        <time>2010-10-07T09:46:12Z</time>
      </trkpt>
      <trkpt lat="45.58452" lon="6.10674">
        <ele>1343.0720214844</ele>
        <time>2010-10-07T09:46:22Z</time>
      </trkpt>
      <trkpt lat="45.58456" lon="6.10693">
        <ele>1344.8509521484</ele>
        <time>2010-10-07T09:46:30Z</time>
      </trkpt>
      <trkpt lat="45.58462" lon="6.10709">
        <ele>1345.3029785156</ele>
        <time>2010-10-07T09:46:37Z</time>
      </trkpt>
      <trkpt lat="45.5847" lon="6.10725">
        <ele>1346.1800537109</ele>
        <time>2010-10-07T09:46:44Z</time>
      </trkpt>
      <trkpt lat="45.58475" lon="6.10753">
        <ele>1348.2650146484</ele>
        <time>2010-10-07T09:46:54Z</time>
      </trkpt>
      <trkpt lat="45.58481" lon="6.10772">
        <ele>1350.4110107422</ele>
        <time>2010-10-07T09:47:02Z</time>
      </trkpt>
      <trkpt lat="45.58487" lon="6.1078">
        <ele>1351.2280273438</ele>
        <time>2010-10-07T09:47:07Z</time>
      </trkpt>
      <trkpt lat="45.58488" lon="6.10782">
        <ele>1351.5129394531</ele>
        <time>2010-10-07T09:47:08Z</time>
      </trkpt>
      <trkpt lat="45.58493" lon="6.10789">
        <ele>1351.9429931641</ele>
        <time>2010-10-07T09:47:12Z</time>
      </trkpt>
      <trkpt lat="45.58501" lon="6.10805">
        <ele>1353.4219970703</ele>
        <time>2010-10-07T09:47:20Z</time>
      </trkpt>
      <trkpt lat="45.58514" lon="6.10818">
        <ele>1355.0999755859</ele>
        <time>2010-10-07T09:47:29Z</time>
      </trkpt>
      <trkpt lat="45.58527" lon="6.10823">
        <ele>1357.0610351562</ele>
        <time>2010-10-07T09:47:38Z</time>
      </trkpt>
      <trkpt lat="45.58538" lon="6.10828">
        <ele>1359.4029541016</ele>
        <time>2010-10-07T09:47:47Z</time>
      </trkpt>
      <trkpt lat="45.58545" lon="6.10833">
        <ele>1361.5720214844</ele>
        <time>2010-10-07T09:47:54Z</time>
      </trkpt>
      <trkpt lat="45.58555" lon="6.10839">
        <ele>1364.0300292969</ele>
        <time>2010-10-07T09:48:03Z</time>
      </trkpt>
      <trkpt lat="45.58561" lon="6.10844">
        <ele>1365.7989501953</ele>
        <time>2010-10-07T09:48:10Z</time>
      </trkpt>
      <trkpt lat="45.58567" lon="6.10847">
        <ele>1368.0980224609</ele>
        <time>2010-10-07T09:48:18Z</time>
      </trkpt>
      <trkpt lat="45.58573" lon="6.1085">
        <ele>1369.4959716797</ele>
        <time>2010-10-07T09:48:30Z</time>
      </trkpt>
      <trkpt lat="45.58579" lon="6.10855">
        <ele>1371.623046875</ele>
        <time>2010-10-07T09:48:41Z</time>
      </trkpt>
      <trkpt lat="45.58585" lon="6.10859">
        <ele>1373.5939941406</ele>
        <time>2010-10-07T09:48:51Z</time>
      </trkpt>
      <trkpt lat="45.5859" lon="6.10863">
        <ele>1375.208984375</ele>
        <time>2010-10-07T09:48:59Z</time>
      </trkpt>
      <trkpt lat="45.58595" lon="6.10867">
        <ele>1376.5090332031</ele>
        <time>2010-10-07T09:49:06Z</time>
      </trkpt>
      <trkpt lat="45.586" lon="6.10871">
        <ele>1378.2779541016</ele>
        <time>2010-10-07T09:49:16Z</time>
      </trkpt>
      <trkpt lat="45.58603" lon="6.10872">
        <ele>1379.1939697266</ele>
        <time>2010-10-07T09:49:21Z</time>
      </trkpt>
      <trkpt lat="45.58607" lon="6.10875">
        <ele>1380.1639404297</ele>
        <time>2010-10-07T09:49:29Z</time>
      </trkpt>
      <trkpt lat="45.58612" lon="6.1088">
        <ele>1381.7659912109</ele>
        <time>2010-10-07T09:49:37Z</time>
      </trkpt>
      <trkpt lat="45.58619" lon="6.10884">
        <ele>1383.2530517578</ele>
        <time>2010-10-07T09:49:47Z</time>
      </trkpt>
      <trkpt lat="45.58619" lon="6.10885">
        <ele>1383.7440185547</ele>
        <time>2010-10-07T09:50:13Z</time>
      </trkpt>
      <trkpt lat="45.58626" lon="6.10891">
        <ele>1385.041015625</ele>
        <time>2010-10-07T09:50:20Z</time>
      </trkpt>
      <trkpt lat="45.58627" lon="6.10892">
        <ele>1385.2690429688</ele>
        <time>2010-10-07T09:50:21Z</time>
      </trkpt>
      <trkpt lat="45.58637" lon="6.10901">
        <ele>1387.1560058594</ele>
        <time>2010-10-07T09:50:30Z</time>
      </trkpt>
      <trkpt lat="45.58644" lon="6.10908">
        <ele>1388.4959716797</ele>
        <time>2010-10-07T09:50:37Z</time>
      </trkpt>
      <trkpt lat="45.58656" lon="6.10919">
        <ele>1391.6879882812</ele>
        <time>2010-10-07T09:50:48Z</time>
      </trkpt>
      <trkpt lat="45.58664" lon="6.10928">
        <ele>1394.0930175781</ele>
        <time>2010-10-07T09:50:56Z</time>
      </trkpt>
      <trkpt lat="45.5867" lon="6.10933">
        <ele>1396.3859863281</ele>
        <time>2010-10-07T09:51:04Z</time>
      </trkpt>
      <trkpt lat="45.58675" lon="6.10936">
        <ele>1397.3919677734</ele>
        <time>2010-10-07T09:51:15Z</time>
      </trkpt>
      <trkpt lat="45.58679" lon="6.10939">
        <ele>1399.0660400391</ele>
        <time>2010-10-07T09:51:23Z</time>
      </trkpt>
      <trkpt lat="45.58684" lon="6.10943">
        <ele>1400.9100341797</ele>
        <time>2010-10-07T09:51:32Z</time>
      </trkpt>
      <trkpt lat="45.5869" lon="6.10947">
        <ele>1402.9310302734</ele>
        <time>2010-10-07T09:51:42Z</time>
      </trkpt>
      <trkpt lat="45.58696" lon="6.10951">
        <ele>1405.0090332031</ele>
        <time>2010-10-07T09:51:53Z</time>
      </trkpt>
      <trkpt lat="45.58699" lon="6.10953">
        <ele>1406.5379638672</ele>
        <time>2010-10-07T09:52:00Z</time>
      </trkpt>
      <trkpt lat="45.587" lon="6.10955">
        <ele>1407.0400390625</ele>
        <time>2010-10-07T09:53:48Z</time>
      </trkpt>
      <trkpt lat="45.587" lon="6.10955">
        <ele>1407.0419921875</ele>
        <time>2010-10-07T09:53:49Z</time>
      </trkpt>
      <trkpt lat="45.587" lon="6.10955">
        <ele>1407.1550292969</ele>
        <time>2010-10-07T09:53:57Z</time>
      </trkpt>
      <trkpt lat="45.58704" lon="6.10957">
        <ele>1408.0889892578</ele>
        <time>2010-10-07T09:54:07Z</time>
      </trkpt>
      <trkpt lat="45.58705" lon="6.10958">
        <ele>1408.7509765625</ele>
        <time>2010-10-07T09:54:10Z</time>
      </trkpt>
      <trkpt lat="45.58707" lon="6.1096">
        <ele>1409.2440185547</ele>
        <time>2010-10-07T09:54:13Z</time>
      </trkpt>
      <trkpt lat="45.58713" lon="6.10964">
        <ele>1411.2159423828</ele>
        <time>2010-10-07T09:54:22Z</time>
      </trkpt>
      <trkpt lat="45.58716" lon="6.10967">
        <ele>1412.3509521484</ele>
        <time>2010-10-07T09:54:27Z</time>
      </trkpt>
      <trkpt lat="45.58719" lon="6.10969">
        <ele>1413.4010009766</ele>
        <time>2010-10-07T09:54:33Z</time>
      </trkpt>
      <trkpt lat="45.58724" lon="6.10972">
        <ele>1414.7790527344</ele>
        <time>2010-10-07T09:54:40Z</time>
      </trkpt>
      <trkpt lat="45.5873" lon="6.10973">
        <ele>1415.8570556641</ele>
        <time>2010-10-07T09:54:47Z</time>
      </trkpt>
      <trkpt lat="45.58731" lon="6.10973">
        <ele>1416.1130371094</ele>
        <time>2010-10-07T09:54:49Z</time>
      </trkpt>
      <trkpt lat="45.58735" lon="6.10974">
        <ele>1416.7580566406</ele>
        <time>2010-10-07T09:54:55Z</time>
      </trkpt>
      <trkpt lat="45.58737" lon="6.10974">
        <ele>1417.4820556641</ele>
        <time>2010-10-07T09:54:57Z</time>
      </trkpt>
      <trkpt lat="45.58743" lon="6.10973">
        <ele>1418.6130371094</ele>
        <time>2010-10-07T09:55:06Z</time>
      </trkpt>
      <trkpt lat="45.58742" lon="6.10973">
        <ele>1418.4110107422</ele>
        <time>2010-10-07T09:55:17Z</time>
      </trkpt>
      <trkpt lat="45.58744" lon="6.10971">
        <ele>1418.6529541016</ele>
        <time>2010-10-07T09:55:25Z</time>
      </trkpt>
      <trkpt lat="45.58747" lon="6.10969">
        <ele>1419.001953125</ele>
        <time>2010-10-07T09:55:32Z</time>
      </trkpt>
      <trkpt lat="45.58747" lon="6.10969">
        <ele>1419.0269775391</ele>
        <time>2010-10-07T09:55:40Z</time>
      </trkpt>
      <trkpt lat="45.58747" lon="6.10969">
        <ele>1419.0209960938</ele>
        <time>2010-10-07T09:55:48Z</time>
      </trkpt>
      <trkpt lat="45.58748" lon="6.10969">
        <ele>1418.8719482422</ele>
        <time>2010-10-07T09:55:53Z</time>
      </trkpt>
      <trkpt lat="45.58748" lon="6.10969">
        <ele>1418.9510498047</ele>
        <time>2010-10-07T09:55:54Z</time>
      </trkpt>
      <trkpt lat="45.58748" lon="6.10969">
        <ele>1418.91796875</ele>
        <time>2010-10-07T09:56:08Z</time>
      </trkpt>
      <trkpt lat="45.58748" lon="6.10969">
        <ele>1419.0489501953</ele>
        <time>2010-10-07T09:56:23Z</time>
      </trkpt>
      <trkpt lat="45.58748" lon="6.10969">
        <ele>1419.0600585938</ele>
        <time>2010-10-07T09:56:31Z</time>
      </trkpt>
      <trkpt lat="45.58749" lon="6.10969">
        <ele>1419.0190429688</ele>
        <time>2010-10-07T09:56:57Z</time>
      </trkpt>
      <trkpt lat="45.58753" lon="6.10972">
        <ele>1419.9310302734</ele>
        <time>2010-10-07T09:57:03Z</time>
      </trkpt>
      <trkpt lat="45.58757" lon="6.10973">
        <ele>1420.5780029297</ele>
        <time>2010-10-07T09:57:08Z</time>
      </trkpt>
      <trkpt lat="45.58758" lon="6.10974">
        <ele>1420.9370117188</ele>
        <time>2010-10-07T09:57:09Z</time>
      </trkpt>
      <trkpt lat="45.58765" lon="6.10978">
        <ele>1422.8680419922</ele>
        <time>2010-10-07T09:57:18Z</time>
      </trkpt>
      <trkpt lat="45.58768" lon="6.1098">
        <ele>1423.7659912109</ele>
        <time>2010-10-07T09:57:23Z</time>
      </trkpt>
      <trkpt lat="45.5877" lon="6.10981">
        <ele>1424.4930419922</ele>
        <time>2010-10-07T09:57:26Z</time>
      </trkpt>
      <trkpt lat="45.58773" lon="6.10982">
        <ele>1425.70703125</ele>
        <time>2010-10-07T09:57:32Z</time>
      </trkpt>
      <trkpt lat="45.58775" lon="6.10983">
        <ele>1426.3580322266</ele>
        <time>2010-10-07T09:57:36Z</time>
      </trkpt>
      <trkpt lat="45.58777" lon="6.10989">
        <ele>1428.0639648438</ele>
        <time>2010-10-07T09:57:45Z</time>
      </trkpt>
      <trkpt lat="45.58779" lon="6.10994">
        <ele>1429.1770019531</ele>
        <time>2010-10-07T09:57:51Z</time>
      </trkpt>
      <trkpt lat="45.5878" lon="6.10995">
        <ele>1430.1130371094</ele>
        <time>2010-10-07T09:57:58Z</time>
      </trkpt>
      <trkpt lat="45.5878" lon="6.10995">
        <ele>1430.1080322266</ele>
        <time>2010-10-07T09:58:08Z</time>
      </trkpt>
      <trkpt lat="45.58782" lon="6.10998">
        <ele>1430.8929443359</ele>
        <time>2010-10-07T09:58:17Z</time>
      </trkpt>
      <trkpt lat="45.58789" lon="6.10999">
        <ele>1433.1989746094</ele>
        <time>2010-10-07T09:58:27Z</time>
      </trkpt>
      <trkpt lat="45.58792" lon="6.11">
        <ele>1434.7299804688</ele>
        <time>2010-10-07T09:58:35Z</time>
      </trkpt>
      <trkpt lat="45.58794" lon="6.11002">
        <ele>1435.6910400391</ele>
        <time>2010-10-07T09:58:40Z</time>
      </trkpt>
      <trkpt lat="45.58798" lon="6.11004">
        <ele>1437.4820556641</ele>
        <time>2010-10-07T09:58:48Z</time>
      </trkpt>
      <trkpt lat="45.58799" lon="6.11005">
        <ele>1437.8540039062</ele>
        <time>2010-10-07T09:58:56Z</time>
      </trkpt>
      <trkpt lat="45.58802" lon="6.11007">
        <ele>1439.1459960938</ele>
        <time>2010-10-07T09:59:04Z</time>
      </trkpt>
      <trkpt lat="45.58805" lon="6.11008">
        <ele>1440.2559814453</ele>
        <time>2010-10-07T09:59:11Z</time>
      </trkpt>
      <trkpt lat="45.58809" lon="6.11011">
        <ele>1442.2209472656</ele>
        <time>2010-10-07T09:59:20Z</time>
      </trkpt>
      <trkpt lat="45.58814" lon="6.11011">
        <ele>1443.3100585938</ele>
        <time>2010-10-07T09:59:28Z</time>
      </trkpt>
      <trkpt lat="45.58817" lon="6.1101">
        <ele>1444.4399414062</ele>
        <time>2010-10-07T09:59:34Z</time>
      </trkpt>
      <trkpt lat="45.58818" lon="6.11011">
        <ele>1444.5830078125</ele>
        <time>2010-10-07T09:59:35Z</time>
      </trkpt>
      <trkpt lat="45.5882" lon="6.11018">
        <ele>1446.0679931641</ele>
        <time>2010-10-07T09:59:44Z</time>
      </trkpt>
      <trkpt lat="45.58821" lon="6.11023">
        <ele>1446.9410400391</ele>
        <time>2010-10-07T09:59:49Z</time>
      </trkpt>
      <trkpt lat="45.58826" lon="6.11021">
        <ele>1448.6850585938</ele>
        <time>2010-10-07T09:59:57Z</time>
      </trkpt>
      <trkpt lat="45.58832" lon="6.11017">
        <ele>1450.3659667969</ele>
        <time>2010-10-07T10:00:08Z</time>
      </trkpt>
      <trkpt lat="45.58834" lon="6.11022">
        <ele>1451.4129638672</ele>
        <time>2010-10-07T10:00:14Z</time>
      </trkpt>
      <trkpt lat="45.58836" lon="6.11028">
        <ele>1452.6219482422</ele>
        <time>2010-10-07T10:00:22Z</time>
      </trkpt>
      <trkpt lat="45.58838" lon="6.11033">
        <ele>1453.7509765625</ele>
        <time>2010-10-07T10:00:28Z</time>
      </trkpt>
      <trkpt lat="45.58839" lon="6.11036">
        <ele>1454.5439453125</ele>
        <time>2010-10-07T10:00:31Z</time>
      </trkpt>
      <trkpt lat="45.58843" lon="6.1103">
        <ele>1455.9790039062</ele>
        <time>2010-10-07T10:00:40Z</time>
      </trkpt>
      <trkpt lat="45.58847" lon="6.11029">
        <ele>1457.5649414062</ele>
        <time>2010-10-07T10:00:50Z</time>
      </trkpt>
      <trkpt lat="45.5885" lon="6.11039">
        <ele>1458.9329833984</ele>
        <time>2010-10-07T10:01:00Z</time>
      </trkpt>
      <trkpt lat="45.58854" lon="6.11037">
        <ele>1460.4229736328</ele>
        <time>2010-10-07T10:01:07Z</time>
      </trkpt>
      <trkpt lat="45.58859" lon="6.11034">
        <ele>1462.0229492188</ele>
        <time>2010-10-07T10:01:17Z</time>
      </trkpt>
      <trkpt lat="45.5886" lon="6.11035">
        <ele>1462.5649414062</ele>
        <time>2010-10-07T10:01:24Z</time>
      </trkpt>
      <trkpt lat="45.5886" lon="6.11035">
        <ele>1462.6590576172</ele>
        <time>2010-10-07T10:01:34Z</time>
      </trkpt>
      <trkpt lat="45.58865" lon="6.1104">
        <ele>1464.5190429688</ele>
        <time>2010-10-07T10:01:42Z</time>
      </trkpt>
      <trkpt lat="45.58876" lon="6.11045">
        <ele>1467.7819824219</ele>
        <time>2010-10-07T10:01:58Z</time>
      </trkpt>
      <trkpt lat="45.58881" lon="6.11045">
        <ele>1469.6020507812</ele>
        <time>2010-10-07T10:02:06Z</time>
      </trkpt>
      <trkpt lat="45.58888" lon="6.11049">
        <ele>1472.4139404297</ele>
        <time>2010-10-07T10:02:17Z</time>
      </trkpt>
      <trkpt lat="45.5889" lon="6.11052">
        <ele>1472.8220214844</ele>
        <time>2010-10-07T10:02:22Z</time>
      </trkpt>
      <trkpt lat="45.58892" lon="6.11054">
        <ele>1473.3879394531</ele>
        <time>2010-10-07T10:02:25Z</time>
      </trkpt>
      <trkpt lat="45.58897" lon="6.11048">
        <ele>1474.7950439453</ele>
        <time>2010-10-07T10:02:35Z</time>
      </trkpt>
      <trkpt lat="45.58898" lon="6.11048">
        <ele>1474.9389648438</ele>
        <time>2010-10-07T10:02:36Z</time>
      </trkpt>
      <trkpt lat="45.58901" lon="6.11053">
        <ele>1475.9680175781</ele>
        <time>2010-10-07T10:02:42Z</time>
      </trkpt>
      <trkpt lat="45.58905" lon="6.11054">
        <ele>1477.2490234375</ele>
        <time>2010-10-07T10:02:48Z</time>
      </trkpt>
      <trkpt lat="45.58913" lon="6.11054">
        <ele>1479.3540039062</ele>
        <time>2010-10-07T10:02:58Z</time>
      </trkpt>
      <trkpt lat="45.58914" lon="6.11053">
        <ele>1479.6729736328</ele>
        <time>2010-10-07T10:03:03Z</time>
      </trkpt>
      <trkpt lat="45.58916" lon="6.11054">
        <ele>1479.8649902344</ele>
        <time>2010-10-07T10:03:11Z</time>
      </trkpt>
      <trkpt lat="45.58918" lon="6.11056">
        <ele>1480.4820556641</ele>
        <time>2010-10-07T10:03:14Z</time>
      </trkpt>
      <trkpt lat="45.58922" lon="6.11056">
        <ele>1481.1590576172</ele>
        <time>2010-10-07T10:03:18Z</time>
      </trkpt>
      <trkpt lat="45.58927" lon="6.11054">
        <ele>1482.6240234375</ele>
        <time>2010-10-07T10:03:25Z</time>
      </trkpt>
      <trkpt lat="45.58929" lon="6.11056">
        <ele>1483.0649414062</ele>
        <time>2010-10-07T10:03:31Z</time>
      </trkpt>
      <trkpt lat="45.58933" lon="6.11054">
        <ele>1483.9830322266</ele>
        <time>2010-10-07T10:03:36Z</time>
      </trkpt>
      <trkpt lat="45.58944" lon="6.11052">
        <ele>1485.8120117188</ele>
        <time>2010-10-07T10:03:46Z</time>
      </trkpt>
      <trkpt lat="45.58949" lon="6.1105">
        <ele>1486.4670410156</ele>
        <time>2010-10-07T10:03:50Z</time>
      </trkpt>
      <trkpt lat="45.5896" lon="6.11049">
        <ele>1486.9849853516</ele>
        <time>2010-10-07T10:04:00Z</time>
      </trkpt>
      <trkpt lat="45.58971" lon="6.11049">
        <ele>1488.248046875</ele>
        <time>2010-10-07T10:04:09Z</time>
      </trkpt>
      <trkpt lat="45.58981" lon="6.1105">
        <ele>1489.3680419922</ele>
        <time>2010-10-07T10:04:17Z</time>
      </trkpt>
      <trkpt lat="45.58985" lon="6.11049">
        <ele>1490.6020507812</ele>
        <time>2010-10-07T10:04:20Z</time>
      </trkpt>
      <trkpt lat="45.58997" lon="6.11048">
        <ele>1492.1870117188</ele>
        <time>2010-10-07T10:04:29Z</time>
      </trkpt>
      <trkpt lat="45.59007" lon="6.11049">
        <ele>1493.0899658203</ele>
        <time>2010-10-07T10:04:36Z</time>
      </trkpt>
      <trkpt lat="45.59021" lon="6.11051">
        <ele>1494.6960449219</ele>
        <time>2010-10-07T10:04:45Z</time>
      </trkpt>
      <trkpt lat="45.59037" lon="6.11055">
        <ele>1496.9709472656</ele>
        <time>2010-10-07T10:04:56Z</time>
      </trkpt>
      <trkpt lat="45.59048" lon="6.11062">
        <ele>1498.8189697266</ele>
        <time>2010-10-07T10:05:04Z</time>
      </trkpt>
      <trkpt lat="45.5906" lon="6.1107">
        <ele>1500.4470214844</ele>
        <time>2010-10-07T10:05:13Z</time>
      </trkpt>
      <trkpt lat="45.59072" lon="6.11076">
        <ele>1502.2330322266</ele>
        <time>2010-10-07T10:05:23Z</time>
      </trkpt>
      <trkpt lat="45.59085" lon="6.11084">
        <ele>1503.5999755859</ele>
        <time>2010-10-07T10:05:33Z</time>
      </trkpt>
      <trkpt lat="45.591" lon="6.11092">
        <ele>1505.3430175781</ele>
        <time>2010-10-07T10:05:43Z</time>
      </trkpt>
      <trkpt lat="45.59112" lon="6.11098">
        <ele>1507.1540527344</ele>
        <time>2010-10-07T10:05:51Z</time>
      </trkpt>
      <trkpt lat="45.59119" lon="6.11103">
        <ele>1507.8969726562</ele>
        <time>2010-10-07T10:05:56Z</time>
      </trkpt>
      <trkpt lat="45.59131" lon="6.11112">
        <ele>1509.3149414062</ele>
        <time>2010-10-07T10:06:05Z</time>
      </trkpt>
      <trkpt lat="45.59143" lon="6.11124">
        <ele>1510.4350585938</ele>
        <time>2010-10-07T10:06:14Z</time>
      </trkpt>
      <trkpt lat="45.59158" lon="6.11135">
        <ele>1513.7969970703</ele>
        <time>2010-10-07T10:06:25Z</time>
      </trkpt>
      <trkpt lat="45.59166" lon="6.11139">
        <ele>1515.3289794922</ele>
        <time>2010-10-07T10:06:32Z</time>
      </trkpt>
      <trkpt lat="45.5918" lon="6.11143">
        <ele>1517.0699462891</ele>
        <time>2010-10-07T10:06:42Z</time>
      </trkpt>
      <trkpt lat="45.59192" lon="6.1115">
        <ele>1518.3919677734</ele>
        <time>2010-10-07T10:06:50Z</time>
      </trkpt>
      <trkpt lat="45.59207" lon="6.11163">
        <ele>1520.6400146484</ele>
        <time>2010-10-07T10:07:02Z</time>
      </trkpt>
      <trkpt lat="45.59217" lon="6.11171">
        <ele>1522.9429931641</ele>
        <time>2010-10-07T10:07:10Z</time>
      </trkpt>
      <trkpt lat="45.59226" lon="6.1118">
        <ele>1524.7719726562</ele>
        <time>2010-10-07T10:07:19Z</time>
      </trkpt>
      <trkpt lat="45.59237" lon="6.11189">
        <ele>1525.876953125</ele>
        <time>2010-10-07T10:07:29Z</time>
      </trkpt>
      <trkpt lat="45.59247" lon="6.112">
        <ele>1526.2340087891</ele>
        <time>2010-10-07T10:07:37Z</time>
      </trkpt>
      <trkpt lat="45.59254" lon="6.11213">
        <ele>1526.4580078125</ele>
        <time>2010-10-07T10:07:44Z</time>
      </trkpt>
      <trkpt lat="45.59285" lon="6.11252">
        <ele>1524.6579589844</ele>
        <time>2010-10-07T10:07:59Z</time>
      </trkpt>
      <trkpt lat="45.59304" lon="6.11272">
        <ele>1524.3470458984</ele>
        <time>2010-10-07T10:08:05Z</time>
      </trkpt>
      <trkpt lat="45.59312" lon="6.11284">
        <ele>1524.54296875</ele>
        <time>2010-10-07T10:08:08Z</time>
      </trkpt>
      <trkpt lat="45.59334" lon="6.11304">
        <ele>1526.1550292969</ele>
        <time>2010-10-07T10:08:16Z</time>
      </trkpt>
      <trkpt lat="45.59347" lon="6.11315">
        <ele>1528.5920410156</ele>
        <time>2010-10-07T10:08:23Z</time>
      </trkpt>
      <trkpt lat="45.59357" lon="6.11323">
        <ele>1530.6939697266</ele>
        <time>2010-10-07T10:08:29Z</time>
      </trkpt>
      <trkpt lat="45.59368" lon="6.11333">
        <ele>1532.0699462891</ele>
        <time>2010-10-07T10:08:36Z</time>
      </trkpt>
      <trkpt lat="45.59376" lon="6.11343">
        <ele>1533.0579833984</ele>
        <time>2010-10-07T10:08:42Z</time>
      </trkpt>
      <trkpt lat="45.5939" lon="6.11359">
        <ele>1534.2779541016</ele>
        <time>2010-10-07T10:08:52Z</time>
      </trkpt>
      <trkpt lat="45.59396" lon="6.11371">
        <ele>1534.9949951172</ele>
        <time>2010-10-07T10:08:59Z</time>
      </trkpt>
      <trkpt lat="45.59396" lon="6.11384">
        <ele>1535.4250488281</ele>
        <time>2010-10-07T10:09:06Z</time>
      </trkpt>
      <trkpt lat="45.59397" lon="6.11388">
        <ele>1535.2960205078</ele>
        <time>2010-10-07T10:09:08Z</time>
      </trkpt>
      <trkpt lat="45.59392" lon="6.11402">
        <ele>1534.8659667969</ele>
        <time>2010-10-07T10:09:15Z</time>
      </trkpt>
      <trkpt lat="45.59389" lon="6.11404">
        <ele>1535.0939941406</ele>
        <time>2010-10-07T10:09:18Z</time>
      </trkpt>
      <trkpt lat="45.59388" lon="6.11405">
        <ele>1535.1209716797</ele>
        <time>2010-10-07T10:09:24Z</time>
      </trkpt>
      <trkpt lat="45.59388" lon="6.11405">
        <ele>1534.8909912109</ele>
        <time>2010-10-07T10:09:30Z</time>
      </trkpt>
      <trkpt lat="45.59388" lon="6.11405">
        <ele>1535.2530517578</ele>
        <time>2010-10-07T10:09:37Z</time>
      </trkpt>
      <trkpt lat="45.59388" lon="6.11405">
        <ele>1535.2530517578</ele>
        <time>2010-10-07T10:09:39Z</time>
      </trkpt>
      <trkpt lat="45.59388" lon="6.11405">
        <ele>1535.251953125</ele>
        <time>2010-10-07T10:09:43Z</time>
      </trkpt>
      <trkpt lat="45.59388" lon="6.11405">
        <ele>1535.2509765625</ele>
        <time>2010-10-07T10:09:47Z</time>
      </trkpt>
      <trkpt lat="45.59388" lon="6.11405">
        <ele>1534.8420410156</ele>
        <time>2010-10-07T10:10:27Z</time>
      </trkpt>
      <trkpt lat="45.59388" lon="6.11405">
        <ele>1534.8249511719</ele>
        <time>2010-10-07T10:10:35Z</time>
      </trkpt>
      <trkpt lat="45.59388" lon="6.11405">
        <ele>1534.4820556641</ele>
        <time>2010-10-07T10:11:32Z</time>
      </trkpt>
      <trkpt lat="45.59389" lon="6.11408">
        <ele>1534.4659423828</ele>
        <time>2010-10-07T10:11:34Z</time>
      </trkpt>
      <trkpt lat="45.59397" lon="6.11404">
        <ele>1534.3959960938</ele>
        <time>2010-10-07T10:11:41Z</time>
      </trkpt>
      <trkpt lat="45.59403" lon="6.11396">
        <ele>1534.3790283203</ele>
        <time>2010-10-07T10:11:46Z</time>
      </trkpt>
      <trkpt lat="45.59408" lon="6.11381">
        <ele>1534.3070068359</ele>
        <time>2010-10-07T10:11:54Z</time>
      </trkpt>
      <trkpt lat="45.59414" lon="6.1137">
        <ele>1534.9420166016</ele>
        <time>2010-10-07T10:11:59Z</time>
      </trkpt>
      <trkpt lat="45.59415" lon="6.11369">
        <ele>1535.7180175781</ele>
        <time>2010-10-07T10:12:03Z</time>
      </trkpt>
      <trkpt lat="45.59416" lon="6.11369">
        <ele>1535.7270507812</ele>
        <time>2010-10-07T10:12:07Z</time>
      </trkpt>
      <trkpt lat="45.59418" lon="6.11372">
        <ele>1536.126953125</ele>
        <time>2010-10-07T10:17:01Z</time>
      </trkpt>
      <trkpt lat="45.59418" lon="6.11372">
        <ele>1536.1600341797</ele>
        <time>2010-10-07T10:17:02Z</time>
      </trkpt>
      <trkpt lat="45.59417" lon="6.11372">
        <ele>1536.4790039062</ele>
        <time>2010-10-07T10:29:09Z</time>
      </trkpt>
      <trkpt lat="45.59417" lon="6.11372">
        <ele>1536.4759521484</ele>
        <time>2010-10-07T10:29:10Z</time>
      </trkpt>
      <trkpt lat="45.59416" lon="6.11374">
        <ele>1536.6199951172</ele>
        <time>2010-10-07T10:29:20Z</time>
      </trkpt>
      <trkpt lat="45.59425" lon="6.11382">
        <ele>1535.0989990234</ele>
        <time>2010-10-07T10:29:24Z</time>
      </trkpt>
      <trkpt lat="45.59427" lon="6.11384">
        <ele>1534.9260253906</ele>
        <time>2010-10-07T10:29:25Z</time>
      </trkpt>
      <trkpt lat="45.59432" lon="6.11387">
        <ele>1535.0179443359</ele>
        <time>2010-10-07T10:29:27Z</time>
      </trkpt>
      <trkpt lat="45.59444" lon="6.11399">
        <ele>1534.9730224609</ele>
        <time>2010-10-07T10:29:34Z</time>
      </trkpt>
      <trkpt lat="45.59445" lon="6.11399">
        <ele>1534.6689453125</ele>
        <time>2010-10-07T10:29:39Z</time>
      </trkpt>
      <trkpt lat="45.59454" lon="6.11404">
        <ele>1533.7600097656</ele>
        <time>2010-10-07T10:29:44Z</time>
      </trkpt>
      <trkpt lat="45.59482" lon="6.11426">
        <ele>1526.16796875</ele>
        <time>2010-10-07T10:29:50Z</time>
      </trkpt>
      <trkpt lat="45.59495" lon="6.11436">
        <ele>1522.8189697266</ele>
        <time>2010-10-07T10:29:52Z</time>
      </trkpt>
      <trkpt lat="45.59533" lon="6.11467">
        <ele>1514.3800048828</ele>
        <time>2010-10-07T10:29:58Z</time>
      </trkpt>
      <trkpt lat="45.5958" lon="6.115">
        <ele>1504.3459472656</ele>
        <time>2010-10-07T10:30:04Z</time>
      </trkpt>
      <trkpt lat="45.59612" lon="6.11521">
        <ele>1499.6920166016</ele>
        <time>2010-10-07T10:30:08Z</time>
      </trkpt>
      <trkpt lat="45.59645" lon="6.11542">
        <ele>1493.1059570312</ele>
        <time>2010-10-07T10:30:12Z</time>
      </trkpt>
      <trkpt lat="45.59677" lon="6.11562">
        <ele>1485.3289794922</ele>
        <time>2010-10-07T10:30:16Z</time>
      </trkpt>
      <trkpt lat="45.59713" lon="6.11584">
        <ele>1477.0419921875</ele>
        <time>2010-10-07T10:30:20Z</time>
      </trkpt>
      <trkpt lat="45.59754" lon="6.11612">
        <ele>1469.1340332031</ele>
        <time>2010-10-07T10:30:24Z</time>
      </trkpt>
      <trkpt lat="45.59805" lon="6.11641">
        <ele>1464.4310302734</ele>
        <time>2010-10-07T10:30:29Z</time>
      </trkpt>
      <trkpt lat="45.59814" lon="6.11645">
        <ele>1464.2020263672</ele>
        <time>2010-10-07T10:30:30Z</time>
      </trkpt>
      <trkpt lat="45.59822" lon="6.11648">
        <ele>1464.1510009766</ele>
        <time>2010-10-07T10:30:31Z</time>
      </trkpt>
      <trkpt lat="45.59849" lon="6.11667">
        <ele>1465.0360107422</ele>
        <time>2010-10-07T10:30:36Z</time>
      </trkpt>
      <trkpt lat="45.59868" lon="6.11682">
        <ele>1465.1629638672</ele>
        <time>2010-10-07T10:30:41Z</time>
      </trkpt>
      <trkpt lat="45.59896" lon="6.11692">
        <ele>1464.1009521484</ele>
        <time>2010-10-07T10:30:48Z</time>
      </trkpt>
      <trkpt lat="45.59921" lon="6.11703">
        <ele>1463.3929443359</ele>
        <time>2010-10-07T10:30:54Z</time>
      </trkpt>
      <trkpt lat="45.59942" lon="6.11712">
        <ele>1461.8969726562</ele>
        <time>2010-10-07T10:30:59Z</time>
      </trkpt>
      <trkpt lat="45.59961" lon="6.11717">
        <ele>1460.3020019531</ele>
        <time>2010-10-07T10:31:03Z</time>
      </trkpt>
      <trkpt lat="45.59983" lon="6.11719">
        <ele>1458.4709472656</ele>
        <time>2010-10-07T10:31:08Z</time>
      </trkpt>
      <trkpt lat="45.59991" lon="6.11719">
        <ele>1457.2810058594</ele>
        <time>2010-10-07T10:31:12Z</time>
      </trkpt>
      <trkpt lat="45.59992" lon="6.11719">
        <ele>1456.8160400391</ele>
        <time>2010-10-07T10:31:19Z</time>
      </trkpt>
      <trkpt lat="45.59994" lon="6.11719">
        <ele>1457.2979736328</ele>
        <time>2010-10-07T10:31:25Z</time>
      </trkpt>
      <trkpt lat="45.59995" lon="6.1172">
        <ele>1456.4630126953</ele>
        <time>2010-10-07T10:31:38Z</time>
      </trkpt>
      <trkpt lat="45.6" lon="6.11723">
        <ele>1455.6459960938</ele>
        <time>2010-10-07T10:31:43Z</time>
      </trkpt>
      <trkpt lat="45.60006" lon="6.11727">
        <ele>1454.625</ele>
        <time>2010-10-07T10:31:45Z</time>
      </trkpt>
      <trkpt lat="45.60009" lon="6.11729">
        <ele>1453.9739990234</ele>
        <time>2010-10-07T10:31:46Z</time>
      </trkpt>
      <trkpt lat="45.60024" lon="6.11733">
        <ele>1450.3649902344</ele>
        <time>2010-10-07T10:31:51Z</time>
      </trkpt>
      <trkpt lat="45.60043" lon="6.11731">
        <ele>1444.6479492188</ele>
        <time>2010-10-07T10:31:57Z</time>
      </trkpt>
      <trkpt lat="45.60059" lon="6.1173">
        <ele>1439.958984375</ele>
        <time>2010-10-07T10:32:02Z</time>
      </trkpt>
      <trkpt lat="45.60064" lon="6.11729">
        <ele>1438.7290039062</ele>
        <time>2010-10-07T10:32:04Z</time>
      </trkpt>
      <trkpt lat="45.60081" lon="6.11737">
        <ele>1432.0260009766</ele>
        <time>2010-10-07T10:32:12Z</time>
      </trkpt>
      <trkpt lat="45.60095" lon="6.11742">
        <ele>1427.1209716797</ele>
        <time>2010-10-07T10:32:18Z</time>
      </trkpt>
      <trkpt lat="45.60106" lon="6.1175">
        <ele>1423.0290527344</ele>
        <time>2010-10-07T10:32:22Z</time>
      </trkpt>
      <trkpt lat="45.60116" lon="6.11759">
        <ele>1419.29296875</ele>
        <time>2010-10-07T10:32:27Z</time>
      </trkpt>
      <trkpt lat="45.60126" lon="6.11768">
        <ele>1414.9709472656</ele>
        <time>2010-10-07T10:32:32Z</time>
      </trkpt>
      <trkpt lat="45.60136" lon="6.11782">
        <ele>1409.7020263672</ele>
        <time>2010-10-07T10:32:37Z</time>
      </trkpt>
      <trkpt lat="45.60149" lon="6.11795">
        <ele>1406.6510009766</ele>
        <time>2010-10-07T10:32:41Z</time>
      </trkpt>
      <trkpt lat="45.60159" lon="6.11806">
        <ele>1405.1920166016</ele>
        <time>2010-10-07T10:32:45Z</time>
      </trkpt>
      <trkpt lat="45.60165" lon="6.11815">
        <ele>1404.6739501953</ele>
        <time>2010-10-07T10:32:48Z</time>
      </trkpt>
      <trkpt lat="45.60178" lon="6.1183">
        <ele>1402.8630371094</ele>
        <time>2010-10-07T10:32:54Z</time>
      </trkpt>
      <trkpt lat="45.60186" lon="6.11834">
        <ele>1400.998046875</ele>
        <time>2010-10-07T10:32:57Z</time>
      </trkpt>
      <trkpt lat="45.60188" lon="6.11838">
        <ele>1400.2259521484</ele>
        <time>2010-10-07T10:32:59Z</time>
      </trkpt>
      <trkpt lat="45.60194" lon="6.11849">
        <ele>1397.5710449219</ele>
        <time>2010-10-07T10:33:03Z</time>
      </trkpt>
      <trkpt lat="45.60208" lon="6.11863">
        <ele>1392.7139892578</ele>
        <time>2010-10-07T10:33:09Z</time>
      </trkpt>
      <trkpt lat="45.60215" lon="6.11871">
        <ele>1389.6199951172</ele>
        <time>2010-10-07T10:33:12Z</time>
      </trkpt>
      <trkpt lat="45.60228" lon="6.1189">
        <ele>1385.4739990234</ele>
        <time>2010-10-07T10:33:18Z</time>
      </trkpt>
      <trkpt lat="45.60238" lon="6.11902">
        <ele>1382.2860107422</ele>
        <time>2010-10-07T10:33:23Z</time>
      </trkpt>
      <trkpt lat="45.60247" lon="6.1191">
        <ele>1380.7399902344</ele>
        <time>2010-10-07T10:33:27Z</time>
      </trkpt>
      <trkpt lat="45.60262" lon="6.11924">
        <ele>1380.3809814453</ele>
        <time>2010-10-07T10:33:33Z</time>
      </trkpt>
      <trkpt lat="45.60273" lon="6.11932">
        <ele>1379.3659667969</ele>
        <time>2010-10-07T10:33:37Z</time>
      </trkpt>
      <trkpt lat="45.60285" lon="6.11942">
        <ele>1377.1939697266</ele>
        <time>2010-10-07T10:33:41Z</time>
      </trkpt>
      <trkpt lat="45.60287" lon="6.11945">
        <ele>1376.9709472656</ele>
        <time>2010-10-07T10:33:42Z</time>
      </trkpt>
      <trkpt lat="45.60299" lon="6.11957">
        <ele>1374.2299804688</ele>
        <time>2010-10-07T10:33:46Z</time>
      </trkpt>
      <trkpt lat="45.60315" lon="6.11969">
        <ele>1369.9040527344</ele>
        <time>2010-10-07T10:33:51Z</time>
      </trkpt>
      <trkpt lat="45.60326" lon="6.11976">
        <ele>1367.0560302734</ele>
        <time>2010-10-07T10:33:54Z</time>
      </trkpt>
      <trkpt lat="45.60343" lon="6.11984">
        <ele>1364.5379638672</ele>
        <time>2010-10-07T10:33:58Z</time>
      </trkpt>
      <trkpt lat="45.60355" lon="6.11987">
        <ele>1362.7189941406</ele>
        <time>2010-10-07T10:34:02Z</time>
      </trkpt>
      <trkpt lat="45.60359" lon="6.11988">
        <ele>1362.3690185547</ele>
        <time>2010-10-07T10:34:03Z</time>
      </trkpt>
      <trkpt lat="45.60377" lon="6.11999">
        <ele>1361.3289794922</ele>
        <time>2010-10-07T10:34:09Z</time>
      </trkpt>
      <trkpt lat="45.60392" lon="6.1201">
        <ele>1357.7130126953</ele>
        <time>2010-10-07T10:34:14Z</time>
      </trkpt>
      <trkpt lat="45.60412" lon="6.12017">
        <ele>1355.5710449219</ele>
        <time>2010-10-07T10:34:18Z</time>
      </trkpt>
      <trkpt lat="45.60424" lon="6.12023">
        <ele>1355.0600585938</ele>
        <time>2010-10-07T10:34:20Z</time>
      </trkpt>
      <trkpt lat="45.60446" lon="6.12034">
        <ele>1354.873046875</ele>
        <time>2010-10-07T10:34:25Z</time>
      </trkpt>
      <trkpt lat="45.60466" lon="6.12044">
        <ele>1354.9809570312</ele>
        <time>2010-10-07T10:34:31Z</time>
      </trkpt>
      <trkpt lat="45.60488" lon="6.12052">
        <ele>1354.3590087891</ele>
        <time>2010-10-07T10:34:37Z</time>
      </trkpt>
      <trkpt lat="45.60491" lon="6.12053">
        <ele>1354.1739501953</ele>
        <time>2010-10-07T10:34:38Z</time>
      </trkpt>
      <trkpt lat="45.60509" lon="6.12062">
        <ele>1352.3680419922</ele>
        <time>2010-10-07T10:34:43Z</time>
      </trkpt>
      <trkpt lat="45.60523" lon="6.12065">
        <ele>1351.6939697266</ele>
        <time>2010-10-07T10:34:48Z</time>
      </trkpt>
      <trkpt lat="45.60534" lon="6.12069">
        <ele>1350.7879638672</ele>
        <time>2010-10-07T10:34:51Z</time>
      </trkpt>
      <trkpt lat="45.60552" lon="6.12076">
        <ele>1349.7390136719</ele>
        <time>2010-10-07T10:34:56Z</time>
      </trkpt>
      <trkpt lat="45.60577" lon="6.12078">
        <ele>1346.6409912109</ele>
        <time>2010-10-07T10:35:01Z</time>
      </trkpt>
      <trkpt lat="45.60593" lon="6.12089">
        <ele>1344.3940429688</ele>
        <time>2010-10-07T10:35:04Z</time>
      </trkpt>
      <trkpt lat="45.60617" lon="6.12105">
        <ele>1344.4830322266</ele>
        <time>2010-10-07T10:35:10Z</time>
      </trkpt>
      <trkpt lat="45.60633" lon="6.12114">
        <ele>1344.7080078125</ele>
        <time>2010-10-07T10:35:15Z</time>
      </trkpt>
      <trkpt lat="45.6064" lon="6.12116">
        <ele>1344.5959472656</ele>
        <time>2010-10-07T10:35:17Z</time>
      </trkpt>
      <trkpt lat="45.60652" lon="6.12127">
        <ele>1343.5849609375</ele>
        <time>2010-10-07T10:35:21Z</time>
      </trkpt>
      <trkpt lat="45.60677" lon="6.12142">
        <ele>1341.9639892578</ele>
        <time>2010-10-07T10:35:28Z</time>
      </trkpt>
      <trkpt lat="45.6068" lon="6.12143">
        <ele>1341.70703125</ele>
        <time>2010-10-07T10:35:29Z</time>
      </trkpt>
      <trkpt lat="45.60682" lon="6.12144">
        <ele>1341.1949462891</ele>
        <time>2010-10-07T10:35:30Z</time>
      </trkpt>
      <trkpt lat="45.60685" lon="6.12143">
        <ele>1341.2249755859</ele>
        <time>2010-10-07T10:35:32Z</time>
      </trkpt>
      <trkpt lat="45.60699" lon="6.1215">
        <ele>1339.5689697266</ele>
        <time>2010-10-07T10:35:37Z</time>
      </trkpt>
      <trkpt lat="45.60702" lon="6.12153">
        <ele>1339.3409423828</ele>
        <time>2010-10-07T10:35:38Z</time>
      </trkpt>
      <trkpt lat="45.60712" lon="6.1216">
        <ele>1338.3449707031</ele>
        <time>2010-10-07T10:35:41Z</time>
      </trkpt>
      <trkpt lat="45.60728" lon="6.12171">
        <ele>1337.95703125</ele>
        <time>2010-10-07T10:35:46Z</time>
      </trkpt>
      <trkpt lat="45.60739" lon="6.12176">
        <ele>1339.0539550781</ele>
        <time>2010-10-07T10:35:51Z</time>
      </trkpt>
      <trkpt lat="45.60746" lon="6.1218">
        <ele>1340.6149902344</ele>
        <time>2010-10-07T10:35:56Z</time>
      </trkpt>
      <trkpt lat="45.60753" lon="6.12184">
        <ele>1341.6779785156</ele>
        <time>2010-10-07T10:36:00Z</time>
      </trkpt>
      <trkpt lat="45.60758" lon="6.12189">
        <ele>1342.0489501953</ele>
        <time>2010-10-07T10:36:03Z</time>
      </trkpt>
      <trkpt lat="45.60763" lon="6.12193">
        <ele>1342.5909423828</ele>
        <time>2010-10-07T10:36:06Z</time>
      </trkpt>
      <trkpt lat="45.60768" lon="6.12195">
        <ele>1343.1870117188</ele>
        <time>2010-10-07T10:36:09Z</time>
      </trkpt>
      <trkpt lat="45.60774" lon="6.12199">
        <ele>1344.5059814453</ele>
        <time>2010-10-07T10:36:14Z</time>
      </trkpt>
      <trkpt lat="45.60783" lon="6.12212">
        <ele>1346.0269775391</ele>
        <time>2010-10-07T10:36:23Z</time>
      </trkpt>
      <trkpt lat="45.60786" lon="6.12218">
        <ele>1347.0460205078</ele>
        <time>2010-10-07T10:36:27Z</time>
      </trkpt>
      <trkpt lat="45.60789" lon="6.12221">
        <ele>1347.6259765625</ele>
        <time>2010-10-07T10:36:34Z</time>
      </trkpt>
      <trkpt lat="45.60791" lon="6.12223">
        <ele>1347.5529785156</ele>
        <time>2010-10-07T10:36:55Z</time>
      </trkpt>
      <trkpt lat="45.60797" lon="6.12231">
        <ele>1348.6130371094</ele>
        <time>2010-10-07T10:37:00Z</time>
      </trkpt>
      <trkpt lat="45.60803" lon="6.12241">
        <ele>1349.8840332031</ele>
        <time>2010-10-07T10:37:06Z</time>
      </trkpt>
      <trkpt lat="45.60814" lon="6.12249">
        <ele>1351.6590576172</ele>
        <time>2010-10-07T10:37:14Z</time>
      </trkpt>
      <trkpt lat="45.6082" lon="6.12257">
        <ele>1353.7950439453</ele>
        <time>2010-10-07T10:37:20Z</time>
      </trkpt>
      <trkpt lat="45.60826" lon="6.12261">
        <ele>1354.7490234375</ele>
        <time>2010-10-07T10:37:26Z</time>
      </trkpt>
      <trkpt lat="45.60837" lon="6.1227">
        <ele>1356.001953125</ele>
        <time>2010-10-07T10:37:34Z</time>
      </trkpt>
      <trkpt lat="45.60851" lon="6.12272">
        <ele>1355.6870117188</ele>
        <time>2010-10-07T10:37:41Z</time>
      </trkpt>
      <trkpt lat="45.60862" lon="6.12276">
        <ele>1354.6459960938</ele>
        <time>2010-10-07T10:37:45Z</time>
      </trkpt>
      <trkpt lat="45.60874" lon="6.12287">
        <ele>1353.0930175781</ele>
        <time>2010-10-07T10:37:50Z</time>
      </trkpt>
      <trkpt lat="45.6088" lon="6.12301">
        <ele>1353.3699951172</ele>
        <time>2010-10-07T10:37:55Z</time>
      </trkpt>
      <trkpt lat="45.60881" lon="6.12304">
        <ele>1354.4899902344</ele>
        <time>2010-10-07T10:37:57Z</time>
      </trkpt>
      <trkpt lat="45.60883" lon="6.12305">
        <ele>1355.1689453125</ele>
        <time>2010-10-07T10:37:59Z</time>
      </trkpt>
      <trkpt lat="45.60885" lon="6.12309">
        <ele>1355.70703125</ele>
        <time>2010-10-07T10:38:02Z</time>
      </trkpt>
      <trkpt lat="45.60891" lon="6.12311">
        <ele>1357.4360351562</ele>
        <time>2010-10-07T10:38:10Z</time>
      </trkpt>
      <trkpt lat="45.60895" lon="6.12313">
        <ele>1358.0649414062</ele>
        <time>2010-10-07T10:38:17Z</time>
      </trkpt>
      <trkpt lat="45.60896" lon="6.12315">
        <ele>1357.9840087891</ele>
        <time>2010-10-07T10:38:20Z</time>
      </trkpt>
      <trkpt lat="45.60902" lon="6.12315">
        <ele>1358.1839599609</ele>
        <time>2010-10-07T10:38:25Z</time>
      </trkpt>
      <trkpt lat="45.6091" lon="6.12317">
        <ele>1358.7120361328</ele>
        <time>2010-10-07T10:38:31Z</time>
      </trkpt>
      <trkpt lat="45.60917" lon="6.12318">
        <ele>1359.7220458984</ele>
        <time>2010-10-07T10:38:35Z</time>
      </trkpt>
      <trkpt lat="45.60923" lon="6.1232">
        <ele>1359.9909667969</ele>
        <time>2010-10-07T10:38:39Z</time>
      </trkpt>
      <trkpt lat="45.60925" lon="6.12326">
        <ele>1361.0629882812</ele>
        <time>2010-10-07T10:38:43Z</time>
      </trkpt>
      <trkpt lat="45.6093" lon="6.12329">
        <ele>1361.2220458984</ele>
        <time>2010-10-07T10:38:47Z</time>
      </trkpt>
      <trkpt lat="45.60942" lon="6.12334">
        <ele>1360.7889404297</ele>
        <time>2010-10-07T10:38:53Z</time>
      </trkpt>
      <trkpt lat="45.60946" lon="6.12336">
        <ele>1360.8549804688</ele>
        <time>2010-10-07T10:38:55Z</time>
      </trkpt>
      <trkpt lat="45.60952" lon="6.12344">
        <ele>1360.6829833984</ele>
        <time>2010-10-07T10:38:59Z</time>
      </trkpt>
      <trkpt lat="45.60961" lon="6.12348">
        <ele>1361.7039794922</ele>
        <time>2010-10-07T10:39:04Z</time>
      </trkpt>
      <trkpt lat="45.6097" lon="6.12355">
        <ele>1362.7960205078</ele>
        <time>2010-10-07T10:39:10Z</time>
      </trkpt>
      <trkpt lat="45.60983" lon="6.12363">
        <ele>1363.8489990234</ele>
        <time>2010-10-07T10:39:17Z</time>
      </trkpt>
      <trkpt lat="45.60991" lon="6.12368">
        <ele>1365.2340087891</ele>
        <time>2010-10-07T10:39:23Z</time>
      </trkpt>
      <trkpt lat="45.61002" lon="6.12374">
        <ele>1367.0889892578</ele>
        <time>2010-10-07T10:39:32Z</time>
      </trkpt>
      <trkpt lat="45.61015" lon="6.12371">
        <ele>1368.4799804688</ele>
        <time>2010-10-07T10:39:41Z</time>
      </trkpt>
      <trkpt lat="45.61032" lon="6.12371">
        <ele>1367.9289550781</ele>
        <time>2010-10-07T10:39:47Z</time>
      </trkpt>
      <trkpt lat="45.61046" lon="6.12371">
        <ele>1368.1169433594</ele>
        <time>2010-10-07T10:39:53Z</time>
      </trkpt>
      <trkpt lat="45.61066" lon="6.12373">
        <ele>1369.2969970703</ele>
        <time>2010-10-07T10:40:01Z</time>
      </trkpt>
      <trkpt lat="45.61081" lon="6.12375">
        <ele>1370.7259521484</ele>
        <time>2010-10-07T10:40:07Z</time>
      </trkpt>
      <trkpt lat="45.61102" lon="6.12377">
        <ele>1373.5999755859</ele>
        <time>2010-10-07T10:40:16Z</time>
      </trkpt>
      <trkpt lat="45.61118" lon="6.12377">
        <ele>1374.9339599609</ele>
        <time>2010-10-07T10:40:24Z</time>
      </trkpt>
      <trkpt lat="45.61134" lon="6.12379">
        <ele>1374.6719970703</ele>
        <time>2010-10-07T10:40:31Z</time>
      </trkpt>
      <trkpt lat="45.61146" lon="6.12388">
        <ele>1374.3210449219</ele>
        <time>2010-10-07T10:40:37Z</time>
      </trkpt>
      <trkpt lat="45.6115" lon="6.1239">
        <ele>1374.1939697266</ele>
        <time>2010-10-07T10:40:41Z</time>
      </trkpt>
      <trkpt lat="45.6115" lon="6.1239">
        <ele>1373.9499511719</ele>
        <time>2010-10-07T10:40:48Z</time>
      </trkpt>
      <trkpt lat="45.61153" lon="6.12389">
        <ele>1373.9069824219</ele>
        <time>2010-10-07T10:41:06Z</time>
      </trkpt>
      <trkpt lat="45.61152" lon="6.12389">
        <ele>1373.9410400391</ele>
        <time>2010-10-07T10:41:10Z</time>
      </trkpt>
      <trkpt lat="45.61153" lon="6.12389">
        <ele>1373.7490234375</ele>
        <time>2010-10-07T10:41:14Z</time>
      </trkpt>
      <trkpt lat="45.61155" lon="6.12392">
        <ele>1373.3969726562</ele>
        <time>2010-10-07T10:41:21Z</time>
      </trkpt>
      <trkpt lat="45.61158" lon="6.12393">
        <ele>1372.1169433594</ele>
        <time>2010-10-07T10:41:43Z</time>
      </trkpt>
      <trkpt lat="45.6116" lon="6.12393">
        <ele>1372.9959716797</ele>
        <time>2010-10-07T10:41:56Z</time>
      </trkpt>
      <trkpt lat="45.6116" lon="6.12393">
        <ele>1372.9820556641</ele>
        <time>2010-10-07T10:41:57Z</time>
      </trkpt>
      <trkpt lat="45.61163" lon="6.12392">
        <ele>1372.7819824219</ele>
        <time>2010-10-07T10:42:52Z</time>
      </trkpt>
      <trkpt lat="45.61172" lon="6.12397">
        <ele>1371.8830566406</ele>
        <time>2010-10-07T10:42:57Z</time>
      </trkpt>
      <trkpt lat="45.61197" lon="6.12411">
        <ele>1370.3509521484</ele>
        <time>2010-10-07T10:43:04Z</time>
      </trkpt>
      <trkpt lat="45.61226" lon="6.12426">
        <ele>1370.251953125</ele>
        <time>2010-10-07T10:43:13Z</time>
      </trkpt>
      <trkpt lat="45.61248" lon="6.12436">
        <ele>1371.3709716797</ele>
        <time>2010-10-07T10:43:21Z</time>
      </trkpt>
      <trkpt lat="45.61263" lon="6.12441">
        <ele>1372.3520507812</ele>
        <time>2010-10-07T10:43:26Z</time>
      </trkpt>
      <trkpt lat="45.61271" lon="6.12443">
        <ele>1373.2440185547</ele>
        <time>2010-10-07T10:43:29Z</time>
      </trkpt>
      <trkpt lat="45.61279" lon="6.12445">
        <ele>1374.2769775391</ele>
        <time>2010-10-07T10:43:32Z</time>
      </trkpt>
      <trkpt lat="45.61282" lon="6.12446">
        <ele>1374.7280273438</ele>
        <time>2010-10-07T10:43:33Z</time>
      </trkpt>
      <trkpt lat="45.61284" lon="6.12446">
        <ele>1374.9890136719</ele>
        <time>2010-10-07T10:43:34Z</time>
      </trkpt>
      <trkpt lat="45.6129" lon="6.12449">
        <ele>1375.3719482422</ele>
        <time>2010-10-07T10:43:37Z</time>
      </trkpt>
      <trkpt lat="45.61295" lon="6.12451">
        <ele>1375.8029785156</ele>
        <time>2010-10-07T10:43:39Z</time>
      </trkpt>
      <trkpt lat="45.61303" lon="6.12452">
        <ele>1376.7659912109</ele>
        <time>2010-10-07T10:43:43Z</time>
      </trkpt>
      <trkpt lat="45.61319" lon="6.12458">
        <ele>1377.1479492188</ele>
        <time>2010-10-07T10:43:50Z</time>
      </trkpt>
      <trkpt lat="45.61333" lon="6.12464">
        <ele>1379.1300048828</ele>
        <time>2010-10-07T10:43:57Z</time>
      </trkpt>
      <trkpt lat="45.61337" lon="6.12464">
        <ele>1379.8620605469</ele>
        <time>2010-10-07T10:43:59Z</time>
      </trkpt>
      <trkpt lat="45.61348" lon="6.12466">
        <ele>1380.6899414062</ele>
        <time>2010-10-07T10:44:06Z</time>
      </trkpt>
      <trkpt lat="45.61358" lon="6.12472">
        <ele>1380.6929931641</ele>
        <time>2010-10-07T10:44:11Z</time>
      </trkpt>
      <trkpt lat="45.6137" lon="6.12477">
        <ele>1380.9849853516</ele>
        <time>2010-10-07T10:44:17Z</time>
      </trkpt>
      <trkpt lat="45.61384" lon="6.12481">
        <ele>1382.0989990234</ele>
        <time>2010-10-07T10:44:23Z</time>
      </trkpt>
      <trkpt lat="45.61395" lon="6.12486">
        <ele>1383.2840576172</ele>
        <time>2010-10-07T10:44:29Z</time>
      </trkpt>
      <trkpt lat="45.61398" lon="6.12488">
        <ele>1382.9260253906</ele>
        <time>2010-10-07T10:44:34Z</time>
      </trkpt>
      <trkpt lat="45.61398" lon="6.12488">
        <ele>1382.6779785156</ele>
        <time>2010-10-07T10:44:48Z</time>
      </trkpt>
      <trkpt lat="45.61397" lon="6.12489">
        <ele>1382.5870361328</ele>
        <time>2010-10-07T10:44:57Z</time>
      </trkpt>
      <trkpt lat="45.61397" lon="6.12489">
        <ele>1382.6700439453</ele>
        <time>2010-10-07T10:45:02Z</time>
      </trkpt>
      <trkpt lat="45.61397" lon="6.12489">
        <ele>1382.6149902344</ele>
        <time>2010-10-07T10:45:06Z</time>
      </trkpt>
      <trkpt lat="45.61397" lon="6.12489">
        <ele>1382.6860351562</ele>
        <time>2010-10-07T10:45:09Z</time>
      </trkpt>
      <trkpt lat="45.61397" lon="6.12489">
        <ele>1382.4919433594</ele>
        <time>2010-10-07T10:45:14Z</time>
      </trkpt>
      <trkpt lat="45.61397" lon="6.12489">
        <ele>1382.3709716797</ele>
        <time>2010-10-07T10:45:18Z</time>
      </trkpt>
      <trkpt lat="45.61397" lon="6.12489">
        <ele>1382.5880126953</ele>
        <time>2010-10-07T10:45:22Z</time>
      </trkpt>
      <trkpt lat="45.61403" lon="6.12495">
        <ele>1381.9919433594</ele>
        <time>2010-10-07T10:45:26Z</time>
      </trkpt>
      <trkpt lat="45.61419" lon="6.1251">
        <ele>1381.4659423828</ele>
        <time>2010-10-07T10:45:32Z</time>
      </trkpt>
      <trkpt lat="45.61439" lon="6.12522">
        <ele>1381.5400390625</ele>
        <time>2010-10-07T10:45:38Z</time>
      </trkpt>
      <trkpt lat="45.61448" lon="6.12523">
        <ele>1381.58203125</ele>
        <time>2010-10-07T10:45:41Z</time>
      </trkpt>
      <trkpt lat="45.61471" lon="6.12532">
        <ele>1380.3170166016</ele>
        <time>2010-10-07T10:45:47Z</time>
      </trkpt>
      <trkpt lat="45.61482" lon="6.12531">
        <ele>1378.5009765625</ele>
        <time>2010-10-07T10:45:51Z</time>
      </trkpt>
      <trkpt lat="45.61496" lon="6.12545">
        <ele>1375.5450439453</ele>
        <time>2010-10-07T10:45:56Z</time>
      </trkpt>
      <trkpt lat="45.61513" lon="6.12558">
        <ele>1371.6899414062</ele>
        <time>2010-10-07T10:46:00Z</time>
      </trkpt>
      <trkpt lat="45.61527" lon="6.12569">
        <ele>1368.7080078125</ele>
        <time>2010-10-07T10:46:04Z</time>
      </trkpt>
      <trkpt lat="45.61545" lon="6.12588">
        <ele>1364.4919433594</ele>
        <time>2010-10-07T10:46:08Z</time>
      </trkpt>
      <trkpt lat="45.61557" lon="6.12597">
        <ele>1363.5379638672</ele>
        <time>2010-10-07T10:46:10Z</time>
      </trkpt>
      <trkpt lat="45.6157" lon="6.12603">
        <ele>1364.0200195312</ele>
        <time>2010-10-07T10:46:12Z</time>
      </trkpt>
      <trkpt lat="45.6158" lon="6.1261">
        <ele>1364.7110595703</ele>
        <time>2010-10-07T10:46:14Z</time>
      </trkpt>
      <trkpt lat="45.61594" lon="6.12622">
        <ele>1367.4040527344</ele>
        <time>2010-10-07T10:46:19Z</time>
      </trkpt>
      <trkpt lat="45.61597" lon="6.12625">
        <ele>1368.4799804688</ele>
        <time>2010-10-07T10:46:23Z</time>
      </trkpt>
      <trkpt lat="45.61598" lon="6.12626">
        <ele>1368.5319824219</ele>
        <time>2010-10-07T10:46:25Z</time>
      </trkpt>
      <trkpt lat="45.616" lon="6.12628">
        <ele>1369.0209960938</ele>
        <time>2010-10-07T10:46:29Z</time>
      </trkpt>
      <trkpt lat="45.61603" lon="6.12633">
        <ele>1369.1090087891</ele>
        <time>2010-10-07T10:46:33Z</time>
      </trkpt>
      <trkpt lat="45.61606" lon="6.12637">
        <ele>1369.2209472656</ele>
        <time>2010-10-07T10:46:36Z</time>
      </trkpt>
      <trkpt lat="45.61612" lon="6.1264">
        <ele>1370.0279541016</ele>
        <time>2010-10-07T10:46:44Z</time>
      </trkpt>
      <trkpt lat="45.61619" lon="6.12644">
        <ele>1372.3220214844</ele>
        <time>2010-10-07T10:46:52Z</time>
      </trkpt>
      <trkpt lat="45.61624" lon="6.12647">
        <ele>1373.4029541016</ele>
        <time>2010-10-07T10:46:57Z</time>
      </trkpt>
      <trkpt lat="45.61627" lon="6.12648">
        <ele>1373.6419677734</ele>
        <time>2010-10-07T10:47:02Z</time>
      </trkpt>
      <trkpt lat="45.61633" lon="6.1265">
        <ele>1374.3330078125</ele>
        <time>2010-10-07T10:47:07Z</time>
      </trkpt>
      <trkpt lat="45.61636" lon="6.12652">
        <ele>1374.8900146484</ele>
        <time>2010-10-07T10:47:10Z</time>
      </trkpt>
      <trkpt lat="45.61641" lon="6.12655">
        <ele>1375.5059814453</ele>
        <time>2010-10-07T10:47:17Z</time>
      </trkpt>
      <trkpt lat="45.61647" lon="6.12661">
        <ele>1376.1120605469</ele>
        <time>2010-10-07T10:47:25Z</time>
      </trkpt>
      <trkpt lat="45.61649" lon="6.12662">
        <ele>1376.3039550781</ele>
        <time>2010-10-07T10:47:30Z</time>
      </trkpt>
      <trkpt lat="45.61652" lon="6.12666">
        <ele>1376.0699462891</ele>
        <time>2010-10-07T10:47:38Z</time>
      </trkpt>
      <trkpt lat="45.61655" lon="6.12668">
        <ele>1375.8590087891</ele>
        <time>2010-10-07T10:47:40Z</time>
      </trkpt>
      <trkpt lat="45.61658" lon="6.12672">
        <ele>1375.3640136719</ele>
        <time>2010-10-07T10:47:46Z</time>
      </trkpt>
      <trkpt lat="45.61662" lon="6.12675">
        <ele>1374.5469970703</ele>
        <time>2010-10-07T10:47:53Z</time>
      </trkpt>
      <trkpt lat="45.61666" lon="6.12679">
        <ele>1374.2419433594</ele>
        <time>2010-10-07T10:47:58Z</time>
      </trkpt>
      <trkpt lat="45.61668" lon="6.12679">
        <ele>1374.3800048828</ele>
        <time>2010-10-07T10:48:03Z</time>
      </trkpt>
      <trkpt lat="45.6167" lon="6.1268">
        <ele>1373.9739990234</ele>
        <time>2010-10-07T10:48:06Z</time>
      </trkpt>
      <trkpt lat="45.61676" lon="6.12683">
        <ele>1372.4520263672</ele>
        <time>2010-10-07T10:48:14Z</time>
      </trkpt>
      <trkpt lat="45.61679" lon="6.12685">
        <ele>1371.0889892578</ele>
        <time>2010-10-07T10:48:20Z</time>
      </trkpt>
      <trkpt lat="45.61685" lon="6.12689">
        <ele>1369.6700439453</ele>
        <time>2010-10-07T10:48:27Z</time>
      </trkpt>
      <trkpt lat="45.61692" lon="6.12694">
        <ele>1368.9410400391</ele>
        <time>2010-10-07T10:48:35Z</time>
      </trkpt>
      <trkpt lat="45.61703" lon="6.12706">
        <ele>1368.1889648438</ele>
        <time>2010-10-07T10:48:40Z</time>
      </trkpt>
      <trkpt lat="45.61713" lon="6.12716">
        <ele>1366.7230224609</ele>
        <time>2010-10-07T10:48:43Z</time>
      </trkpt>
      <trkpt lat="45.6172" lon="6.12724">
        <ele>1365.5340576172</ele>
        <time>2010-10-07T10:48:45Z</time>
      </trkpt>
      <trkpt lat="45.61732" lon="6.12737">
        <ele>1363.7750244141</ele>
        <time>2010-10-07T10:48:48Z</time>
      </trkpt>
      <trkpt lat="45.61749" lon="6.12747">
        <ele>1362.4270019531</ele>
        <time>2010-10-07T10:48:51Z</time>
      </trkpt>
      <trkpt lat="45.61755" lon="6.12748">
        <ele>1362.2010498047</ele>
        <time>2010-10-07T10:48:52Z</time>
      </trkpt>
      <trkpt lat="45.61777" lon="6.12763">
        <ele>1360.3120117188</ele>
        <time>2010-10-07T10:48:57Z</time>
      </trkpt>
      <trkpt lat="45.61792" lon="6.12771">
        <ele>1357.7810058594</ele>
        <time>2010-10-07T10:49:00Z</time>
      </trkpt>
      <trkpt lat="45.6181" lon="6.12783">
        <ele>1354.0560302734</ele>
        <time>2010-10-07T10:49:06Z</time>
      </trkpt>
      <trkpt lat="45.61823" lon="6.12797">
        <ele>1350.333984375</ele>
        <time>2010-10-07T10:49:12Z</time>
      </trkpt>
      <trkpt lat="45.61831" lon="6.1281">
        <ele>1346.1860351562</ele>
        <time>2010-10-07T10:49:16Z</time>
      </trkpt>
      <trkpt lat="45.6185" lon="6.12832">
        <ele>1337.3699951172</ele>
        <time>2010-10-07T10:49:21Z</time>
      </trkpt>
      <trkpt lat="45.61857" lon="6.12841">
        <ele>1335.3800048828</ele>
        <time>2010-10-07T10:49:23Z</time>
      </trkpt>
      <trkpt lat="45.61867" lon="6.12858">
        <ele>1332.6540527344</ele>
        <time>2010-10-07T10:49:27Z</time>
      </trkpt>
      <trkpt lat="45.61874" lon="6.12867">
        <ele>1330.6040039062</ele>
        <time>2010-10-07T10:49:29Z</time>
      </trkpt>
      <trkpt lat="45.61885" lon="6.12889">
        <ele>1326.2600097656</ele>
        <time>2010-10-07T10:49:33Z</time>
      </trkpt>
      <trkpt lat="45.61895" lon="6.12903">
        <ele>1324.6290283203</ele>
        <time>2010-10-07T10:49:36Z</time>
      </trkpt>
      <trkpt lat="45.61904" lon="6.12921">
        <ele>1321.4399414062</ele>
        <time>2010-10-07T10:49:41Z</time>
      </trkpt>
      <trkpt lat="45.61906" lon="6.12924">
        <ele>1320.83203125</ele>
        <time>2010-10-07T10:49:42Z</time>
      </trkpt>
      <trkpt lat="45.61911" lon="6.12928">
        <ele>1320.0050048828</ele>
        <time>2010-10-07T10:49:44Z</time>
      </trkpt>
      <trkpt lat="45.61924" lon="6.12941">
        <ele>1318.4270019531</ele>
        <time>2010-10-07T10:49:50Z</time>
      </trkpt>
      <trkpt lat="45.61935" lon="6.12955">
        <ele>1315.5209960938</ele>
        <time>2010-10-07T10:49:55Z</time>
      </trkpt>
      <trkpt lat="45.61945" lon="6.12969">
        <ele>1312.2869873047</ele>
        <time>2010-10-07T10:49:59Z</time>
      </trkpt>
      <trkpt lat="45.61957" lon="6.12981">
        <ele>1309.8029785156</ele>
        <time>2010-10-07T10:50:03Z</time>
      </trkpt>
      <trkpt lat="45.61972" lon="6.12998">
        <ele>1306.8449707031</ele>
        <time>2010-10-07T10:50:08Z</time>
      </trkpt>
      <trkpt lat="45.61981" lon="6.13007">
        <ele>1306.1340332031</ele>
        <time>2010-10-07T10:50:12Z</time>
      </trkpt>
      <trkpt lat="45.61983" lon="6.1301">
        <ele>1305.6979980469</ele>
        <time>2010-10-07T10:50:17Z</time>
      </trkpt>
      <trkpt lat="45.61983" lon="6.13009">
        <ele>1305.6169433594</ele>
        <time>2010-10-07T10:50:53Z</time>
      </trkpt>
      <trkpt lat="45.61989" lon="6.13006">
        <ele>1305.3029785156</ele>
        <time>2010-10-07T10:50:58Z</time>
      </trkpt>
      <trkpt lat="45.62" lon="6.13003">
        <ele>1304.4420166016</ele>
        <time>2010-10-07T10:51:03Z</time>
      </trkpt>
      <trkpt lat="45.62003" lon="6.13004">
        <ele>1304.4580078125</ele>
        <time>2010-10-07T10:51:08Z</time>
      </trkpt>
      <trkpt lat="45.62003" lon="6.13003">
        <ele>1304.4969482422</ele>
        <time>2010-10-07T10:51:13Z</time>
      </trkpt>
      <trkpt lat="45.62005" lon="6.13003">
        <ele>1304.2790527344</ele>
        <time>2010-10-07T10:51:23Z</time>
      </trkpt>
      <trkpt lat="45.62008" lon="6.13001">
        <ele>1304.3039550781</ele>
        <time>2010-10-07T10:51:29Z</time>
      </trkpt>
      <trkpt lat="45.62009" lon="6.13002">
        <ele>1304.4649658203</ele>
        <time>2010-10-07T10:51:32Z</time>
      </trkpt>
      <trkpt lat="45.6201" lon="6.13007">
        <ele>1305.16796875</ele>
        <time>2010-10-07T10:51:37Z</time>
      </trkpt>
      <trkpt lat="45.62011" lon="6.13008">
        <ele>1305.5290527344</ele>
        <time>2010-10-07T10:51:41Z</time>
      </trkpt>
      <trkpt lat="45.62012" lon="6.13008">
        <ele>1306.4010009766</ele>
        <time>2010-10-07T10:51:44Z</time>
      </trkpt>
      <trkpt lat="45.62015" lon="6.13011">
        <ele>1307.375</ele>
        <time>2010-10-07T10:51:51Z</time>
      </trkpt>
      <trkpt lat="45.62019" lon="6.13011">
        <ele>1308.2340087891</ele>
        <time>2010-10-07T10:51:57Z</time>
      </trkpt>
      <trkpt lat="45.62021" lon="6.13012">
        <ele>1309.1779785156</ele>
        <time>2010-10-07T10:52:01Z</time>
      </trkpt>
      <trkpt lat="45.62024" lon="6.13012">
        <ele>1310.5510253906</ele>
        <time>2010-10-07T10:52:05Z</time>
      </trkpt>
      <trkpt lat="45.62025" lon="6.1301">
        <ele>1311.6970214844</ele>
        <time>2010-10-07T10:52:09Z</time>
      </trkpt>
      <trkpt lat="45.62028" lon="6.13009">
        <ele>1312.2139892578</ele>
        <time>2010-10-07T10:52:15Z</time>
      </trkpt>
      <trkpt lat="45.62032" lon="6.13009">
        <ele>1312.5469970703</ele>
        <time>2010-10-07T10:52:27Z</time>
      </trkpt>
      <trkpt lat="45.62036" lon="6.13015">
        <ele>1312.1429443359</ele>
        <time>2010-10-07T10:52:32Z</time>
      </trkpt>
      <trkpt lat="45.62043" lon="6.13023">
        <ele>1310.8640136719</ele>
        <time>2010-10-07T10:52:36Z</time>
      </trkpt>
      <trkpt lat="45.62049" lon="6.13023">
        <ele>1309.9749755859</ele>
        <time>2010-10-07T10:52:38Z</time>
      </trkpt>
      <trkpt lat="45.62057" lon="6.13027">
        <ele>1308.2330322266</ele>
        <time>2010-10-07T10:52:42Z</time>
      </trkpt>
      <trkpt lat="45.62063" lon="6.13034">
        <ele>1307.7440185547</ele>
        <time>2010-10-07T10:52:46Z</time>
      </trkpt>
      <trkpt lat="45.62072" lon="6.13042">
        <ele>1305.4780273438</ele>
        <time>2010-10-07T10:52:52Z</time>
      </trkpt>
      <trkpt lat="45.62073" lon="6.13043">
        <ele>1305.2860107422</ele>
        <time>2010-10-07T10:52:53Z</time>
      </trkpt>
      <trkpt lat="45.62078" lon="6.1305">
        <ele>1303.3690185547</ele>
        <time>2010-10-07T10:52:57Z</time>
      </trkpt>
      <trkpt lat="45.6208" lon="6.13053">
        <ele>1302.7729492188</ele>
        <time>2010-10-07T10:52:58Z</time>
      </trkpt>
      <trkpt lat="45.6209" lon="6.13061">
        <ele>1300.5520019531</ele>
        <time>2010-10-07T10:53:04Z</time>
      </trkpt>
      <trkpt lat="45.6209" lon="6.13062">
        <ele>1300.2819824219</ele>
        <time>2010-10-07T10:53:05Z</time>
      </trkpt>
      <trkpt lat="45.62095" lon="6.13065">
        <ele>1300.8220214844</ele>
        <time>2010-10-07T10:53:12Z</time>
      </trkpt>
      <trkpt lat="45.62097" lon="6.13068">
        <ele>1300.6929931641</ele>
        <time>2010-10-07T10:53:15Z</time>
      </trkpt>
      <trkpt lat="45.62101" lon="6.13073">
        <ele>1301.0240478516</ele>
        <time>2010-10-07T10:53:21Z</time>
      </trkpt>
      <trkpt lat="45.6211" lon="6.13082">
        <ele>1299.5250244141</ele>
        <time>2010-10-07T10:53:33Z</time>
      </trkpt>
      <trkpt lat="45.62115" lon="6.13086">
        <ele>1298.9580078125</ele>
        <time>2010-10-07T10:53:40Z</time>
      </trkpt>
      <trkpt lat="45.6212" lon="6.1309">
        <ele>1298.9129638672</ele>
        <time>2010-10-07T10:53:46Z</time>
      </trkpt>
      <trkpt lat="45.62123" lon="6.13095">
        <ele>1299.1099853516</ele>
        <time>2010-10-07T10:53:55Z</time>
      </trkpt>
      <trkpt lat="45.62124" lon="6.13101">
        <ele>1298.8389892578</ele>
        <time>2010-10-07T10:54:02Z</time>
      </trkpt>
      <trkpt lat="45.62127" lon="6.13103">
        <ele>1298.1870117188</ele>
        <time>2010-10-07T10:54:08Z</time>
      </trkpt>
      <trkpt lat="45.62128" lon="6.13104">
        <ele>1297.4630126953</ele>
        <time>2010-10-07T10:54:13Z</time>
      </trkpt>
      <trkpt lat="45.6213" lon="6.13105">
        <ele>1296.9479980469</ele>
        <time>2010-10-07T10:54:19Z</time>
      </trkpt>
      <trkpt lat="45.62131" lon="6.13107">
        <ele>1296.6330566406</ele>
        <time>2010-10-07T10:54:22Z</time>
      </trkpt>
      <trkpt lat="45.62133" lon="6.13109">
        <ele>1295.4060058594</ele>
        <time>2010-10-07T10:54:25Z</time>
      </trkpt>
      <trkpt lat="45.62135" lon="6.1311">
        <ele>1295.2349853516</ele>
        <time>2010-10-07T10:54:34Z</time>
      </trkpt>
      <trkpt lat="45.62138" lon="6.13112">
        <ele>1295.3780517578</ele>
        <time>2010-10-07T10:54:42Z</time>
      </trkpt>
      <trkpt lat="45.6214" lon="6.13114">
        <ele>1295.2230224609</ele>
        <time>2010-10-07T10:54:48Z</time>
      </trkpt>
      <trkpt lat="45.62143" lon="6.13118">
        <ele>1294.6510009766</ele>
        <time>2010-10-07T10:54:56Z</time>
      </trkpt>
      <trkpt lat="45.62146" lon="6.1312">
        <ele>1293.8380126953</ele>
        <time>2010-10-07T10:55:02Z</time>
      </trkpt>
      <trkpt lat="45.62155" lon="6.13129">
        <ele>1291.8719482422</ele>
        <time>2010-10-07T10:55:11Z</time>
      </trkpt>
      <trkpt lat="45.62157" lon="6.13132">
        <ele>1290.8740234375</ele>
        <time>2010-10-07T10:55:14Z</time>
      </trkpt>
      <trkpt lat="45.6216" lon="6.13141">
        <ele>1289.1190185547</ele>
        <time>2010-10-07T10:55:21Z</time>
      </trkpt>
      <trkpt lat="45.62162" lon="6.1315">
        <ele>1287.9699707031</ele>
        <time>2010-10-07T10:55:27Z</time>
      </trkpt>
      <trkpt lat="45.62168" lon="6.13164">
        <ele>1287.0129394531</ele>
        <time>2010-10-07T10:55:32Z</time>
      </trkpt>
      <trkpt lat="45.6217" lon="6.13168">
        <ele>1287.2130126953</ele>
        <time>2010-10-07T10:55:34Z</time>
      </trkpt>
      <trkpt lat="45.62177" lon="6.13176">
        <ele>1287.5329589844</ele>
        <time>2010-10-07T10:55:39Z</time>
      </trkpt>
      <trkpt lat="45.62186" lon="6.13189">
        <ele>1287.5269775391</ele>
        <time>2010-10-07T10:55:44Z</time>
      </trkpt>
      <trkpt lat="45.62192" lon="6.13195">
        <ele>1288.6540527344</ele>
        <time>2010-10-07T10:55:48Z</time>
      </trkpt>
      <trkpt lat="45.62198" lon="6.13198">
        <ele>1289.2719726562</ele>
        <time>2010-10-07T10:55:54Z</time>
      </trkpt>
      <trkpt lat="45.62205" lon="6.13202">
        <ele>1289</ele>
        <time>2010-10-07T10:56:00Z</time>
      </trkpt>
      <trkpt lat="45.62207" lon="6.13202">
        <ele>1288.95703125</ele>
        <time>2010-10-07T10:56:01Z</time>
      </trkpt>
      <trkpt lat="45.62211" lon="6.13206">
        <ele>1289.1600341797</ele>
        <time>2010-10-07T10:56:05Z</time>
      </trkpt>
      <trkpt lat="45.62222" lon="6.13213">
        <ele>1288.751953125</ele>
        <time>2010-10-07T10:56:12Z</time>
      </trkpt>
      <trkpt lat="45.62225" lon="6.13215">
        <ele>1288.6970214844</ele>
        <time>2010-10-07T10:56:15Z</time>
      </trkpt>
      <trkpt lat="45.62233" lon="6.1322">
        <ele>1288.0589599609</ele>
        <time>2010-10-07T10:56:22Z</time>
      </trkpt>
      <trkpt lat="45.62238" lon="6.13224">
        <ele>1287.4260253906</ele>
        <time>2010-10-07T10:56:30Z</time>
      </trkpt>
      <trkpt lat="45.62243" lon="6.13229">
        <ele>1287.08203125</ele>
        <time>2010-10-07T10:56:36Z</time>
      </trkpt>
      <trkpt lat="45.62246" lon="6.1323">
        <ele>1287.2700195312</ele>
        <time>2010-10-07T10:56:40Z</time>
      </trkpt>
      <trkpt lat="45.62251" lon="6.13229">
        <ele>1288.0679931641</ele>
        <time>2010-10-07T10:56:46Z</time>
      </trkpt>
      <trkpt lat="45.62255" lon="6.13231">
        <ele>1289.2330322266</ele>
        <time>2010-10-07T10:56:52Z</time>
      </trkpt>
      <trkpt lat="45.62259" lon="6.13231">
        <ele>1289.7149658203</ele>
        <time>2010-10-07T10:56:56Z</time>
      </trkpt>
      <trkpt lat="45.62263" lon="6.13231">
        <ele>1290.6169433594</ele>
        <time>2010-10-07T10:57:01Z</time>
      </trkpt>
      <trkpt lat="45.62272" lon="6.13233">
        <ele>1291.3010253906</ele>
        <time>2010-10-07T10:57:08Z</time>
      </trkpt>
      <trkpt lat="45.6228" lon="6.13238">
        <ele>1292.1760253906</ele>
        <time>2010-10-07T10:57:13Z</time>
      </trkpt>
      <trkpt lat="45.62287" lon="6.13242">
        <ele>1293.7989501953</ele>
        <time>2010-10-07T10:57:20Z</time>
      </trkpt>
      <trkpt lat="45.62294" lon="6.13247">
        <ele>1294.6870117188</ele>
        <time>2010-10-07T10:57:27Z</time>
      </trkpt>
      <trkpt lat="45.623" lon="6.13249">
        <ele>1295.2080078125</ele>
        <time>2010-10-07T10:57:32Z</time>
      </trkpt>
      <trkpt lat="45.62307" lon="6.13253">
        <ele>1295.2469482422</ele>
        <time>2010-10-07T10:57:39Z</time>
      </trkpt>
      <trkpt lat="45.6231" lon="6.13256">
        <ele>1294.7010498047</ele>
        <time>2010-10-07T10:57:43Z</time>
      </trkpt>
      <trkpt lat="45.62314" lon="6.13255">
        <ele>1295.3330078125</ele>
        <time>2010-10-07T10:57:49Z</time>
      </trkpt>
      <trkpt lat="45.62322" lon="6.1326">
        <ele>1294.9270019531</ele>
        <time>2010-10-07T10:57:56Z</time>
      </trkpt>
      <trkpt lat="45.62329" lon="6.13267">
        <ele>1293.7130126953</ele>
        <time>2010-10-07T10:58:02Z</time>
      </trkpt>
      <trkpt lat="45.62334" lon="6.13271">
        <ele>1293.5179443359</ele>
        <time>2010-10-07T10:58:08Z</time>
      </trkpt>
      <trkpt lat="45.62341" lon="6.13277">
        <ele>1293.4840087891</ele>
        <time>2010-10-07T10:58:15Z</time>
      </trkpt>
      <trkpt lat="45.62346" lon="6.13283">
        <ele>1293.0999755859</ele>
        <time>2010-10-07T10:58:24Z</time>
      </trkpt>
      <trkpt lat="45.6235" lon="6.13286">
        <ele>1292.8859863281</ele>
        <time>2010-10-07T10:58:29Z</time>
      </trkpt>
      <trkpt lat="45.62354" lon="6.13286">
        <ele>1293.083984375</ele>
        <time>2010-10-07T10:58:32Z</time>
      </trkpt>
      <trkpt lat="45.62361" lon="6.13289">
        <ele>1294.1850585938</ele>
        <time>2010-10-07T10:58:37Z</time>
      </trkpt>
      <trkpt lat="45.6237" lon="6.13294">
        <ele>1295.2540283203</ele>
        <time>2010-10-07T10:58:50Z</time>
      </trkpt>
      <trkpt lat="45.62374" lon="6.13295">
        <ele>1296.4010009766</ele>
        <time>2010-10-07T10:58:55Z</time>
      </trkpt>
      <trkpt lat="45.62378" lon="6.13298">
        <ele>1298.0419921875</ele>
        <time>2010-10-07T10:59:01Z</time>
      </trkpt>
      <trkpt lat="45.62383" lon="6.133">
        <ele>1299.7010498047</ele>
        <time>2010-10-07T10:59:08Z</time>
      </trkpt>
      <trkpt lat="45.62387" lon="6.13303">
        <ele>1300.4010009766</ele>
        <time>2010-10-07T10:59:14Z</time>
      </trkpt>
      <trkpt lat="45.62393" lon="6.13308">
        <ele>1302.0760498047</ele>
        <time>2010-10-07T10:59:22Z</time>
      </trkpt>
      <trkpt lat="45.62396" lon="6.13314">
        <ele>1303.4610595703</ele>
        <time>2010-10-07T10:59:28Z</time>
      </trkpt>
      <trkpt lat="45.624" lon="6.13316">
        <ele>1304.6970214844</ele>
        <time>2010-10-07T10:59:34Z</time>
      </trkpt>
      <trkpt lat="45.62402" lon="6.13319">
        <ele>1305.8389892578</ele>
        <time>2010-10-07T10:59:39Z</time>
      </trkpt>
      <trkpt lat="45.62407" lon="6.13322">
        <ele>1307.4930419922</ele>
        <time>2010-10-07T10:59:48Z</time>
      </trkpt>
      <trkpt lat="45.6241" lon="6.13326">
        <ele>1308.3570556641</ele>
        <time>2010-10-07T10:59:59Z</time>
      </trkpt>
      <trkpt lat="45.62415" lon="6.13333">
        <ele>1308.6540527344</ele>
        <time>2010-10-07T11:00:05Z</time>
      </trkpt>
      <trkpt lat="45.62416" lon="6.13334">
        <ele>1308.6949462891</ele>
        <time>2010-10-07T11:00:06Z</time>
      </trkpt>
      <trkpt lat="45.62421" lon="6.13341">
        <ele>1309.7700195312</ele>
        <time>2010-10-07T11:00:13Z</time>
      </trkpt>
      <trkpt lat="45.62423" lon="6.13343">
        <ele>1309.9200439453</ele>
        <time>2010-10-07T11:00:15Z</time>
      </trkpt>
      <trkpt lat="45.62426" lon="6.13352">
        <ele>1311.3270263672</ele>
        <time>2010-10-07T11:00:22Z</time>
      </trkpt>
      <trkpt lat="45.62431" lon="6.13357">
        <ele>1312.3470458984</ele>
        <time>2010-10-07T11:00:29Z</time>
      </trkpt>
      <trkpt lat="45.62434" lon="6.13363">
        <ele>1313.5639648438</ele>
        <time>2010-10-07T11:00:35Z</time>
      </trkpt>
      <trkpt lat="45.6244" lon="6.13369">
        <ele>1315.125</ele>
        <time>2010-10-07T11:00:43Z</time>
      </trkpt>
      <trkpt lat="45.62444" lon="6.13373">
        <ele>1316.1979980469</ele>
        <time>2010-10-07T11:00:49Z</time>
      </trkpt>
      <trkpt lat="45.62449" lon="6.13375">
        <ele>1317.0510253906</ele>
        <time>2010-10-07T11:00:54Z</time>
      </trkpt>
      <trkpt lat="45.62455" lon="6.13376">
        <ele>1317.666015625</ele>
        <time>2010-10-07T11:01:00Z</time>
      </trkpt>
      <trkpt lat="45.6246" lon="6.13382">
        <ele>1318.7459716797</ele>
        <time>2010-10-07T11:01:07Z</time>
      </trkpt>
      <trkpt lat="45.62465" lon="6.13384">
        <ele>1319.1970214844</ele>
        <time>2010-10-07T11:01:12Z</time>
      </trkpt>
      <trkpt lat="45.62467" lon="6.13387">
        <ele>1319.3919677734</ele>
        <time>2010-10-07T11:01:15Z</time>
      </trkpt>
      <trkpt lat="45.62472" lon="6.1339">
        <ele>1319.9379882812</ele>
        <time>2010-10-07T11:01:23Z</time>
      </trkpt>
      <trkpt lat="45.62472" lon="6.13391">
        <ele>1319.9279785156</ele>
        <time>2010-10-07T11:01:25Z</time>
      </trkpt>
      <trkpt lat="45.62478" lon="6.13394">
        <ele>1320.5350341797</ele>
        <time>2010-10-07T11:01:32Z</time>
      </trkpt>
      <trkpt lat="45.62479" lon="6.13395">
        <ele>1320.5860595703</ele>
        <time>2010-10-07T11:01:33Z</time>
      </trkpt>
      <trkpt lat="45.62485" lon="6.13402">
        <ele>1321.2530517578</ele>
        <time>2010-10-07T11:01:40Z</time>
      </trkpt>
      <trkpt lat="45.62489" lon="6.13405">
        <ele>1321.5689697266</ele>
        <time>2010-10-07T11:01:44Z</time>
      </trkpt>
      <trkpt lat="45.62493" lon="6.13404">
        <ele>1322.2320556641</ele>
        <time>2010-10-07T11:01:49Z</time>
      </trkpt>
      <trkpt lat="45.62498" lon="6.13408">
        <ele>1322.8079833984</ele>
        <time>2010-10-07T11:01:56Z</time>
      </trkpt>
      <trkpt lat="45.62503" lon="6.13413">
        <ele>1324.1939697266</ele>
        <time>2010-10-07T11:02:00Z</time>
      </trkpt>
      <trkpt lat="45.62509" lon="6.1342">
        <ele>1325.7580566406</ele>
        <time>2010-10-07T11:02:07Z</time>
      </trkpt>
      <trkpt lat="45.62515" lon="6.13422">
        <ele>1327.0310058594</ele>
        <time>2010-10-07T11:02:12Z</time>
      </trkpt>
      <trkpt lat="45.62518" lon="6.13426">
        <ele>1328.0450439453</ele>
        <time>2010-10-07T11:02:16Z</time>
      </trkpt>
      <trkpt lat="45.62522" lon="6.13433">
        <ele>1328.8809814453</ele>
        <time>2010-10-07T11:02:23Z</time>
      </trkpt>
      <trkpt lat="45.62529" lon="6.1344">
        <ele>1329.5610351562</ele>
        <time>2010-10-07T11:02:29Z</time>
      </trkpt>
      <trkpt lat="45.62532" lon="6.13442">
        <ele>1329.8990478516</ele>
        <time>2010-10-07T11:02:33Z</time>
      </trkpt>
      <trkpt lat="45.6254" lon="6.13447">
        <ele>1331.2010498047</ele>
        <time>2010-10-07T11:02:40Z</time>
      </trkpt>
      <trkpt lat="45.62569" lon="6.13456">
        <ele>1331.1700439453</ele>
        <time>2010-10-07T11:03:04Z</time>
      </trkpt>
      <trkpt lat="45.62571" lon="6.1346">
        <ele>1331.1590576172</ele>
        <time>2010-10-07T11:03:09Z</time>
      </trkpt>
      <trkpt lat="45.62571" lon="6.1346">
        <ele>1331</ele>
        <time>2010-10-07T11:03:13Z</time>
      </trkpt>
      <trkpt lat="45.62571" lon="6.1346">
        <ele>1331.1590576172</ele>
        <time>2010-10-07T11:03:18Z</time>
      </trkpt>
      <trkpt lat="45.62571" lon="6.13466">
        <ele>1332.4799804688</ele>
        <time>2010-10-07T11:03:25Z</time>
      </trkpt>
      <trkpt lat="45.62574" lon="6.13474">
        <ele>1335.6789550781</ele>
        <time>2010-10-07T11:03:36Z</time>
      </trkpt>
      <trkpt lat="45.62577" lon="6.13476">
        <ele>1336.7840576172</ele>
        <time>2010-10-07T11:03:43Z</time>
      </trkpt>
      <trkpt lat="45.62582" lon="6.13474">
        <ele>1336.8590087891</ele>
        <time>2010-10-07T11:04:09Z</time>
      </trkpt>
      <trkpt lat="45.62582" lon="6.13473">
        <ele>1336.8900146484</ele>
        <time>2010-10-07T11:04:15Z</time>
      </trkpt>
      <trkpt lat="45.62582" lon="6.13474">
        <ele>1336.8830566406</ele>
        <time>2010-10-07T11:04:19Z</time>
      </trkpt>
      <trkpt lat="45.62583" lon="6.13474">
        <ele>1337.0720214844</ele>
        <time>2010-10-07T11:04:24Z</time>
      </trkpt>
      <trkpt lat="45.62582" lon="6.13475">
        <ele>1336.7950439453</ele>
        <time>2010-10-07T11:04:30Z</time>
      </trkpt>
      <trkpt lat="45.62583" lon="6.13477">
        <ele>1336.9610595703</ele>
        <time>2010-10-07T11:04:35Z</time>
      </trkpt>
      <trkpt lat="45.62584" lon="6.13478">
        <ele>1337.1290283203</ele>
        <time>2010-10-07T11:04:36Z</time>
      </trkpt>
      <trkpt lat="45.62587" lon="6.13487">
        <ele>1338.5279541016</ele>
        <time>2010-10-07T11:04:43Z</time>
      </trkpt>
      <trkpt lat="45.62588" lon="6.13488">
        <ele>1338.6850585938</ele>
        <time>2010-10-07T11:04:45Z</time>
      </trkpt>
      <trkpt lat="45.62596" lon="6.13495">
        <ele>1339.5219726562</ele>
        <time>2010-10-07T11:04:51Z</time>
      </trkpt>
      <trkpt lat="45.62598" lon="6.13496">
        <ele>1339.7209472656</ele>
        <time>2010-10-07T11:04:52Z</time>
      </trkpt>
      <trkpt lat="45.62604" lon="6.13499">
        <ele>1340.9859619141</ele>
        <time>2010-10-07T11:04:56Z</time>
      </trkpt>
      <trkpt lat="45.62606" lon="6.13501">
        <ele>1341.1130371094</ele>
        <time>2010-10-07T11:04:59Z</time>
      </trkpt>
      <trkpt lat="45.62606" lon="6.13502">
        <ele>1341.0100097656</ele>
        <time>2010-10-07T11:05:07Z</time>
      </trkpt>
      <trkpt lat="45.62613" lon="6.13503">
        <ele>1341.5300292969</ele>
        <time>2010-10-07T11:05:18Z</time>
      </trkpt>
      <trkpt lat="45.6262" lon="6.13509">
        <ele>1342.9680175781</ele>
        <time>2010-10-07T11:05:24Z</time>
      </trkpt>
      <trkpt lat="45.62623" lon="6.13513">
        <ele>1343.3420410156</ele>
        <time>2010-10-07T11:05:28Z</time>
      </trkpt>
      <trkpt lat="45.62635" lon="6.13516">
        <ele>1346.5439453125</ele>
        <time>2010-10-07T11:05:35Z</time>
      </trkpt>
      <trkpt lat="45.62642" lon="6.13519">
        <ele>1348.2039794922</ele>
        <time>2010-10-07T11:05:41Z</time>
      </trkpt>
      <trkpt lat="45.62643" lon="6.1352">
        <ele>1348.7290039062</ele>
        <time>2010-10-07T11:05:46Z</time>
      </trkpt>
      <trkpt lat="45.62648" lon="6.13522">
        <ele>1349.6209716797</ele>
        <time>2010-10-07T11:05:51Z</time>
      </trkpt>
      <trkpt lat="45.62657" lon="6.13527">
        <ele>1351.0219726562</ele>
        <time>2010-10-07T11:06:01Z</time>
      </trkpt>
      <trkpt lat="45.6266" lon="6.1353">
        <ele>1352.1510009766</ele>
        <time>2010-10-07T11:06:07Z</time>
      </trkpt>
      <trkpt lat="45.62665" lon="6.13536">
        <ele>1352.9489746094</ele>
        <time>2010-10-07T11:06:14Z</time>
      </trkpt>
      <trkpt lat="45.62667" lon="6.1354">
        <ele>1352.9990234375</ele>
        <time>2010-10-07T11:06:19Z</time>
      </trkpt>
      <trkpt lat="45.62673" lon="6.13545">
        <ele>1352.9029541016</ele>
        <time>2010-10-07T11:06:25Z</time>
      </trkpt>
      <trkpt lat="45.62679" lon="6.13552">
        <ele>1351.54296875</ele>
        <time>2010-10-07T11:06:30Z</time>
      </trkpt>
      <trkpt lat="45.62683" lon="6.13557">
        <ele>1350.8480224609</ele>
        <time>2010-10-07T11:06:34Z</time>
      </trkpt>
      <trkpt lat="45.62688" lon="6.13561">
        <ele>1351.2209472656</ele>
        <time>2010-10-07T11:06:36Z</time>
      </trkpt>
      <trkpt lat="45.62698" lon="6.13569">
        <ele>1351.8559570312</ele>
        <time>2010-10-07T11:06:42Z</time>
      </trkpt>
      <trkpt lat="45.62698" lon="6.1357">
        <ele>1352.0469970703</ele>
        <time>2010-10-07T11:06:43Z</time>
      </trkpt>
      <trkpt lat="45.62707" lon="6.1358">
        <ele>1352.6970214844</ele>
        <time>2010-10-07T11:06:49Z</time>
      </trkpt>
      <trkpt lat="45.6271" lon="6.13585">
        <ele>1352.9849853516</ele>
        <time>2010-10-07T11:06:51Z</time>
      </trkpt>
      <trkpt lat="45.6272" lon="6.13592">
        <ele>1353.8270263672</ele>
        <time>2010-10-07T11:06:58Z</time>
      </trkpt>
      <trkpt lat="45.62729" lon="6.13601">
        <ele>1352.2320556641</ele>
        <time>2010-10-07T11:07:07Z</time>
      </trkpt>
      <trkpt lat="45.62735" lon="6.13599">
        <ele>1349.7659912109</ele>
        <time>2010-10-07T11:07:11Z</time>
      </trkpt>
      <trkpt lat="45.62741" lon="6.13598">
        <ele>1351.0040283203</ele>
        <time>2010-10-07T11:07:16Z</time>
      </trkpt>
      <trkpt lat="45.62747" lon="6.13601">
        <ele>1350.7869873047</ele>
        <time>2010-10-07T11:07:22Z</time>
      </trkpt>
      <trkpt lat="45.62753" lon="6.13604">
        <ele>1351.6459960938</ele>
        <time>2010-10-07T11:07:27Z</time>
      </trkpt>
      <trkpt lat="45.62762" lon="6.1361">
        <ele>1354.3630371094</ele>
        <time>2010-10-07T11:07:33Z</time>
      </trkpt>
      <trkpt lat="45.62769" lon="6.13616">
        <ele>1354.8740234375</ele>
        <time>2010-10-07T11:07:38Z</time>
      </trkpt>
      <trkpt lat="45.62775" lon="6.13623">
        <ele>1354.2230224609</ele>
        <time>2010-10-07T11:07:42Z</time>
      </trkpt>
      <trkpt lat="45.62783" lon="6.13628">
        <ele>1355.2810058594</ele>
        <time>2010-10-07T11:07:46Z</time>
      </trkpt>
      <trkpt lat="45.62799" lon="6.1364">
        <ele>1354.3620605469</ele>
        <time>2010-10-07T11:07:52Z</time>
      </trkpt>
      <trkpt lat="45.62806" lon="6.13647">
        <ele>1354.4370117188</ele>
        <time>2010-10-07T11:07:55Z</time>
      </trkpt>
      <trkpt lat="45.62814" lon="6.13652">
        <ele>1354.8430175781</ele>
        <time>2010-10-07T11:07:58Z</time>
      </trkpt>
      <trkpt lat="45.62819" lon="6.13657">
        <ele>1354.9289550781</ele>
        <time>2010-10-07T11:08:00Z</time>
      </trkpt>
      <trkpt lat="45.62826" lon="6.13668">
        <ele>1355.3520507812</ele>
        <time>2010-10-07T11:08:05Z</time>
      </trkpt>
      <trkpt lat="45.62836" lon="6.13675">
        <ele>1357.1999511719</ele>
        <time>2010-10-07T11:08:10Z</time>
      </trkpt>
      <trkpt lat="45.6285" lon="6.13684">
        <ele>1357.1510009766</ele>
        <time>2010-10-07T11:08:16Z</time>
      </trkpt>
      <trkpt lat="45.62865" lon="6.13692">
        <ele>1355.3780517578</ele>
        <time>2010-10-07T11:08:21Z</time>
      </trkpt>
      <trkpt lat="45.6288" lon="6.13698">
        <ele>1355.6889648438</ele>
        <time>2010-10-07T11:08:26Z</time>
      </trkpt>
      <trkpt lat="45.62894" lon="6.13705">
        <ele>1354.3010253906</ele>
        <time>2010-10-07T11:08:30Z</time>
      </trkpt>
      <trkpt lat="45.62897" lon="6.13706">
        <ele>1354.0689697266</ele>
        <time>2010-10-07T11:08:31Z</time>
      </trkpt>
      <trkpt lat="45.62914" lon="6.13719">
        <ele>1352.4489746094</ele>
        <time>2010-10-07T11:08:37Z</time>
      </trkpt>
      <trkpt lat="45.62923" lon="6.13725">
        <ele>1351.0050048828</ele>
        <time>2010-10-07T11:08:40Z</time>
      </trkpt>
      <trkpt lat="45.62935" lon="6.13732">
        <ele>1349.5319824219</ele>
        <time>2010-10-07T11:08:44Z</time>
      </trkpt>
      <trkpt lat="45.62944" lon="6.13737">
        <ele>1348.1540527344</ele>
        <time>2010-10-07T11:08:47Z</time>
      </trkpt>
      <trkpt lat="45.6295" lon="6.1374">
        <ele>1346.4820556641</ele>
        <time>2010-10-07T11:08:49Z</time>
      </trkpt>
      <trkpt lat="45.62957" lon="6.13744">
        <ele>1345.3959960938</ele>
        <time>2010-10-07T11:08:51Z</time>
      </trkpt>
      <trkpt lat="45.62963" lon="6.1375">
        <ele>1344.3089599609</ele>
        <time>2010-10-07T11:08:53Z</time>
      </trkpt>
      <trkpt lat="45.62975" lon="6.13756">
        <ele>1342.416015625</ele>
        <time>2010-10-07T11:08:59Z</time>
      </trkpt>
      <trkpt lat="45.62984" lon="6.13757">
        <ele>1341.8759765625</ele>
        <time>2010-10-07T11:09:04Z</time>
      </trkpt>
      <trkpt lat="45.63" lon="6.13763">
        <ele>1340.8229980469</ele>
        <time>2010-10-07T11:09:30Z</time>
      </trkpt>
      <trkpt lat="45.63007" lon="6.13767">
        <ele>1340.0749511719</ele>
        <time>2010-10-07T11:09:43Z</time>
      </trkpt>
      <trkpt lat="45.63017" lon="6.13776">
        <ele>1339.208984375</ele>
        <time>2010-10-07T11:09:48Z</time>
      </trkpt>
      <trkpt lat="45.63021" lon="6.13783">
        <ele>1338.5679931641</ele>
        <time>2010-10-07T11:09:50Z</time>
      </trkpt>
      <trkpt lat="45.63029" lon="6.13803">
        <ele>1338.9000244141</ele>
        <time>2010-10-07T11:09:57Z</time>
      </trkpt>
      <trkpt lat="45.63032" lon="6.13815">
        <ele>1341.2569580078</ele>
        <time>2010-10-07T11:10:02Z</time>
      </trkpt>
      <trkpt lat="45.63036" lon="6.13817">
        <ele>1342.2819824219</ele>
        <time>2010-10-07T11:10:06Z</time>
      </trkpt>
      <trkpt lat="45.6304" lon="6.13823">
        <ele>1343.3210449219</ele>
        <time>2010-10-07T11:10:10Z</time>
      </trkpt>
      <trkpt lat="45.63041" lon="6.13824">
        <ele>1343.4210205078</ele>
        <time>2010-10-07T11:10:11Z</time>
      </trkpt>
      <trkpt lat="45.63042" lon="6.13825">
        <ele>1343.5200195312</ele>
        <time>2010-10-07T11:10:12Z</time>
      </trkpt>
      <trkpt lat="45.63051" lon="6.13832">
        <ele>1344.6009521484</ele>
        <time>2010-10-07T11:10:18Z</time>
      </trkpt>
      <trkpt lat="45.63062" lon="6.13838">
        <ele>1345.041015625</ele>
        <time>2010-10-07T11:10:25Z</time>
      </trkpt>
      <trkpt lat="45.63073" lon="6.13846">
        <ele>1346.4840087891</ele>
        <time>2010-10-07T11:10:34Z</time>
      </trkpt>
      <trkpt lat="45.63083" lon="6.13852">
        <ele>1347.5069580078</ele>
        <time>2010-10-07T11:10:39Z</time>
      </trkpt>
      <trkpt lat="45.63085" lon="6.13853">
        <ele>1347.5269775391</ele>
        <time>2010-10-07T11:10:40Z</time>
      </trkpt>
      <trkpt lat="45.63102" lon="6.13865">
        <ele>1348.9820556641</ele>
        <time>2010-10-07T11:10:49Z</time>
      </trkpt>
      <trkpt lat="45.6311" lon="6.13868">
        <ele>1349.7919921875</ele>
        <time>2010-10-07T11:10:54Z</time>
      </trkpt>
      <trkpt lat="45.63118" lon="6.13872">
        <ele>1350.79296875</ele>
        <time>2010-10-07T11:10:59Z</time>
      </trkpt>
      <trkpt lat="45.63127" lon="6.13878">
        <ele>1351.5970458984</ele>
        <time>2010-10-07T11:11:04Z</time>
      </trkpt>
      <trkpt lat="45.63138" lon="6.13887">
        <ele>1351.95703125</ele>
        <time>2010-10-07T11:11:16Z</time>
      </trkpt>
      <trkpt lat="45.63145" lon="6.13894">
        <ele>1352.5810546875</ele>
        <time>2010-10-07T11:11:22Z</time>
      </trkpt>
      <trkpt lat="45.63152" lon="6.13902">
        <ele>1352.5720214844</ele>
        <time>2010-10-07T11:11:27Z</time>
      </trkpt>
      <trkpt lat="45.63161" lon="6.13911">
        <ele>1353.7220458984</ele>
        <time>2010-10-07T11:11:33Z</time>
      </trkpt>
      <trkpt lat="45.63169" lon="6.13916">
        <ele>1354.6490478516</ele>
        <time>2010-10-07T11:11:39Z</time>
      </trkpt>
      <trkpt lat="45.63179" lon="6.13919">
        <ele>1354.6920166016</ele>
        <time>2010-10-07T11:11:45Z</time>
      </trkpt>
      <trkpt lat="45.63192" lon="6.13917">
        <ele>1353.6240234375</ele>
        <time>2010-10-07T11:11:52Z</time>
      </trkpt>
      <trkpt lat="45.63208" lon="6.13921">
        <ele>1352.9360351562</ele>
        <time>2010-10-07T11:12:02Z</time>
      </trkpt>
      <trkpt lat="45.63213" lon="6.13922">
        <ele>1352.9499511719</ele>
        <time>2010-10-07T11:12:06Z</time>
      </trkpt>
      <trkpt lat="45.63224" lon="6.1392">
        <ele>1352.7390136719</ele>
        <time>2010-10-07T11:12:11Z</time>
      </trkpt>
      <trkpt lat="45.63233" lon="6.13921">
        <ele>1353.0080566406</ele>
        <time>2010-10-07T11:12:16Z</time>
      </trkpt>
      <trkpt lat="45.63259" lon="6.13929">
        <ele>1353.3869628906</ele>
        <time>2010-10-07T11:12:31Z</time>
      </trkpt>
      <trkpt lat="45.63263" lon="6.13926">
        <ele>1353.3979492188</ele>
        <time>2010-10-07T11:12:37Z</time>
      </trkpt>
      <trkpt lat="45.63267" lon="6.13926">
        <ele>1354.166015625</ele>
        <time>2010-10-07T11:12:45Z</time>
      </trkpt>
      <trkpt lat="45.63269" lon="6.13927">
        <ele>1354.0439453125</ele>
        <time>2010-10-07T11:12:49Z</time>
      </trkpt>
      <trkpt lat="45.63275" lon="6.1392">
        <ele>1352.0119628906</ele>
        <time>2010-10-07T11:12:56Z</time>
      </trkpt>
      <trkpt lat="45.63278" lon="6.13914">
        <ele>1350.8160400391</ele>
        <time>2010-10-07T11:13:01Z</time>
      </trkpt>
      <trkpt lat="45.63285" lon="6.13915">
        <ele>1350.5159912109</ele>
        <time>2010-10-07T11:13:07Z</time>
      </trkpt>
      <trkpt lat="45.63295" lon="6.13916">
        <ele>1349.7829589844</ele>
        <time>2010-10-07T11:13:14Z</time>
      </trkpt>
      <trkpt lat="45.63299" lon="6.13918">
        <ele>1349.7469482422</ele>
        <time>2010-10-07T11:13:17Z</time>
      </trkpt>
      <trkpt lat="45.63313" lon="6.13919">
        <ele>1349.0589599609</ele>
        <time>2010-10-07T11:13:24Z</time>
      </trkpt>
      <trkpt lat="45.63325" lon="6.13922">
        <ele>1347.9479980469</ele>
        <time>2010-10-07T11:13:31Z</time>
      </trkpt>
      <trkpt lat="45.63331" lon="6.13922">
        <ele>1347.6419677734</ele>
        <time>2010-10-07T11:13:35Z</time>
      </trkpt>
      <trkpt lat="45.63353" lon="6.13933">
        <ele>1346.0400390625</ele>
        <time>2010-10-07T11:13:54Z</time>
      </trkpt>
      <trkpt lat="45.63361" lon="6.13933">
        <ele>1344.541015625</ele>
        <time>2010-10-07T11:14:05Z</time>
      </trkpt>
      <trkpt lat="45.63363" lon="6.13936">
        <ele>1344.5620117188</ele>
        <time>2010-10-07T11:14:08Z</time>
      </trkpt>
      <trkpt lat="45.63372" lon="6.13936">
        <ele>1344.2580566406</ele>
        <time>2010-10-07T11:14:12Z</time>
      </trkpt>
      <trkpt lat="45.63377" lon="6.13937">
        <ele>1344.2060546875</ele>
        <time>2010-10-07T11:14:14Z</time>
      </trkpt>
      <trkpt lat="45.63384" lon="6.13938">
        <ele>1344.8149414062</ele>
        <time>2010-10-07T11:14:18Z</time>
      </trkpt>
      <trkpt lat="45.63399" lon="6.13937">
        <ele>1345.2650146484</ele>
        <time>2010-10-07T11:14:25Z</time>
      </trkpt>
      <trkpt lat="45.63409" lon="6.1394">
        <ele>1345.6199951172</ele>
        <time>2010-10-07T11:14:31Z</time>
      </trkpt>
      <trkpt lat="45.63414" lon="6.13939">
        <ele>1345.7900390625</ele>
        <time>2010-10-07T11:14:36Z</time>
      </trkpt>
      <trkpt lat="45.63433" lon="6.13944">
        <ele>1345.9499511719</ele>
        <time>2010-10-07T11:14:43Z</time>
      </trkpt>
      <trkpt lat="45.63445" lon="6.13952">
        <ele>1346.2750244141</ele>
        <time>2010-10-07T11:14:59Z</time>
      </trkpt>
      <trkpt lat="45.63449" lon="6.13954">
        <ele>1347.0469970703</ele>
        <time>2010-10-07T11:15:04Z</time>
      </trkpt>
      <trkpt lat="45.63451" lon="6.13957">
        <ele>1347.5300292969</ele>
        <time>2010-10-07T11:15:10Z</time>
      </trkpt>
      <trkpt lat="45.63458" lon="6.13958">
        <ele>1347.1140136719</ele>
        <time>2010-10-07T11:15:17Z</time>
      </trkpt>
      <trkpt lat="45.63462" lon="6.13958">
        <ele>1346</ele>
        <time>2010-10-07T11:15:23Z</time>
      </trkpt>
      <trkpt lat="45.63464" lon="6.13964">
        <ele>1346.9079589844</ele>
        <time>2010-10-07T11:15:29Z</time>
      </trkpt>
      <trkpt lat="45.63469" lon="6.13967">
        <ele>1347.0080566406</ele>
        <time>2010-10-07T11:15:36Z</time>
      </trkpt>
      <trkpt lat="45.63474" lon="6.13973">
        <ele>1347.3659667969</ele>
        <time>2010-10-07T11:15:45Z</time>
      </trkpt>
      <trkpt lat="45.63471" lon="6.13971">
        <ele>1347.2139892578</ele>
        <time>2010-10-07T11:15:50Z</time>
      </trkpt>
      <trkpt lat="45.63486" lon="6.13975">
        <ele>1347.3840332031</ele>
        <time>2010-10-07T11:16:08Z</time>
      </trkpt>
      <trkpt lat="45.63488" lon="6.13975">
        <ele>1347.4599609375</ele>
        <time>2010-10-07T11:16:14Z</time>
      </trkpt>
      <trkpt lat="45.63489" lon="6.13975">
        <ele>1347.7779541016</ele>
        <time>2010-10-07T11:16:33Z</time>
      </trkpt>
      <trkpt lat="45.63491" lon="6.13975">
        <ele>1347.9699707031</ele>
        <time>2010-10-07T11:16:39Z</time>
      </trkpt>
      <trkpt lat="45.63486" lon="6.13974">
        <ele>1347.9620361328</ele>
        <time>2010-10-07T11:16:49Z</time>
      </trkpt>
      <trkpt lat="45.63475" lon="6.1397">
        <ele>1348.5970458984</ele>
        <time>2010-10-07T11:17:22Z</time>
      </trkpt>
      <trkpt lat="45.63485" lon="6.13975">
        <ele>1348.6459960938</ele>
        <time>2010-10-07T11:17:29Z</time>
      </trkpt>
      <trkpt lat="45.63485" lon="6.13975">
        <ele>1348.6770019531</ele>
        <time>2010-10-07T11:17:30Z</time>
      </trkpt>
      <trkpt lat="45.63477" lon="6.13973">
        <ele>1348.9090576172</ele>
        <time>2010-10-07T11:18:14Z</time>
      </trkpt>
      <trkpt lat="45.63477" lon="6.13976">
        <ele>1349.6569824219</ele>
        <time>2010-10-07T11:18:41Z</time>
      </trkpt>
      <trkpt lat="45.63482" lon="6.13972">
        <ele>1347.7829589844</ele>
        <time>2010-10-07T11:18:47Z</time>
      </trkpt>
      <trkpt lat="45.63488" lon="6.13975">
        <ele>1347.2690429688</ele>
        <time>2010-10-07T11:18:52Z</time>
      </trkpt>
      <trkpt lat="45.6349" lon="6.13975">
        <ele>1347.1789550781</ele>
        <time>2010-10-07T11:18:54Z</time>
      </trkpt>
      <trkpt lat="45.63509" lon="6.13984">
        <ele>1345.6610107422</ele>
        <time>2010-10-07T11:19:03Z</time>
      </trkpt>
      <trkpt lat="45.63523" lon="6.1399">
        <ele>1344.4090576172</ele>
        <time>2010-10-07T11:19:10Z</time>
      </trkpt>
      <trkpt lat="45.63533" lon="6.13997">
        <ele>1343.4019775391</ele>
        <time>2010-10-07T11:19:15Z</time>
      </trkpt>
      <trkpt lat="45.63541" lon="6.14011">
        <ele>1343.5629882812</ele>
        <time>2010-10-07T11:19:22Z</time>
      </trkpt>
      <trkpt lat="45.63545" lon="6.14014">
        <ele>1343.6560058594</ele>
        <time>2010-10-07T11:19:26Z</time>
      </trkpt>
      <trkpt lat="45.63553" lon="6.14016">
        <ele>1343.7969970703</ele>
        <time>2010-10-07T11:19:33Z</time>
      </trkpt>
      <trkpt lat="45.6356" lon="6.14017">
        <ele>1344.1040039062</ele>
        <time>2010-10-07T11:20:17Z</time>
      </trkpt>
      <trkpt lat="45.63567" lon="6.14019">
        <ele>1341.9239501953</ele>
        <time>2010-10-07T11:20:22Z</time>
      </trkpt>
      <trkpt lat="45.6358" lon="6.14019">
        <ele>1340.1149902344</ele>
        <time>2010-10-07T11:20:26Z</time>
      </trkpt>
      <trkpt lat="45.63588" lon="6.14017">
        <ele>1339.5260009766</ele>
        <time>2010-10-07T11:20:28Z</time>
      </trkpt>
      <trkpt lat="45.6361" lon="6.14021">
        <ele>1338.291015625</ele>
        <time>2010-10-07T11:20:35Z</time>
      </trkpt>
      <trkpt lat="45.63626" lon="6.1403">
        <ele>1337.1209716797</ele>
        <time>2010-10-07T11:20:40Z</time>
      </trkpt>
      <trkpt lat="45.63637" lon="6.1404">
        <ele>1336.0140380859</ele>
        <time>2010-10-07T11:20:44Z</time>
      </trkpt>
      <trkpt lat="45.63655" lon="6.14059">
        <ele>1334.3270263672</ele>
        <time>2010-10-07T11:20:50Z</time>
      </trkpt>
      <trkpt lat="45.63668" lon="6.14069">
        <ele>1333.5009765625</ele>
        <time>2010-10-07T11:20:54Z</time>
      </trkpt>
      <trkpt lat="45.63687" lon="6.14081">
        <ele>1332.1610107422</ele>
        <time>2010-10-07T11:21:00Z</time>
      </trkpt>
      <trkpt lat="45.637" lon="6.14087">
        <ele>1331.79296875</ele>
        <time>2010-10-07T11:21:05Z</time>
      </trkpt>
      <trkpt lat="45.63708" lon="6.14088">
        <ele>1331.8480224609</ele>
        <time>2010-10-07T11:21:10Z</time>
      </trkpt>
      <trkpt lat="45.63713" lon="6.14088">
        <ele>1332.1650390625</ele>
        <time>2010-10-07T11:21:16Z</time>
      </trkpt>
      <trkpt lat="45.6371" lon="6.14091">
        <ele>1332.0920410156</ele>
        <time>2010-10-07T11:21:27Z</time>
      </trkpt>
      <trkpt lat="45.63713" lon="6.14089">
        <ele>1331.9630126953</ele>
        <time>2010-10-07T11:21:43Z</time>
      </trkpt>
      <trkpt lat="45.63713" lon="6.14091">
        <ele>1331.7860107422</ele>
        <time>2010-10-07T11:21:49Z</time>
      </trkpt>
      <trkpt lat="45.63714" lon="6.14091">
        <ele>1331.6240234375</ele>
        <time>2010-10-07T11:21:52Z</time>
      </trkpt>
      <trkpt lat="45.63722" lon="6.14096">
        <ele>1330.9300537109</ele>
        <time>2010-10-07T11:21:59Z</time>
      </trkpt>
      <trkpt lat="45.63724" lon="6.14098">
        <ele>1331.2550048828</ele>
        <time>2010-10-07T11:22:08Z</time>
      </trkpt>
      <trkpt lat="45.63726" lon="6.14104">
        <ele>1330.5610351562</ele>
        <time>2010-10-07T11:22:13Z</time>
      </trkpt>
      <trkpt lat="45.63723" lon="6.14108">
        <ele>1330.1180419922</ele>
        <time>2010-10-07T11:22:20Z</time>
      </trkpt>
      <trkpt lat="45.63719" lon="6.14107">
        <ele>1330.2719726562</ele>
        <time>2010-10-07T11:22:51Z</time>
      </trkpt>
      <trkpt lat="45.63722" lon="6.14112">
        <ele>1330.9520263672</ele>
        <time>2010-10-07T11:23:05Z</time>
      </trkpt>
      <trkpt lat="45.63723" lon="6.14114">
        <ele>1330.7760009766</ele>
        <time>2010-10-07T11:23:13Z</time>
      </trkpt>
      <trkpt lat="45.63725" lon="6.14115">
        <ele>1330.5050048828</ele>
        <time>2010-10-07T11:23:15Z</time>
      </trkpt>
      <trkpt lat="45.63728" lon="6.14119">
        <ele>1329.9539794922</ele>
        <time>2010-10-07T11:23:18Z</time>
      </trkpt>
      <trkpt lat="45.63734" lon="6.14127">
        <ele>1329.5830078125</ele>
        <time>2010-10-07T11:23:23Z</time>
      </trkpt>
      <trkpt lat="45.63741" lon="6.14122">
        <ele>1329.1629638672</ele>
        <time>2010-10-07T11:23:29Z</time>
      </trkpt>
      <trkpt lat="45.63749" lon="6.14127">
        <ele>1328.6600341797</ele>
        <time>2010-10-07T11:23:36Z</time>
      </trkpt>
      <trkpt lat="45.63753" lon="6.14128">
        <ele>1328.8149414062</ele>
        <time>2010-10-07T11:23:52Z</time>
      </trkpt>
      <trkpt lat="45.63756" lon="6.14134">
        <ele>1328.6149902344</ele>
        <time>2010-10-07T11:24:09Z</time>
      </trkpt>
      <trkpt lat="45.63755" lon="6.14139">
        <ele>1328.6149902344</ele>
        <time>2010-10-07T11:24:18Z</time>
      </trkpt>
      <trkpt lat="45.63761" lon="6.14143">
        <ele>1327.6130371094</ele>
        <time>2010-10-07T11:24:23Z</time>
      </trkpt>
      <trkpt lat="45.63774" lon="6.14154">
        <ele>1325.0209960938</ele>
        <time>2010-10-07T11:24:30Z</time>
      </trkpt>
      <trkpt lat="45.63788" lon="6.1417">
        <ele>1322.7030029297</ele>
        <time>2010-10-07T11:24:37Z</time>
      </trkpt>
      <trkpt lat="45.63792" lon="6.14176">
        <ele>1321.6440429688</ele>
        <time>2010-10-07T11:24:39Z</time>
      </trkpt>
      <trkpt lat="45.63806" lon="6.14185">
        <ele>1320.0209960938</ele>
        <time>2010-10-07T11:24:46Z</time>
      </trkpt>
      <trkpt lat="45.63821" lon="6.14197">
        <ele>1319.1359863281</ele>
        <time>2010-10-07T11:24:52Z</time>
      </trkpt>
      <trkpt lat="45.63825" lon="6.14202">
        <ele>1318.9329833984</ele>
        <time>2010-10-07T11:24:58Z</time>
      </trkpt>
      <trkpt lat="45.63827" lon="6.14209">
        <ele>1318.9709472656</ele>
        <time>2010-10-07T11:25:11Z</time>
      </trkpt>
      <trkpt lat="45.63831" lon="6.14206">
        <ele>1319.0260009766</ele>
        <time>2010-10-07T11:25:19Z</time>
      </trkpt>
      <trkpt lat="45.63833" lon="6.142">
        <ele>1319.5200195312</ele>
        <time>2010-10-07T11:25:31Z</time>
      </trkpt>
      <trkpt lat="45.63832" lon="6.14197">
        <ele>1320.1040039062</ele>
        <time>2010-10-07T11:25:35Z</time>
      </trkpt>
      <trkpt lat="45.63833" lon="6.14194">
        <ele>1320.7139892578</ele>
        <time>2010-10-07T11:25:40Z</time>
      </trkpt>
      <trkpt lat="45.63834" lon="6.14192">
        <ele>1320.6429443359</ele>
        <time>2010-10-07T11:25:48Z</time>
      </trkpt>
      <trkpt lat="45.63832" lon="6.14186">
        <ele>1321.4639892578</ele>
        <time>2010-10-07T11:25:54Z</time>
      </trkpt>
      <trkpt lat="45.63834" lon="6.14186">
        <ele>1321.6929931641</ele>
        <time>2010-10-07T11:26:09Z</time>
      </trkpt>
      <trkpt lat="45.63839" lon="6.14189">
        <ele>1321.5260009766</ele>
        <time>2010-10-07T11:26:17Z</time>
      </trkpt>
      <trkpt lat="45.6384" lon="6.14192">
        <ele>1321.2080078125</ele>
        <time>2010-10-07T11:26:22Z</time>
      </trkpt>
      <trkpt lat="45.6384" lon="6.14193">
        <ele>1320.8620605469</ele>
        <time>2010-10-07T11:26:25Z</time>
      </trkpt>
      <trkpt lat="45.63842" lon="6.14197">
        <ele>1319.9560546875</ele>
        <time>2010-10-07T11:26:31Z</time>
      </trkpt>
      <trkpt lat="45.63848" lon="6.14204">
        <ele>1318.6770019531</ele>
        <time>2010-10-07T11:26:38Z</time>
      </trkpt>
      <trkpt lat="45.63856" lon="6.14209">
        <ele>1317.79296875</ele>
        <time>2010-10-07T11:26:45Z</time>
      </trkpt>
      <trkpt lat="45.63859" lon="6.14211">
        <ele>1317.0770263672</ele>
        <time>2010-10-07T11:26:50Z</time>
      </trkpt>
      <trkpt lat="45.6386" lon="6.14213">
        <ele>1316.5899658203</ele>
        <time>2010-10-07T11:26:52Z</time>
      </trkpt>
      <trkpt lat="45.63865" lon="6.14216">
        <ele>1315.7469482422</ele>
        <time>2010-10-07T11:26:57Z</time>
      </trkpt>
      <trkpt lat="45.63867" lon="6.14222">
        <ele>1314.8969726562</ele>
        <time>2010-10-07T11:27:01Z</time>
      </trkpt>
      <trkpt lat="45.63873" lon="6.14231">
        <ele>1313.7469482422</ele>
        <time>2010-10-07T11:27:08Z</time>
      </trkpt>
      <trkpt lat="45.63876" lon="6.14238">
        <ele>1313.1800537109</ele>
        <time>2010-10-07T11:27:14Z</time>
      </trkpt>
      <trkpt lat="45.63884" lon="6.14245">
        <ele>1311.5489501953</ele>
        <time>2010-10-07T11:27:20Z</time>
      </trkpt>
      <trkpt lat="45.63895" lon="6.14258">
        <ele>1309.3630371094</ele>
        <time>2010-10-07T11:27:27Z</time>
      </trkpt>
      <trkpt lat="45.63906" lon="6.14262">
        <ele>1308.3509521484</ele>
        <time>2010-10-07T11:27:32Z</time>
      </trkpt>
      <trkpt lat="45.63922" lon="6.1427">
        <ele>1307.0889892578</ele>
        <time>2010-10-07T11:27:39Z</time>
      </trkpt>
      <trkpt lat="45.63929" lon="6.14274">
        <ele>1306.7230224609</ele>
        <time>2010-10-07T11:27:44Z</time>
      </trkpt>
      <trkpt lat="45.6394" lon="6.14279">
        <ele>1306.3549804688</ele>
        <time>2010-10-07T11:27:51Z</time>
      </trkpt>
      <trkpt lat="45.63945" lon="6.14283">
        <ele>1306.4959716797</ele>
        <time>2010-10-07T11:27:54Z</time>
      </trkpt>
      <trkpt lat="45.63953" lon="6.14291">
        <ele>1306.3530273438</ele>
        <time>2010-10-07T11:28:00Z</time>
      </trkpt>
      <trkpt lat="45.63955" lon="6.14295">
        <ele>1306.0269775391</ele>
        <time>2010-10-07T11:28:04Z</time>
      </trkpt>
      <trkpt lat="45.63962" lon="6.14301">
        <ele>1304.1529541016</ele>
        <time>2010-10-07T11:28:11Z</time>
      </trkpt>
      <trkpt lat="45.63972" lon="6.14313">
        <ele>1301.1839599609</ele>
        <time>2010-10-07T11:28:16Z</time>
      </trkpt>
      <trkpt lat="45.6398" lon="6.14326">
        <ele>1297.9749755859</ele>
        <time>2010-10-07T11:28:20Z</time>
      </trkpt>
      <trkpt lat="45.63986" lon="6.1434">
        <ele>1294.5439453125</ele>
        <time>2010-10-07T11:28:25Z</time>
      </trkpt>
      <trkpt lat="45.63987" lon="6.14344">
        <ele>1293.3559570312</ele>
        <time>2010-10-07T11:28:27Z</time>
      </trkpt>
      <trkpt lat="45.63987" lon="6.14351">
        <ele>1291.6180419922</ele>
        <time>2010-10-07T11:28:33Z</time>
      </trkpt>
      <trkpt lat="45.63993" lon="6.14361">
        <ele>1288.5340576172</ele>
        <time>2010-10-07T11:28:39Z</time>
      </trkpt>
      <trkpt lat="45.63993" lon="6.14365">
        <ele>1287.5159912109</ele>
        <time>2010-10-07T11:28:41Z</time>
      </trkpt>
      <trkpt lat="45.63995" lon="6.14377">
        <ele>1284.2679443359</ele>
        <time>2010-10-07T11:28:46Z</time>
      </trkpt>
      <trkpt lat="45.63997" lon="6.14396">
        <ele>1280.5279541016</ele>
        <time>2010-10-07T11:28:51Z</time>
      </trkpt>
      <trkpt lat="45.64" lon="6.14406">
        <ele>1278.7850341797</ele>
        <time>2010-10-07T11:28:53Z</time>
      </trkpt>
      <trkpt lat="45.6401" lon="6.14419">
        <ele>1276.4320068359</ele>
        <time>2010-10-07T11:28:58Z</time>
      </trkpt>
      <trkpt lat="45.64011" lon="6.14433">
        <ele>1275.0649414062</ele>
        <time>2010-10-07T11:29:03Z</time>
      </trkpt>
      <trkpt lat="45.64011" lon="6.14463">
        <ele>1273.0849609375</ele>
        <time>2010-10-07T11:29:09Z</time>
      </trkpt>
      <trkpt lat="45.64011" lon="6.14467">
        <ele>1272.3029785156</ele>
        <time>2010-10-07T11:29:10Z</time>
      </trkpt>
      <trkpt lat="45.64019" lon="6.14488">
        <ele>1268.6590576172</ele>
        <time>2010-10-07T11:29:15Z</time>
      </trkpt>
      <trkpt lat="45.64022" lon="6.14514">
        <ele>1268.7960205078</ele>
        <time>2010-10-07T11:29:20Z</time>
      </trkpt>
      <trkpt lat="45.64027" lon="6.14525">
        <ele>1267.7340087891</ele>
        <time>2010-10-07T11:29:25Z</time>
      </trkpt>
      <trkpt lat="45.64032" lon="6.14551">
        <ele>1263.5310058594</ele>
        <time>2010-10-07T11:29:30Z</time>
      </trkpt>
      <trkpt lat="45.64039" lon="6.14571">
        <ele>1260.4189453125</ele>
        <time>2010-10-07T11:29:34Z</time>
      </trkpt>
      <trkpt lat="45.64059" lon="6.14588">
        <ele>1258.1099853516</ele>
        <time>2010-10-07T11:29:38Z</time>
      </trkpt>
      <trkpt lat="45.64066" lon="6.14597">
        <ele>1257.2919921875</ele>
        <time>2010-10-07T11:29:40Z</time>
      </trkpt>
      <trkpt lat="45.64079" lon="6.14607">
        <ele>1257.7459716797</ele>
        <time>2010-10-07T11:29:44Z</time>
      </trkpt>
      <trkpt lat="45.64091" lon="6.1462">
        <ele>1257.1829833984</ele>
        <time>2010-10-07T11:29:49Z</time>
      </trkpt>
      <trkpt lat="45.64103" lon="6.1463">
        <ele>1257.8959960938</ele>
        <time>2010-10-07T11:29:53Z</time>
      </trkpt>
      <trkpt lat="45.64112" lon="6.14643">
        <ele>1258.8609619141</ele>
        <time>2010-10-07T11:29:58Z</time>
      </trkpt>
      <trkpt lat="45.64128" lon="6.14657">
        <ele>1258.6400146484</ele>
        <time>2010-10-07T11:30:05Z</time>
      </trkpt>
      <trkpt lat="45.6413" lon="6.14661">
        <ele>1258.2220458984</ele>
        <time>2010-10-07T11:30:06Z</time>
      </trkpt>
      <trkpt lat="45.64144" lon="6.14673">
        <ele>1255.6920166016</ele>
        <time>2010-10-07T11:30:11Z</time>
      </trkpt>
      <trkpt lat="45.64162" lon="6.14684">
        <ele>1254.1949462891</ele>
        <time>2010-10-07T11:30:16Z</time>
      </trkpt>
      <trkpt lat="45.64179" lon="6.14694">
        <ele>1252.0269775391</ele>
        <time>2010-10-07T11:30:20Z</time>
      </trkpt>
      <trkpt lat="45.64191" lon="6.14713">
        <ele>1249.1390380859</ele>
        <time>2010-10-07T11:30:25Z</time>
      </trkpt>
      <trkpt lat="45.64194" lon="6.14739">
        <ele>1245.2690429688</ele>
        <time>2010-10-07T11:30:30Z</time>
      </trkpt>
      <trkpt lat="45.64198" lon="6.14755">
        <ele>1241.0030517578</ele>
        <time>2010-10-07T11:30:34Z</time>
      </trkpt>
      <trkpt lat="45.64211" lon="6.14772">
        <ele>1240.5469970703</ele>
        <time>2010-10-07T11:30:38Z</time>
      </trkpt>
      <trkpt lat="45.64222" lon="6.14781">
        <ele>1241.2390136719</ele>
        <time>2010-10-07T11:30:42Z</time>
      </trkpt>
      <trkpt lat="45.64236" lon="6.14788">
        <ele>1241.6049804688</ele>
        <time>2010-10-07T11:30:46Z</time>
      </trkpt>
      <trkpt lat="45.64256" lon="6.14796">
        <ele>1240.1979980469</ele>
        <time>2010-10-07T11:30:51Z</time>
      </trkpt>
      <trkpt lat="45.6426" lon="6.14797">
        <ele>1238.9799804688</ele>
        <time>2010-10-07T11:30:52Z</time>
      </trkpt>
      <trkpt lat="45.64281" lon="6.14814">
        <ele>1235.5190429688</ele>
        <time>2010-10-07T11:30:57Z</time>
      </trkpt>
      <trkpt lat="45.64302" lon="6.14829">
        <ele>1229.4599609375</ele>
        <time>2010-10-07T11:31:03Z</time>
      </trkpt>
      <trkpt lat="45.64313" lon="6.14844">
        <ele>1225.2700195312</ele>
        <time>2010-10-07T11:31:08Z</time>
      </trkpt>
      <trkpt lat="45.64322" lon="6.14849">
        <ele>1221.4239501953</ele>
        <time>2010-10-07T11:31:12Z</time>
      </trkpt>
      <trkpt lat="45.6433" lon="6.14856">
        <ele>1218.291015625</ele>
        <time>2010-10-07T11:31:16Z</time>
      </trkpt>
      <trkpt lat="45.64336" lon="6.14861">
        <ele>1217.1490478516</ele>
        <time>2010-10-07T11:31:18Z</time>
      </trkpt>
      <trkpt lat="45.64357" lon="6.14873">
        <ele>1211.1109619141</ele>
        <time>2010-10-07T11:31:24Z</time>
      </trkpt>
      <trkpt lat="45.64368" lon="6.1488">
        <ele>1209.6519775391</ele>
        <time>2010-10-07T11:31:27Z</time>
      </trkpt>
      <trkpt lat="45.64395" lon="6.14892">
        <ele>1205.9050292969</ele>
        <time>2010-10-07T11:31:32Z</time>
      </trkpt>
      <trkpt lat="45.644" lon="6.14894">
        <ele>1204.7810058594</ele>
        <time>2010-10-07T11:31:33Z</time>
      </trkpt>
      <trkpt lat="45.64434" lon="6.14912">
        <ele>1199.9840087891</ele>
        <time>2010-10-07T11:31:38Z</time>
      </trkpt>
      <trkpt lat="45.64458" lon="6.14923">
        <ele>1199.2860107422</ele>
        <time>2010-10-07T11:31:42Z</time>
      </trkpt>
      <trkpt lat="45.64489" lon="6.14941">
        <ele>1198.3029785156</ele>
        <time>2010-10-07T11:31:48Z</time>
      </trkpt>
      <trkpt lat="45.64493" lon="6.14945">
        <ele>1198.0400390625</ele>
        <time>2010-10-07T11:31:49Z</time>
      </trkpt>
      <trkpt lat="45.64515" lon="6.14968">
        <ele>1196.9449462891</ele>
        <time>2010-10-07T11:31:54Z</time>
      </trkpt>
      <trkpt lat="45.6452" lon="6.14974">
        <ele>1197.3819580078</ele>
        <time>2010-10-07T11:31:56Z</time>
      </trkpt>
      <trkpt lat="45.64533" lon="6.14982">
        <ele>1198.4169921875</ele>
        <time>2010-10-07T11:32:02Z</time>
      </trkpt>
      <trkpt lat="45.64542" lon="6.14988">
        <ele>1199.2409667969</ele>
        <time>2010-10-07T11:32:07Z</time>
      </trkpt>
      <trkpt lat="45.64552" lon="6.14991">
        <ele>1199.7960205078</ele>
        <time>2010-10-07T11:32:12Z</time>
      </trkpt>
      <trkpt lat="45.64565" lon="6.14996">
        <ele>1199.8010253906</ele>
        <time>2010-10-07T11:32:17Z</time>
      </trkpt>
      <trkpt lat="45.64574" lon="6.15001">
        <ele>1199.7800292969</ele>
        <time>2010-10-07T11:32:21Z</time>
      </trkpt>
      <trkpt lat="45.64589" lon="6.15006">
        <ele>1199.1560058594</ele>
        <time>2010-10-07T11:32:25Z</time>
      </trkpt>
      <trkpt lat="45.64617" lon="6.15016">
        <ele>1196.2409667969</ele>
        <time>2010-10-07T11:32:31Z</time>
      </trkpt>
      <trkpt lat="45.64635" lon="6.15029">
        <ele>1192.8800048828</ele>
        <time>2010-10-07T11:32:36Z</time>
      </trkpt>
      <trkpt lat="45.64656" lon="6.15035">
        <ele>1188.8669433594</ele>
        <time>2010-10-07T11:32:41Z</time>
      </trkpt>
      <trkpt lat="45.64674" lon="6.15043">
        <ele>1186.376953125</ele>
        <time>2010-10-07T11:32:45Z</time>
      </trkpt>
      <trkpt lat="45.64688" lon="6.15053">
        <ele>1183.6080322266</ele>
        <time>2010-10-07T11:32:49Z</time>
      </trkpt>
      <trkpt lat="45.64698" lon="6.15058">
        <ele>1182.0109863281</ele>
        <time>2010-10-07T11:32:52Z</time>
      </trkpt>
      <trkpt lat="45.64711" lon="6.15063">
        <ele>1180.6319580078</ele>
        <time>2010-10-07T11:32:57Z</time>
      </trkpt>
      <trkpt lat="45.64725" lon="6.15072">
        <ele>1179.0179443359</ele>
        <time>2010-10-07T11:33:05Z</time>
      </trkpt>
      <trkpt lat="45.64735" lon="6.15077">
        <ele>1177.0989990234</ele>
        <time>2010-10-07T11:33:09Z</time>
      </trkpt>
      <trkpt lat="45.64746" lon="6.15083">
        <ele>1173.9909667969</ele>
        <time>2010-10-07T11:33:14Z</time>
      </trkpt>
      <trkpt lat="45.64756" lon="6.15087">
        <ele>1171.9649658203</ele>
        <time>2010-10-07T11:33:18Z</time>
      </trkpt>
      <trkpt lat="45.64758" lon="6.15088">
        <ele>1171.6999511719</ele>
        <time>2010-10-07T11:33:19Z</time>
      </trkpt>
      <trkpt lat="45.64765" lon="6.1509">
        <ele>1170.8680419922</ele>
        <time>2010-10-07T11:33:24Z</time>
      </trkpt>
      <trkpt lat="45.64772" lon="6.1509">
        <ele>1170.2080078125</ele>
        <time>2010-10-07T11:33:31Z</time>
      </trkpt>
      <trkpt lat="45.64783" lon="6.15093">
        <ele>1168.0670166016</ele>
        <time>2010-10-07T11:33:36Z</time>
      </trkpt>
      <trkpt lat="45.64798" lon="6.15102">
        <ele>1166.1889648438</ele>
        <time>2010-10-07T11:33:41Z</time>
      </trkpt>
      <trkpt lat="45.64811" lon="6.15106">
        <ele>1164.4279785156</ele>
        <time>2010-10-07T11:33:46Z</time>
      </trkpt>
      <trkpt lat="45.64816" lon="6.15108">
        <ele>1163.9139404297</ele>
        <time>2010-10-07T11:33:48Z</time>
      </trkpt>
      <trkpt lat="45.64822" lon="6.15112">
        <ele>1162.8869628906</ele>
        <time>2010-10-07T11:33:52Z</time>
      </trkpt>
      <trkpt lat="45.64828" lon="6.15118">
        <ele>1161.6469726562</ele>
        <time>2010-10-07T11:33:57Z</time>
      </trkpt>
      <trkpt lat="45.64832" lon="6.1512">
        <ele>1160.7249755859</ele>
        <time>2010-10-07T11:33:59Z</time>
      </trkpt>
      <trkpt lat="45.64837" lon="6.15121">
        <ele>1159.4830322266</ele>
        <time>2010-10-07T11:34:02Z</time>
      </trkpt>
      <trkpt lat="45.64845" lon="6.15123">
        <ele>1158.2879638672</ele>
        <time>2010-10-07T11:34:06Z</time>
      </trkpt>
      <trkpt lat="45.64852" lon="6.1513">
        <ele>1155.9799804688</ele>
        <time>2010-10-07T11:34:12Z</time>
      </trkpt>
      <trkpt lat="45.64858" lon="6.15141">
        <ele>1153.0419921875</ele>
        <time>2010-10-07T11:34:18Z</time>
      </trkpt>
      <trkpt lat="45.64857" lon="6.15147">
        <ele>1151.5720214844</ele>
        <time>2010-10-07T11:34:20Z</time>
      </trkpt>
      <trkpt lat="45.64861" lon="6.15154">
        <ele>1150.7330322266</ele>
        <time>2010-10-07T11:34:22Z</time>
      </trkpt>
      <trkpt lat="45.6487" lon="6.15168">
        <ele>1148.0350341797</ele>
        <time>2010-10-07T11:34:26Z</time>
      </trkpt>
      <trkpt lat="45.64911" lon="6.15191">
        <ele>1144.4289550781</ele>
        <time>2010-10-07T11:34:37Z</time>
      </trkpt>
      <trkpt lat="45.64928" lon="6.15197">
        <ele>1143.3570556641</ele>
        <time>2010-10-07T11:34:42Z</time>
      </trkpt>
      <trkpt lat="45.64941" lon="6.15198">
        <ele>1142.1159667969</ele>
        <time>2010-10-07T11:34:46Z</time>
      </trkpt>
      <trkpt lat="45.64954" lon="6.15201">
        <ele>1141.1800537109</ele>
        <time>2010-10-07T11:34:50Z</time>
      </trkpt>
      <trkpt lat="45.64974" lon="6.15203">
        <ele>1140.3380126953</ele>
        <time>2010-10-07T11:34:55Z</time>
      </trkpt>
      <trkpt lat="45.64984" lon="6.15206">
        <ele>1139.3220214844</ele>
        <time>2010-10-07T11:34:59Z</time>
      </trkpt>
      <trkpt lat="45.64981" lon="6.15208">
        <ele>1138.9100341797</ele>
        <time>2010-10-07T11:35:02Z</time>
      </trkpt>
      <trkpt lat="45.6498" lon="6.15211">
        <ele>1138.8210449219</ele>
        <time>2010-10-07T11:35:09Z</time>
      </trkpt>
      <trkpt lat="45.64988" lon="6.15218">
        <ele>1136.3890380859</ele>
        <time>2010-10-07T11:35:15Z</time>
      </trkpt>
      <trkpt lat="45.64994" lon="6.15223">
        <ele>1134.6049804688</ele>
        <time>2010-10-07T11:35:19Z</time>
      </trkpt>
      <trkpt lat="45.65001" lon="6.15231">
        <ele>1130.8149414062</ele>
        <time>2010-10-07T11:35:28Z</time>
      </trkpt>
      <trkpt lat="45.65008" lon="6.15238">
        <ele>1128.2709960938</ele>
        <time>2010-10-07T11:35:33Z</time>
      </trkpt>
      <trkpt lat="45.6501" lon="6.15239">
        <ele>1128.0290527344</ele>
        <time>2010-10-07T11:35:34Z</time>
      </trkpt>
      <trkpt lat="45.65015" lon="6.15244">
        <ele>1127.0689697266</ele>
        <time>2010-10-07T11:35:39Z</time>
      </trkpt>
      <trkpt lat="45.65015" lon="6.15245">
        <ele>1127.1369628906</ele>
        <time>2010-10-07T11:35:40Z</time>
      </trkpt>
      <trkpt lat="45.65018" lon="6.15253">
        <ele>1125.8950195312</ele>
        <time>2010-10-07T11:35:45Z</time>
      </trkpt>
      <trkpt lat="45.65022" lon="6.1526">
        <ele>1124.6579589844</ele>
        <time>2010-10-07T11:35:48Z</time>
      </trkpt>
      <trkpt lat="45.65022" lon="6.15263">
        <ele>1124.1209716797</ele>
        <time>2010-10-07T11:35:51Z</time>
      </trkpt>
      <trkpt lat="45.65022" lon="6.15265">
        <ele>1124.0880126953</ele>
        <time>2010-10-07T11:35:56Z</time>
      </trkpt>
      <trkpt lat="45.6502" lon="6.15283">
        <ele>1121.6629638672</ele>
        <time>2010-10-07T11:36:02Z</time>
      </trkpt>
      <trkpt lat="45.6502" lon="6.1529">
        <ele>1119.4639892578</ele>
        <time>2010-10-07T11:36:05Z</time>
      </trkpt>
      <trkpt lat="45.65025" lon="6.15305">
        <ele>1114.2889404297</ele>
        <time>2010-10-07T11:36:13Z</time>
      </trkpt>
      <trkpt lat="45.65034" lon="6.15313">
        <ele>1111.9040527344</ele>
        <time>2010-10-07T11:36:18Z</time>
      </trkpt>
      <trkpt lat="45.65044" lon="6.15323">
        <ele>1108.5479736328</ele>
        <time>2010-10-07T11:36:23Z</time>
      </trkpt>
      <trkpt lat="45.65059" lon="6.15329">
        <ele>1105.1419677734</ele>
        <time>2010-10-07T11:36:28Z</time>
      </trkpt>
      <trkpt lat="45.65067" lon="6.15334">
        <ele>1103.1839599609</ele>
        <time>2010-10-07T11:36:32Z</time>
      </trkpt>
      <trkpt lat="45.65078" lon="6.15337">
        <ele>1101.7569580078</ele>
        <time>2010-10-07T11:36:35Z</time>
      </trkpt>
      <trkpt lat="45.65086" lon="6.15339">
        <ele>1099.6689453125</ele>
        <time>2010-10-07T11:36:39Z</time>
      </trkpt>
      <trkpt lat="45.65099" lon="6.15345">
        <ele>1096.2679443359</ele>
        <time>2010-10-07T11:36:45Z</time>
      </trkpt>
      <trkpt lat="45.65108" lon="6.15349">
        <ele>1095.8210449219</ele>
        <time>2010-10-07T11:36:50Z</time>
      </trkpt>
      <trkpt lat="45.65108" lon="6.15351">
        <ele>1095.8759765625</ele>
        <time>2010-10-07T11:36:56Z</time>
      </trkpt>
      <trkpt lat="45.65116" lon="6.15349">
        <ele>1095.0999755859</ele>
        <time>2010-10-07T11:37:00Z</time>
      </trkpt>
      <trkpt lat="45.65126" lon="6.1535">
        <ele>1092.9610595703</ele>
        <time>2010-10-07T11:37:05Z</time>
      </trkpt>
      <trkpt lat="45.65134" lon="6.15354">
        <ele>1089.7209472656</ele>
        <time>2010-10-07T11:37:10Z</time>
      </trkpt>
      <trkpt lat="45.65142" lon="6.15356">
        <ele>1088.3990478516</ele>
        <time>2010-10-07T11:37:13Z</time>
      </trkpt>
      <trkpt lat="45.65149" lon="6.15357">
        <ele>1085.4510498047</ele>
        <time>2010-10-07T11:37:17Z</time>
      </trkpt>
      <trkpt lat="45.65158" lon="6.1536">
        <ele>1082.1619873047</ele>
        <time>2010-10-07T11:37:22Z</time>
      </trkpt>
      <trkpt lat="45.65166" lon="6.15364">
        <ele>1080.2189941406</ele>
        <time>2010-10-07T11:37:25Z</time>
      </trkpt>
      <trkpt lat="45.65177" lon="6.15373">
        <ele>1076.875</ele>
        <time>2010-10-07T11:37:30Z</time>
      </trkpt>
      <trkpt lat="45.65185" lon="6.15397">
        <ele>1073.1290283203</ele>
        <time>2010-10-07T11:37:36Z</time>
      </trkpt>
      <trkpt lat="45.65191" lon="6.15415">
        <ele>1069.6450195312</ele>
        <time>2010-10-07T11:37:41Z</time>
      </trkpt>
      <trkpt lat="45.65197" lon="6.15423">
        <ele>1066.6850585938</ele>
        <time>2010-10-07T11:37:45Z</time>
      </trkpt>
      <trkpt lat="45.65207" lon="6.15433">
        <ele>1064.2840576172</ele>
        <time>2010-10-07T11:37:50Z</time>
      </trkpt>
      <trkpt lat="45.65194" lon="6.15442">
        <ele>1064.2750244141</ele>
        <time>2010-10-07T11:38:23Z</time>
      </trkpt>
      <trkpt lat="45.65208" lon="6.15441">
        <ele>1064.4370117188</ele>
        <time>2010-10-07T11:38:35Z</time>
      </trkpt>
      <trkpt lat="45.65214" lon="6.15439">
        <ele>1064.2049560547</ele>
        <time>2010-10-07T11:38:41Z</time>
      </trkpt>
      <trkpt lat="45.65216" lon="6.15439">
        <ele>1064.1379394531</ele>
        <time>2010-10-07T11:38:44Z</time>
      </trkpt>
      <trkpt lat="45.65216" lon="6.15439">
        <ele>1064.1369628906</ele>
        <time>2010-10-07T11:38:45Z</time>
      </trkpt>
      <trkpt lat="45.65223" lon="6.15437">
        <ele>1063.9739990234</ele>
        <time>2010-10-07T11:39:03Z</time>
      </trkpt>
      <trkpt lat="45.65216" lon="6.15441">
        <ele>1064</ele>
        <time>2010-10-07T11:39:40Z</time>
      </trkpt>
      <trkpt lat="45.65218" lon="6.15441">
        <ele>1063.6469726562</ele>
        <time>2010-10-07T11:39:45Z</time>
      </trkpt>
      <trkpt lat="45.65218" lon="6.15442">
        <ele>1063.6059570312</ele>
        <time>2010-10-07T11:39:46Z</time>
      </trkpt>
      <trkpt lat="45.65222" lon="6.1545">
        <ele>1062.3809814453</ele>
        <time>2010-10-07T11:39:52Z</time>
      </trkpt>
      <trkpt lat="45.65224" lon="6.15453">
        <ele>1062.0720214844</ele>
        <time>2010-10-07T11:39:53Z</time>
      </trkpt>
      <trkpt lat="45.65231" lon="6.15462">
        <ele>1062.3570556641</ele>
        <time>2010-10-07T11:39:58Z</time>
      </trkpt>
      <trkpt lat="45.65232" lon="6.15463">
        <ele>1063.0080566406</ele>
        <time>2010-10-07T11:40:02Z</time>
      </trkpt>
      <trkpt lat="45.65234" lon="6.15465">
        <ele>1063.2430419922</ele>
        <time>2010-10-07T11:40:08Z</time>
      </trkpt>
      <trkpt lat="45.65235" lon="6.15466">
        <ele>1063.4859619141</ele>
        <time>2010-10-07T11:40:11Z</time>
      </trkpt>
      <trkpt lat="45.65245" lon="6.15474">
        <ele>1061.7270507812</ele>
        <time>2010-10-07T11:40:17Z</time>
      </trkpt>
      <trkpt lat="45.65248" lon="6.15476">
        <ele>1060.8609619141</ele>
        <time>2010-10-07T11:40:19Z</time>
      </trkpt>
      <trkpt lat="45.6526" lon="6.15483">
        <ele>1057.4599609375</ele>
        <time>2010-10-07T11:40:24Z</time>
      </trkpt>
      <trkpt lat="45.65269" lon="6.15487">
        <ele>1054.7580566406</ele>
        <time>2010-10-07T11:40:28Z</time>
      </trkpt>
      <trkpt lat="45.65282" lon="6.15496">
        <ele>1050.0770263672</ele>
        <time>2010-10-07T11:40:34Z</time>
      </trkpt>
      <trkpt lat="45.65294" lon="6.15503">
        <ele>1046.1879882812</ele>
        <time>2010-10-07T11:40:39Z</time>
      </trkpt>
      <trkpt lat="45.65301" lon="6.15496">
        <ele>1045.2320556641</ele>
        <time>2010-10-07T11:40:46Z</time>
      </trkpt>
      <trkpt lat="45.65304" lon="6.15492">
        <ele>1045.3900146484</ele>
        <time>2010-10-07T11:40:56Z</time>
      </trkpt>
      <trkpt lat="45.65304" lon="6.15492">
        <ele>1045.2779541016</ele>
        <time>2010-10-07T11:40:57Z</time>
      </trkpt>
      <trkpt lat="45.65304" lon="6.15494">
        <ele>1045.0870361328</ele>
        <time>2010-10-07T11:41:07Z</time>
      </trkpt>
      <trkpt lat="45.65303" lon="6.15502">
        <ele>1045.8349609375</ele>
        <time>2010-10-07T11:41:13Z</time>
      </trkpt>
      <trkpt lat="45.653" lon="6.15506">
        <ele>1045.5970458984</ele>
        <time>2010-10-07T11:41:39Z</time>
      </trkpt>
      <trkpt lat="45.653" lon="6.15506">
        <ele>1045.626953125</ele>
        <time>2010-10-07T11:41:42Z</time>
      </trkpt>
      <trkpt lat="45.653" lon="6.15507">
        <ele>1045.5789794922</ele>
        <time>2010-10-07T11:41:50Z</time>
      </trkpt>
      <trkpt lat="45.653" lon="6.15507">
        <ele>1045.6719970703</ele>
        <time>2010-10-07T11:41:52Z</time>
      </trkpt>
      <trkpt lat="45.653" lon="6.15507">
        <ele>1045.7309570312</ele>
        <time>2010-10-07T11:41:53Z</time>
      </trkpt>
      <trkpt lat="45.65302" lon="6.15509">
        <ele>1045.5279541016</ele>
        <time>2010-10-07T11:42:35Z</time>
      </trkpt>
      <trkpt lat="45.65303" lon="6.15511">
        <ele>1044.7010498047</ele>
        <time>2010-10-07T11:42:42Z</time>
      </trkpt>
      <trkpt lat="45.65308" lon="6.15512">
        <ele>1043.3900146484</ele>
        <time>2010-10-07T11:42:49Z</time>
      </trkpt>
      <trkpt lat="45.65318" lon="6.15517">
        <ele>1041.2209472656</ele>
        <time>2010-10-07T11:42:58Z</time>
      </trkpt>
      <trkpt lat="45.65322" lon="6.1552">
        <ele>1040.1899414062</ele>
        <time>2010-10-07T11:43:05Z</time>
      </trkpt>
      <trkpt lat="45.65325" lon="6.15522">
        <ele>1039.3399658203</ele>
        <time>2010-10-07T11:43:11Z</time>
      </trkpt>
      <trkpt lat="45.65329" lon="6.15524">
        <ele>1038.3420410156</ele>
        <time>2010-10-07T11:43:18Z</time>
      </trkpt>
      <trkpt lat="45.65334" lon="6.15525">
        <ele>1037.0689697266</ele>
        <time>2010-10-07T11:43:23Z</time>
      </trkpt>
      <trkpt lat="45.65338" lon="6.15527">
        <ele>1035.7540283203</ele>
        <time>2010-10-07T11:43:28Z</time>
      </trkpt>
      <trkpt lat="45.6534" lon="6.15528">
        <ele>1034.3110351562</ele>
        <time>2010-10-07T11:43:36Z</time>
      </trkpt>
      <trkpt lat="45.65343" lon="6.15529">
        <ele>1034.3809814453</ele>
        <time>2010-10-07T11:44:01Z</time>
      </trkpt>
      <trkpt lat="45.65351" lon="6.15531">
        <ele>1032.9659423828</ele>
        <time>2010-10-07T11:44:08Z</time>
      </trkpt>
      <trkpt lat="45.65355" lon="6.15533">
        <ele>1031.8449707031</ele>
        <time>2010-10-07T11:44:13Z</time>
      </trkpt>
      <trkpt lat="45.6536" lon="6.15536">
        <ele>1030.0269775391</ele>
        <time>2010-10-07T11:44:19Z</time>
      </trkpt>
      <trkpt lat="45.65363" lon="6.15537">
        <ele>1028.9200439453</ele>
        <time>2010-10-07T11:44:24Z</time>
      </trkpt>
      <trkpt lat="45.65363" lon="6.15535">
        <ele>1028.4649658203</ele>
        <time>2010-10-07T11:44:33Z</time>
      </trkpt>
      <trkpt lat="45.65366" lon="6.15536">
        <ele>1027.7309570312</ele>
        <time>2010-10-07T11:44:38Z</time>
      </trkpt>
      <trkpt lat="45.65368" lon="6.15537">
        <ele>1026.9040527344</ele>
        <time>2010-10-07T11:44:44Z</time>
      </trkpt>
      <trkpt lat="45.65367" lon="6.15536">
        <ele>1026.9949951172</ele>
        <time>2010-10-07T11:44:50Z</time>
      </trkpt>
      <trkpt lat="45.6537" lon="6.1554">
        <ele>1026.0959472656</ele>
        <time>2010-10-07T11:44:57Z</time>
      </trkpt>
      <trkpt lat="45.65377" lon="6.15543">
        <ele>1024.3160400391</ele>
        <time>2010-10-07T11:45:05Z</time>
      </trkpt>
      <trkpt lat="45.65384" lon="6.15547">
        <ele>1022.9639892578</ele>
        <time>2010-10-07T11:45:08Z</time>
      </trkpt>
      <trkpt lat="45.65401" lon="6.15553">
        <ele>1018.5130004883</ele>
        <time>2010-10-07T11:45:15Z</time>
      </trkpt>
      <trkpt lat="45.65413" lon="6.15555">
        <ele>1016.0469970703</ele>
        <time>2010-10-07T11:45:20Z</time>
      </trkpt>
      <trkpt lat="45.65427" lon="6.15567">
        <ele>1014.2769775391</ele>
        <time>2010-10-07T11:45:26Z</time>
      </trkpt>
      <trkpt lat="45.65439" lon="6.15582">
        <ele>1014.3939819336</ele>
        <time>2010-10-07T11:45:32Z</time>
      </trkpt>
      <trkpt lat="45.65444" lon="6.15592">
        <ele>1014.8629760742</ele>
        <time>2010-10-07T11:45:38Z</time>
      </trkpt>
      <trkpt lat="45.65444" lon="6.15591">
        <ele>1014.7390136719</ele>
        <time>2010-10-07T11:45:55Z</time>
      </trkpt>
      <trkpt lat="45.65444" lon="6.15591">
        <ele>1014.8590087891</ele>
        <time>2010-10-07T11:46:16Z</time>
      </trkpt>
      <trkpt lat="45.65444" lon="6.15591">
        <ele>1014.7860107422</ele>
        <time>2010-10-07T11:46:22Z</time>
      </trkpt>
      <trkpt lat="45.65444" lon="6.15591">
        <ele>1015.1380004883</ele>
        <time>2010-10-07T11:49:04Z</time>
      </trkpt>
      <trkpt lat="45.65444" lon="6.15591">
        <ele>1015.1560058594</ele>
        <time>2010-10-07T11:49:05Z</time>
      </trkpt>
      <trkpt lat="45.65444" lon="6.15591">
        <ele>1015.3090209961</ele>
        <time>2010-10-07T11:49:29Z</time>
      </trkpt>
      <trkpt lat="45.65444" lon="6.15591">
        <ele>1015.3060302734</ele>
        <time>2010-10-07T11:49:30Z</time>
      </trkpt>
      <trkpt lat="45.65444" lon="6.15591">
        <ele>1015.3560180664</ele>
        <time>2010-10-07T11:49:55Z</time>
      </trkpt>
      <trkpt lat="45.65444" lon="6.15591">
        <ele>1015.4359741211</ele>
        <time>2010-10-07T11:50:04Z</time>
      </trkpt>
      <trkpt lat="45.65448" lon="6.15594">
        <ele>1014.5540161133</ele>
        <time>2010-10-07T11:56:08Z</time>
      </trkpt>
      <trkpt lat="45.65455" lon="6.156">
        <ele>1014.5819702148</ele>
        <time>2010-10-07T11:56:14Z</time>
      </trkpt>
      <trkpt lat="45.65463" lon="6.15604">
        <ele>1012.75</ele>
        <time>2010-10-07T11:56:17Z</time>
      </trkpt>
      <trkpt lat="45.65471" lon="6.15604">
        <ele>1011.9429931641</ele>
        <time>2010-10-07T11:56:19Z</time>
      </trkpt>
      <trkpt lat="45.65479" lon="6.15608">
        <ele>1011.632019043</ele>
        <time>2010-10-07T11:56:21Z</time>
      </trkpt>
      <trkpt lat="45.65496" lon="6.15618">
        <ele>1012.6699829102</ele>
        <time>2010-10-07T11:56:27Z</time>
      </trkpt>
      <trkpt lat="45.65511" lon="6.15625">
        <ele>1012.3480224609</ele>
        <time>2010-10-07T11:56:32Z</time>
      </trkpt>
      <trkpt lat="45.65524" lon="6.15634">
        <ele>1011.2479858398</ele>
        <time>2010-10-07T11:56:36Z</time>
      </trkpt>
      <trkpt lat="45.65528" lon="6.15636">
        <ele>1011.1209716797</ele>
        <time>2010-10-07T11:56:37Z</time>
      </trkpt>
      <trkpt lat="45.65546" lon="6.15649">
        <ele>1009.2050170898</ele>
        <time>2010-10-07T11:56:41Z</time>
      </trkpt>
      <trkpt lat="45.6556" lon="6.15663">
        <ele>1007.2700195312</ele>
        <time>2010-10-07T11:56:46Z</time>
      </trkpt>
      <trkpt lat="45.65567" lon="6.15671">
        <ele>1003.7280273438</ele>
        <time>2010-10-07T11:56:49Z</time>
      </trkpt>
      <trkpt lat="45.65583" lon="6.15683">
        <ele>1001.3209838867</ele>
        <time>2010-10-07T11:56:52Z</time>
      </trkpt>
      <trkpt lat="45.65607" lon="6.15699">
        <ele>998.84002685547</ele>
        <time>2010-10-07T11:56:57Z</time>
      </trkpt>
      <trkpt lat="45.6562" lon="6.15708">
        <ele>996.04998779297</ele>
        <time>2010-10-07T11:57:00Z</time>
      </trkpt>
      <trkpt lat="45.6565" lon="6.15725">
        <ele>991.13098144531</ele>
        <time>2010-10-07T11:57:06Z</time>
      </trkpt>
      <trkpt lat="45.65667" lon="6.15733">
        <ele>985.79602050781</ele>
        <time>2010-10-07T11:57:11Z</time>
      </trkpt>
      <trkpt lat="45.65669" lon="6.15736">
        <ele>984.96398925781</ele>
        <time>2010-10-07T11:57:12Z</time>
      </trkpt>
      <trkpt lat="45.65679" lon="6.15747">
        <ele>980.5830078125</ele>
        <time>2010-10-07T11:57:18Z</time>
      </trkpt>
      <trkpt lat="45.65689" lon="6.15753">
        <ele>977.48999023438</ele>
        <time>2010-10-07T11:57:22Z</time>
      </trkpt>
      <trkpt lat="45.65693" lon="6.15756">
        <ele>975.75799560547</ele>
        <time>2010-10-07T11:57:27Z</time>
      </trkpt>
      <trkpt lat="45.65696" lon="6.15762">
        <ele>974.92498779297</ele>
        <time>2010-10-07T11:57:31Z</time>
      </trkpt>
      <trkpt lat="45.65705" lon="6.15772">
        <ele>970.66998291016</ele>
        <time>2010-10-07T11:57:37Z</time>
      </trkpt>
      <trkpt lat="45.65744" lon="6.15796">
        <ele>958.92602539062</ele>
        <time>2010-10-07T11:57:52Z</time>
      </trkpt>
      <trkpt lat="45.65759" lon="6.15797">
        <ele>953.68200683594</ele>
        <time>2010-10-07T11:57:57Z</time>
      </trkpt>
      <trkpt lat="45.65773" lon="6.15806">
        <ele>950.59698486328</ele>
        <time>2010-10-07T11:58:01Z</time>
      </trkpt>
      <trkpt lat="45.65782" lon="6.15823">
        <ele>947.06402587891</ele>
        <time>2010-10-07T11:58:06Z</time>
      </trkpt>
      <trkpt lat="45.65786" lon="6.1583">
        <ele>945.05102539062</ele>
        <time>2010-10-07T11:58:08Z</time>
      </trkpt>
      <trkpt lat="45.65793" lon="6.15838">
        <ele>942.46997070312</ele>
        <time>2010-10-07T11:58:12Z</time>
      </trkpt>
      <trkpt lat="45.65805" lon="6.15847">
        <ele>937.66198730469</ele>
        <time>2010-10-07T11:58:18Z</time>
      </trkpt>
      <trkpt lat="45.65809" lon="6.15851">
        <ele>936.88397216797</ele>
        <time>2010-10-07T11:58:20Z</time>
      </trkpt>
      <trkpt lat="45.65821" lon="6.15874">
        <ele>933.19000244141</ele>
        <time>2010-10-07T11:58:25Z</time>
      </trkpt>
      <trkpt lat="45.65822" lon="6.15889">
        <ele>930.48999023438</ele>
        <time>2010-10-07T11:58:29Z</time>
      </trkpt>
      <trkpt lat="45.65818" lon="6.15903">
        <ele>927.34997558594</ele>
        <time>2010-10-07T11:58:33Z</time>
      </trkpt>
      <trkpt lat="45.65808" lon="6.15912">
        <ele>924.50299072266</ele>
        <time>2010-10-07T11:58:39Z</time>
      </trkpt>
      <trkpt lat="45.65804" lon="6.15916">
        <ele>920.90502929688</ele>
        <time>2010-10-07T11:58:44Z</time>
      </trkpt>
      <trkpt lat="45.65805" lon="6.15917">
        <ele>921.33599853516</ele>
        <time>2010-10-07T11:58:50Z</time>
      </trkpt>
      <trkpt lat="45.65799" lon="6.1592">
        <ele>921.73699951172</ele>
        <time>2010-10-07T11:59:13Z</time>
      </trkpt>
      <trkpt lat="45.65796" lon="6.15922">
        <ele>920.47198486328</ele>
        <time>2010-10-07T11:59:36Z</time>
      </trkpt>
      <trkpt lat="45.65794" lon="6.15923">
        <ele>919.49401855469</ele>
        <time>2010-10-07T11:59:40Z</time>
      </trkpt>
      <trkpt lat="45.65793" lon="6.15924">
        <ele>919.07501220703</ele>
        <time>2010-10-07T11:59:41Z</time>
      </trkpt>
      <trkpt lat="45.65792" lon="6.15926">
        <ele>918.15301513672</ele>
        <time>2010-10-07T11:59:43Z</time>
      </trkpt>
      <trkpt lat="45.65791" lon="6.15929">
        <ele>917.25701904297</ele>
        <time>2010-10-07T11:59:49Z</time>
      </trkpt>
      <trkpt lat="45.65789" lon="6.15933">
        <ele>916.27600097656</ele>
        <time>2010-10-07T11:59:56Z</time>
      </trkpt>
      <trkpt lat="45.65788" lon="6.15938">
        <ele>914.72497558594</ele>
        <time>2010-10-07T12:00:01Z</time>
      </trkpt>
      <trkpt lat="45.65788" lon="6.1594">
        <ele>914.13299560547</ele>
        <time>2010-10-07T12:00:05Z</time>
      </trkpt>
      <trkpt lat="45.65791" lon="6.15951">
        <ele>911.23999023438</ele>
        <time>2010-10-07T12:00:10Z</time>
      </trkpt>
      <trkpt lat="45.65794" lon="6.15956">
        <ele>909.73297119141</ele>
        <time>2010-10-07T12:00:12Z</time>
      </trkpt>
      <trkpt lat="45.65809" lon="6.15967">
        <ele>904.67498779297</ele>
        <time>2010-10-07T12:00:18Z</time>
      </trkpt>
      <trkpt lat="45.65823" lon="6.15974">
        <ele>901.64501953125</ele>
        <time>2010-10-07T12:00:22Z</time>
      </trkpt>
      <trkpt lat="45.65826" lon="6.15981">
        <ele>900.37902832031</ele>
        <time>2010-10-07T12:00:25Z</time>
      </trkpt>
      <trkpt lat="45.65826" lon="6.15983">
        <ele>899.78497314453</ele>
        <time>2010-10-07T12:00:31Z</time>
      </trkpt>
      <trkpt lat="45.65827" lon="6.15985">
        <ele>899.57598876953</ele>
        <time>2010-10-07T12:00:39Z</time>
      </trkpt>
      <trkpt lat="45.65823" lon="6.15991">
        <ele>897.51599121094</ele>
        <time>2010-10-07T12:00:47Z</time>
      </trkpt>
      <trkpt lat="45.6582" lon="6.15995">
        <ele>895.83898925781</ele>
        <time>2010-10-07T12:00:54Z</time>
      </trkpt>
      <trkpt lat="45.65813" lon="6.15998">
        <ele>894.25701904297</ele>
        <time>2010-10-07T12:00:58Z</time>
      </trkpt>
      <trkpt lat="45.6581" lon="6.15997">
        <ele>893.82598876953</ele>
        <time>2010-10-07T12:00:59Z</time>
      </trkpt>
      <trkpt lat="45.65807" lon="6.15997">
        <ele>892.92498779297</ele>
        <time>2010-10-07T12:01:00Z</time>
      </trkpt>
      <trkpt lat="45.65793" lon="6.15999">
        <ele>890.60400390625</ele>
        <time>2010-10-07T12:01:04Z</time>
      </trkpt>
      <trkpt lat="45.65777" lon="6.16001">
        <ele>888.20501708984</ele>
        <time>2010-10-07T12:01:08Z</time>
      </trkpt>
      <trkpt lat="45.6576" lon="6.16002">
        <ele>886.03802490234</ele>
        <time>2010-10-07T12:01:13Z</time>
      </trkpt>
      <trkpt lat="45.65745" lon="6.15999">
        <ele>883.16101074219</ele>
        <time>2010-10-07T12:01:17Z</time>
      </trkpt>
      <trkpt lat="45.65744" lon="6.15999">
        <ele>882.89001464844</ele>
        <time>2010-10-07T12:01:18Z</time>
      </trkpt>
      <trkpt lat="45.65732" lon="6.16006">
        <ele>877.61401367188</ele>
        <time>2010-10-07T12:01:23Z</time>
      </trkpt>
      <trkpt lat="45.65714" lon="6.16012">
        <ele>873.03198242188</ele>
        <time>2010-10-07T12:01:27Z</time>
      </trkpt>
      <trkpt lat="45.65698" lon="6.16023">
        <ele>868.2490234375</ele>
        <time>2010-10-07T12:01:32Z</time>
      </trkpt>
      <trkpt lat="45.65696" lon="6.16025">
        <ele>867.35601806641</ele>
        <time>2010-10-07T12:01:33Z</time>
      </trkpt>
      <trkpt lat="45.65691" lon="6.16026">
        <ele>865.01800537109</ele>
        <time>2010-10-07T12:01:39Z</time>
      </trkpt>
      <trkpt lat="45.65688" lon="6.16025">
        <ele>864.66198730469</ele>
        <time>2010-10-07T12:01:46Z</time>
      </trkpt>
      <trkpt lat="45.65686" lon="6.16027">
        <ele>862.92797851562</ele>
        <time>2010-10-07T12:01:50Z</time>
      </trkpt>
      <trkpt lat="45.65685" lon="6.16027">
        <ele>862.43298339844</ele>
        <time>2010-10-07T12:01:52Z</time>
      </trkpt>
      <trkpt lat="45.65669" lon="6.16031">
        <ele>857.04602050781</ele>
        <time>2010-10-07T12:01:57Z</time>
      </trkpt>
      <trkpt lat="45.65651" lon="6.16032">
        <ele>853.21301269531</ele>
        <time>2010-10-07T12:02:02Z</time>
      </trkpt>
      <trkpt lat="45.65636" lon="6.1604">
        <ele>849.42498779297</ele>
        <time>2010-10-07T12:02:07Z</time>
      </trkpt>
      <trkpt lat="45.65619" lon="6.16043">
        <ele>843.46600341797</ele>
        <time>2010-10-07T12:02:14Z</time>
      </trkpt>
      <trkpt lat="45.65603" lon="6.16052">
        <ele>838.18499755859</ele>
        <time>2010-10-07T12:02:19Z</time>
      </trkpt>
      <trkpt lat="45.65591" lon="6.16057">
        <ele>834.8330078125</ele>
        <time>2010-10-07T12:02:22Z</time>
      </trkpt>
      <trkpt lat="45.6558" lon="6.16061">
        <ele>831.26000976562</ele>
        <time>2010-10-07T12:02:25Z</time>
      </trkpt>
      <trkpt lat="45.65571" lon="6.16067">
        <ele>828.28002929688</ele>
        <time>2010-10-07T12:02:27Z</time>
      </trkpt>
      <trkpt lat="45.65553" lon="6.16076">
        <ele>823.90899658203</ele>
        <time>2010-10-07T12:02:32Z</time>
      </trkpt>
      <trkpt lat="45.65542" lon="6.16083">
        <ele>820.62799072266</ele>
        <time>2010-10-07T12:02:36Z</time>
      </trkpt>
      <trkpt lat="45.65512" lon="6.16101">
        <ele>812.32098388672</ele>
        <time>2010-10-07T12:02:45Z</time>
      </trkpt>
      <trkpt lat="45.65496" lon="6.16107">
        <ele>808.50598144531</ele>
        <time>2010-10-07T12:02:50Z</time>
      </trkpt>
      <trkpt lat="45.65481" lon="6.16113">
        <ele>804.84600830078</ele>
        <time>2010-10-07T12:02:55Z</time>
      </trkpt>
      <trkpt lat="45.65466" lon="6.1612">
        <ele>800.97998046875</ele>
        <time>2010-10-07T12:03:01Z</time>
      </trkpt>
      <trkpt lat="45.65451" lon="6.16123">
        <ele>796.57598876953</ele>
        <time>2010-10-07T12:03:07Z</time>
      </trkpt>
      <trkpt lat="45.65441" lon="6.16128">
        <ele>792.88897705078</ele>
        <time>2010-10-07T12:03:12Z</time>
      </trkpt>
      <trkpt lat="45.65441" lon="6.16129">
        <ele>792.61199951172</ele>
        <time>2010-10-07T12:03:13Z</time>
      </trkpt>
      <trkpt lat="45.65436" lon="6.16133">
        <ele>791.59197998047</ele>
        <time>2010-10-07T12:03:29Z</time>
      </trkpt>
      <trkpt lat="45.65431" lon="6.16136">
        <ele>790.10998535156</ele>
        <time>2010-10-07T12:03:35Z</time>
      </trkpt>
      <trkpt lat="45.65424" lon="6.16139">
        <ele>787.96697998047</ele>
        <time>2010-10-07T12:03:42Z</time>
      </trkpt>
      <trkpt lat="45.65419" lon="6.16142">
        <ele>786.27398681641</ele>
        <time>2010-10-07T12:03:48Z</time>
      </trkpt>
      <trkpt lat="45.65419" lon="6.16143">
        <ele>785.58599853516</ele>
        <time>2010-10-07T12:03:52Z</time>
      </trkpt>
      <trkpt lat="45.65405" lon="6.16148">
        <ele>782.58599853516</ele>
        <time>2010-10-07T12:03:58Z</time>
      </trkpt>
      <trkpt lat="45.65396" lon="6.1615">
        <ele>780.083984375</ele>
        <time>2010-10-07T12:04:02Z</time>
      </trkpt>
      <trkpt lat="45.65385" lon="6.16152">
        <ele>777.40698242188</ele>
        <time>2010-10-07T12:04:06Z</time>
      </trkpt>
      <trkpt lat="45.65372" lon="6.16156">
        <ele>774.21801757812</ele>
        <time>2010-10-07T12:04:12Z</time>
      </trkpt>
      <trkpt lat="45.65356" lon="6.16161">
        <ele>770.2919921875</ele>
        <time>2010-10-07T12:04:16Z</time>
      </trkpt>
      <trkpt lat="45.65328" lon="6.16164">
        <ele>765.14801025391</ele>
        <time>2010-10-07T12:04:21Z</time>
      </trkpt>
      <trkpt lat="45.65301" lon="6.16174">
        <ele>761.0419921875</ele>
        <time>2010-10-07T12:04:26Z</time>
      </trkpt>
      <trkpt lat="45.65296" lon="6.16175">
        <ele>760.22802734375</ele>
        <time>2010-10-07T12:04:27Z</time>
      </trkpt>
      <trkpt lat="45.65274" lon="6.16169">
        <ele>757.14501953125</ele>
        <time>2010-10-07T12:04:31Z</time>
      </trkpt>
      <trkpt lat="45.65263" lon="6.16166">
        <ele>755.76898193359</ele>
        <time>2010-10-07T12:04:33Z</time>
      </trkpt>
      <trkpt lat="45.65255" lon="6.16165">
        <ele>755.291015625</ele>
        <time>2010-10-07T12:04:35Z</time>
      </trkpt>
      <trkpt lat="45.65235" lon="6.16152">
        <ele>754.64697265625</ele>
        <time>2010-10-07T12:04:40Z</time>
      </trkpt>
      <trkpt lat="45.65219" lon="6.1615">
        <ele>755.73999023438</ele>
        <time>2010-10-07T12:04:44Z</time>
      </trkpt>
      <trkpt lat="45.65206" lon="6.16144">
        <ele>756.8759765625</ele>
        <time>2010-10-07T12:04:48Z</time>
      </trkpt>
      <trkpt lat="45.65198" lon="6.1614">
        <ele>757.37902832031</ele>
        <time>2010-10-07T12:04:51Z</time>
      </trkpt>
      <trkpt lat="45.65195" lon="6.16137">
        <ele>757.34002685547</ele>
        <time>2010-10-07T12:04:52Z</time>
      </trkpt>
      <trkpt lat="45.65187" lon="6.1613">
        <ele>757.88897705078</ele>
        <time>2010-10-07T12:04:55Z</time>
      </trkpt>
      <trkpt lat="45.65173" lon="6.16117">
        <ele>759.56597900391</ele>
        <time>2010-10-07T12:05:01Z</time>
      </trkpt>
      <trkpt lat="45.65164" lon="6.16107">
        <ele>760.49597167969</ele>
        <time>2010-10-07T12:05:06Z</time>
      </trkpt>
      <trkpt lat="45.65154" lon="6.16095">
        <ele>761.74200439453</ele>
        <time>2010-10-07T12:05:12Z</time>
      </trkpt>
      <trkpt lat="45.65141" lon="6.16087">
        <ele>762.875</ele>
        <time>2010-10-07T12:05:18Z</time>
      </trkpt>
      <trkpt lat="45.65126" lon="6.16081">
        <ele>763.87200927734</ele>
        <time>2010-10-07T12:05:24Z</time>
      </trkpt>
      <trkpt lat="45.65103" lon="6.16069">
        <ele>765.58898925781</ele>
        <time>2010-10-07T12:05:34Z</time>
      </trkpt>
      <trkpt lat="45.65087" lon="6.16062">
        <ele>766.77899169922</ele>
        <time>2010-10-07T12:05:41Z</time>
      </trkpt>
      <trkpt lat="45.65067" lon="6.16054">
        <ele>768.31701660156</ele>
        <time>2010-10-07T12:05:51Z</time>
      </trkpt>
      <trkpt lat="45.65058" lon="6.16049">
        <ele>769.10101318359</ele>
        <time>2010-10-07T12:05:56Z</time>
      </trkpt>
      <trkpt lat="45.65054" lon="6.1605">
        <ele>769.26300048828</ele>
        <time>2010-10-07T12:06:02Z</time>
      </trkpt>
      <trkpt lat="45.65055" lon="6.1605">
        <ele>768.9990234375</ele>
        <time>2010-10-07T12:06:15Z</time>
      </trkpt>
      <trkpt lat="45.65055" lon="6.16049">
        <ele>769.14599609375</ele>
        <time>2010-10-07T12:06:23Z</time>
      </trkpt>
      <trkpt lat="45.65055" lon="6.16049">
        <ele>768.79498291016</ele>
        <time>2010-10-07T12:06:28Z</time>
      </trkpt>
      <trkpt lat="45.65055" lon="6.16049">
        <ele>768.96502685547</ele>
        <time>2010-10-07T12:06:33Z</time>
      </trkpt>
      <trkpt lat="45.65055" lon="6.1605">
        <ele>768.74700927734</ele>
        <time>2010-10-07T12:06:37Z</time>
      </trkpt>
      <trkpt lat="45.65055" lon="6.16048">
        <ele>768.70697021484</ele>
        <time>2010-10-07T12:06:41Z</time>
      </trkpt>
      <trkpt lat="45.65055" lon="6.16045">
        <ele>768.68402099609</ele>
        <time>2010-10-07T12:06:49Z</time>
      </trkpt>
      <trkpt lat="45.65055" lon="6.16045">
        <ele>768.58898925781</ele>
        <time>2010-10-07T12:07:05Z</time>
      </trkpt>
      <trkpt lat="45.65055" lon="6.16046">
        <ele>768.53002929688</ele>
        <time>2010-10-07T12:07:10Z</time>
      </trkpt>
      <trkpt lat="45.65058" lon="6.16046">
        <ele>768.24200439453</ele>
        <time>2010-10-07T12:07:33Z</time>
      </trkpt>
      <trkpt lat="45.65052" lon="6.16045">
        <ele>768.52899169922</ele>
        <time>2010-10-07T12:07:38Z</time>
      </trkpt>
      <trkpt lat="45.65036" lon="6.16039">
        <ele>769.51800537109</ele>
        <time>2010-10-07T12:07:46Z</time>
      </trkpt>
      <trkpt lat="45.65023" lon="6.16036">
        <ele>770.57702636719</ele>
        <time>2010-10-07T12:07:52Z</time>
      </trkpt>
      <trkpt lat="45.6501" lon="6.16032">
        <ele>771.38098144531</ele>
        <time>2010-10-07T12:07:58Z</time>
      </trkpt>
      <trkpt lat="45.65001" lon="6.16029">
        <ele>772.36102294922</ele>
        <time>2010-10-07T12:08:03Z</time>
      </trkpt>
      <trkpt lat="45.64988" lon="6.16025">
        <ele>773.46099853516</ele>
        <time>2010-10-07T12:08:09Z</time>
      </trkpt>
      <trkpt lat="45.64977" lon="6.16021">
        <ele>774.10601806641</ele>
        <time>2010-10-07T12:08:14Z</time>
      </trkpt>
      <trkpt lat="45.64962" lon="6.16017">
        <ele>775.34399414062</ele>
        <time>2010-10-07T12:08:20Z</time>
      </trkpt>
      <trkpt lat="45.64947" lon="6.16013">
        <ele>776.666015625</ele>
        <time>2010-10-07T12:08:27Z</time>
      </trkpt>
      <trkpt lat="45.6493" lon="6.16009">
        <ele>778.33502197266</ele>
        <time>2010-10-07T12:08:35Z</time>
      </trkpt>
      <trkpt lat="45.64914" lon="6.16004">
        <ele>780.4169921875</ele>
        <time>2010-10-07T12:08:43Z</time>
      </trkpt>
      <trkpt lat="45.64905" lon="6.16001">
        <ele>781.65100097656</ele>
        <time>2010-10-07T12:08:48Z</time>
      </trkpt>
      <trkpt lat="45.64889" lon="6.15999">
        <ele>784.02899169922</ele>
        <time>2010-10-07T12:08:56Z</time>
      </trkpt>
      <trkpt lat="45.6488" lon="6.15998">
        <ele>785.75299072266</ele>
        <time>2010-10-07T12:09:02Z</time>
      </trkpt>
      <trkpt lat="45.64874" lon="6.15995">
        <ele>786.89202880859</ele>
        <time>2010-10-07T12:09:06Z</time>
      </trkpt>
      <trkpt lat="45.64866" lon="6.15991">
        <ele>788.07098388672</ele>
        <time>2010-10-07T12:09:12Z</time>
      </trkpt>
      <trkpt lat="45.64859" lon="6.15987">
        <ele>788.9580078125</ele>
        <time>2010-10-07T12:09:16Z</time>
      </trkpt>
      <trkpt lat="45.6485" lon="6.15981">
        <ele>790.00897216797</ele>
        <time>2010-10-07T12:09:22Z</time>
      </trkpt>
      <trkpt lat="45.64839" lon="6.15974">
        <ele>791.58898925781</ele>
        <time>2010-10-07T12:09:29Z</time>
      </trkpt>
      <trkpt lat="45.64827" lon="6.15964">
        <ele>792.98400878906</ele>
        <time>2010-10-07T12:09:36Z</time>
      </trkpt>
      <trkpt lat="45.64819" lon="6.15957">
        <ele>794.166015625</ele>
        <time>2010-10-07T12:09:41Z</time>
      </trkpt>
      <trkpt lat="45.64812" lon="6.15949">
        <ele>795.21997070312</ele>
        <time>2010-10-07T12:09:46Z</time>
      </trkpt>
      <trkpt lat="45.64809" lon="6.15946">
        <ele>795.60198974609</ele>
        <time>2010-10-07T12:09:48Z</time>
      </trkpt>
      <trkpt lat="45.64797" lon="6.15938">
        <ele>796.56896972656</ele>
        <time>2010-10-07T12:09:56Z</time>
      </trkpt>
      <trkpt lat="45.64785" lon="6.15932">
        <ele>797.30200195312</ele>
        <time>2010-10-07T12:10:02Z</time>
      </trkpt>
      <trkpt lat="45.64774" lon="6.15926">
        <ele>798.36901855469</ele>
        <time>2010-10-07T12:10:08Z</time>
      </trkpt>
      <trkpt lat="45.64764" lon="6.15921">
        <ele>799.2490234375</ele>
        <time>2010-10-07T12:10:14Z</time>
      </trkpt>
      <trkpt lat="45.64752" lon="6.15916">
        <ele>800.12097167969</ele>
        <time>2010-10-07T12:10:20Z</time>
      </trkpt>
      <trkpt lat="45.64738" lon="6.1591">
        <ele>800.38397216797</ele>
        <time>2010-10-07T12:10:26Z</time>
      </trkpt>
      <trkpt lat="45.64725" lon="6.15901">
        <ele>799.76098632812</ele>
        <time>2010-10-07T12:10:31Z</time>
      </trkpt>
      <trkpt lat="45.6471" lon="6.15892">
        <ele>799.59197998047</ele>
        <time>2010-10-07T12:10:36Z</time>
      </trkpt>
      <trkpt lat="45.647" lon="6.1589">
        <ele>799.21398925781</ele>
        <time>2010-10-07T12:10:40Z</time>
      </trkpt>
      <trkpt lat="45.64687" lon="6.15886">
        <ele>799.25</ele>
        <time>2010-10-07T12:10:46Z</time>
      </trkpt>
      <trkpt lat="45.64685" lon="6.15886">
        <ele>799.35400390625</ele>
        <time>2010-10-07T12:10:47Z</time>
      </trkpt>
      <trkpt lat="45.64681" lon="6.15885">
        <ele>799.41198730469</ele>
        <time>2010-10-07T12:10:50Z</time>
      </trkpt>
      <trkpt lat="45.6468" lon="6.15885">
        <ele>799.40002441406</ele>
        <time>2010-10-07T12:10:51Z</time>
      </trkpt>
      <trkpt lat="45.6467" lon="6.15882">
        <ele>799.24597167969</ele>
        <time>2010-10-07T12:10:56Z</time>
      </trkpt>
      <trkpt lat="45.64663" lon="6.1588">
        <ele>799.56500244141</ele>
        <time>2010-10-07T12:10:59Z</time>
      </trkpt>
      <trkpt lat="45.64646" lon="6.15872">
        <ele>799.97900390625</ele>
        <time>2010-10-07T12:11:05Z</time>
      </trkpt>
      <trkpt lat="45.64624" lon="6.15858">
        <ele>801.0419921875</ele>
        <time>2010-10-07T12:11:13Z</time>
      </trkpt>
      <trkpt lat="45.64602" lon="6.1584">
        <ele>802.21899414062</ele>
        <time>2010-10-07T12:11:22Z</time>
      </trkpt>
      <trkpt lat="45.64584" lon="6.15827">
        <ele>803.52600097656</ele>
        <time>2010-10-07T12:11:29Z</time>
      </trkpt>
      <trkpt lat="45.64561" lon="6.15811">
        <ele>804.64898681641</ele>
        <time>2010-10-07T12:11:38Z</time>
      </trkpt>
      <trkpt lat="45.64537" lon="6.15794">
        <ele>805.83697509766</ele>
        <time>2010-10-07T12:11:47Z</time>
      </trkpt>
      <trkpt lat="45.64511" lon="6.15777">
        <ele>807.49499511719</ele>
        <time>2010-10-07T12:11:57Z</time>
      </trkpt>
      <trkpt lat="45.64493" lon="6.15769">
        <ele>808.60998535156</ele>
        <time>2010-10-07T12:12:04Z</time>
      </trkpt>
      <trkpt lat="45.64476" lon="6.15765">
        <ele>809.60101318359</ele>
        <time>2010-10-07T12:12:10Z</time>
      </trkpt>
      <trkpt lat="45.64459" lon="6.15758">
        <ele>810.52801513672</ele>
        <time>2010-10-07T12:12:16Z</time>
      </trkpt>
      <trkpt lat="45.64443" lon="6.15754">
        <ele>811.71502685547</ele>
        <time>2010-10-07T12:12:22Z</time>
      </trkpt>
      <trkpt lat="45.64432" lon="6.15749">
        <ele>812.78399658203</ele>
        <time>2010-10-07T12:12:27Z</time>
      </trkpt>
      <trkpt lat="45.64418" lon="6.15738">
        <ele>813.77899169922</ele>
        <time>2010-10-07T12:12:33Z</time>
      </trkpt>
      <trkpt lat="45.64408" lon="6.15728">
        <ele>814.80902099609</ele>
        <time>2010-10-07T12:12:39Z</time>
      </trkpt>
      <trkpt lat="45.64398" lon="6.15721">
        <ele>816.08502197266</ele>
        <time>2010-10-07T12:12:46Z</time>
      </trkpt>
      <trkpt lat="45.64388" lon="6.15717">
        <ele>818.73498535156</ele>
        <time>2010-10-07T12:12:52Z</time>
      </trkpt>
      <trkpt lat="45.64381" lon="6.15711">
        <ele>820.86297607422</ele>
        <time>2010-10-07T12:12:59Z</time>
      </trkpt>
      <trkpt lat="45.64372" lon="6.15704">
        <ele>822.67498779297</ele>
        <time>2010-10-07T12:13:07Z</time>
      </trkpt>
      <trkpt lat="45.6436" lon="6.15694">
        <ele>823.95397949219</ele>
        <time>2010-10-07T12:13:16Z</time>
      </trkpt>
      <trkpt lat="45.64348" lon="6.15691">
        <ele>825.45697021484</ele>
        <time>2010-10-07T12:13:24Z</time>
      </trkpt>
      <trkpt lat="45.64336" lon="6.15685">
        <ele>828.33697509766</ele>
        <time>2010-10-07T12:13:32Z</time>
      </trkpt>
      <trkpt lat="45.64326" lon="6.15678">
        <ele>830.56896972656</ele>
        <time>2010-10-07T12:13:40Z</time>
      </trkpt>
      <trkpt lat="45.64318" lon="6.15672">
        <ele>832.21502685547</ele>
        <time>2010-10-07T12:13:48Z</time>
      </trkpt>
      <trkpt lat="45.64308" lon="6.15662">
        <ele>833.9990234375</ele>
        <time>2010-10-07T12:13:56Z</time>
      </trkpt>
      <trkpt lat="45.64299" lon="6.15655">
        <ele>834.78198242188</ele>
        <time>2010-10-07T12:14:03Z</time>
      </trkpt>
      <trkpt lat="45.64286" lon="6.15648">
        <ele>835.52899169922</ele>
        <time>2010-10-07T12:14:11Z</time>
      </trkpt>
      <trkpt lat="45.64274" lon="6.15643">
        <ele>836.84600830078</ele>
        <time>2010-10-07T12:14:19Z</time>
      </trkpt>
      <trkpt lat="45.64265" lon="6.15638">
        <ele>838.71502685547</ele>
        <time>2010-10-07T12:14:26Z</time>
      </trkpt>
      <trkpt lat="45.64263" lon="6.15637">
        <ele>839.53900146484</ele>
        <time>2010-10-07T12:14:29Z</time>
      </trkpt>
      <trkpt lat="45.64253" lon="6.1563">
        <ele>841.28802490234</ele>
        <time>2010-10-07T12:14:36Z</time>
      </trkpt>
      <trkpt lat="45.64241" lon="6.15621">
        <ele>843.42199707031</ele>
        <time>2010-10-07T12:14:44Z</time>
      </trkpt>
      <trkpt lat="45.64232" lon="6.15614">
        <ele>845.39599609375</ele>
        <time>2010-10-07T12:14:52Z</time>
      </trkpt>
      <trkpt lat="45.64227" lon="6.15611">
        <ele>846.44396972656</ele>
        <time>2010-10-07T12:14:56Z</time>
      </trkpt>
      <trkpt lat="45.64217" lon="6.15608">
        <ele>847.23797607422</ele>
        <time>2010-10-07T12:15:03Z</time>
      </trkpt>
      <trkpt lat="45.64208" lon="6.15607">
        <ele>847.59802246094</ele>
        <time>2010-10-07T12:15:09Z</time>
      </trkpt>
      <trkpt lat="45.64198" lon="6.15601">
        <ele>849.30798339844</ele>
        <time>2010-10-07T12:15:16Z</time>
      </trkpt>
      <trkpt lat="45.64191" lon="6.15593">
        <ele>850.69396972656</ele>
        <time>2010-10-07T12:15:22Z</time>
      </trkpt>
      <trkpt lat="45.64182" lon="6.15587">
        <ele>852.13000488281</ele>
        <time>2010-10-07T12:15:29Z</time>
      </trkpt>
      <trkpt lat="45.64174" lon="6.15582">
        <ele>853.76300048828</ele>
        <time>2010-10-07T12:15:36Z</time>
      </trkpt>
      <trkpt lat="45.64169" lon="6.15581">
        <ele>854.88201904297</ele>
        <time>2010-10-07T12:15:41Z</time>
      </trkpt>
      <trkpt lat="45.64166" lon="6.15579">
        <ele>855.42401123047</ele>
        <time>2010-10-07T12:15:44Z</time>
      </trkpt>
      <trkpt lat="45.64161" lon="6.15575">
        <ele>856.60998535156</ele>
        <time>2010-10-07T12:15:49Z</time>
      </trkpt>
      <trkpt lat="45.64154" lon="6.15566">
        <ele>858.09997558594</ele>
        <time>2010-10-07T12:15:56Z</time>
      </trkpt>
      <trkpt lat="45.64148" lon="6.15561">
        <ele>859.47698974609</ele>
        <time>2010-10-07T12:16:02Z</time>
      </trkpt>
      <trkpt lat="45.64142" lon="6.15557">
        <ele>860.62298583984</ele>
        <time>2010-10-07T12:16:08Z</time>
      </trkpt>
      <trkpt lat="45.64136" lon="6.15556">
        <ele>861.59497070312</ele>
        <time>2010-10-07T12:16:13Z</time>
      </trkpt>
      <trkpt lat="45.64125" lon="6.15554">
        <ele>862.9990234375</ele>
        <time>2010-10-07T12:16:21Z</time>
      </trkpt>
      <trkpt lat="45.6412" lon="6.1555">
        <ele>864.37902832031</ele>
        <time>2010-10-07T12:16:26Z</time>
      </trkpt>
      <trkpt lat="45.64115" lon="6.15544">
        <ele>865.31597900391</ele>
        <time>2010-10-07T12:16:31Z</time>
      </trkpt>
      <trkpt lat="45.64104" lon="6.15538">
        <ele>866.74597167969</ele>
        <time>2010-10-07T12:16:39Z</time>
      </trkpt>
      <trkpt lat="45.64097" lon="6.15536">
        <ele>867.34802246094</ele>
        <time>2010-10-07T12:16:44Z</time>
      </trkpt>
      <trkpt lat="45.64093" lon="6.15533">
        <ele>867.66497802734</ele>
        <time>2010-10-07T12:16:47Z</time>
      </trkpt>
      <trkpt lat="45.64079" lon="6.15525">
        <ele>868.88201904297</ele>
        <time>2010-10-07T12:16:56Z</time>
      </trkpt>
      <trkpt lat="45.64064" lon="6.15519">
        <ele>870.26800537109</ele>
        <time>2010-10-07T12:17:05Z</time>
      </trkpt>
      <trkpt lat="45.64048" lon="6.15508">
        <ele>871.67199707031</ele>
        <time>2010-10-07T12:17:15Z</time>
      </trkpt>
      <trkpt lat="45.64035" lon="6.155">
        <ele>872.16900634766</ele>
        <time>2010-10-07T12:17:23Z</time>
      </trkpt>
      <trkpt lat="45.64021" lon="6.1549">
        <ele>871.69299316406</ele>
        <time>2010-10-07T12:17:30Z</time>
      </trkpt>
      <trkpt lat="45.64008" lon="6.1548">
        <ele>871.05999755859</ele>
        <time>2010-10-07T12:17:36Z</time>
      </trkpt>
      <trkpt lat="45.63997" lon="6.15475">
        <ele>872.03900146484</ele>
        <time>2010-10-07T12:17:43Z</time>
      </trkpt>
      <trkpt lat="45.63989" lon="6.15468">
        <ele>872.96502685547</ele>
        <time>2010-10-07T12:17:48Z</time>
      </trkpt>
      <trkpt lat="45.63979" lon="6.15462">
        <ele>872.85498046875</ele>
        <time>2010-10-07T12:17:53Z</time>
      </trkpt>
      <trkpt lat="45.63969" lon="6.15455">
        <ele>872.9990234375</ele>
        <time>2010-10-07T12:17:58Z</time>
      </trkpt>
      <trkpt lat="45.63959" lon="6.15448">
        <ele>873.52502441406</ele>
        <time>2010-10-07T12:18:03Z</time>
      </trkpt>
      <trkpt lat="45.63957" lon="6.15446">
        <ele>873.65502929688</ele>
        <time>2010-10-07T12:18:04Z</time>
      </trkpt>
      <trkpt lat="45.63949" lon="6.15442">
        <ele>874.20501708984</ele>
        <time>2010-10-07T12:18:10Z</time>
      </trkpt>
      <trkpt lat="45.63945" lon="6.15437">
        <ele>873.87701416016</ele>
        <time>2010-10-07T12:18:15Z</time>
      </trkpt>
      <trkpt lat="45.63935" lon="6.15428">
        <ele>872.05102539062</ele>
        <time>2010-10-07T12:18:20Z</time>
      </trkpt>
      <trkpt lat="45.6392" lon="6.15414">
        <ele>871.67401123047</ele>
        <time>2010-10-07T12:18:26Z</time>
      </trkpt>
      <trkpt lat="45.63909" lon="6.15407">
        <ele>872.40698242188</ele>
        <time>2010-10-07T12:18:30Z</time>
      </trkpt>
      <trkpt lat="45.63907" lon="6.15406">
        <ele>872.58197021484</ele>
        <time>2010-10-07T12:18:31Z</time>
      </trkpt>
      <trkpt lat="45.63903" lon="6.15401">
        <ele>872.91497802734</ele>
        <time>2010-10-07T12:18:34Z</time>
      </trkpt>
      <trkpt lat="45.63891" lon="6.1539">
        <ele>873.24200439453</ele>
        <time>2010-10-07T12:18:40Z</time>
      </trkpt>
      <trkpt lat="45.63882" lon="6.15383">
        <ele>874.84899902344</ele>
        <time>2010-10-07T12:18:46Z</time>
      </trkpt>
      <trkpt lat="45.63877" lon="6.1538">
        <ele>876.291015625</ele>
        <time>2010-10-07T12:18:50Z</time>
      </trkpt>
      <trkpt lat="45.63873" lon="6.15377">
        <ele>877.59100341797</ele>
        <time>2010-10-07T12:18:54Z</time>
      </trkpt>
      <trkpt lat="45.63869" lon="6.15376">
        <ele>877.88897705078</ele>
        <time>2010-10-07T12:18:57Z</time>
      </trkpt>
      <trkpt lat="45.6386" lon="6.15369">
        <ele>877.94897460938</ele>
        <time>2010-10-07T12:19:03Z</time>
      </trkpt>
      <trkpt lat="45.63848" lon="6.15359">
        <ele>878.52398681641</ele>
        <time>2010-10-07T12:19:10Z</time>
      </trkpt>
      <trkpt lat="45.63846" lon="6.15358">
        <ele>878.62200927734</ele>
        <time>2010-10-07T12:19:11Z</time>
      </trkpt>
      <trkpt lat="45.63838" lon="6.1535">
        <ele>878.59899902344</ele>
        <time>2010-10-07T12:19:17Z</time>
      </trkpt>
      <trkpt lat="45.63826" lon="6.1534">
        <ele>879.80798339844</ele>
        <time>2010-10-07T12:19:23Z</time>
      </trkpt>
      <trkpt lat="45.63825" lon="6.15339">
        <ele>879.87200927734</ele>
        <time>2010-10-07T12:19:24Z</time>
      </trkpt>
      <trkpt lat="45.63811" lon="6.15335">
        <ele>881.11199951172</ele>
        <time>2010-10-07T12:19:31Z</time>
      </trkpt>
      <trkpt lat="45.63802" lon="6.15333">
        <ele>881.57000732422</ele>
        <time>2010-10-07T12:19:37Z</time>
      </trkpt>
      <trkpt lat="45.63791" lon="6.15333">
        <ele>880.39599609375</ele>
        <time>2010-10-07T12:19:42Z</time>
      </trkpt>
      <trkpt lat="45.63782" lon="6.15334">
        <ele>879.98498535156</ele>
        <time>2010-10-07T12:19:45Z</time>
      </trkpt>
      <trkpt lat="45.63768" lon="6.15338">
        <ele>879.99499511719</ele>
        <time>2010-10-07T12:19:51Z</time>
      </trkpt>
      <trkpt lat="45.63757" lon="6.1534">
        <ele>880.07098388672</ele>
        <time>2010-10-07T12:19:57Z</time>
      </trkpt>
      <trkpt lat="45.63747" lon="6.15341">
        <ele>880.84698486328</ele>
        <time>2010-10-07T12:20:03Z</time>
      </trkpt>
      <trkpt lat="45.63739" lon="6.15342">
        <ele>880.458984375</ele>
        <time>2010-10-07T12:20:07Z</time>
      </trkpt>
      <trkpt lat="45.63729" lon="6.15348">
        <ele>877.74798583984</ele>
        <time>2010-10-07T12:20:12Z</time>
      </trkpt>
      <trkpt lat="45.63718" lon="6.1535">
        <ele>875.21899414062</ele>
        <time>2010-10-07T12:20:17Z</time>
      </trkpt>
      <trkpt lat="45.63702" lon="6.15354">
        <ele>872.30102539062</ele>
        <time>2010-10-07T12:20:21Z</time>
      </trkpt>
      <trkpt lat="45.63684" lon="6.15352">
        <ele>871.03802490234</ele>
        <time>2010-10-07T12:20:27Z</time>
      </trkpt>
      <trkpt lat="45.63683" lon="6.15353">
        <ele>871.03802490234</ele>
        <time>2010-10-07T12:20:28Z</time>
      </trkpt>
      <trkpt lat="45.63678" lon="6.15356">
        <ele>868.708984375</ele>
        <time>2010-10-07T12:20:30Z</time>
      </trkpt>
      <trkpt lat="45.63668" lon="6.1537">
        <ele>865.16302490234</ele>
        <time>2010-10-07T12:20:36Z</time>
      </trkpt>
      <trkpt lat="45.63666" lon="6.15378">
        <ele>863.67797851562</ele>
        <time>2010-10-07T12:20:39Z</time>
      </trkpt>
      <trkpt lat="45.63663" lon="6.15382">
        <ele>862.76599121094</ele>
        <time>2010-10-07T12:20:41Z</time>
      </trkpt>
      <trkpt lat="45.63663" lon="6.154">
        <ele>860.30999755859</ele>
        <time>2010-10-07T12:20:48Z</time>
      </trkpt>
      <trkpt lat="45.63663" lon="6.15405">
        <ele>859.86297607422</ele>
        <time>2010-10-07T12:20:56Z</time>
      </trkpt>
      <trkpt lat="45.63663" lon="6.15409">
        <ele>859.49401855469</ele>
        <time>2010-10-07T12:21:03Z</time>
      </trkpt>
      <trkpt lat="45.63664" lon="6.15411">
        <ele>859.39202880859</ele>
        <time>2010-10-07T12:21:10Z</time>
      </trkpt>
      <trkpt lat="45.63665" lon="6.15415">
        <ele>858.76599121094</ele>
        <time>2010-10-07T12:21:18Z</time>
      </trkpt>
      <trkpt lat="45.63666" lon="6.15417">
        <ele>858.01300048828</ele>
        <time>2010-10-07T12:21:24Z</time>
      </trkpt>
      <trkpt lat="45.63671" lon="6.15419">
        <ele>856.84600830078</ele>
        <time>2010-10-07T12:21:28Z</time>
      </trkpt>
      <trkpt lat="45.6368" lon="6.15431">
        <ele>855.35699462891</ele>
        <time>2010-10-07T12:21:33Z</time>
      </trkpt>
      <trkpt lat="45.63687" lon="6.15448">
        <ele>852.84002685547</ele>
        <time>2010-10-07T12:21:38Z</time>
      </trkpt>
      <trkpt lat="45.63697" lon="6.15472">
        <ele>848.91198730469</ele>
        <time>2010-10-07T12:21:44Z</time>
      </trkpt>
      <trkpt lat="45.63702" lon="6.15485">
        <ele>847.61102294922</ele>
        <time>2010-10-07T12:21:47Z</time>
      </trkpt>
      <trkpt lat="45.63708" lon="6.15505">
        <ele>846.47497558594</ele>
        <time>2010-10-07T12:21:53Z</time>
      </trkpt>
      <trkpt lat="45.63699" lon="6.1551">
        <ele>845.90399169922</ele>
        <time>2010-10-07T12:21:59Z</time>
      </trkpt>
      <trkpt lat="45.6369" lon="6.15509">
        <ele>845.29400634766</ele>
        <time>2010-10-07T12:22:05Z</time>
      </trkpt>
      <trkpt lat="45.63676" lon="6.15509">
        <ele>844.11401367188</ele>
        <time>2010-10-07T12:22:11Z</time>
      </trkpt>
      <trkpt lat="45.63658" lon="6.15508">
        <ele>842.98602294922</ele>
        <time>2010-10-07T12:22:18Z</time>
      </trkpt>
      <trkpt lat="45.63635" lon="6.15504">
        <ele>842.33099365234</ele>
        <time>2010-10-07T12:22:26Z</time>
      </trkpt>
      <trkpt lat="45.63622" lon="6.155">
        <ele>842.3740234375</ele>
        <time>2010-10-07T12:22:32Z</time>
      </trkpt>
      <trkpt lat="45.63604" lon="6.15494">
        <ele>842.46899414062</ele>
        <time>2010-10-07T12:22:41Z</time>
      </trkpt>
      <trkpt lat="45.63602" lon="6.15493">
        <ele>842.45599365234</ele>
        <time>2010-10-07T12:22:42Z</time>
      </trkpt>
      <trkpt lat="45.63596" lon="6.15497">
        <ele>842.40100097656</ele>
        <time>2010-10-07T12:22:46Z</time>
      </trkpt>
      <trkpt lat="45.63585" lon="6.15508">
        <ele>841.4580078125</ele>
        <time>2010-10-07T12:22:55Z</time>
      </trkpt>
      <trkpt lat="45.63584" lon="6.15509">
        <ele>841.41900634766</ele>
        <time>2010-10-07T12:23:00Z</time>
      </trkpt>
      <trkpt lat="45.6358" lon="6.1551">
        <ele>841.45098876953</ele>
        <time>2010-10-07T12:23:06Z</time>
      </trkpt>
      <trkpt lat="45.63577" lon="6.15511">
        <ele>841.96398925781</ele>
        <time>2010-10-07T12:23:10Z</time>
      </trkpt>
      <trkpt lat="45.63574" lon="6.15509">
        <ele>842.98199462891</ele>
        <time>2010-10-07T12:23:14Z</time>
      </trkpt>
      <trkpt lat="45.63568" lon="6.15513">
        <ele>843.40399169922</ele>
        <time>2010-10-07T12:23:21Z</time>
      </trkpt>
      <trkpt lat="45.63561" lon="6.1552">
        <ele>842.13397216797</ele>
        <time>2010-10-07T12:23:29Z</time>
      </trkpt>
      <trkpt lat="45.63556" lon="6.15521">
        <ele>842.14501953125</ele>
        <time>2010-10-07T12:23:35Z</time>
      </trkpt>
      <trkpt lat="45.63554" lon="6.15521">
        <ele>842.80499267578</ele>
        <time>2010-10-07T12:23:43Z</time>
      </trkpt>
      <trkpt lat="45.63551" lon="6.15523">
        <ele>842.32098388672</ele>
        <time>2010-10-07T12:23:53Z</time>
      </trkpt>
      <trkpt lat="45.63551" lon="6.15523">
        <ele>842.19396972656</ele>
        <time>2010-10-07T12:23:54Z</time>
      </trkpt>
      <trkpt lat="45.63549" lon="6.15525">
        <ele>841.64697265625</ele>
        <time>2010-10-07T12:24:00Z</time>
      </trkpt>
      <trkpt lat="45.63544" lon="6.15538">
        <ele>838.81701660156</ele>
        <time>2010-10-07T12:24:07Z</time>
      </trkpt>
      <trkpt lat="45.63539" lon="6.15547">
        <ele>836.30102539062</ele>
        <time>2010-10-07T12:24:11Z</time>
      </trkpt>
      <trkpt lat="45.63536" lon="6.15553">
        <ele>834.36401367188</ele>
        <time>2010-10-07T12:24:15Z</time>
      </trkpt>
      <trkpt lat="45.63534" lon="6.15559">
        <ele>832.30999755859</ele>
        <time>2010-10-07T12:24:18Z</time>
      </trkpt>
      <trkpt lat="45.63526" lon="6.15572">
        <ele>827.71502685547</ele>
        <time>2010-10-07T12:24:25Z</time>
      </trkpt>
      <trkpt lat="45.6352" lon="6.15585">
        <ele>824.05200195312</ele>
        <time>2010-10-07T12:24:31Z</time>
      </trkpt>
      <trkpt lat="45.63519" lon="6.15587">
        <ele>823.95001220703</ele>
        <time>2010-10-07T12:24:34Z</time>
      </trkpt>
      <trkpt lat="45.63514" lon="6.15592">
        <ele>822.74597167969</ele>
        <time>2010-10-07T12:24:41Z</time>
      </trkpt>
      <trkpt lat="45.63513" lon="6.15594">
        <ele>822.05902099609</ele>
        <time>2010-10-07T12:24:43Z</time>
      </trkpt>
      <trkpt lat="45.63511" lon="6.15598">
        <ele>820.38897705078</ele>
        <time>2010-10-07T12:24:50Z</time>
      </trkpt>
      <trkpt lat="45.63512" lon="6.156">
        <ele>819.52301025391</ele>
        <time>2010-10-07T12:24:54Z</time>
      </trkpt>
      <trkpt lat="45.63512" lon="6.15604">
        <ele>818.37200927734</ele>
        <time>2010-10-07T12:24:59Z</time>
      </trkpt>
      <trkpt lat="45.63512" lon="6.15606">
        <ele>818.00500488281</ele>
        <time>2010-10-07T12:25:03Z</time>
      </trkpt>
      <trkpt lat="45.63514" lon="6.15618">
        <ele>814.88500976562</ele>
        <time>2010-10-07T12:25:09Z</time>
      </trkpt>
      <trkpt lat="45.63515" lon="6.15624">
        <ele>813.07702636719</ele>
        <time>2010-10-07T12:25:11Z</time>
      </trkpt>
      <trkpt lat="45.63512" lon="6.15642">
        <ele>810.40502929688</ele>
        <time>2010-10-07T12:25:16Z</time>
      </trkpt>
      <trkpt lat="45.6351" lon="6.15651">
        <ele>808.59600830078</ele>
        <time>2010-10-07T12:25:20Z</time>
      </trkpt>
      <trkpt lat="45.63493" lon="6.15668">
        <ele>803.53100585938</ele>
        <time>2010-10-07T12:25:29Z</time>
      </trkpt>
      <trkpt lat="45.6348" lon="6.15681">
        <ele>798.90600585938</ele>
        <time>2010-10-07T12:25:36Z</time>
      </trkpt>
      <trkpt lat="45.63469" lon="6.15699">
        <ele>793.97399902344</ele>
        <time>2010-10-07T12:25:41Z</time>
      </trkpt>
      <trkpt lat="45.63466" lon="6.15705">
        <ele>792.708984375</ele>
        <time>2010-10-07T12:25:42Z</time>
      </trkpt>
      <trkpt lat="45.63458" lon="6.15721">
        <ele>789.60302734375</ele>
        <time>2010-10-07T12:25:45Z</time>
      </trkpt>
      <trkpt lat="45.63433" lon="6.15738">
        <ele>783.45501708984</ele>
        <time>2010-10-07T12:25:50Z</time>
      </trkpt>
      <trkpt lat="45.63429" lon="6.15741">
        <ele>782.73297119141</ele>
        <time>2010-10-07T12:25:51Z</time>
      </trkpt>
      <trkpt lat="45.63406" lon="6.15761">
        <ele>778.76202392578</ele>
        <time>2010-10-07T12:25:56Z</time>
      </trkpt>
      <trkpt lat="45.63383" lon="6.15763">
        <ele>775.40197753906</ele>
        <time>2010-10-07T12:26:00Z</time>
      </trkpt>
      <trkpt lat="45.63371" lon="6.15761">
        <ele>773.74298095703</ele>
        <time>2010-10-07T12:26:02Z</time>
      </trkpt>
      <trkpt lat="45.63363" lon="6.15758">
        <ele>773.05700683594</ele>
        <time>2010-10-07T12:26:04Z</time>
      </trkpt>
      <trkpt lat="45.63342" lon="6.15751">
        <ele>769.37097167969</ele>
        <time>2010-10-07T12:26:10Z</time>
      </trkpt>
      <trkpt lat="45.63337" lon="6.15748">
        <ele>767.97100830078</ele>
        <time>2010-10-07T12:26:12Z</time>
      </trkpt>
      <trkpt lat="45.63328" lon="6.1574">
        <ele>764.17999267578</ele>
        <time>2010-10-07T12:26:16Z</time>
      </trkpt>
      <trkpt lat="45.63312" lon="6.15742">
        <ele>761.52697753906</ele>
        <time>2010-10-07T12:26:20Z</time>
      </trkpt>
      <trkpt lat="45.63281" lon="6.15756">
        <ele>758.16900634766</ele>
        <time>2010-10-07T12:26:26Z</time>
      </trkpt>
      <trkpt lat="45.63278" lon="6.15757">
        <ele>757.95202636719</ele>
        <time>2010-10-07T12:26:27Z</time>
      </trkpt>
      <trkpt lat="45.63268" lon="6.15752">
        <ele>756.9169921875</ele>
        <time>2010-10-07T12:26:31Z</time>
      </trkpt>
      <trkpt lat="45.63258" lon="6.15755">
        <ele>756.68103027344</ele>
        <time>2010-10-07T12:26:37Z</time>
      </trkpt>
      <trkpt lat="45.63255" lon="6.1576">
        <ele>756.73901367188</ele>
        <time>2010-10-07T12:26:39Z</time>
      </trkpt>
      <trkpt lat="45.63246" lon="6.15779">
        <ele>756.21301269531</ele>
        <time>2010-10-07T12:26:45Z</time>
      </trkpt>
      <trkpt lat="45.63236" lon="6.15799">
        <ele>756.50402832031</ele>
        <time>2010-10-07T12:26:51Z</time>
      </trkpt>
      <trkpt lat="45.63226" lon="6.15821">
        <ele>756.18902587891</ele>
        <time>2010-10-07T12:26:57Z</time>
      </trkpt>
      <trkpt lat="45.6321" lon="6.15844">
        <ele>756.375</ele>
        <time>2010-10-07T12:27:04Z</time>
      </trkpt>
      <trkpt lat="45.63197" lon="6.15861">
        <ele>756.80902099609</ele>
        <time>2010-10-07T12:27:10Z</time>
      </trkpt>
      <trkpt lat="45.63187" lon="6.15878">
        <ele>757.84100341797</ele>
        <time>2010-10-07T12:27:16Z</time>
      </trkpt>
      <trkpt lat="45.63178" lon="6.15895">
        <ele>759.38299560547</ele>
        <time>2010-10-07T12:27:22Z</time>
      </trkpt>
      <trkpt lat="45.63173" lon="6.15905">
        <ele>760.26501464844</ele>
        <time>2010-10-07T12:27:26Z</time>
      </trkpt>
      <trkpt lat="45.6317" lon="6.1591">
        <ele>760.75402832031</ele>
        <time>2010-10-07T12:27:28Z</time>
      </trkpt>
      <trkpt lat="45.63161" lon="6.1591">
        <ele>761.31701660156</ele>
        <time>2010-10-07T12:27:32Z</time>
      </trkpt>
      <trkpt lat="45.63155" lon="6.15905">
        <ele>761.59197998047</ele>
        <time>2010-10-07T12:27:35Z</time>
      </trkpt>
      <trkpt lat="45.63135" lon="6.15893">
        <ele>762.31896972656</ele>
        <time>2010-10-07T12:27:43Z</time>
      </trkpt>
      <trkpt lat="45.63112" lon="6.15885">
        <ele>763.05499267578</ele>
        <time>2010-10-07T12:27:52Z</time>
      </trkpt>
      <trkpt lat="45.63097" lon="6.15889">
        <ele>764.04998779297</ele>
        <time>2010-10-07T12:27:58Z</time>
      </trkpt>
      <trkpt lat="45.63089" lon="6.15906">
        <ele>765.84100341797</ele>
        <time>2010-10-07T12:28:03Z</time>
      </trkpt>
      <trkpt lat="45.63078" lon="6.15911">
        <ele>767.66497802734</ele>
        <time>2010-10-07T12:28:08Z</time>
      </trkpt>
      <trkpt lat="45.63075" lon="6.15909">
        <ele>767.64501953125</ele>
        <time>2010-10-07T12:28:10Z</time>
      </trkpt>
      <trkpt lat="45.63062" lon="6.15898">
        <ele>767.86798095703</ele>
        <time>2010-10-07T12:28:17Z</time>
      </trkpt>
      <trkpt lat="45.63049" lon="6.15887">
        <ele>767.80297851562</ele>
        <time>2010-10-07T12:28:23Z</time>
      </trkpt>
      <trkpt lat="45.63035" lon="6.15875">
        <ele>767.95001220703</ele>
        <time>2010-10-07T12:28:29Z</time>
      </trkpt>
      <trkpt lat="45.63034" lon="6.15875">
        <ele>768.16400146484</ele>
        <time>2010-10-07T12:28:33Z</time>
      </trkpt>
      <trkpt lat="45.63034" lon="6.15873">
        <ele>767.958984375</ele>
        <time>2010-10-07T12:28:39Z</time>
      </trkpt>
      <trkpt lat="45.63031" lon="6.1587">
        <ele>768.14501953125</ele>
        <time>2010-10-07T12:28:51Z</time>
      </trkpt>
      <trkpt lat="45.63014" lon="6.15864">
        <ele>768.13397216797</ele>
        <time>2010-10-07T12:28:57Z</time>
      </trkpt>
      <trkpt lat="45.62994" lon="6.15858">
        <ele>768</ele>
        <time>2010-10-07T12:29:03Z</time>
      </trkpt>
      <trkpt lat="45.62969" lon="6.1585">
        <ele>767.95501708984</ele>
        <time>2010-10-07T12:29:10Z</time>
      </trkpt>
      <trkpt lat="45.62944" lon="6.15844">
        <ele>767.93597412109</ele>
        <time>2010-10-07T12:29:17Z</time>
      </trkpt>
      <trkpt lat="45.62908" lon="6.15834">
        <ele>767.27600097656</ele>
        <time>2010-10-07T12:29:27Z</time>
      </trkpt>
      <trkpt lat="45.62868" lon="6.15816">
        <ele>767.28302001953</ele>
        <time>2010-10-07T12:29:38Z</time>
      </trkpt>
      <trkpt lat="45.62841" lon="6.15786">
        <ele>767.57598876953</ele>
        <time>2010-10-07T12:29:47Z</time>
      </trkpt>
      <trkpt lat="45.62819" lon="6.15761">
        <ele>768.59802246094</ele>
        <time>2010-10-07T12:29:55Z</time>
      </trkpt>
      <trkpt lat="45.62801" lon="6.1574">
        <ele>770.15100097656</ele>
        <time>2010-10-07T12:30:03Z</time>
      </trkpt>
      <trkpt lat="45.62787" lon="6.15725">
        <ele>771.80200195312</ele>
        <time>2010-10-07T12:30:10Z</time>
      </trkpt>
      <trkpt lat="45.62778" lon="6.15715">
        <ele>772.84497070312</ele>
        <time>2010-10-07T12:30:15Z</time>
      </trkpt>
      <trkpt lat="45.62769" lon="6.15704">
        <ele>773.61700439453</ele>
        <time>2010-10-07T12:30:20Z</time>
      </trkpt>
      <trkpt lat="45.62762" lon="6.15695">
        <ele>774.53399658203</ele>
        <time>2010-10-07T12:30:24Z</time>
      </trkpt>
      <trkpt lat="45.62744" lon="6.15673">
        <ele>776.69598388672</ele>
        <time>2010-10-07T12:30:34Z</time>
      </trkpt>
      <trkpt lat="45.62729" lon="6.15655">
        <ele>778.44299316406</ele>
        <time>2010-10-07T12:30:43Z</time>
      </trkpt>
      <trkpt lat="45.62712" lon="6.15635">
        <ele>779.77099609375</ele>
        <time>2010-10-07T12:30:53Z</time>
      </trkpt>
      <trkpt lat="45.62696" lon="6.15614">
        <ele>781.05401611328</ele>
        <time>2010-10-07T12:31:03Z</time>
      </trkpt>
      <trkpt lat="45.62684" lon="6.15598">
        <ele>782.17498779297</ele>
        <time>2010-10-07T12:31:11Z</time>
      </trkpt>
      <trkpt lat="45.62671" lon="6.15582">
        <ele>783.19702148438</ele>
        <time>2010-10-07T12:31:19Z</time>
      </trkpt>
      <trkpt lat="45.62651" lon="6.1556">
        <ele>784.50299072266</ele>
        <time>2010-10-07T12:31:30Z</time>
      </trkpt>
      <trkpt lat="45.6264" lon="6.15551">
        <ele>786.17498779297</ele>
        <time>2010-10-07T12:31:36Z</time>
      </trkpt>
      <trkpt lat="45.62639" lon="6.15551">
        <ele>786.16101074219</ele>
        <time>2010-10-07T12:31:40Z</time>
      </trkpt>
      <trkpt lat="45.6264" lon="6.15552">
        <ele>786.04901123047</ele>
        <time>2010-10-07T12:32:02Z</time>
      </trkpt>
      <trkpt lat="45.6264" lon="6.15552">
        <ele>786.07702636719</ele>
        <time>2010-10-07T12:32:13Z</time>
      </trkpt>
      <trkpt lat="45.62639" lon="6.15551">
        <ele>786.03997802734</ele>
        <time>2010-10-07T12:32:21Z</time>
      </trkpt>
      <trkpt lat="45.62629" lon="6.15543">
        <ele>786.49102783203</ele>
        <time>2010-10-07T12:32:27Z</time>
      </trkpt>
      <trkpt lat="45.62625" lon="6.1554">
        <ele>787.04302978516</ele>
        <time>2010-10-07T12:32:30Z</time>
      </trkpt>
      <trkpt lat="45.62625" lon="6.1554">
        <ele>786.59600830078</ele>
        <time>2010-10-07T12:32:33Z</time>
      </trkpt>
      <trkpt lat="45.62626" lon="6.1554">
        <ele>786.35400390625</ele>
        <time>2010-10-07T12:32:50Z</time>
      </trkpt>
      <trkpt lat="45.62627" lon="6.1554">
        <ele>786.30297851562</ele>
        <time>2010-10-07T12:33:14Z</time>
      </trkpt>
      <trkpt lat="45.62627" lon="6.1554">
        <ele>786.28698730469</ele>
        <time>2010-10-07T12:33:18Z</time>
      </trkpt>
      <trkpt lat="45.62628" lon="6.1554">
        <ele>786.08801269531</ele>
        <time>2010-10-07T12:33:54Z</time>
      </trkpt>
      <trkpt lat="45.62628" lon="6.1554">
        <ele>786.09698486328</ele>
        <time>2010-10-07T12:34:05Z</time>
      </trkpt>
      <trkpt lat="45.62629" lon="6.15539">
        <ele>785.87298583984</ele>
        <time>2010-10-07T12:34:34Z</time>
      </trkpt>
      <trkpt lat="45.6263" lon="6.1554">
        <ele>785.20697021484</ele>
        <time>2010-10-07T12:37:25Z</time>
      </trkpt>
      <trkpt lat="45.62631" lon="6.1554">
        <ele>785.31402587891</ele>
        <time>2010-10-07T12:37:31Z</time>
      </trkpt>
      <trkpt lat="45.62628" lon="6.15543">
        <ele>785.28900146484</ele>
        <time>2010-10-07T12:37:51Z</time>
      </trkpt>
      <trkpt lat="45.62632" lon="6.15541">
        <ele>785.00299072266</ele>
        <time>2010-10-07T12:39:15Z</time>
      </trkpt>
      <trkpt lat="45.62632" lon="6.15539">
        <ele>784.65399169922</ele>
        <time>2010-10-07T12:40:00Z</time>
      </trkpt>
      <trkpt lat="45.62632" lon="6.1554">
        <ele>784.32202148438</ele>
        <time>2010-10-07T12:40:51Z</time>
      </trkpt>
      <trkpt lat="45.62632" lon="6.1554">
        <ele>784.35101318359</ele>
        <time>2010-10-07T12:41:00Z</time>
      </trkpt>
      <trkpt lat="45.62632" lon="6.1554">
        <ele>783.94598388672</ele>
        <time>2010-10-07T12:41:54Z</time>
      </trkpt>
      <trkpt lat="45.62632" lon="6.15539">
        <ele>783.84698486328</ele>
        <time>2010-10-07T12:42:16Z</time>
      </trkpt>
      <trkpt lat="45.62632" lon="6.15539">
        <ele>783.65399169922</ele>
        <time>2010-10-07T12:42:30Z</time>
      </trkpt>
      <trkpt lat="45.62633" lon="6.15538">
        <ele>783.44598388672</ele>
        <time>2010-10-07T12:42:42Z</time>
      </trkpt>
      <trkpt lat="45.6263" lon="6.15539">
        <ele>783.37298583984</ele>
        <time>2010-10-07T12:43:16Z</time>
      </trkpt>
      <trkpt lat="45.62629" lon="6.15539">
        <ele>783.26202392578</ele>
        <time>2010-10-07T12:43:19Z</time>
      </trkpt>
      <trkpt lat="45.62628" lon="6.15538">
        <ele>783.291015625</ele>
        <time>2010-10-07T12:43:21Z</time>
      </trkpt>
      <trkpt lat="45.62625" lon="6.15537">
        <ele>783.71801757812</ele>
        <time>2010-10-07T12:43:26Z</time>
      </trkpt>
      <trkpt lat="45.62624" lon="6.15538">
        <ele>783.59802246094</ele>
        <time>2010-10-07T12:43:30Z</time>
      </trkpt>
      <trkpt lat="45.62624" lon="6.15538">
        <ele>783.65698242188</ele>
        <time>2010-10-07T12:43:31Z</time>
      </trkpt>
      <trkpt lat="45.62624" lon="6.15538">
        <ele>783.65197753906</ele>
        <time>2010-10-07T12:43:34Z</time>
      </trkpt>
      <trkpt lat="45.62619" lon="6.15532">
        <ele>783.67401123047</ele>
        <time>2010-10-07T12:43:38Z</time>
      </trkpt>
      <trkpt lat="45.62606" lon="6.15519">
        <ele>783.58502197266</ele>
        <time>2010-10-07T12:43:44Z</time>
      </trkpt>
      <trkpt lat="45.62597" lon="6.15509">
        <ele>784.01202392578</ele>
        <time>2010-10-07T12:43:48Z</time>
      </trkpt>
      <trkpt lat="45.62587" lon="6.15498">
        <ele>783.88397216797</ele>
        <time>2010-10-07T12:43:52Z</time>
      </trkpt>
      <trkpt lat="45.62563" lon="6.15475">
        <ele>783.86999511719</ele>
        <time>2010-10-07T12:44:00Z</time>
      </trkpt>
      <trkpt lat="45.62553" lon="6.15464">
        <ele>783.78900146484</ele>
        <time>2010-10-07T12:44:05Z</time>
      </trkpt>
      <trkpt lat="45.62534" lon="6.15446">
        <ele>783.66198730469</ele>
        <time>2010-10-07T12:44:12Z</time>
      </trkpt>
      <trkpt lat="45.62505" lon="6.15417">
        <ele>782.958984375</ele>
        <time>2010-10-07T12:44:21Z</time>
      </trkpt>
      <trkpt lat="45.62483" lon="6.15395">
        <ele>782.56402587891</ele>
        <time>2010-10-07T12:44:27Z</time>
      </trkpt>
      <trkpt lat="45.62455" lon="6.15368">
        <ele>782.25</ele>
        <time>2010-10-07T12:44:35Z</time>
      </trkpt>
      <trkpt lat="45.62425" lon="6.15341">
        <ele>782.541015625</ele>
        <time>2010-10-07T12:44:44Z</time>
      </trkpt>
      <trkpt lat="45.6241" lon="6.15326">
        <ele>783.27099609375</ele>
        <time>2010-10-07T12:44:50Z</time>
      </trkpt>
      <trkpt lat="45.62394" lon="6.15308">
        <ele>782.54400634766</ele>
        <time>2010-10-07T12:44:56Z</time>
      </trkpt>
      <trkpt lat="45.62392" lon="6.15307">
        <ele>781.97198486328</ele>
        <time>2010-10-07T12:44:59Z</time>
      </trkpt>
      <trkpt lat="45.62394" lon="6.15309">
        <ele>781.64001464844</ele>
        <time>2010-10-07T12:45:17Z</time>
      </trkpt>
      <trkpt lat="45.62393" lon="6.15308">
        <ele>781.90197753906</ele>
        <time>2010-10-07T12:45:28Z</time>
      </trkpt>
      <trkpt lat="45.62387" lon="6.15302">
        <ele>781.53698730469</ele>
        <time>2010-10-07T12:46:11Z</time>
      </trkpt>
      <trkpt lat="45.62373" lon="6.1529">
        <ele>780.90301513672</ele>
        <time>2010-10-07T12:46:16Z</time>
      </trkpt>
      <trkpt lat="45.62367" lon="6.15283">
        <ele>780.53198242188</ele>
        <time>2010-10-07T12:46:18Z</time>
      </trkpt>
      <trkpt lat="45.62339" lon="6.15263">
        <ele>779.23602294922</ele>
        <time>2010-10-07T12:46:24Z</time>
      </trkpt>
      <trkpt lat="45.62297" lon="6.15228">
        <ele>777.48699951172</ele>
        <time>2010-10-07T12:46:32Z</time>
      </trkpt>
      <trkpt lat="45.62258" lon="6.15196">
        <ele>777.94598388672</ele>
        <time>2010-10-07T12:46:40Z</time>
      </trkpt>
      <trkpt lat="45.6225" lon="6.15189">
        <ele>778.55798339844</ele>
        <time>2010-10-07T12:46:42Z</time>
      </trkpt>
      <trkpt lat="45.62236" lon="6.15178">
        <ele>779.55102539062</ele>
        <time>2010-10-07T12:46:46Z</time>
      </trkpt>
      <trkpt lat="45.62231" lon="6.15173">
        <ele>780.13098144531</ele>
        <time>2010-10-07T12:46:48Z</time>
      </trkpt>
      <trkpt lat="45.62214" lon="6.15158">
        <ele>781.50799560547</ele>
        <time>2010-10-07T12:46:54Z</time>
      </trkpt>
      <trkpt lat="45.62205" lon="6.15149">
        <ele>782.31597900391</ele>
        <time>2010-10-07T12:46:58Z</time>
      </trkpt>
      <trkpt lat="45.62196" lon="6.15141">
        <ele>782.7509765625</ele>
        <time>2010-10-07T12:47:02Z</time>
      </trkpt>
      <trkpt lat="45.62179" lon="6.15126">
        <ele>782.57598876953</ele>
        <time>2010-10-07T12:47:09Z</time>
      </trkpt>
      <trkpt lat="45.62158" lon="6.15104">
        <ele>782.52197265625</ele>
        <time>2010-10-07T12:47:17Z</time>
      </trkpt>
      <trkpt lat="45.62135" lon="6.15075">
        <ele>783.19097900391</ele>
        <time>2010-10-07T12:47:26Z</time>
      </trkpt>
      <trkpt lat="45.62114" lon="6.15042">
        <ele>785.09802246094</ele>
        <time>2010-10-07T12:47:36Z</time>
      </trkpt>
      <trkpt lat="45.62101" lon="6.15007">
        <ele>787.32299804688</ele>
        <time>2010-10-07T12:47:46Z</time>
      </trkpt>
      <trkpt lat="45.62091" lon="6.14987">
        <ele>788.58801269531</ele>
        <time>2010-10-07T12:47:53Z</time>
      </trkpt>
      <trkpt lat="45.62073" lon="6.14958">
        <ele>790.11798095703</ele>
        <time>2010-10-07T12:48:04Z</time>
      </trkpt>
      <trkpt lat="45.62058" lon="6.14936">
        <ele>791.78399658203</ele>
        <time>2010-10-07T12:48:13Z</time>
      </trkpt>
      <trkpt lat="45.62047" lon="6.14919">
        <ele>792.91998291016</ele>
        <time>2010-10-07T12:48:20Z</time>
      </trkpt>
      <trkpt lat="45.62034" lon="6.14906">
        <ele>794.03100585938</ele>
        <time>2010-10-07T12:48:27Z</time>
      </trkpt>
      <trkpt lat="45.6202" lon="6.14894">
        <ele>795.14501953125</ele>
        <time>2010-10-07T12:48:34Z</time>
      </trkpt>
      <trkpt lat="45.62002" lon="6.14874">
        <ele>795.56500244141</ele>
        <time>2010-10-07T12:48:43Z</time>
      </trkpt>
      <trkpt lat="45.61983" lon="6.14853">
        <ele>795.65802001953</ele>
        <time>2010-10-07T12:48:50Z</time>
      </trkpt>
      <trkpt lat="45.61956" lon="6.14822">
        <ele>796.59301757812</ele>
        <time>2010-10-07T12:49:00Z</time>
      </trkpt>
      <trkpt lat="45.61927" lon="6.14798">
        <ele>797.84002685547</ele>
        <time>2010-10-07T12:49:10Z</time>
      </trkpt>
      <trkpt lat="45.61902" lon="6.14778">
        <ele>798.78002929688</ele>
        <time>2010-10-07T12:49:19Z</time>
      </trkpt>
      <trkpt lat="45.61885" lon="6.14766">
        <ele>798.81597900391</ele>
        <time>2010-10-07T12:49:25Z</time>
      </trkpt>
      <trkpt lat="45.61869" lon="6.14755">
        <ele>797.86602783203</ele>
        <time>2010-10-07T12:49:30Z</time>
      </trkpt>
      <trkpt lat="45.61861" lon="6.14743">
        <ele>797.55200195312</ele>
        <time>2010-10-07T12:49:33Z</time>
      </trkpt>
      <trkpt lat="45.61847" lon="6.14736">
        <ele>797.38897705078</ele>
        <time>2010-10-07T12:49:37Z</time>
      </trkpt>
      <trkpt lat="45.61844" lon="6.14745">
        <ele>798.05297851562</ele>
        <time>2010-10-07T12:49:40Z</time>
      </trkpt>
      <trkpt lat="45.61845" lon="6.14764">
        <ele>799.51599121094</ele>
        <time>2010-10-07T12:49:46Z</time>
      </trkpt>
      <trkpt lat="45.61844" lon="6.1478">
        <ele>800.47100830078</ele>
        <time>2010-10-07T12:49:51Z</time>
      </trkpt>
      <trkpt lat="45.6184" lon="6.14801">
        <ele>802.22100830078</ele>
        <time>2010-10-07T12:49:58Z</time>
      </trkpt>
      <trkpt lat="45.61834" lon="6.14821">
        <ele>803.83502197266</ele>
        <time>2010-10-07T12:50:05Z</time>
      </trkpt>
      <trkpt lat="45.61828" lon="6.14835">
        <ele>804.81402587891</ele>
        <time>2010-10-07T12:50:11Z</time>
      </trkpt>
      <trkpt lat="45.61821" lon="6.14856">
        <ele>807.86700439453</ele>
        <time>2010-10-07T12:50:20Z</time>
      </trkpt>
      <trkpt lat="45.61818" lon="6.14872">
        <ele>809.52600097656</ele>
        <time>2010-10-07T12:50:27Z</time>
      </trkpt>
      <trkpt lat="45.61814" lon="6.14891">
        <ele>811.07000732422</ele>
        <time>2010-10-07T12:50:34Z</time>
      </trkpt>
      <trkpt lat="45.6181" lon="6.14915">
        <ele>813.27301025391</ele>
        <time>2010-10-07T12:50:44Z</time>
      </trkpt>
      <trkpt lat="45.61807" lon="6.14931">
        <ele>814.69897460938</ele>
        <time>2010-10-07T12:50:51Z</time>
      </trkpt>
      <trkpt lat="45.61802" lon="6.14957">
        <ele>817.13201904297</ele>
        <time>2010-10-07T12:51:02Z</time>
      </trkpt>
      <trkpt lat="45.618" lon="6.14981">
        <ele>819.61499023438</ele>
        <time>2010-10-07T12:51:12Z</time>
      </trkpt>
      <trkpt lat="45.61799" lon="6.15008">
        <ele>821.72497558594</ele>
        <time>2010-10-07T12:51:23Z</time>
      </trkpt>
      <trkpt lat="45.61797" lon="6.15033">
        <ele>823.68597412109</ele>
        <time>2010-10-07T12:51:33Z</time>
      </trkpt>
      <trkpt lat="45.6179" lon="6.15053">
        <ele>825.40100097656</ele>
        <time>2010-10-07T12:51:42Z</time>
      </trkpt>
      <trkpt lat="45.61781" lon="6.15073">
        <ele>827.30902099609</ele>
        <time>2010-10-07T12:51:51Z</time>
      </trkpt>
      <trkpt lat="45.61772" lon="6.15089">
        <ele>829.02398681641</ele>
        <time>2010-10-07T12:51:59Z</time>
      </trkpt>
      <trkpt lat="45.6176" lon="6.15103">
        <ele>831.02502441406</ele>
        <time>2010-10-07T12:52:08Z</time>
      </trkpt>
      <trkpt lat="45.61752" lon="6.15115">
        <ele>832.71697998047</ele>
        <time>2010-10-07T12:52:15Z</time>
      </trkpt>
      <trkpt lat="45.61744" lon="6.15123">
        <ele>834.20202636719</ele>
        <time>2010-10-07T12:52:21Z</time>
      </trkpt>
      <trkpt lat="45.61732" lon="6.15141">
        <ele>836.87799072266</ele>
        <time>2010-10-07T12:52:31Z</time>
      </trkpt>
      <trkpt lat="45.61723" lon="6.15158">
        <ele>839.41302490234</ele>
        <time>2010-10-07T12:52:40Z</time>
      </trkpt>
      <trkpt lat="45.61717" lon="6.15172">
        <ele>840.26397705078</ele>
        <time>2010-10-07T12:52:48Z</time>
      </trkpt>
      <trkpt lat="45.61711" lon="6.15188">
        <ele>840.84002685547</ele>
        <time>2010-10-07T12:52:56Z</time>
      </trkpt>
      <trkpt lat="45.61716" lon="6.15203">
        <ele>841.01898193359</ele>
        <time>2010-10-07T12:53:03Z</time>
      </trkpt>
      <trkpt lat="45.61726" lon="6.15212">
        <ele>843.04901123047</ele>
        <time>2010-10-07T12:53:10Z</time>
      </trkpt>
      <trkpt lat="45.61737" lon="6.15221">
        <ele>844.82000732422</ele>
        <time>2010-10-07T12:53:17Z</time>
      </trkpt>
      <trkpt lat="45.61739" lon="6.15222">
        <ele>845.48999023438</ele>
        <time>2010-10-07T12:53:22Z</time>
      </trkpt>
      <trkpt lat="45.61738" lon="6.15223">
        <ele>845.43200683594</ele>
        <time>2010-10-07T12:53:32Z</time>
      </trkpt>
      <trkpt lat="45.61731" lon="6.15212">
        <ele>844.31402587891</ele>
        <time>2010-10-07T12:53:37Z</time>
      </trkpt>
      <trkpt lat="45.61717" lon="6.15197">
        <ele>841.36901855469</ele>
        <time>2010-10-07T12:53:43Z</time>
      </trkpt>
      <trkpt lat="45.61715" lon="6.15194">
        <ele>841.19201660156</ele>
        <time>2010-10-07T12:53:44Z</time>
      </trkpt>
      <trkpt lat="45.61711" lon="6.15185">
        <ele>840.83801269531</ele>
        <time>2010-10-07T12:53:47Z</time>
      </trkpt>
      <trkpt lat="45.61712" lon="6.15181">
        <ele>840.90197753906</ele>
        <time>2010-10-07T12:53:49Z</time>
      </trkpt>
      <trkpt lat="45.61713" lon="6.15178">
        <ele>840.78997802734</ele>
        <time>2010-10-07T12:53:51Z</time>
      </trkpt>
      <trkpt lat="45.61716" lon="6.15173">
        <ele>841.02801513672</ele>
        <time>2010-10-07T12:53:54Z</time>
      </trkpt>
      <trkpt lat="45.6172" lon="6.15169">
        <ele>840.69299316406</ele>
        <time>2010-10-07T12:53:57Z</time>
      </trkpt>
      <trkpt lat="45.61717" lon="6.15165">
        <ele>840.96398925781</ele>
        <time>2010-10-07T12:54:02Z</time>
      </trkpt>
      <trkpt lat="45.61712" lon="6.1517">
        <ele>842.083984375</ele>
        <time>2010-10-07T12:54:07Z</time>
      </trkpt>
      <trkpt lat="45.61711" lon="6.15172">
        <ele>842.38500976562</ele>
        <time>2010-10-07T12:54:08Z</time>
      </trkpt>
      <trkpt lat="45.61705" lon="6.15182">
        <ele>844.12200927734</ele>
        <time>2010-10-07T12:54:15Z</time>
      </trkpt>
      <trkpt lat="45.61703" lon="6.15189">
        <ele>845.42602539062</ele>
        <time>2010-10-07T12:54:19Z</time>
      </trkpt>
      <trkpt lat="45.61702" lon="6.1519">
        <ele>845.78302001953</ele>
        <time>2010-10-07T12:54:20Z</time>
      </trkpt>
      <trkpt lat="45.61701" lon="6.15195">
        <ele>846.78601074219</ele>
        <time>2010-10-07T12:54:23Z</time>
      </trkpt>
      <trkpt lat="45.61697" lon="6.15203">
        <ele>848.28002929688</ele>
        <time>2010-10-07T12:54:28Z</time>
      </trkpt>
      <trkpt lat="45.61695" lon="6.1521">
        <ele>849.66101074219</ele>
        <time>2010-10-07T12:54:33Z</time>
      </trkpt>
      <trkpt lat="45.61693" lon="6.15215">
        <ele>850.54400634766</ele>
        <time>2010-10-07T12:54:37Z</time>
      </trkpt>
      <trkpt lat="45.61689" lon="6.15225">
        <ele>851.70397949219</ele>
        <time>2010-10-07T12:54:44Z</time>
      </trkpt>
      <trkpt lat="45.61686" lon="6.15233">
        <ele>853.25799560547</ele>
        <time>2010-10-07T12:54:50Z</time>
      </trkpt>
      <trkpt lat="45.61686" lon="6.15239">
        <ele>854.45397949219</ele>
        <time>2010-10-07T12:54:55Z</time>
      </trkpt>
      <trkpt lat="45.61685" lon="6.15246">
        <ele>855.15502929688</ele>
        <time>2010-10-07T12:54:59Z</time>
      </trkpt>
      <trkpt lat="45.61684" lon="6.15253">
        <ele>855.89801025391</ele>
        <time>2010-10-07T12:55:04Z</time>
      </trkpt>
      <trkpt lat="45.6168" lon="6.15263">
        <ele>857.03802490234</ele>
        <time>2010-10-07T12:55:10Z</time>
      </trkpt>
      <trkpt lat="45.61674" lon="6.15274">
        <ele>858.52197265625</ele>
        <time>2010-10-07T12:55:18Z</time>
      </trkpt>
      <trkpt lat="45.61669" lon="6.15287">
        <ele>860.19897460938</ele>
        <time>2010-10-07T12:55:26Z</time>
      </trkpt>
      <trkpt lat="45.61666" lon="6.15298">
        <ele>861.00799560547</ele>
        <time>2010-10-07T12:55:33Z</time>
      </trkpt>
      <trkpt lat="45.61665" lon="6.15306">
        <ele>862.17102050781</ele>
        <time>2010-10-07T12:55:39Z</time>
      </trkpt>
      <trkpt lat="45.61664" lon="6.15314">
        <ele>863.47601318359</ele>
        <time>2010-10-07T12:55:45Z</time>
      </trkpt>
      <trkpt lat="45.61662" lon="6.15327">
        <ele>865.29998779297</ele>
        <time>2010-10-07T12:55:53Z</time>
      </trkpt>
      <trkpt lat="45.6166" lon="6.15333">
        <ele>866.15399169922</ele>
        <time>2010-10-07T12:55:57Z</time>
      </trkpt>
      <trkpt lat="45.61655" lon="6.15351">
        <ele>867.50897216797</ele>
        <time>2010-10-07T12:56:06Z</time>
      </trkpt>
      <trkpt lat="45.61649" lon="6.1536">
        <ele>868.73101806641</ele>
        <time>2010-10-07T12:56:13Z</time>
      </trkpt>
      <trkpt lat="45.61647" lon="6.15361">
        <ele>868.88500976562</ele>
        <time>2010-10-07T12:56:15Z</time>
      </trkpt>
      <trkpt lat="45.61644" lon="6.15361">
        <ele>869.88897705078</ele>
        <time>2010-10-07T12:56:20Z</time>
      </trkpt>
      <trkpt lat="45.61644" lon="6.15357">
        <ele>870.79901123047</ele>
        <time>2010-10-07T12:56:24Z</time>
      </trkpt>
      <trkpt lat="45.61644" lon="6.15344">
        <ele>872.14001464844</ele>
        <time>2010-10-07T12:56:33Z</time>
      </trkpt>
      <trkpt lat="45.61644" lon="6.15337">
        <ele>872.68798828125</ele>
        <time>2010-10-07T12:56:37Z</time>
      </trkpt>
      <trkpt lat="45.61643" lon="6.15333">
        <ele>872.97497558594</ele>
        <time>2010-10-07T12:56:39Z</time>
      </trkpt>
      <trkpt lat="45.61641" lon="6.15324">
        <ele>873.50201416016</ele>
        <time>2010-10-07T12:56:43Z</time>
      </trkpt>
      <trkpt lat="45.6163" lon="6.15311">
        <ele>874.15600585938</ele>
        <time>2010-10-07T12:56:50Z</time>
      </trkpt>
      <trkpt lat="45.61628" lon="6.1531">
        <ele>874.23498535156</ele>
        <time>2010-10-07T12:56:51Z</time>
      </trkpt>
      <trkpt lat="45.61625" lon="6.15307">
        <ele>874.59197998047</ele>
        <time>2010-10-07T12:56:53Z</time>
      </trkpt>
      <trkpt lat="45.61613" lon="6.15292">
        <ele>876.14202880859</ele>
        <time>2010-10-07T12:57:02Z</time>
      </trkpt>
      <trkpt lat="45.61612" lon="6.15291">
        <ele>876.51599121094</ele>
        <time>2010-10-07T12:57:03Z</time>
      </trkpt>
      <trkpt lat="45.61607" lon="6.15284">
        <ele>877.60900878906</ele>
        <time>2010-10-07T12:57:09Z</time>
      </trkpt>
      <trkpt lat="45.61603" lon="6.15279">
        <ele>878.97302246094</ele>
        <time>2010-10-07T12:57:14Z</time>
      </trkpt>
      <trkpt lat="45.61602" lon="6.15277">
        <ele>879.06402587891</ele>
        <time>2010-10-07T12:57:15Z</time>
      </trkpt>
      <trkpt lat="45.61591" lon="6.15275">
        <ele>880.47497558594</ele>
        <time>2010-10-07T12:57:23Z</time>
      </trkpt>
      <trkpt lat="45.61585" lon="6.15275">
        <ele>880.85400390625</ele>
        <time>2010-10-07T12:57:26Z</time>
      </trkpt>
      <trkpt lat="45.61576" lon="6.15273">
        <ele>881.17498779297</ele>
        <time>2010-10-07T12:57:31Z</time>
      </trkpt>
      <trkpt lat="45.61562" lon="6.1527">
        <ele>881.94799804688</ele>
        <time>2010-10-07T12:57:38Z</time>
      </trkpt>
      <trkpt lat="45.6155" lon="6.15264">
        <ele>882.39599609375</ele>
        <time>2010-10-07T12:57:45Z</time>
      </trkpt>
      <trkpt lat="45.61544" lon="6.15268">
        <ele>882.71697998047</ele>
        <time>2010-10-07T12:57:48Z</time>
      </trkpt>
      <trkpt lat="45.61544" lon="6.1528">
        <ele>884.22198486328</ele>
        <time>2010-10-07T12:57:54Z</time>
      </trkpt>
      <trkpt lat="45.61554" lon="6.15287">
        <ele>885.46997070312</ele>
        <time>2010-10-07T12:58:02Z</time>
      </trkpt>
      <trkpt lat="45.61561" lon="6.15297">
        <ele>886.83001708984</ele>
        <time>2010-10-07T12:58:09Z</time>
      </trkpt>
      <trkpt lat="45.61568" lon="6.15309">
        <ele>888.07299804688</ele>
        <time>2010-10-07T12:58:15Z</time>
      </trkpt>
      <trkpt lat="45.61573" lon="6.15324">
        <ele>889.42901611328</ele>
        <time>2010-10-07T12:58:22Z</time>
      </trkpt>
      <trkpt lat="45.61576" lon="6.15335">
        <ele>890.67297363281</ele>
        <time>2010-10-07T12:58:28Z</time>
      </trkpt>
      <trkpt lat="45.61581" lon="6.15347">
        <ele>892.35998535156</ele>
        <time>2010-10-07T12:58:35Z</time>
      </trkpt>
      <trkpt lat="45.61584" lon="6.15357">
        <ele>893.63397216797</ele>
        <time>2010-10-07T12:58:41Z</time>
      </trkpt>
      <trkpt lat="45.6158" lon="6.15369">
        <ele>895.19097900391</ele>
        <time>2010-10-07T12:58:48Z</time>
      </trkpt>
      <trkpt lat="45.61579" lon="6.15372">
        <ele>895.55798339844</ele>
        <time>2010-10-07T12:58:50Z</time>
      </trkpt>
      <trkpt lat="45.61575" lon="6.15373">
        <ele>896.08801269531</ele>
        <time>2010-10-07T12:58:54Z</time>
      </trkpt>
      <trkpt lat="45.61571" lon="6.15374">
        <ele>897.09399414062</ele>
        <time>2010-10-07T12:58:59Z</time>
      </trkpt>
      <trkpt lat="45.61567" lon="6.15376">
        <ele>898.35198974609</ele>
        <time>2010-10-07T12:59:04Z</time>
      </trkpt>
      <trkpt lat="45.61557" lon="6.15373">
        <ele>899.83697509766</ele>
        <time>2010-10-07T12:59:13Z</time>
      </trkpt>
      <trkpt lat="45.61554" lon="6.15372">
        <ele>900.54998779297</ele>
        <time>2010-10-07T12:59:16Z</time>
      </trkpt>
      <trkpt lat="45.6155" lon="6.15371">
        <ele>901.52600097656</ele>
        <time>2010-10-07T12:59:20Z</time>
      </trkpt>
      <trkpt lat="45.61547" lon="6.15371">
        <ele>902.11901855469</ele>
        <time>2010-10-07T12:59:23Z</time>
      </trkpt>
      <trkpt lat="45.61542" lon="6.15368">
        <ele>903.39501953125</ele>
        <time>2010-10-07T12:59:28Z</time>
      </trkpt>
      <trkpt lat="45.61534" lon="6.15367">
        <ele>904.57897949219</ele>
        <time>2010-10-07T12:59:36Z</time>
      </trkpt>
      <trkpt lat="45.61529" lon="6.15365">
        <ele>905.48400878906</ele>
        <time>2010-10-07T12:59:41Z</time>
      </trkpt>
      <trkpt lat="45.61522" lon="6.15361">
        <ele>906.78601074219</ele>
        <time>2010-10-07T12:59:47Z</time>
      </trkpt>
      <trkpt lat="45.61516" lon="6.15356">
        <ele>907.83898925781</ele>
        <time>2010-10-07T12:59:52Z</time>
      </trkpt>
      <trkpt lat="45.61508" lon="6.15351">
        <ele>909.48297119141</ele>
        <time>2010-10-07T13:00:00Z</time>
      </trkpt>
      <trkpt lat="45.61505" lon="6.15349">
        <ele>910.08599853516</ele>
        <time>2010-10-07T13:00:03Z</time>
      </trkpt>
      <trkpt lat="45.61499" lon="6.15345">
        <ele>911.17797851562</ele>
        <time>2010-10-07T13:00:10Z</time>
      </trkpt>
      <trkpt lat="45.61494" lon="6.15337">
        <ele>912.40197753906</ele>
        <time>2010-10-07T13:00:17Z</time>
      </trkpt>
      <trkpt lat="45.61486" lon="6.15326">
        <ele>913.35797119141</ele>
        <time>2010-10-07T13:00:24Z</time>
      </trkpt>
      <trkpt lat="45.61481" lon="6.15317">
        <ele>913.71099853516</ele>
        <time>2010-10-07T13:00:30Z</time>
      </trkpt>
      <trkpt lat="45.61473" lon="6.15306">
        <ele>914.14300537109</ele>
        <time>2010-10-07T13:00:37Z</time>
      </trkpt>
      <trkpt lat="45.61463" lon="6.15296">
        <ele>914.34301757812</ele>
        <time>2010-10-07T13:00:43Z</time>
      </trkpt>
      <trkpt lat="45.61456" lon="6.15286">
        <ele>914.49200439453</ele>
        <time>2010-10-07T13:00:48Z</time>
      </trkpt>
      <trkpt lat="45.6145" lon="6.15273">
        <ele>914.92102050781</ele>
        <time>2010-10-07T13:00:54Z</time>
      </trkpt>
      <trkpt lat="45.61439" lon="6.15255">
        <ele>916.15197753906</ele>
        <time>2010-10-07T13:01:03Z</time>
      </trkpt>
      <trkpt lat="45.6143" lon="6.15246">
        <ele>917.0009765625</ele>
        <time>2010-10-07T13:01:09Z</time>
      </trkpt>
      <trkpt lat="45.61414" lon="6.15232">
        <ele>918.56298828125</ele>
        <time>2010-10-07T13:01:18Z</time>
      </trkpt>
      <trkpt lat="45.61407" lon="6.15221">
        <ele>919.63000488281</ele>
        <time>2010-10-07T13:01:24Z</time>
      </trkpt>
      <trkpt lat="45.61401" lon="6.15212">
        <ele>920.94299316406</ele>
        <time>2010-10-07T13:01:30Z</time>
      </trkpt>
      <trkpt lat="45.61393" lon="6.15204">
        <ele>922.32000732422</ele>
        <time>2010-10-07T13:01:37Z</time>
      </trkpt>
      <trkpt lat="45.61389" lon="6.15198">
        <ele>923.37200927734</ele>
        <time>2010-10-07T13:01:41Z</time>
      </trkpt>
      <trkpt lat="45.61378" lon="6.1519">
        <ele>924.77099609375</ele>
        <time>2010-10-07T13:01:49Z</time>
      </trkpt>
      <trkpt lat="45.6137" lon="6.15183">
        <ele>925.91900634766</ele>
        <time>2010-10-07T13:01:56Z</time>
      </trkpt>
      <trkpt lat="45.61361" lon="6.15173">
        <ele>927.04998779297</ele>
        <time>2010-10-07T13:02:03Z</time>
      </trkpt>
      <trkpt lat="45.61353" lon="6.15161">
        <ele>928.53198242188</ele>
        <time>2010-10-07T13:02:12Z</time>
      </trkpt>
      <trkpt lat="45.61345" lon="6.15144">
        <ele>929.19702148438</ele>
        <time>2010-10-07T13:02:20Z</time>
      </trkpt>
      <trkpt lat="45.61334" lon="6.15135">
        <ele>929.23101806641</ele>
        <time>2010-10-07T13:02:26Z</time>
      </trkpt>
      <trkpt lat="45.61322" lon="6.15126">
        <ele>929.15399169922</ele>
        <time>2010-10-07T13:02:32Z</time>
      </trkpt>
      <trkpt lat="45.61311" lon="6.15117">
        <ele>929.52502441406</ele>
        <time>2010-10-07T13:02:37Z</time>
      </trkpt>
      <trkpt lat="45.61293" lon="6.15099">
        <ele>929.791015625</ele>
        <time>2010-10-07T13:02:46Z</time>
      </trkpt>
      <trkpt lat="45.61277" lon="6.15088">
        <ele>928.81097412109</ele>
        <time>2010-10-07T13:02:52Z</time>
      </trkpt>
      <trkpt lat="45.61261" lon="6.15076">
        <ele>928.05902099609</ele>
        <time>2010-10-07T13:02:57Z</time>
      </trkpt>
      <trkpt lat="45.61251" lon="6.15067">
        <ele>927.42999267578</ele>
        <time>2010-10-07T13:03:00Z</time>
      </trkpt>
      <trkpt lat="45.6123" lon="6.15046">
        <ele>926.70098876953</ele>
        <time>2010-10-07T13:03:06Z</time>
      </trkpt>
      <trkpt lat="45.61214" lon="6.15031">
        <ele>926.32598876953</ele>
        <time>2010-10-07T13:03:12Z</time>
      </trkpt>
      <trkpt lat="45.61193" lon="6.15016">
        <ele>926.43298339844</ele>
        <time>2010-10-07T13:03:19Z</time>
      </trkpt>
      <trkpt lat="45.61173" lon="6.15006">
        <ele>926.07202148438</ele>
        <time>2010-10-07T13:03:25Z</time>
      </trkpt>
      <trkpt lat="45.61147" lon="6.15003">
        <ele>926.55102539062</ele>
        <time>2010-10-07T13:03:33Z</time>
      </trkpt>
      <trkpt lat="45.61122" lon="6.15006">
        <ele>927.10601806641</ele>
        <time>2010-10-07T13:03:41Z</time>
      </trkpt>
      <trkpt lat="45.61104" lon="6.15009">
        <ele>927.44702148438</ele>
        <time>2010-10-07T13:03:47Z</time>
      </trkpt>
      <trkpt lat="45.61087" lon="6.15009">
        <ele>928.15899658203</ele>
        <time>2010-10-07T13:03:53Z</time>
      </trkpt>
      <trkpt lat="45.61068" lon="6.15004">
        <ele>928.57598876953</ele>
        <time>2010-10-07T13:03:59Z</time>
      </trkpt>
      <trkpt lat="45.6105" lon="6.15001">
        <ele>929.47399902344</ele>
        <time>2010-10-07T13:04:05Z</time>
      </trkpt>
      <trkpt lat="45.61035" lon="6.14998">
        <ele>930.20599365234</ele>
        <time>2010-10-07T13:04:10Z</time>
      </trkpt>
      <trkpt lat="45.61014" lon="6.14994">
        <ele>930.80700683594</ele>
        <time>2010-10-07T13:04:17Z</time>
      </trkpt>
      <trkpt lat="45.60991" lon="6.14985">
        <ele>931.57000732422</ele>
        <time>2010-10-07T13:04:25Z</time>
      </trkpt>
      <trkpt lat="45.60965" lon="6.14973">
        <ele>933.15997314453</ele>
        <time>2010-10-07T13:04:35Z</time>
      </trkpt>
      <trkpt lat="45.60944" lon="6.14966">
        <ele>935.02001953125</ele>
        <time>2010-10-07T13:04:44Z</time>
      </trkpt>
      <trkpt lat="45.60926" lon="6.14961">
        <ele>936.98699951172</ele>
        <time>2010-10-07T13:04:53Z</time>
      </trkpt>
      <trkpt lat="45.6091" lon="6.14954">
        <ele>938.583984375</ele>
        <time>2010-10-07T13:05:01Z</time>
      </trkpt>
      <trkpt lat="45.60897" lon="6.14954">
        <ele>940.45300292969</ele>
        <time>2010-10-07T13:05:09Z</time>
      </trkpt>
      <trkpt lat="45.60884" lon="6.1495">
        <ele>941.35101318359</ele>
        <time>2010-10-07T13:05:16Z</time>
      </trkpt>
      <trkpt lat="45.60867" lon="6.14945">
        <ele>942.59600830078</ele>
        <time>2010-10-07T13:05:24Z</time>
      </trkpt>
      <trkpt lat="45.60848" lon="6.14944">
        <ele>943.60900878906</ele>
        <time>2010-10-07T13:05:33Z</time>
      </trkpt>
      <trkpt lat="45.6083" lon="6.1494">
        <ele>944.29602050781</ele>
        <time>2010-10-07T13:05:41Z</time>
      </trkpt>
      <trkpt lat="45.60814" lon="6.14934">
        <ele>944.35198974609</ele>
        <time>2010-10-07T13:05:47Z</time>
      </trkpt>
      <trkpt lat="45.60795" lon="6.14928">
        <ele>944.583984375</ele>
        <time>2010-10-07T13:05:54Z</time>
      </trkpt>
      <trkpt lat="45.60773" lon="6.14919">
        <ele>945.24200439453</ele>
        <time>2010-10-07T13:06:02Z</time>
      </trkpt>
      <trkpt lat="45.6076" lon="6.14917">
        <ele>945.92297363281</ele>
        <time>2010-10-07T13:06:08Z</time>
      </trkpt>
      <trkpt lat="45.60746" lon="6.14912">
        <ele>946.49298095703</ele>
        <time>2010-10-07T13:06:13Z</time>
      </trkpt>
      <trkpt lat="45.60733" lon="6.14909">
        <ele>947.10302734375</ele>
        <time>2010-10-07T13:06:18Z</time>
      </trkpt>
      <trkpt lat="45.60714" lon="6.14902">
        <ele>947.41400146484</ele>
        <time>2010-10-07T13:06:25Z</time>
      </trkpt>
      <trkpt lat="45.60705" lon="6.14899">
        <ele>947.79602050781</ele>
        <time>2010-10-07T13:06:29Z</time>
      </trkpt>
      <trkpt lat="45.60686" lon="6.1489">
        <ele>947.77899169922</ele>
        <time>2010-10-07T13:06:35Z</time>
      </trkpt>
      <trkpt lat="45.60668" lon="6.14876">
        <ele>947.84997558594</ele>
        <time>2010-10-07T13:06:40Z</time>
      </trkpt>
      <trkpt lat="45.6065" lon="6.14869">
        <ele>947.98400878906</ele>
        <time>2010-10-07T13:06:46Z</time>
      </trkpt>
      <trkpt lat="45.60638" lon="6.14867">
        <ele>948.3759765625</ele>
        <time>2010-10-07T13:06:51Z</time>
      </trkpt>
      <trkpt lat="45.60626" lon="6.14861">
        <ele>948.59802246094</ele>
        <time>2010-10-07T13:06:56Z</time>
      </trkpt>
      <trkpt lat="45.6061" lon="6.14854">
        <ele>948.44598388672</ele>
        <time>2010-10-07T13:07:01Z</time>
      </trkpt>
      <trkpt lat="45.60589" lon="6.14848">
        <ele>948.74700927734</ele>
        <time>2010-10-07T13:07:07Z</time>
      </trkpt>
      <trkpt lat="45.60575" lon="6.14843">
        <ele>949.2919921875</ele>
        <time>2010-10-07T13:07:12Z</time>
      </trkpt>
      <trkpt lat="45.6056" lon="6.14837">
        <ele>949.63500976562</ele>
        <time>2010-10-07T13:07:17Z</time>
      </trkpt>
      <trkpt lat="45.60541" lon="6.14825">
        <ele>950.17602539062</ele>
        <time>2010-10-07T13:07:23Z</time>
      </trkpt>
      <trkpt lat="45.60522" lon="6.14817">
        <ele>949.90100097656</ele>
        <time>2010-10-07T13:07:30Z</time>
      </trkpt>
      <trkpt lat="45.6051" lon="6.14814">
        <ele>949.70697021484</ele>
        <time>2010-10-07T13:07:34Z</time>
      </trkpt>
      <trkpt lat="45.6049" lon="6.14809">
        <ele>949.53601074219</ele>
        <time>2010-10-07T13:07:40Z</time>
      </trkpt>
      <trkpt lat="45.60463" lon="6.14802">
        <ele>949.62701416016</ele>
        <time>2010-10-07T13:07:48Z</time>
      </trkpt>
      <trkpt lat="45.6044" lon="6.14791">
        <ele>949.29400634766</ele>
        <time>2010-10-07T13:07:55Z</time>
      </trkpt>
      <trkpt lat="45.60427" lon="6.14785">
        <ele>949.36297607422</ele>
        <time>2010-10-07T13:08:01Z</time>
      </trkpt>
      <trkpt lat="45.60424" lon="6.14783">
        <ele>949.24597167969</ele>
        <time>2010-10-07T13:08:05Z</time>
      </trkpt>
      <trkpt lat="45.60422" lon="6.14778">
        <ele>949.64697265625</ele>
        <time>2010-10-07T13:08:27Z</time>
      </trkpt>
      <trkpt lat="45.60422" lon="6.14779">
        <ele>949.68597412109</ele>
        <time>2010-10-07T13:08:33Z</time>
      </trkpt>
      <trkpt lat="45.60415" lon="6.14765">
        <ele>950.14001464844</ele>
        <time>2010-10-07T13:09:32Z</time>
      </trkpt>
      <trkpt lat="45.60411" lon="6.1477">
        <ele>949.98999023438</ele>
        <time>2010-10-07T13:09:36Z</time>
      </trkpt>
      <trkpt lat="45.60394" lon="6.14769">
        <ele>950.02001953125</ele>
        <time>2010-10-07T13:09:43Z</time>
      </trkpt>
      <trkpt lat="45.60366" lon="6.14754">
        <ele>950.20001220703</ele>
        <time>2010-10-07T13:09:52Z</time>
      </trkpt>
      <trkpt lat="45.60353" lon="6.14748">
        <ele>950.40600585938</ele>
        <time>2010-10-07T13:09:57Z</time>
      </trkpt>
      <trkpt lat="45.60339" lon="6.14738">
        <ele>949.916015625</ele>
        <time>2010-10-07T13:10:02Z</time>
      </trkpt>
      <trkpt lat="45.60318" lon="6.14724">
        <ele>949.60601806641</ele>
        <time>2010-10-07T13:10:08Z</time>
      </trkpt>
      <trkpt lat="45.6029" lon="6.14706">
        <ele>949.74798583984</ele>
        <time>2010-10-07T13:10:14Z</time>
      </trkpt>
      <trkpt lat="45.60266" lon="6.14695">
        <ele>949.36999511719</ele>
        <time>2010-10-07T13:10:20Z</time>
      </trkpt>
      <trkpt lat="45.60254" lon="6.14688">
        <ele>949.27301025391</ele>
        <time>2010-10-07T13:10:24Z</time>
      </trkpt>
      <trkpt lat="45.60231" lon="6.14678">
        <ele>949.9580078125</ele>
        <time>2010-10-07T13:10:30Z</time>
      </trkpt>
      <trkpt lat="45.60208" lon="6.14667">
        <ele>951.07299804688</ele>
        <time>2010-10-07T13:10:36Z</time>
      </trkpt>
      <trkpt lat="45.60192" lon="6.14662">
        <ele>952.12902832031</ele>
        <time>2010-10-07T13:10:41Z</time>
      </trkpt>
      <trkpt lat="45.60175" lon="6.14648">
        <ele>952.97601318359</ele>
        <time>2010-10-07T13:10:46Z</time>
      </trkpt>
      <trkpt lat="45.60157" lon="6.14642">
        <ele>954.03399658203</ele>
        <time>2010-10-07T13:10:52Z</time>
      </trkpt>
      <trkpt lat="45.60144" lon="6.14633">
        <ele>955.42102050781</ele>
        <time>2010-10-07T13:10:58Z</time>
      </trkpt>
      <trkpt lat="45.6013" lon="6.14626">
        <ele>957.1259765625</ele>
        <time>2010-10-07T13:11:05Z</time>
      </trkpt>
      <trkpt lat="45.6012" lon="6.14623">
        <ele>958.32397460938</ele>
        <time>2010-10-07T13:11:11Z</time>
      </trkpt>
      <trkpt lat="45.60108" lon="6.14617">
        <ele>959.87200927734</ele>
        <time>2010-10-07T13:11:18Z</time>
      </trkpt>
      <trkpt lat="45.60094" lon="6.14611">
        <ele>960.94598388672</ele>
        <time>2010-10-07T13:11:26Z</time>
      </trkpt>
      <trkpt lat="45.6008" lon="6.14604">
        <ele>961.88299560547</ele>
        <time>2010-10-07T13:11:33Z</time>
      </trkpt>
      <trkpt lat="45.60065" lon="6.14593">
        <ele>962.38397216797</ele>
        <time>2010-10-07T13:11:39Z</time>
      </trkpt>
      <trkpt lat="45.60046" lon="6.14579">
        <ele>963.32598876953</ele>
        <time>2010-10-07T13:11:47Z</time>
      </trkpt>
      <trkpt lat="45.60034" lon="6.14567">
        <ele>963.67999267578</ele>
        <time>2010-10-07T13:11:52Z</time>
      </trkpt>
      <trkpt lat="45.60017" lon="6.14554">
        <ele>964.07501220703</ele>
        <time>2010-10-07T13:11:59Z</time>
      </trkpt>
      <trkpt lat="45.60006" lon="6.14545">
        <ele>964.06298828125</ele>
        <time>2010-10-07T13:12:05Z</time>
      </trkpt>
      <trkpt lat="45.59996" lon="6.14535">
        <ele>964.34399414062</ele>
        <time>2010-10-07T13:12:11Z</time>
      </trkpt>
      <trkpt lat="45.59982" lon="6.14519">
        <ele>965.59899902344</ele>
        <time>2010-10-07T13:12:17Z</time>
      </trkpt>
      <trkpt lat="45.5997" lon="6.14508">
        <ele>967.02099609375</ele>
        <time>2010-10-07T13:12:24Z</time>
      </trkpt>
      <trkpt lat="45.59962" lon="6.14502">
        <ele>968.60302734375</ele>
        <time>2010-10-07T13:12:30Z</time>
      </trkpt>
      <trkpt lat="45.59951" lon="6.14497">
        <ele>970.38299560547</ele>
        <time>2010-10-07T13:12:37Z</time>
      </trkpt>
      <trkpt lat="45.5994" lon="6.14491">
        <ele>971.80200195312</ele>
        <time>2010-10-07T13:12:45Z</time>
      </trkpt>
      <trkpt lat="45.59927" lon="6.14485">
        <ele>971.97998046875</ele>
        <time>2010-10-07T13:12:52Z</time>
      </trkpt>
      <trkpt lat="45.59919" lon="6.14483">
        <ele>971.28399658203</ele>
        <time>2010-10-07T13:12:56Z</time>
      </trkpt>
      <trkpt lat="45.59901" lon="6.14472">
        <ele>969.45397949219</ele>
        <time>2010-10-07T13:13:01Z</time>
      </trkpt>
      <trkpt lat="45.59889" lon="6.14457">
        <ele>967.32702636719</ele>
        <time>2010-10-07T13:13:05Z</time>
      </trkpt>
      <trkpt lat="45.59882" lon="6.1445">
        <ele>965.93902587891</ele>
        <time>2010-10-07T13:13:07Z</time>
      </trkpt>
      <trkpt lat="45.59865" lon="6.14433">
        <ele>963.73498535156</ele>
        <time>2010-10-07T13:13:11Z</time>
      </trkpt>
      <trkpt lat="45.59848" lon="6.14424">
        <ele>964.21301269531</ele>
        <time>2010-10-07T13:13:16Z</time>
      </trkpt>
      <trkpt lat="45.59834" lon="6.14419">
        <ele>965.65399169922</ele>
        <time>2010-10-07T13:13:21Z</time>
      </trkpt>
      <trkpt lat="45.5982" lon="6.14409">
        <ele>966.63500976562</ele>
        <time>2010-10-07T13:13:26Z</time>
      </trkpt>
      <trkpt lat="45.59808" lon="6.14407">
        <ele>967.62799072266</ele>
        <time>2010-10-07T13:13:31Z</time>
      </trkpt>
      <trkpt lat="45.59792" lon="6.14403">
        <ele>968.10699462891</ele>
        <time>2010-10-07T13:13:37Z</time>
      </trkpt>
      <trkpt lat="45.59774" lon="6.144">
        <ele>969.05902099609</ele>
        <time>2010-10-07T13:13:43Z</time>
      </trkpt>
      <trkpt lat="45.59761" lon="6.14402">
        <ele>969.93402099609</ele>
        <time>2010-10-07T13:13:48Z</time>
      </trkpt>
      <trkpt lat="45.59752" lon="6.14408">
        <ele>970.71697998047</ele>
        <time>2010-10-07T13:13:53Z</time>
      </trkpt>
      <trkpt lat="45.59739" lon="6.14411">
        <ele>971.53900146484</ele>
        <time>2010-10-07T13:13:58Z</time>
      </trkpt>
      <trkpt lat="45.59725" lon="6.14417">
        <ele>972.72497558594</ele>
        <time>2010-10-07T13:14:04Z</time>
      </trkpt>
      <trkpt lat="45.59709" lon="6.14426">
        <ele>973.84698486328</ele>
        <time>2010-10-07T13:14:11Z</time>
      </trkpt>
      <trkpt lat="45.59699" lon="6.14429">
        <ele>974.54302978516</ele>
        <time>2010-10-07T13:14:16Z</time>
      </trkpt>
      <trkpt lat="45.59686" lon="6.14432">
        <ele>975.3740234375</ele>
        <time>2010-10-07T13:14:21Z</time>
      </trkpt>
      <trkpt lat="45.59666" lon="6.14435">
        <ele>976.71099853516</ele>
        <time>2010-10-07T13:14:30Z</time>
      </trkpt>
      <trkpt lat="45.59658" lon="6.14441">
        <ele>977.9169921875</ele>
        <time>2010-10-07T13:14:36Z</time>
      </trkpt>
      <trkpt lat="45.59645" lon="6.14446">
        <ele>979.17102050781</ele>
        <time>2010-10-07T13:14:43Z</time>
      </trkpt>
      <trkpt lat="45.59636" lon="6.14451">
        <ele>979.71697998047</ele>
        <time>2010-10-07T13:14:48Z</time>
      </trkpt>
      <trkpt lat="45.59633" lon="6.14453">
        <ele>979.99102783203</ele>
        <time>2010-10-07T13:14:50Z</time>
      </trkpt>
      <trkpt lat="45.59623" lon="6.14455">
        <ele>981.15301513672</ele>
        <time>2010-10-07T13:14:56Z</time>
      </trkpt>
      <trkpt lat="45.59612" lon="6.14459">
        <ele>982.34301757812</ele>
        <time>2010-10-07T13:15:03Z</time>
      </trkpt>
      <trkpt lat="45.59595" lon="6.14465">
        <ele>984.22601318359</ele>
        <time>2010-10-07T13:15:11Z</time>
      </trkpt>
      <trkpt lat="45.59582" lon="6.14469">
        <ele>985.20501708984</ele>
        <time>2010-10-07T13:15:18Z</time>
      </trkpt>
      <trkpt lat="45.59574" lon="6.14477">
        <ele>986.8740234375</ele>
        <time>2010-10-07T13:15:24Z</time>
      </trkpt>
      <trkpt lat="45.59561" lon="6.1448">
        <ele>988.80603027344</ele>
        <time>2010-10-07T13:15:31Z</time>
      </trkpt>
      <trkpt lat="45.59559" lon="6.14481">
        <ele>989.09600830078</ele>
        <time>2010-10-07T13:15:32Z</time>
      </trkpt>
      <trkpt lat="45.59554" lon="6.14482">
        <ele>989.56799316406</ele>
        <time>2010-10-07T13:15:36Z</time>
      </trkpt>
      <trkpt lat="45.59542" lon="6.14484">
        <ele>990.83502197266</ele>
        <time>2010-10-07T13:15:43Z</time>
      </trkpt>
      <trkpt lat="45.59536" lon="6.14485">
        <ele>991.62097167969</ele>
        <time>2010-10-07T13:15:47Z</time>
      </trkpt>
      <trkpt lat="45.59526" lon="6.14486">
        <ele>992.49200439453</ele>
        <time>2010-10-07T13:15:52Z</time>
      </trkpt>
      <trkpt lat="45.59511" lon="6.14489">
        <ele>993.74102783203</ele>
        <time>2010-10-07T13:16:00Z</time>
      </trkpt>
      <trkpt lat="45.595" lon="6.14487">
        <ele>995.03302001953</ele>
        <time>2010-10-07T13:16:06Z</time>
      </trkpt>
      <trkpt lat="45.59487" lon="6.1448">
        <ele>996.23101806641</ele>
        <time>2010-10-07T13:16:12Z</time>
      </trkpt>
      <trkpt lat="45.59475" lon="6.14478">
        <ele>997.66497802734</ele>
        <time>2010-10-07T13:16:19Z</time>
      </trkpt>
      <trkpt lat="45.59464" lon="6.14475">
        <ele>998.18499755859</ele>
        <time>2010-10-07T13:16:24Z</time>
      </trkpt>
      <trkpt lat="45.59458" lon="6.14491">
        <ele>999.46801757812</ele>
        <time>2010-10-07T13:16:31Z</time>
      </trkpt>
      <trkpt lat="45.59439" lon="6.145">
        <ele>1000.5310058594</ele>
        <time>2010-10-07T13:16:41Z</time>
      </trkpt>
      <trkpt lat="45.59423" lon="6.14504">
        <ele>1001.5120239258</ele>
        <time>2010-10-07T13:16:49Z</time>
      </trkpt>
      <trkpt lat="45.59409" lon="6.14508">
        <ele>1001.8699951172</ele>
        <time>2010-10-07T13:16:56Z</time>
      </trkpt>
      <trkpt lat="45.59399" lon="6.1451">
        <ele>1002.2630004883</ele>
        <time>2010-10-07T13:17:01Z</time>
      </trkpt>
      <trkpt lat="45.59379" lon="6.1451">
        <ele>1002.8270263672</ele>
        <time>2010-10-07T13:17:09Z</time>
      </trkpt>
      <trkpt lat="45.5936" lon="6.14497">
        <ele>1002.9860229492</ele>
        <time>2010-10-07T13:17:15Z</time>
      </trkpt>
      <trkpt lat="45.59358" lon="6.145">
        <ele>1003.0939941406</ele>
        <time>2010-10-07T13:17:17Z</time>
      </trkpt>
      <trkpt lat="45.59348" lon="6.14501">
        <ele>1003.4110107422</ele>
        <time>2010-10-07T13:17:22Z</time>
      </trkpt>
      <trkpt lat="45.5934" lon="6.14499">
        <ele>1003.8770141602</ele>
        <time>2010-10-07T13:17:26Z</time>
      </trkpt>
      <trkpt lat="45.59333" lon="6.14498">
        <ele>1004.4470214844</ele>
        <time>2010-10-07T13:17:30Z</time>
      </trkpt>
      <trkpt lat="45.59315" lon="6.14489">
        <ele>1005.2960205078</ele>
        <time>2010-10-07T13:17:38Z</time>
      </trkpt>
      <trkpt lat="45.59302" lon="6.14486">
        <ele>1005.9840087891</ele>
        <time>2010-10-07T13:17:44Z</time>
      </trkpt>
      <trkpt lat="45.59292" lon="6.14483">
        <ele>1006.3519897461</ele>
        <time>2010-10-07T13:17:48Z</time>
      </trkpt>
      <trkpt lat="45.5929" lon="6.14482">
        <ele>1006.408996582</ele>
        <time>2010-10-07T13:17:49Z</time>
      </trkpt>
      <trkpt lat="45.5928" lon="6.14476">
        <ele>1006.6329956055</ele>
        <time>2010-10-07T13:17:53Z</time>
      </trkpt>
      <trkpt lat="45.59264" lon="6.14465">
        <ele>1007.5969848633</ele>
        <time>2010-10-07T13:17:59Z</time>
      </trkpt>
      <trkpt lat="45.59253" lon="6.14461">
        <ele>1009.2880249023</ele>
        <time>2010-10-07T13:18:05Z</time>
      </trkpt>
      <trkpt lat="45.59246" lon="6.14458">
        <ele>1010.6799926758</ele>
        <time>2010-10-07T13:18:10Z</time>
      </trkpt>
      <trkpt lat="45.59242" lon="6.14456">
        <ele>1011.5789794922</ele>
        <time>2010-10-07T13:18:14Z</time>
      </trkpt>
      <trkpt lat="45.59239" lon="6.14456">
        <ele>1012.1959838867</ele>
        <time>2010-10-07T13:18:17Z</time>
      </trkpt>
      <trkpt lat="45.5923" lon="6.14453">
        <ele>1014.041015625</ele>
        <time>2010-10-07T13:18:24Z</time>
      </trkpt>
      <trkpt lat="45.59222" lon="6.14449">
        <ele>1015.0319824219</ele>
        <time>2010-10-07T13:18:30Z</time>
      </trkpt>
      <trkpt lat="45.5921" lon="6.14445">
        <ele>1016.3510131836</ele>
        <time>2010-10-07T13:18:37Z</time>
      </trkpt>
      <trkpt lat="45.592" lon="6.1445">
        <ele>1017.4320068359</ele>
        <time>2010-10-07T13:18:44Z</time>
      </trkpt>
      <trkpt lat="45.59198" lon="6.1445">
        <ele>1017.7030029297</ele>
        <time>2010-10-07T13:18:45Z</time>
      </trkpt>
      <trkpt lat="45.59195" lon="6.14456">
        <ele>1018.7750244141</ele>
        <time>2010-10-07T13:18:49Z</time>
      </trkpt>
      <trkpt lat="45.59188" lon="6.14461">
        <ele>1020.7639770508</ele>
        <time>2010-10-07T13:18:56Z</time>
      </trkpt>
      <trkpt lat="45.59185" lon="6.14462">
        <ele>1021.1970214844</ele>
        <time>2010-10-07T13:18:58Z</time>
      </trkpt>
      <trkpt lat="45.59176" lon="6.14468">
        <ele>1022.617980957</ele>
        <time>2010-10-07T13:19:06Z</time>
      </trkpt>
      <trkpt lat="45.59165" lon="6.14471">
        <ele>1022.8330078125</ele>
        <time>2010-10-07T13:19:13Z</time>
      </trkpt>
      <trkpt lat="45.59153" lon="6.14474">
        <ele>1023.1500244141</ele>
        <time>2010-10-07T13:19:18Z</time>
      </trkpt>
      <trkpt lat="45.59146" lon="6.14476">
        <ele>1023.5150146484</ele>
        <time>2010-10-07T13:19:21Z</time>
      </trkpt>
      <trkpt lat="45.59136" lon="6.14478">
        <ele>1023.8309936523</ele>
        <time>2010-10-07T13:19:27Z</time>
      </trkpt>
      <trkpt lat="45.59122" lon="6.14485">
        <ele>1024.3229980469</ele>
        <time>2010-10-07T13:19:33Z</time>
      </trkpt>
      <trkpt lat="45.59119" lon="6.14486">
        <ele>1024.4820556641</ele>
        <time>2010-10-07T13:19:35Z</time>
      </trkpt>
      <trkpt lat="45.59105" lon="6.14491">
        <ele>1025.2609863281</ele>
        <time>2010-10-07T13:19:41Z</time>
      </trkpt>
      <trkpt lat="45.59094" lon="6.14497">
        <ele>1025.5770263672</ele>
        <time>2010-10-07T13:19:45Z</time>
      </trkpt>
      <trkpt lat="45.59081" lon="6.14508">
        <ele>1026.9510498047</ele>
        <time>2010-10-07T13:19:52Z</time>
      </trkpt>
      <trkpt lat="45.5908" lon="6.1451">
        <ele>1027.3580322266</ele>
        <time>2010-10-07T13:19:53Z</time>
      </trkpt>
      <trkpt lat="45.5907" lon="6.14519">
        <ele>1029.3659667969</ele>
        <time>2010-10-07T13:20:00Z</time>
      </trkpt>
      <trkpt lat="45.59061" lon="6.14527">
        <ele>1030.5389404297</ele>
        <time>2010-10-07T13:20:07Z</time>
      </trkpt>
      <trkpt lat="45.59046" lon="6.14538">
        <ele>1031.8229980469</ele>
        <time>2010-10-07T13:20:18Z</time>
      </trkpt>
      <trkpt lat="45.59038" lon="6.14543">
        <ele>1033.0500488281</ele>
        <time>2010-10-07T13:20:24Z</time>
      </trkpt>
      <trkpt lat="45.59029" lon="6.14546">
        <ele>1033.7299804688</ele>
        <time>2010-10-07T13:20:29Z</time>
      </trkpt>
      <trkpt lat="45.59019" lon="6.14551">
        <ele>1034.123046875</ele>
        <time>2010-10-07T13:20:36Z</time>
      </trkpt>
      <trkpt lat="45.59014" lon="6.14557">
        <ele>1034.2609863281</ele>
        <time>2010-10-07T13:20:40Z</time>
      </trkpt>
      <trkpt lat="45.59012" lon="6.14558">
        <ele>1034.3280029297</ele>
        <time>2010-10-07T13:20:41Z</time>
      </trkpt>
      <trkpt lat="45.59" lon="6.1457">
        <ele>1034.6710205078</ele>
        <time>2010-10-07T13:20:47Z</time>
      </trkpt>
      <trkpt lat="45.5899" lon="6.14576">
        <ele>1034.9139404297</ele>
        <time>2010-10-07T13:20:52Z</time>
      </trkpt>
      <trkpt lat="45.58978" lon="6.14583">
        <ele>1034.9709472656</ele>
        <time>2010-10-07T13:20:59Z</time>
      </trkpt>
      <trkpt lat="45.58968" lon="6.14585">
        <ele>1034.6569824219</ele>
        <time>2010-10-07T13:21:04Z</time>
      </trkpt>
      <trkpt lat="45.58957" lon="6.14591">
        <ele>1034.1280517578</ele>
        <time>2010-10-07T13:21:09Z</time>
      </trkpt>
      <trkpt lat="45.58942" lon="6.146">
        <ele>1033.0379638672</ele>
        <time>2010-10-07T13:21:15Z</time>
      </trkpt>
      <trkpt lat="45.58934" lon="6.14603">
        <ele>1033.3310546875</ele>
        <time>2010-10-07T13:21:18Z</time>
      </trkpt>
      <trkpt lat="45.58922" lon="6.14604">
        <ele>1033.4470214844</ele>
        <time>2010-10-07T13:21:22Z</time>
      </trkpt>
      <trkpt lat="45.58906" lon="6.1461">
        <ele>1033.5720214844</ele>
        <time>2010-10-07T13:21:28Z</time>
      </trkpt>
      <trkpt lat="45.58894" lon="6.14598">
        <ele>1032.5710449219</ele>
        <time>2010-10-07T13:21:32Z</time>
      </trkpt>
      <trkpt lat="45.5889" lon="6.14584">
        <ele>1031.6689453125</ele>
        <time>2010-10-07T13:21:35Z</time>
      </trkpt>
      <trkpt lat="45.58887" lon="6.14565">
        <ele>1029.8330078125</ele>
        <time>2010-10-07T13:21:39Z</time>
      </trkpt>
      <trkpt lat="45.58891" lon="6.14542">
        <ele>1031.5529785156</ele>
        <time>2010-10-07T13:21:43Z</time>
      </trkpt>
      <trkpt lat="45.58887" lon="6.1453">
        <ele>1032.9040527344</ele>
        <time>2010-10-07T13:21:47Z</time>
      </trkpt>
      <trkpt lat="45.58885" lon="6.14525">
        <ele>1033.6059570312</ele>
        <time>2010-10-07T13:21:50Z</time>
      </trkpt>
      <trkpt lat="45.58883" lon="6.14516">
        <ele>1034.8809814453</ele>
        <time>2010-10-07T13:21:53Z</time>
      </trkpt>
      <trkpt lat="45.58882" lon="6.14504">
        <ele>1036.0250244141</ele>
        <time>2010-10-07T13:21:58Z</time>
      </trkpt>
      <trkpt lat="45.58875" lon="6.14485">
        <ele>1035.9019775391</ele>
        <time>2010-10-07T13:22:03Z</time>
      </trkpt>
      <trkpt lat="45.58873" lon="6.14475">
        <ele>1036.4520263672</ele>
        <time>2010-10-07T13:22:08Z</time>
      </trkpt>
      <trkpt lat="45.58863" lon="6.14458">
        <ele>1035.6619873047</ele>
        <time>2010-10-07T13:22:13Z</time>
      </trkpt>
      <trkpt lat="45.58857" lon="6.14447">
        <ele>1037.2320556641</ele>
        <time>2010-10-07T13:22:17Z</time>
      </trkpt>
      <trkpt lat="45.58856" lon="6.14435">
        <ele>1039.4289550781</ele>
        <time>2010-10-07T13:22:21Z</time>
      </trkpt>
      <trkpt lat="45.58847" lon="6.1442">
        <ele>1039.7239990234</ele>
        <time>2010-10-07T13:22:28Z</time>
      </trkpt>
      <trkpt lat="45.58836" lon="6.14407">
        <ele>1038.6359863281</ele>
        <time>2010-10-07T13:22:32Z</time>
      </trkpt>
      <trkpt lat="45.58821" lon="6.14387">
        <ele>1037.2600097656</ele>
        <time>2010-10-07T13:22:37Z</time>
      </trkpt>
      <trkpt lat="45.5881" lon="6.14376">
        <ele>1036.9730224609</ele>
        <time>2010-10-07T13:22:42Z</time>
      </trkpt>
      <trkpt lat="45.58805" lon="6.14374">
        <ele>1037.5749511719</ele>
        <time>2010-10-07T13:22:45Z</time>
      </trkpt>
      <trkpt lat="45.58791" lon="6.14369">
        <ele>1039.0319824219</ele>
        <time>2010-10-07T13:22:52Z</time>
      </trkpt>
      <trkpt lat="45.58781" lon="6.1436">
        <ele>1039.5080566406</ele>
        <time>2010-10-07T13:22:58Z</time>
      </trkpt>
      <trkpt lat="45.58772" lon="6.14349">
        <ele>1037.5710449219</ele>
        <time>2010-10-07T13:23:04Z</time>
      </trkpt>
      <trkpt lat="45.58766" lon="6.1433">
        <ele>1036.5570068359</ele>
        <time>2010-10-07T13:23:05Z</time>
      </trkpt>
      <trkpt lat="45.58747" lon="6.14267">
        <ele>1032.0749511719</ele>
        <time>2010-10-07T13:23:10Z</time>
      </trkpt>
      <trkpt lat="45.58741" lon="6.14259">
        <ele>1031.9560546875</ele>
        <time>2010-10-07T13:23:11Z</time>
      </trkpt>
      <trkpt lat="45.58728" lon="6.14249">
        <ele>1032.2979736328</ele>
        <time>2010-10-07T13:23:13Z</time>
      </trkpt>
      <trkpt lat="45.58722" lon="6.14245">
        <ele>1032.3389892578</ele>
        <time>2010-10-07T13:23:14Z</time>
      </trkpt>
      <trkpt lat="45.58704" lon="6.14238">
        <ele>1032.9530029297</ele>
        <time>2010-10-07T13:23:17Z</time>
      </trkpt>
      <trkpt lat="45.58678" lon="6.1423">
        <ele>1034.1049804688</ele>
        <time>2010-10-07T13:23:22Z</time>
      </trkpt>
      <trkpt lat="45.58668" lon="6.14217">
        <ele>1035.7640380859</ele>
        <time>2010-10-07T13:23:26Z</time>
      </trkpt>
      <trkpt lat="45.58665" lon="6.14201">
        <ele>1035.5999755859</ele>
        <time>2010-10-07T13:23:30Z</time>
      </trkpt>
      <trkpt lat="45.58654" lon="6.14178">
        <ele>1034.1309814453</ele>
        <time>2010-10-07T13:23:34Z</time>
      </trkpt>
      <trkpt lat="45.58649" lon="6.14174">
        <ele>1034.0119628906</ele>
        <time>2010-10-07T13:23:35Z</time>
      </trkpt>
      <trkpt lat="45.5863" lon="6.14157">
        <ele>1034.1080322266</ele>
        <time>2010-10-07T13:23:40Z</time>
      </trkpt>
      <trkpt lat="45.58627" lon="6.14153">
        <ele>1033.9060058594</ele>
        <time>2010-10-07T13:23:41Z</time>
      </trkpt>
      <trkpt lat="45.58616" lon="6.14131">
        <ele>1032.6789550781</ele>
        <time>2010-10-07T13:23:45Z</time>
      </trkpt>
      <trkpt lat="45.58611" lon="6.1412">
        <ele>1032.5610351562</ele>
        <time>2010-10-07T13:23:48Z</time>
      </trkpt>
      <trkpt lat="45.5859" lon="6.14094">
        <ele>1030.5849609375</ele>
        <time>2010-10-07T13:23:54Z</time>
      </trkpt>
      <trkpt lat="45.58568" lon="6.14061">
        <ele>1026.6710205078</ele>
        <time>2010-10-07T13:23:58Z</time>
      </trkpt>
      <trkpt lat="45.58561" lon="6.14052">
        <ele>1025.6309814453</ele>
        <time>2010-10-07T13:23:59Z</time>
      </trkpt>
      <trkpt lat="45.58533" lon="6.14008">
        <ele>1020.2579956055</ele>
        <time>2010-10-07T13:24:04Z</time>
      </trkpt>
      <trkpt lat="45.58509" lon="6.13979">
        <ele>1019.5960083008</ele>
        <time>2010-10-07T13:24:08Z</time>
      </trkpt>
      <trkpt lat="45.58483" lon="6.1394">
        <ele>1016.3330078125</ele>
        <time>2010-10-07T13:24:13Z</time>
      </trkpt>
      <trkpt lat="45.58464" lon="6.13921">
        <ele>1013.9769897461</ele>
        <time>2010-10-07T13:24:16Z</time>
      </trkpt>
      <trkpt lat="45.5843" lon="6.13885">
        <ele>1014.5219726562</ele>
        <time>2010-10-07T13:24:22Z</time>
      </trkpt>
      <trkpt lat="45.58415" lon="6.13867">
        <ele>1011.658996582</ele>
        <time>2010-10-07T13:24:25Z</time>
      </trkpt>
      <trkpt lat="45.58403" lon="6.13829">
        <ele>1007.8389892578</ele>
        <time>2010-10-07T13:24:29Z</time>
      </trkpt>
      <trkpt lat="45.584" lon="6.13821">
        <ele>1007.1770019531</ele>
        <time>2010-10-07T13:24:30Z</time>
      </trkpt>
      <trkpt lat="45.58384" lon="6.13786">
        <ele>1004.3809814453</ele>
        <time>2010-10-07T13:24:36Z</time>
      </trkpt>
      <trkpt lat="45.58372" lon="6.13761">
        <ele>999.49200439453</ele>
        <time>2010-10-07T13:24:41Z</time>
      </trkpt>
      <trkpt lat="45.58363" lon="6.13751">
        <ele>996.36102294922</ele>
        <time>2010-10-07T13:24:45Z</time>
      </trkpt>
      <trkpt lat="45.58347" lon="6.1373">
        <ele>991.48797607422</ele>
        <time>2010-10-07T13:24:51Z</time>
      </trkpt>
      <trkpt lat="45.58335" lon="6.13712">
        <ele>987.71002197266</ele>
        <time>2010-10-07T13:24:56Z</time>
      </trkpt>
      <trkpt lat="45.58332" lon="6.13708">
        <ele>987.22998046875</ele>
        <time>2010-10-07T13:24:57Z</time>
      </trkpt>
      <trkpt lat="45.58306" lon="6.13686">
        <ele>981.42797851562</ele>
        <time>2010-10-07T13:25:04Z</time>
      </trkpt>
      <trkpt lat="45.58284" lon="6.13657">
        <ele>974.24298095703</ele>
        <time>2010-10-07T13:25:09Z</time>
      </trkpt>
      <trkpt lat="45.58258" lon="6.13633">
        <ele>968.48901367188</ele>
        <time>2010-10-07T13:25:16Z</time>
      </trkpt>
      <trkpt lat="45.58244" lon="6.13617">
        <ele>963.72100830078</ele>
        <time>2010-10-07T13:25:21Z</time>
      </trkpt>
      <trkpt lat="45.58236" lon="6.13608">
        <ele>962.17999267578</ele>
        <time>2010-10-07T13:25:23Z</time>
      </trkpt>
      <trkpt lat="45.58225" lon="6.13589">
        <ele>960.63299560547</ele>
        <time>2010-10-07T13:25:27Z</time>
      </trkpt>
      <trkpt lat="45.58229" lon="6.13575">
        <ele>958.29400634766</ele>
        <time>2010-10-07T13:25:30Z</time>
      </trkpt>
      <trkpt lat="45.58236" lon="6.13573">
        <ele>958.07202148438</ele>
        <time>2010-10-07T13:25:32Z</time>
      </trkpt>
      <trkpt lat="45.58234" lon="6.13561">
        <ele>958.21099853516</ele>
        <time>2010-10-07T13:25:38Z</time>
      </trkpt>
      <trkpt lat="45.58232" lon="6.13559">
        <ele>957.01702880859</ele>
        <time>2010-10-07T13:25:44Z</time>
      </trkpt>
      <trkpt lat="45.58232" lon="6.13558">
        <ele>957.09899902344</ele>
        <time>2010-10-07T13:25:56Z</time>
      </trkpt>
      <trkpt lat="45.58233" lon="6.13551">
        <ele>957.13098144531</ele>
        <time>2010-10-07T13:26:01Z</time>
      </trkpt>
      <trkpt lat="45.58241" lon="6.13557">
        <ele>957.52001953125</ele>
        <time>2010-10-07T13:26:06Z</time>
      </trkpt>
      <trkpt lat="45.58253" lon="6.13569">
        <ele>957.59301757812</ele>
        <time>2010-10-07T13:26:12Z</time>
      </trkpt>
      <trkpt lat="45.58266" lon="6.13576">
        <ele>957.42797851562</ele>
        <time>2010-10-07T13:26:18Z</time>
      </trkpt>
      <trkpt lat="45.58276" lon="6.13581">
        <ele>956.98101806641</ele>
        <time>2010-10-07T13:26:23Z</time>
      </trkpt>
      <trkpt lat="45.58278" lon="6.13582">
        <ele>956.97998046875</ele>
        <time>2010-10-07T13:26:25Z</time>
      </trkpt>
      <trkpt lat="45.58285" lon="6.1357">
        <ele>956.94000244141</ele>
        <time>2010-10-07T13:26:30Z</time>
      </trkpt>
      <trkpt lat="45.5829" lon="6.13566">
        <ele>957.01501464844</ele>
        <time>2010-10-07T13:26:32Z</time>
      </trkpt>
      <trkpt lat="45.583" lon="6.13567">
        <ele>957.26098632812</ele>
        <time>2010-10-07T13:26:37Z</time>
      </trkpt>
      <trkpt lat="45.58322" lon="6.13567">
        <ele>957.60699462891</ele>
        <time>2010-10-07T13:26:43Z</time>
      </trkpt>
      <trkpt lat="45.58339" lon="6.13565">
        <ele>958.39099121094</ele>
        <time>2010-10-07T13:26:48Z</time>
      </trkpt>
      <trkpt lat="45.58356" lon="6.13566">
        <ele>959.7509765625</ele>
        <time>2010-10-07T13:26:54Z</time>
      </trkpt>
      <trkpt lat="45.58371" lon="6.13567">
        <ele>960.22698974609</ele>
        <time>2010-10-07T13:26:59Z</time>
      </trkpt>
      <trkpt lat="45.58389" lon="6.13574">
        <ele>960.84197998047</ele>
        <time>2010-10-07T13:27:05Z</time>
      </trkpt>
      <trkpt lat="45.58403" lon="6.1358">
        <ele>961.39801025391</ele>
        <time>2010-10-07T13:27:10Z</time>
      </trkpt>
      <trkpt lat="45.58425" lon="6.1358">
        <ele>961.81298828125</ele>
        <time>2010-10-07T13:27:15Z</time>
      </trkpt>
      <trkpt lat="45.58443" lon="6.1358">
        <ele>962.49597167969</ele>
        <time>2010-10-07T13:27:20Z</time>
      </trkpt>
      <trkpt lat="45.58455" lon="6.13572">
        <ele>963.70300292969</ele>
        <time>2010-10-07T13:27:25Z</time>
      </trkpt>
      <trkpt lat="45.58462" lon="6.13557">
        <ele>965.57800292969</ele>
        <time>2010-10-07T13:27:32Z</time>
      </trkpt>
      <trkpt lat="45.58469" lon="6.13544">
        <ele>967.46002197266</ele>
        <time>2010-10-07T13:27:40Z</time>
      </trkpt>
      <trkpt lat="45.58476" lon="6.1353">
        <ele>969.25299072266</ele>
        <time>2010-10-07T13:27:48Z</time>
      </trkpt>
      <trkpt lat="45.58478" lon="6.13519">
        <ele>971.10400390625</ele>
        <time>2010-10-07T13:27:55Z</time>
      </trkpt>
      <trkpt lat="45.5848" lon="6.13513">
        <ele>971.90399169922</ele>
        <time>2010-10-07T13:28:00Z</time>
      </trkpt>
      <trkpt lat="45.58484" lon="6.13503">
        <ele>973.63201904297</ele>
        <time>2010-10-07T13:28:07Z</time>
      </trkpt>
      <trkpt lat="45.58488" lon="6.13498">
        <ele>974.33801269531</ele>
        <time>2010-10-07T13:28:13Z</time>
      </trkpt>
      <trkpt lat="45.5849" lon="6.13491">
        <ele>974.58197021484</ele>
        <time>2010-10-07T13:28:24Z</time>
      </trkpt>
      <trkpt lat="45.58487" lon="6.13478">
        <ele>975.91101074219</ele>
        <time>2010-10-07T13:28:32Z</time>
      </trkpt>
      <trkpt lat="45.58485" lon="6.13476">
        <ele>976.28601074219</ele>
        <time>2010-10-07T13:28:34Z</time>
      </trkpt>
      <trkpt lat="45.58473" lon="6.13478">
        <ele>977.73602294922</ele>
        <time>2010-10-07T13:28:43Z</time>
      </trkpt>
      <trkpt lat="45.58461" lon="6.13479">
        <ele>978.89398193359</ele>
        <time>2010-10-07T13:28:50Z</time>
      </trkpt>
      <trkpt lat="45.58446" lon="6.13476">
        <ele>980.25598144531</ele>
        <time>2010-10-07T13:28:58Z</time>
      </trkpt>
      <trkpt lat="45.58434" lon="6.13472">
        <ele>981.61102294922</ele>
        <time>2010-10-07T13:29:05Z</time>
      </trkpt>
      <trkpt lat="45.58419" lon="6.13461">
        <ele>982.89801025391</ele>
        <time>2010-10-07T13:29:15Z</time>
      </trkpt>
      <trkpt lat="45.58412" lon="6.13447">
        <ele>984.45397949219</ele>
        <time>2010-10-07T13:29:24Z</time>
      </trkpt>
      <trkpt lat="45.58402" lon="6.13435">
        <ele>986.06298828125</ele>
        <time>2010-10-07T13:29:31Z</time>
      </trkpt>
      <trkpt lat="45.5839" lon="6.13421">
        <ele>988.16802978516</ele>
        <time>2010-10-07T13:29:41Z</time>
      </trkpt>
      <trkpt lat="45.58382" lon="6.13408">
        <ele>989.48199462891</ele>
        <time>2010-10-07T13:29:48Z</time>
      </trkpt>
      <trkpt lat="45.58368" lon="6.13391">
        <ele>991.01098632812</ele>
        <time>2010-10-07T13:29:57Z</time>
      </trkpt>
      <trkpt lat="45.58358" lon="6.13383">
        <ele>991.80999755859</ele>
        <time>2010-10-07T13:30:03Z</time>
      </trkpt>
      <trkpt lat="45.58344" lon="6.13373">
        <ele>992.39099121094</ele>
        <time>2010-10-07T13:30:11Z</time>
      </trkpt>
      <trkpt lat="45.58333" lon="6.13363">
        <ele>993.47802734375</ele>
        <time>2010-10-07T13:30:18Z</time>
      </trkpt>
      <trkpt lat="45.58328" lon="6.13345">
        <ele>994.61602783203</ele>
        <time>2010-10-07T13:30:25Z</time>
      </trkpt>
      <trkpt lat="45.58328" lon="6.1332">
        <ele>995.67498779297</ele>
        <time>2010-10-07T13:30:34Z</time>
      </trkpt>
      <trkpt lat="45.58334" lon="6.13302">
        <ele>996.66802978516</ele>
        <time>2010-10-07T13:30:41Z</time>
      </trkpt>
      <trkpt lat="45.5834" lon="6.13277">
        <ele>997.57501220703</ele>
        <time>2010-10-07T13:30:51Z</time>
      </trkpt>
      <trkpt lat="45.58348" lon="6.13255">
        <ele>998.68298339844</ele>
        <time>2010-10-07T13:31:01Z</time>
      </trkpt>
      <trkpt lat="45.5835" lon="6.13252">
        <ele>999.17199707031</ele>
        <time>2010-10-07T13:31:06Z</time>
      </trkpt>
      <trkpt lat="45.58357" lon="6.13249">
        <ele>999.68499755859</ele>
        <time>2010-10-07T13:31:21Z</time>
      </trkpt>
      <trkpt lat="45.58355" lon="6.13246">
        <ele>1000.0579833984</ele>
        <time>2010-10-07T13:31:28Z</time>
      </trkpt>
      <trkpt lat="45.58356" lon="6.13239">
        <ele>1001.4370117188</ele>
        <time>2010-10-07T13:31:38Z</time>
      </trkpt>
      <trkpt lat="45.58358" lon="6.13233">
        <ele>1003.2760009766</ele>
        <time>2010-10-07T13:31:45Z</time>
      </trkpt>
      <trkpt lat="45.58359" lon="6.13226">
        <ele>1004.3319702148</ele>
        <time>2010-10-07T13:31:50Z</time>
      </trkpt>
      <trkpt lat="45.58361" lon="6.13218">
        <ele>1005.9619750977</ele>
        <time>2010-10-07T13:31:57Z</time>
      </trkpt>
      <trkpt lat="45.58362" lon="6.13213">
        <ele>1007.3449707031</ele>
        <time>2010-10-07T13:32:03Z</time>
      </trkpt>
      <trkpt lat="45.58365" lon="6.1321">
        <ele>1008.6690063477</ele>
        <time>2010-10-07T13:32:09Z</time>
      </trkpt>
      <trkpt lat="45.58364" lon="6.13202">
        <ele>1009.7169799805</ele>
        <time>2010-10-07T13:32:15Z</time>
      </trkpt>
      <trkpt lat="45.58366" lon="6.13192">
        <ele>1011.8350219727</ele>
        <time>2010-10-07T13:32:24Z</time>
      </trkpt>
      <trkpt lat="45.58368" lon="6.13185">
        <ele>1012.8480224609</ele>
        <time>2010-10-07T13:32:31Z</time>
      </trkpt>
      <trkpt lat="45.58371" lon="6.13182">
        <ele>1013.4140014648</ele>
        <time>2010-10-07T13:32:36Z</time>
      </trkpt>
      <trkpt lat="45.58374" lon="6.1318">
        <ele>1014.049987793</ele>
        <time>2010-10-07T13:32:41Z</time>
      </trkpt>
      <trkpt lat="45.58374" lon="6.13182">
        <ele>1014.3209838867</ele>
        <time>2010-10-07T13:32:59Z</time>
      </trkpt>
      <trkpt lat="45.58379" lon="6.13184">
        <ele>1014.1779785156</ele>
        <time>2010-10-07T13:33:06Z</time>
      </trkpt>
      <trkpt lat="45.58378" lon="6.13184">
        <ele>1014.2529907227</ele>
        <time>2010-10-07T13:33:11Z</time>
      </trkpt>
      <trkpt lat="45.58378" lon="6.13179">
        <ele>1014.6220092773</ele>
        <time>2010-10-07T13:33:22Z</time>
      </trkpt>
      <trkpt lat="45.58379" lon="6.13178">
        <ele>1015.1900024414</ele>
        <time>2010-10-07T13:33:27Z</time>
      </trkpt>
      <trkpt lat="45.58381" lon="6.13179">
        <ele>1015.1779785156</ele>
        <time>2010-10-07T13:33:30Z</time>
      </trkpt>
      <trkpt lat="45.58382" lon="6.13178">
        <ele>1015.1699829102</ele>
        <time>2010-10-07T13:33:33Z</time>
      </trkpt>
      <trkpt lat="45.58382" lon="6.13178">
        <ele>1015.1019897461</ele>
        <time>2010-10-07T13:33:34Z</time>
      </trkpt>
      <trkpt lat="45.58382" lon="6.13178">
        <ele>1015.3280029297</ele>
        <time>2010-10-07T13:33:55Z</time>
      </trkpt>
      <trkpt lat="45.58383" lon="6.13176">
        <ele>1015.1920166016</ele>
        <time>2010-10-07T13:33:58Z</time>
      </trkpt>
      <trkpt lat="45.58387" lon="6.13169">
        <ele>1016.3359985352</ele>
        <time>2010-10-07T13:34:05Z</time>
      </trkpt>
      <trkpt lat="45.58387" lon="6.13168">
        <ele>1016.4869995117</ele>
        <time>2010-10-07T13:34:06Z</time>
      </trkpt>
      <trkpt lat="45.5839" lon="6.13161">
        <ele>1017.9340209961</ele>
        <time>2010-10-07T13:34:14Z</time>
      </trkpt>
      <trkpt lat="45.58394" lon="6.1316">
        <ele>1019</ele>
        <time>2010-10-07T13:34:20Z</time>
      </trkpt>
      <trkpt lat="45.58399" lon="6.13157">
        <ele>1020.0269775391</ele>
        <time>2010-10-07T13:34:26Z</time>
      </trkpt>
      <trkpt lat="45.58407" lon="6.13165">
        <ele>1020.491027832</ele>
        <time>2010-10-07T13:34:39Z</time>
      </trkpt>
      <trkpt lat="45.58409" lon="6.13166">
        <ele>1020.4479980469</ele>
        <time>2010-10-07T13:34:59Z</time>
      </trkpt>
      <trkpt lat="45.58408" lon="6.13165">
        <ele>1020.6229858398</ele>
        <time>2010-10-07T13:35:03Z</time>
      </trkpt>
      <trkpt lat="45.58408" lon="6.13165">
        <ele>1020.5419921875</ele>
        <time>2010-10-07T13:35:05Z</time>
      </trkpt>
      <trkpt lat="45.58408" lon="6.13166">
        <ele>1020.5520019531</ele>
        <time>2010-10-07T13:35:08Z</time>
      </trkpt>
      <trkpt lat="45.58408" lon="6.13165">
        <ele>1020.5310058594</ele>
        <time>2010-10-07T13:35:09Z</time>
      </trkpt>
      <trkpt lat="45.58407" lon="6.13165">
        <ele>1020.6740112305</ele>
        <time>2010-10-07T13:35:16Z</time>
      </trkpt>
      <trkpt lat="45.58405" lon="6.13165">
        <ele>1020.8920288086</ele>
        <time>2010-10-07T13:36:01Z</time>
      </trkpt>
      <trkpt lat="45.58405" lon="6.13165">
        <ele>1020.9099731445</ele>
        <time>2010-10-07T13:36:02Z</time>
      </trkpt>
      <trkpt lat="45.58405" lon="6.13165">
        <ele>1020.8690185547</ele>
        <time>2010-10-07T13:36:29Z</time>
      </trkpt>
      <trkpt lat="45.58406" lon="6.13163">
        <ele>1021.0770263672</ele>
        <time>2010-10-07T13:36:42Z</time>
      </trkpt>
      <trkpt lat="45.58407" lon="6.13163">
        <ele>1021</ele>
        <time>2010-10-07T13:36:43Z</time>
      </trkpt>
      <trkpt lat="45.58407" lon="6.13164">
        <ele>1020.9429931641</ele>
        <time>2010-10-07T13:36:44Z</time>
      </trkpt>
      <trkpt lat="45.58407" lon="6.13164">
        <ele>1021.007019043</ele>
        <time>2010-10-07T13:37:09Z</time>
      </trkpt>
      <trkpt lat="45.58406" lon="6.13157">
        <ele>1021.1060180664</ele>
        <time>2010-10-07T13:37:31Z</time>
      </trkpt>
      <trkpt lat="45.58409" lon="6.13152">
        <ele>1022</ele>
        <time>2010-10-07T13:37:38Z</time>
      </trkpt>
      <trkpt lat="45.58414" lon="6.13143">
        <ele>1023.7520141602</ele>
        <time>2010-10-07T13:37:44Z</time>
      </trkpt>
      <trkpt lat="45.58416" lon="6.13139">
        <ele>1025.0689697266</ele>
        <time>2010-10-07T13:37:47Z</time>
      </trkpt>
      <trkpt lat="45.58419" lon="6.13135">
        <ele>1026.5350341797</ele>
        <time>2010-10-07T13:37:51Z</time>
      </trkpt>
      <trkpt lat="45.58422" lon="6.13132">
        <ele>1027.2390136719</ele>
        <time>2010-10-07T13:37:54Z</time>
      </trkpt>
      <trkpt lat="45.58422" lon="6.13131">
        <ele>1027.5389404297</ele>
        <time>2010-10-07T13:37:55Z</time>
      </trkpt>
      <trkpt lat="45.58427" lon="6.13124">
        <ele>1029.2359619141</ele>
        <time>2010-10-07T13:38:00Z</time>
      </trkpt>
      <trkpt lat="45.58431" lon="6.13121">
        <ele>1029.8740234375</ele>
        <time>2010-10-07T13:38:08Z</time>
      </trkpt>
      <trkpt lat="45.58434" lon="6.13115">
        <ele>1030.9940185547</ele>
        <time>2010-10-07T13:38:19Z</time>
      </trkpt>
      <trkpt lat="45.58434" lon="6.13107">
        <ele>1032.0720214844</ele>
        <time>2010-10-07T13:38:25Z</time>
      </trkpt>
      <trkpt lat="45.58434" lon="6.13106">
        <ele>1032.3189697266</ele>
        <time>2010-10-07T13:38:26Z</time>
      </trkpt>
      <trkpt lat="45.5843" lon="6.13097">
        <ele>1033.6290283203</ele>
        <time>2010-10-07T13:38:33Z</time>
      </trkpt>
      <trkpt lat="45.58428" lon="6.13084">
        <ele>1035.1309814453</ele>
        <time>2010-10-07T13:38:42Z</time>
      </trkpt>
      <trkpt lat="45.58427" lon="6.13076">
        <ele>1036.2729492188</ele>
        <time>2010-10-07T13:38:48Z</time>
      </trkpt>
      <trkpt lat="45.58425" lon="6.13064">
        <ele>1038.9940185547</ele>
        <time>2010-10-07T13:38:57Z</time>
      </trkpt>
      <trkpt lat="45.58424" lon="6.13055">
        <ele>1040.4119873047</ele>
        <time>2010-10-07T13:39:07Z</time>
      </trkpt>
      <trkpt lat="45.5842" lon="6.13041">
        <ele>1042.1629638672</ele>
        <time>2010-10-07T13:39:18Z</time>
      </trkpt>
      <trkpt lat="45.5842" lon="6.13038">
        <ele>1042.6779785156</ele>
        <time>2010-10-07T13:39:25Z</time>
      </trkpt>
      <trkpt lat="45.58422" lon="6.13035">
        <ele>1042.751953125</ele>
        <time>2010-10-07T13:39:30Z</time>
      </trkpt>
      <trkpt lat="45.58429" lon="6.13025">
        <ele>1043.8160400391</ele>
        <time>2010-10-07T13:39:38Z</time>
      </trkpt>
      <trkpt lat="45.58434" lon="6.1302">
        <ele>1044.8489990234</ele>
        <time>2010-10-07T13:39:44Z</time>
      </trkpt>
      <trkpt lat="45.58441" lon="6.13012">
        <ele>1047.416015625</ele>
        <time>2010-10-07T13:39:51Z</time>
      </trkpt>
      <trkpt lat="45.58447" lon="6.13005">
        <ele>1048.8449707031</ele>
        <time>2010-10-07T13:39:58Z</time>
      </trkpt>
      <trkpt lat="45.58447" lon="6.13004">
        <ele>1049.1629638672</ele>
        <time>2010-10-07T13:39:59Z</time>
      </trkpt>
      <trkpt lat="45.58448" lon="6.12988">
        <ele>1050.5970458984</ele>
        <time>2010-10-07T13:40:07Z</time>
      </trkpt>
      <trkpt lat="45.58449" lon="6.12975">
        <ele>1051.8249511719</ele>
        <time>2010-10-07T13:40:14Z</time>
      </trkpt>
      <trkpt lat="45.58449" lon="6.12964">
        <ele>1052.3129882812</ele>
        <time>2010-10-07T13:40:20Z</time>
      </trkpt>
      <trkpt lat="45.58448" lon="6.12953">
        <ele>1053.1500244141</ele>
        <time>2010-10-07T13:40:27Z</time>
      </trkpt>
      <trkpt lat="45.58443" lon="6.12939">
        <ele>1055.5550537109</ele>
        <time>2010-10-07T13:40:38Z</time>
      </trkpt>
      <trkpt lat="45.58438" lon="6.12934">
        <ele>1057.1209716797</ele>
        <time>2010-10-07T13:40:45Z</time>
      </trkpt>
      <trkpt lat="45.58431" lon="6.12928">
        <ele>1059.0770263672</ele>
        <time>2010-10-07T13:40:54Z</time>
      </trkpt>
      <trkpt lat="45.58424" lon="6.12925">
        <ele>1060.5620117188</ele>
        <time>2010-10-07T13:41:01Z</time>
      </trkpt>
      <trkpt lat="45.58416" lon="6.12923">
        <ele>1061.6719970703</ele>
        <time>2010-10-07T13:41:08Z</time>
      </trkpt>
      <trkpt lat="45.58408" lon="6.1292">
        <ele>1063.1989746094</ele>
        <time>2010-10-07T13:41:15Z</time>
      </trkpt>
      <trkpt lat="45.58397" lon="6.12911">
        <ele>1065.4969482422</ele>
        <time>2010-10-07T13:41:24Z</time>
      </trkpt>
      <trkpt lat="45.58395" lon="6.12904">
        <ele>1066.3120117188</ele>
        <time>2010-10-07T13:41:31Z</time>
      </trkpt>
      <trkpt lat="45.58395" lon="6.12898">
        <ele>1067.1350097656</ele>
        <time>2010-10-07T13:41:38Z</time>
      </trkpt>
      <trkpt lat="45.58395" lon="6.12897">
        <ele>1067.4849853516</ele>
        <time>2010-10-07T13:41:40Z</time>
      </trkpt>
      <trkpt lat="45.58398" lon="6.12893">
        <ele>1068.4689941406</ele>
        <time>2010-10-07T13:41:47Z</time>
      </trkpt>
      <trkpt lat="45.58404" lon="6.12891">
        <ele>1069.3850097656</ele>
        <time>2010-10-07T13:41:54Z</time>
      </trkpt>
      <trkpt lat="45.58412" lon="6.12886">
        <ele>1069.8199462891</ele>
        <time>2010-10-07T13:42:00Z</time>
      </trkpt>
      <trkpt lat="45.5842" lon="6.12881">
        <ele>1070.3079833984</ele>
        <time>2010-10-07T13:42:06Z</time>
      </trkpt>
      <trkpt lat="45.58421" lon="6.1288">
        <ele>1070.2550048828</ele>
        <time>2010-10-07T13:42:07Z</time>
      </trkpt>
      <trkpt lat="45.58431" lon="6.12875">
        <ele>1069.5159912109</ele>
        <time>2010-10-07T13:42:13Z</time>
      </trkpt>
      <trkpt lat="45.58443" lon="6.12873">
        <ele>1068.4510498047</ele>
        <time>2010-10-07T13:42:17Z</time>
      </trkpt>
      <trkpt lat="45.58469" lon="6.1287">
        <ele>1068.3079833984</ele>
        <time>2010-10-07T13:42:23Z</time>
      </trkpt>
      <trkpt lat="45.58485" lon="6.1286">
        <ele>1069.3640136719</ele>
        <time>2010-10-07T13:42:29Z</time>
      </trkpt>
      <trkpt lat="45.585" lon="6.12849">
        <ele>1070.3210449219</ele>
        <time>2010-10-07T13:42:36Z</time>
      </trkpt>
      <trkpt lat="45.58516" lon="6.12843">
        <ele>1071.0959472656</ele>
        <time>2010-10-07T13:42:44Z</time>
      </trkpt>
      <trkpt lat="45.58522" lon="6.1284">
        <ele>1070.5360107422</ele>
        <time>2010-10-07T13:42:50Z</time>
      </trkpt>
      <trkpt lat="45.58526" lon="6.1284">
        <ele>1070.1190185547</ele>
        <time>2010-10-07T13:42:59Z</time>
      </trkpt>
      <trkpt lat="45.58533" lon="6.1284">
        <ele>1069.79296875</ele>
        <time>2010-10-07T13:43:20Z</time>
      </trkpt>
      <trkpt lat="45.58545" lon="6.12836">
        <ele>1069.166015625</ele>
        <time>2010-10-07T13:43:25Z</time>
      </trkpt>
      <trkpt lat="45.58565" lon="6.12831">
        <ele>1069.5190429688</ele>
        <time>2010-10-07T13:43:33Z</time>
      </trkpt>
      <trkpt lat="45.58586" lon="6.12829">
        <ele>1067.9919433594</ele>
        <time>2010-10-07T13:43:40Z</time>
      </trkpt>
      <trkpt lat="45.5859" lon="6.12829">
        <ele>1067.6330566406</ele>
        <time>2010-10-07T13:43:41Z</time>
      </trkpt>
      <trkpt lat="45.58619" lon="6.1283">
        <ele>1063.0629882812</ele>
        <time>2010-10-07T13:43:47Z</time>
      </trkpt>
      <trkpt lat="45.58647" lon="6.12833">
        <ele>1058.2829589844</ele>
        <time>2010-10-07T13:43:53Z</time>
      </trkpt>
      <trkpt lat="45.58651" lon="6.12834">
        <ele>1057.5830078125</ele>
        <time>2010-10-07T13:43:54Z</time>
      </trkpt>
      <trkpt lat="45.58671" lon="6.12828">
        <ele>1053.3659667969</ele>
        <time>2010-10-07T13:44:00Z</time>
      </trkpt>
      <trkpt lat="45.58674" lon="6.12826">
        <ele>1053.1030273438</ele>
        <time>2010-10-07T13:44:01Z</time>
      </trkpt>
      <trkpt lat="45.58689" lon="6.12818">
        <ele>1049.6140136719</ele>
        <time>2010-10-07T13:44:06Z</time>
      </trkpt>
      <trkpt lat="45.5871" lon="6.12814">
        <ele>1047.6629638672</ele>
        <time>2010-10-07T13:44:11Z</time>
      </trkpt>
      <trkpt lat="45.58718" lon="6.12813">
        <ele>1046.5489501953</ele>
        <time>2010-10-07T13:44:13Z</time>
      </trkpt>
      <trkpt lat="45.58744" lon="6.12807">
        <ele>1044.3909912109</ele>
        <time>2010-10-07T13:44:18Z</time>
      </trkpt>
      <trkpt lat="45.58755" lon="6.12809">
        <ele>1044.0479736328</ele>
        <time>2010-10-07T13:44:20Z</time>
      </trkpt>
      <trkpt lat="45.5878" lon="6.12814">
        <ele>1043.6159667969</ele>
        <time>2010-10-07T13:44:25Z</time>
      </trkpt>
      <trkpt lat="45.58784" lon="6.12814">
        <ele>1043.4460449219</ele>
        <time>2010-10-07T13:44:26Z</time>
      </trkpt>
      <trkpt lat="45.58803" lon="6.12811">
        <ele>1042.3020019531</ele>
        <time>2010-10-07T13:44:30Z</time>
      </trkpt>
      <trkpt lat="45.58841" lon="6.1281">
        <ele>1038.1199951172</ele>
        <time>2010-10-07T13:44:37Z</time>
      </trkpt>
      <trkpt lat="45.5885" lon="6.12811">
        <ele>1037.3859863281</ele>
        <time>2010-10-07T13:44:39Z</time>
      </trkpt>
      <trkpt lat="45.58873" lon="6.12811">
        <ele>1035.9649658203</ele>
        <time>2010-10-07T13:44:45Z</time>
      </trkpt>
      <trkpt lat="45.58879" lon="6.12804">
        <ele>1036.2969970703</ele>
        <time>2010-10-07T13:44:50Z</time>
      </trkpt>
      <trkpt lat="45.58881" lon="6.12801">
        <ele>1036.6290283203</ele>
        <time>2010-10-07T13:44:57Z</time>
      </trkpt>
      <trkpt lat="45.5888" lon="6.12798">
        <ele>1037.0939941406</ele>
        <time>2010-10-07T13:45:27Z</time>
      </trkpt>
      <trkpt lat="45.58884" lon="6.12798">
        <ele>1037.1739501953</ele>
        <time>2010-10-07T13:45:41Z</time>
      </trkpt>
      <trkpt lat="45.58894" lon="6.12791">
        <ele>1038.3389892578</ele>
        <time>2010-10-07T13:45:48Z</time>
      </trkpt>
      <trkpt lat="45.58907" lon="6.12782">
        <ele>1039.5670166016</ele>
        <time>2010-10-07T13:45:56Z</time>
      </trkpt>
      <trkpt lat="45.58917" lon="6.12773">
        <ele>1040.7969970703</ele>
        <time>2010-10-07T13:46:03Z</time>
      </trkpt>
      <trkpt lat="45.58931" lon="6.12764">
        <ele>1042.33203125</ele>
        <time>2010-10-07T13:46:11Z</time>
      </trkpt>
      <trkpt lat="45.58943" lon="6.12758">
        <ele>1043.6529541016</ele>
        <time>2010-10-07T13:46:17Z</time>
      </trkpt>
      <trkpt lat="45.58953" lon="6.12755">
        <ele>1045.1180419922</ele>
        <time>2010-10-07T13:46:23Z</time>
      </trkpt>
      <trkpt lat="45.58961" lon="6.12752">
        <ele>1046.1290283203</ele>
        <time>2010-10-07T13:46:28Z</time>
      </trkpt>
      <trkpt lat="45.5898" lon="6.12754">
        <ele>1047.4069824219</ele>
        <time>2010-10-07T13:46:37Z</time>
      </trkpt>
      <trkpt lat="45.58999" lon="6.12765">
        <ele>1049.0789794922</ele>
        <time>2010-10-07T13:46:47Z</time>
      </trkpt>
      <trkpt lat="45.59009" lon="6.1277">
        <ele>1050.5560302734</ele>
        <time>2010-10-07T13:46:53Z</time>
      </trkpt>
      <trkpt lat="45.59017" lon="6.12771">
        <ele>1052.0560302734</ele>
        <time>2010-10-07T13:46:58Z</time>
      </trkpt>
      <trkpt lat="45.59019" lon="6.12771">
        <ele>1052.2989501953</ele>
        <time>2010-10-07T13:46:59Z</time>
      </trkpt>
      <trkpt lat="45.59025" lon="6.12771">
        <ele>1053.4129638672</ele>
        <time>2010-10-07T13:47:05Z</time>
      </trkpt>
      <trkpt lat="45.59026" lon="6.12771">
        <ele>1053.5369873047</ele>
        <time>2010-10-07T13:47:06Z</time>
      </trkpt>
      <trkpt lat="45.59035" lon="6.12769">
        <ele>1054.8139648438</ele>
        <time>2010-10-07T13:47:13Z</time>
      </trkpt>
      <trkpt lat="45.59038" lon="6.12763">
        <ele>1055.4770507812</ele>
        <time>2010-10-07T13:47:18Z</time>
      </trkpt>
      <trkpt lat="45.59037" lon="6.12761">
        <ele>1055.7810058594</ele>
        <time>2010-10-07T13:47:20Z</time>
      </trkpt>
      <trkpt lat="45.59029" lon="6.12761">
        <ele>1056.5150146484</ele>
        <time>2010-10-07T13:47:27Z</time>
      </trkpt>
      <trkpt lat="45.59021" lon="6.12755">
        <ele>1056.9310302734</ele>
        <time>2010-10-07T13:47:32Z</time>
      </trkpt>
      <trkpt lat="45.59011" lon="6.12736">
        <ele>1058.5560302734</ele>
        <time>2010-10-07T13:47:42Z</time>
      </trkpt>
      <trkpt lat="45.59002" lon="6.12722">
        <ele>1060.2469482422</ele>
        <time>2010-10-07T13:47:50Z</time>
      </trkpt>
      <trkpt lat="45.58992" lon="6.12712">
        <ele>1061.6860351562</ele>
        <time>2010-10-07T13:47:58Z</time>
      </trkpt>
      <trkpt lat="45.58982" lon="6.127">
        <ele>1062.8690185547</ele>
        <time>2010-10-07T13:48:05Z</time>
      </trkpt>
      <trkpt lat="45.58969" lon="6.12693">
        <ele>1063.6479492188</ele>
        <time>2010-10-07T13:48:11Z</time>
      </trkpt>
      <trkpt lat="45.58962" lon="6.12686">
        <ele>1064.3100585938</ele>
        <time>2010-10-07T13:48:17Z</time>
      </trkpt>
      <trkpt lat="45.58961" lon="6.12685">
        <ele>1064.5870361328</ele>
        <time>2010-10-07T13:48:18Z</time>
      </trkpt>
      <trkpt lat="45.5896" lon="6.12676">
        <ele>1065.6700439453</ele>
        <time>2010-10-07T13:48:23Z</time>
      </trkpt>
      <trkpt lat="45.58961" lon="6.12673">
        <ele>1066.1719970703</ele>
        <time>2010-10-07T13:48:26Z</time>
      </trkpt>
      <trkpt lat="45.5897" lon="6.12675">
        <ele>1067.4169921875</ele>
        <time>2010-10-07T13:48:33Z</time>
      </trkpt>
      <trkpt lat="45.58972" lon="6.12677">
        <ele>1067.9649658203</ele>
        <time>2010-10-07T13:48:37Z</time>
      </trkpt>
      <trkpt lat="45.58982" lon="6.12684">
        <ele>1068.7889404297</ele>
        <time>2010-10-07T13:48:43Z</time>
      </trkpt>
      <trkpt lat="45.58997" lon="6.12694">
        <ele>1069.4239501953</ele>
        <time>2010-10-07T13:48:51Z</time>
      </trkpt>
      <trkpt lat="45.59009" lon="6.12699">
        <ele>1070.4880371094</ele>
        <time>2010-10-07T13:48:57Z</time>
      </trkpt>
      <trkpt lat="45.59019" lon="6.12704">
        <ele>1071.4110107422</ele>
        <time>2010-10-07T13:49:03Z</time>
      </trkpt>
      <trkpt lat="45.59024" lon="6.12704">
        <ele>1072.5629882812</ele>
        <time>2010-10-07T13:49:07Z</time>
      </trkpt>
      <trkpt lat="45.59031" lon="6.12704">
        <ele>1073.5970458984</ele>
        <time>2010-10-07T13:49:13Z</time>
      </trkpt>
      <trkpt lat="45.59041" lon="6.127">
        <ele>1074.7919921875</ele>
        <time>2010-10-07T13:49:20Z</time>
      </trkpt>
      <trkpt lat="45.59052" lon="6.12699">
        <ele>1075.6500244141</ele>
        <time>2010-10-07T13:49:27Z</time>
      </trkpt>
      <trkpt lat="45.59064" lon="6.127">
        <ele>1077.0999755859</ele>
        <time>2010-10-07T13:49:34Z</time>
      </trkpt>
      <trkpt lat="45.59076" lon="6.12701">
        <ele>1078.0610351562</ele>
        <time>2010-10-07T13:49:40Z</time>
      </trkpt>
      <trkpt lat="45.59088" lon="6.12701">
        <ele>1079.3570556641</ele>
        <time>2010-10-07T13:49:47Z</time>
      </trkpt>
      <trkpt lat="45.59096" lon="6.12699">
        <ele>1080.3079833984</ele>
        <time>2010-10-07T13:49:52Z</time>
      </trkpt>
      <trkpt lat="45.59106" lon="6.12698">
        <ele>1081.4739990234</ele>
        <time>2010-10-07T13:49:59Z</time>
      </trkpt>
      <trkpt lat="45.5912" lon="6.12698">
        <ele>1082.5419921875</ele>
        <time>2010-10-07T13:50:07Z</time>
      </trkpt>
      <trkpt lat="45.59129" lon="6.12698">
        <ele>1083.8709716797</ele>
        <time>2010-10-07T13:50:13Z</time>
      </trkpt>
      <trkpt lat="45.59141" lon="6.12693">
        <ele>1085.2869873047</ele>
        <time>2010-10-07T13:50:21Z</time>
      </trkpt>
      <trkpt lat="45.59152" lon="6.12681">
        <ele>1086.7850341797</ele>
        <time>2010-10-07T13:50:30Z</time>
      </trkpt>
      <trkpt lat="45.59153" lon="6.1268">
        <ele>1087.0469970703</ele>
        <time>2010-10-07T13:50:31Z</time>
      </trkpt>
      <trkpt lat="45.59159" lon="6.12669">
        <ele>1088.0109863281</ele>
        <time>2010-10-07T13:50:38Z</time>
      </trkpt>
      <trkpt lat="45.59165" lon="6.1266">
        <ele>1089.1330566406</ele>
        <time>2010-10-07T13:50:44Z</time>
      </trkpt>
      <trkpt lat="45.59169" lon="6.12658">
        <ele>1089.4150390625</ele>
        <time>2010-10-07T13:50:46Z</time>
      </trkpt>
      <trkpt lat="45.59185" lon="6.1265">
        <ele>1090.4859619141</ele>
        <time>2010-10-07T13:50:55Z</time>
      </trkpt>
      <trkpt lat="45.59198" lon="6.1265">
        <ele>1091.9420166016</ele>
        <time>2010-10-07T13:51:03Z</time>
      </trkpt>
      <trkpt lat="45.592" lon="6.12651">
        <ele>1092.0520019531</ele>
        <time>2010-10-07T13:51:04Z</time>
      </trkpt>
      <trkpt lat="45.59207" lon="6.12643">
        <ele>1092.7939453125</ele>
        <time>2010-10-07T13:51:10Z</time>
      </trkpt>
      <trkpt lat="45.59201" lon="6.12637">
        <ele>1094.7049560547</ele>
        <time>2010-10-07T13:51:17Z</time>
      </trkpt>
      <trkpt lat="45.59192" lon="6.12634">
        <ele>1095.7690429688</ele>
        <time>2010-10-07T13:51:24Z</time>
      </trkpt>
      <trkpt lat="45.59183" lon="6.12629">
        <ele>1096.9090576172</ele>
        <time>2010-10-07T13:51:31Z</time>
      </trkpt>
      <trkpt lat="45.59168" lon="6.12633">
        <ele>1098.4820556641</ele>
        <time>2010-10-07T13:51:41Z</time>
      </trkpt>
      <trkpt lat="45.59155" lon="6.12644">
        <ele>1100.0570068359</ele>
        <time>2010-10-07T13:51:51Z</time>
      </trkpt>
      <trkpt lat="45.59152" lon="6.12646">
        <ele>1100.3060302734</ele>
        <time>2010-10-07T13:51:53Z</time>
      </trkpt>
      <trkpt lat="45.59145" lon="6.12643">
        <ele>1101.3120117188</ele>
        <time>2010-10-07T13:51:59Z</time>
      </trkpt>
      <trkpt lat="45.59149" lon="6.12637">
        <ele>1102.1300048828</ele>
        <time>2010-10-07T13:52:04Z</time>
      </trkpt>
      <trkpt lat="45.5915" lon="6.12635">
        <ele>1102.5450439453</ele>
        <time>2010-10-07T13:52:06Z</time>
      </trkpt>
      <trkpt lat="45.59158" lon="6.12623">
        <ele>1103.4310302734</ele>
        <time>2010-10-07T13:52:14Z</time>
      </trkpt>
      <trkpt lat="45.59161" lon="6.1262">
        <ele>1103.6159667969</ele>
        <time>2010-10-07T13:52:16Z</time>
      </trkpt>
      <trkpt lat="45.59163" lon="6.12613">
        <ele>1104.2010498047</ele>
        <time>2010-10-07T13:52:20Z</time>
      </trkpt>
      <trkpt lat="45.59165" lon="6.12608">
        <ele>1104.7679443359</ele>
        <time>2010-10-07T13:52:23Z</time>
      </trkpt>
      <trkpt lat="45.59168" lon="6.12602">
        <ele>1105.6149902344</ele>
        <time>2010-10-07T13:52:28Z</time>
      </trkpt>
      <trkpt lat="45.5917" lon="6.126">
        <ele>1105.8570556641</ele>
        <time>2010-10-07T13:52:30Z</time>
      </trkpt>
      <trkpt lat="45.59181" lon="6.12595">
        <ele>1106.5999755859</ele>
        <time>2010-10-07T13:52:36Z</time>
      </trkpt>
      <trkpt lat="45.59183" lon="6.12595">
        <ele>1106.7850341797</ele>
        <time>2010-10-07T13:52:37Z</time>
      </trkpt>
      <trkpt lat="45.59193" lon="6.12595">
        <ele>1107.6120605469</ele>
        <time>2010-10-07T13:52:43Z</time>
      </trkpt>
      <trkpt lat="45.59207" lon="6.12599">
        <ele>1108.2740478516</ele>
        <time>2010-10-07T13:52:51Z</time>
      </trkpt>
      <trkpt lat="45.59216" lon="6.12601">
        <ele>1109.0169677734</ele>
        <time>2010-10-07T13:52:57Z</time>
      </trkpt>
      <trkpt lat="45.59217" lon="6.12601">
        <ele>1109.04296875</ele>
        <time>2010-10-07T13:52:58Z</time>
      </trkpt>
      <trkpt lat="45.59219" lon="6.12593">
        <ele>1110.4780273438</ele>
        <time>2010-10-07T13:53:04Z</time>
      </trkpt>
      <trkpt lat="45.59212" lon="6.12591">
        <ele>1110.8229980469</ele>
        <time>2010-10-07T13:53:09Z</time>
      </trkpt>
      <trkpt lat="45.59195" lon="6.1258">
        <ele>1112.1190185547</ele>
        <time>2010-10-07T13:53:20Z</time>
      </trkpt>
      <trkpt lat="45.5918" lon="6.12576">
        <ele>1113.6330566406</ele>
        <time>2010-10-07T13:53:29Z</time>
      </trkpt>
      <trkpt lat="45.59161" lon="6.12582">
        <ele>1115.0400390625</ele>
        <time>2010-10-07T13:53:39Z</time>
      </trkpt>
      <trkpt lat="45.59142" lon="6.1259">
        <ele>1117.0129394531</ele>
        <time>2010-10-07T13:53:50Z</time>
      </trkpt>
      <trkpt lat="45.59127" lon="6.12593">
        <ele>1118.5670166016</ele>
        <time>2010-10-07T13:53:59Z</time>
      </trkpt>
      <trkpt lat="45.59116" lon="6.12592">
        <ele>1120.0760498047</ele>
        <time>2010-10-07T13:54:06Z</time>
      </trkpt>
      <trkpt lat="45.59115" lon="6.12592">
        <ele>1120.4150390625</ele>
        <time>2010-10-07T13:54:12Z</time>
      </trkpt>
      <trkpt lat="45.59115" lon="6.12591">
        <ele>1120.3430175781</ele>
        <time>2010-10-07T13:54:29Z</time>
      </trkpt>
      <trkpt lat="45.59114" lon="6.1259">
        <ele>1120.416015625</ele>
        <time>2010-10-07T13:54:40Z</time>
      </trkpt>
      <trkpt lat="45.59114" lon="6.1259">
        <ele>1120.3439941406</ele>
        <time>2010-10-07T13:54:45Z</time>
      </trkpt>
      <trkpt lat="45.59114" lon="6.1259">
        <ele>1120.2829589844</ele>
        <time>2010-10-07T13:54:51Z</time>
      </trkpt>
      <trkpt lat="45.59114" lon="6.1259">
        <ele>1120.4310302734</ele>
        <time>2010-10-07T13:54:56Z</time>
      </trkpt>
      <trkpt lat="45.59114" lon="6.1259">
        <ele>1120.3990478516</ele>
        <time>2010-10-07T13:55:05Z</time>
      </trkpt>
      <trkpt lat="45.59114" lon="6.1259">
        <ele>1120.4539794922</ele>
        <time>2010-10-07T13:55:10Z</time>
      </trkpt>
      <trkpt lat="45.59112" lon="6.12589">
        <ele>1120.7259521484</ele>
        <time>2010-10-07T13:55:16Z</time>
      </trkpt>
      <trkpt lat="45.59106" lon="6.12589">
        <ele>1121.1629638672</ele>
        <time>2010-10-07T13:55:21Z</time>
      </trkpt>
      <trkpt lat="45.59095" lon="6.12588">
        <ele>1122.5439453125</ele>
        <time>2010-10-07T13:55:28Z</time>
      </trkpt>
      <trkpt lat="45.59083" lon="6.12585">
        <ele>1124.0030517578</ele>
        <time>2010-10-07T13:55:36Z</time>
      </trkpt>
      <trkpt lat="45.59073" lon="6.12584">
        <ele>1124.9379882812</ele>
        <time>2010-10-07T13:55:42Z</time>
      </trkpt>
      <trkpt lat="45.59065" lon="6.12577">
        <ele>1125.8929443359</ele>
        <time>2010-10-07T13:55:48Z</time>
      </trkpt>
      <trkpt lat="45.59057" lon="6.12569">
        <ele>1127.0710449219</ele>
        <time>2010-10-07T13:55:54Z</time>
      </trkpt>
      <trkpt lat="45.59047" lon="6.12557">
        <ele>1128.2359619141</ele>
        <time>2010-10-07T13:56:02Z</time>
      </trkpt>
      <trkpt lat="45.59039" lon="6.12549">
        <ele>1129.8170166016</ele>
        <time>2010-10-07T13:56:09Z</time>
      </trkpt>
      <trkpt lat="45.59028" lon="6.12544">
        <ele>1131.2170410156</ele>
        <time>2010-10-07T13:56:17Z</time>
      </trkpt>
      <trkpt lat="45.59015" lon="6.12539">
        <ele>1132.4489746094</ele>
        <time>2010-10-07T13:56:26Z</time>
      </trkpt>
      <trkpt lat="45.59004" lon="6.12533">
        <ele>1134.1219482422</ele>
        <time>2010-10-07T13:56:34Z</time>
      </trkpt>
      <trkpt lat="45.58995" lon="6.12523">
        <ele>1136.1219482422</ele>
        <time>2010-10-07T13:56:43Z</time>
      </trkpt>
      <trkpt lat="45.58995" lon="6.12521">
        <ele>1136.3520507812</ele>
        <time>2010-10-07T13:56:45Z</time>
      </trkpt>
      <trkpt lat="45.59" lon="6.12521">
        <ele>1136.8709716797</ele>
        <time>2010-10-07T13:56:49Z</time>
      </trkpt>
      <trkpt lat="45.59011" lon="6.12528">
        <ele>1137.8470458984</ele>
        <time>2010-10-07T13:56:59Z</time>
      </trkpt>
      <trkpt lat="45.59019" lon="6.12527">
        <ele>1138.7850341797</ele>
        <time>2010-10-07T13:57:05Z</time>
      </trkpt>
      <trkpt lat="45.59034" lon="6.12528">
        <ele>1139.9530029297</ele>
        <time>2010-10-07T13:57:15Z</time>
      </trkpt>
      <trkpt lat="45.59044" lon="6.12524">
        <ele>1140.9060058594</ele>
        <time>2010-10-07T13:57:22Z</time>
      </trkpt>
      <trkpt lat="45.59054" lon="6.12514">
        <ele>1141.7650146484</ele>
        <time>2010-10-07T13:57:30Z</time>
      </trkpt>
      <trkpt lat="45.59063" lon="6.12509">
        <ele>1142.8389892578</ele>
        <time>2010-10-07T13:57:36Z</time>
      </trkpt>
      <trkpt lat="45.59072" lon="6.1251">
        <ele>1144.4360351562</ele>
        <time>2010-10-07T13:57:43Z</time>
      </trkpt>
      <trkpt lat="45.5908" lon="6.12512">
        <ele>1145.7399902344</ele>
        <time>2010-10-07T13:57:50Z</time>
      </trkpt>
      <trkpt lat="45.59082" lon="6.12514">
        <ele>1145.7879638672</ele>
        <time>2010-10-07T13:57:52Z</time>
      </trkpt>
      <trkpt lat="45.59088" lon="6.12506">
        <ele>1147.1419677734</ele>
        <time>2010-10-07T13:57:59Z</time>
      </trkpt>
      <trkpt lat="45.59086" lon="6.12504">
        <ele>1147.2449951172</ele>
        <time>2010-10-07T13:58:01Z</time>
      </trkpt>
      <trkpt lat="45.59077" lon="6.12498">
        <ele>1147.9639892578</ele>
        <time>2010-10-07T13:58:09Z</time>
      </trkpt>
      <trkpt lat="45.59069" lon="6.12489">
        <ele>1149.1300048828</ele>
        <time>2010-10-07T13:58:17Z</time>
      </trkpt>
      <trkpt lat="45.59066" lon="6.12487">
        <ele>1149.4549560547</ele>
        <time>2010-10-07T13:58:19Z</time>
      </trkpt>
      <trkpt lat="45.5906" lon="6.12487">
        <ele>1150.2330322266</ele>
        <time>2010-10-07T13:58:24Z</time>
      </trkpt>
      <trkpt lat="45.59044" lon="6.12494">
        <ele>1151.9129638672</ele>
        <time>2010-10-07T13:58:35Z</time>
      </trkpt>
      <trkpt lat="45.59034" lon="6.12496">
        <ele>1153.3900146484</ele>
        <time>2010-10-07T13:58:42Z</time>
      </trkpt>
      <trkpt lat="45.59023" lon="6.12489">
        <ele>1154.7239990234</ele>
        <time>2010-10-07T13:58:50Z</time>
      </trkpt>
      <trkpt lat="45.59012" lon="6.12481">
        <ele>1156.0720214844</ele>
        <time>2010-10-07T13:58:58Z</time>
      </trkpt>
      <trkpt lat="45.59009" lon="6.1248">
        <ele>1156.2819824219</ele>
        <time>2010-10-07T13:59:00Z</time>
      </trkpt>
      <trkpt lat="45.59005" lon="6.12469">
        <ele>1157.6970214844</ele>
        <time>2010-10-07T13:59:08Z</time>
      </trkpt>
      <trkpt lat="45.59008" lon="6.12467">
        <ele>1157.9859619141</ele>
        <time>2010-10-07T13:59:12Z</time>
      </trkpt>
      <trkpt lat="45.59011" lon="6.12467">
        <ele>1158.4870605469</ele>
        <time>2010-10-07T13:59:15Z</time>
      </trkpt>
      <trkpt lat="45.59023" lon="6.12465">
        <ele>1159.1340332031</ele>
        <time>2010-10-07T13:59:23Z</time>
      </trkpt>
      <trkpt lat="45.59035" lon="6.12456">
        <ele>1160.2080078125</ele>
        <time>2010-10-07T13:59:31Z</time>
      </trkpt>
      <trkpt lat="45.59043" lon="6.12447">
        <ele>1161.4000244141</ele>
        <time>2010-10-07T13:59:38Z</time>
      </trkpt>
      <trkpt lat="45.59049" lon="6.12443">
        <ele>1162.2669677734</ele>
        <time>2010-10-07T13:59:42Z</time>
      </trkpt>
      <trkpt lat="45.59058" lon="6.12429">
        <ele>1163.1280517578</ele>
        <time>2010-10-07T13:59:50Z</time>
      </trkpt>
      <trkpt lat="45.59064" lon="6.12414">
        <ele>1164.6719970703</ele>
        <time>2010-10-07T13:59:58Z</time>
      </trkpt>
      <trkpt lat="45.59075" lon="6.12402">
        <ele>1166.0870361328</ele>
        <time>2010-10-07T14:00:07Z</time>
      </trkpt>
      <trkpt lat="45.59085" lon="6.12402">
        <ele>1166.9649658203</ele>
        <time>2010-10-07T14:00:14Z</time>
      </trkpt>
      <trkpt lat="45.59097" lon="6.12408">
        <ele>1168.4689941406</ele>
        <time>2010-10-07T14:00:23Z</time>
      </trkpt>
      <trkpt lat="45.59108" lon="6.12406">
        <ele>1169.5749511719</ele>
        <time>2010-10-07T14:00:30Z</time>
      </trkpt>
      <trkpt lat="45.59116" lon="6.12396">
        <ele>1170.4169921875</ele>
        <time>2010-10-07T14:00:37Z</time>
      </trkpt>
      <trkpt lat="45.59127" lon="6.12389">
        <ele>1171.6350097656</ele>
        <time>2010-10-07T14:00:45Z</time>
      </trkpt>
      <trkpt lat="45.59138" lon="6.12389">
        <ele>1173.0389404297</ele>
        <time>2010-10-07T14:00:53Z</time>
      </trkpt>
      <trkpt lat="45.5915" lon="6.12385">
        <ele>1174.4549560547</ele>
        <time>2010-10-07T14:01:02Z</time>
      </trkpt>
      <trkpt lat="45.5916" lon="6.12388">
        <ele>1175.0129394531</ele>
        <time>2010-10-07T14:01:09Z</time>
      </trkpt>
      <trkpt lat="45.59168" lon="6.12387">
        <ele>1176.4510498047</ele>
        <time>2010-10-07T14:01:14Z</time>
      </trkpt>
      <trkpt lat="45.59171" lon="6.12377">
        <ele>1177.1490478516</ele>
        <time>2010-10-07T14:01:20Z</time>
      </trkpt>
      <trkpt lat="45.59169" lon="6.12375">
        <ele>1177.3580322266</ele>
        <time>2010-10-07T14:01:22Z</time>
      </trkpt>
      <trkpt lat="45.5916" lon="6.12371">
        <ele>1179.0970458984</ele>
        <time>2010-10-07T14:01:31Z</time>
      </trkpt>
      <trkpt lat="45.59152" lon="6.12365">
        <ele>1179.7430419922</ele>
        <time>2010-10-07T14:01:37Z</time>
      </trkpt>
      <trkpt lat="45.59143" lon="6.12356">
        <ele>1180.9990234375</ele>
        <time>2010-10-07T14:01:44Z</time>
      </trkpt>
      <trkpt lat="45.59132" lon="6.12347">
        <ele>1182.1529541016</ele>
        <time>2010-10-07T14:01:52Z</time>
      </trkpt>
      <trkpt lat="45.59119" lon="6.12335">
        <ele>1183.2399902344</ele>
        <time>2010-10-07T14:02:02Z</time>
      </trkpt>
      <trkpt lat="45.59111" lon="6.12328">
        <ele>1184.1479492188</ele>
        <time>2010-10-07T14:02:08Z</time>
      </trkpt>
      <trkpt lat="45.59106" lon="6.12326">
        <ele>1184.8549804688</ele>
        <time>2010-10-07T14:02:13Z</time>
      </trkpt>
      <trkpt lat="45.59103" lon="6.12326">
        <ele>1185.1519775391</ele>
        <time>2010-10-07T14:02:15Z</time>
      </trkpt>
      <trkpt lat="45.59092" lon="6.12328">
        <ele>1185.7249755859</ele>
        <time>2010-10-07T14:02:24Z</time>
      </trkpt>
      <trkpt lat="45.59081" lon="6.12327">
        <ele>1186.166015625</ele>
        <time>2010-10-07T14:02:31Z</time>
      </trkpt>
      <trkpt lat="45.59067" lon="6.12321">
        <ele>1187.5749511719</ele>
        <time>2010-10-07T14:02:40Z</time>
      </trkpt>
      <trkpt lat="45.59047" lon="6.1232">
        <ele>1189.3540039062</ele>
        <time>2010-10-07T14:02:51Z</time>
      </trkpt>
      <trkpt lat="45.5903" lon="6.12323">
        <ele>1191.04296875</ele>
        <time>2010-10-07T14:03:01Z</time>
      </trkpt>
      <trkpt lat="45.5901" lon="6.12322">
        <ele>1193.1369628906</ele>
        <time>2010-10-07T14:03:13Z</time>
      </trkpt>
      <trkpt lat="45.58999" lon="6.1232">
        <ele>1194.4429931641</ele>
        <time>2010-10-07T14:03:20Z</time>
      </trkpt>
      <trkpt lat="45.58989" lon="6.1232">
        <ele>1195.0520019531</ele>
        <time>2010-10-07T14:03:27Z</time>
      </trkpt>
      <trkpt lat="45.58976" lon="6.12318">
        <ele>1196.8270263672</ele>
        <time>2010-10-07T14:03:36Z</time>
      </trkpt>
      <trkpt lat="45.58971" lon="6.12315">
        <ele>1198.0129394531</ele>
        <time>2010-10-07T14:03:43Z</time>
      </trkpt>
      <trkpt lat="45.58971" lon="6.12315">
        <ele>1197.9029541016</ele>
        <time>2010-10-07T14:03:52Z</time>
      </trkpt>
      <trkpt lat="45.58971" lon="6.12315">
        <ele>1197.7399902344</ele>
        <time>2010-10-07T14:04:14Z</time>
      </trkpt>
      <trkpt lat="45.58971" lon="6.12315">
        <ele>1197.9410400391</ele>
        <time>2010-10-07T14:04:18Z</time>
      </trkpt>
      <trkpt lat="45.58971" lon="6.12315">
        <ele>1197.8079833984</ele>
        <time>2010-10-07T14:04:22Z</time>
      </trkpt>
      <trkpt lat="45.58969" lon="6.12311">
        <ele>1198.4300537109</ele>
        <time>2010-10-07T14:04:41Z</time>
      </trkpt>
      <trkpt lat="45.58965" lon="6.12304">
        <ele>1199.4270019531</ele>
        <time>2010-10-07T14:04:47Z</time>
      </trkpt>
      <trkpt lat="45.58957" lon="6.12297">
        <ele>1200.3220214844</ele>
        <time>2010-10-07T14:04:53Z</time>
      </trkpt>
      <trkpt lat="45.58944" lon="6.12294">
        <ele>1201.5539550781</ele>
        <time>2010-10-07T14:05:01Z</time>
      </trkpt>
      <trkpt lat="45.58937" lon="6.12294">
        <ele>1202.3210449219</ele>
        <time>2010-10-07T14:05:06Z</time>
      </trkpt>
      <trkpt lat="45.58923" lon="6.12293">
        <ele>1203.8830566406</ele>
        <time>2010-10-07T14:05:14Z</time>
      </trkpt>
      <trkpt lat="45.58912" lon="6.12293">
        <ele>1205.1340332031</ele>
        <time>2010-10-07T14:05:21Z</time>
      </trkpt>
      <trkpt lat="45.58894" lon="6.12295">
        <ele>1207.1049804688</ele>
        <time>2010-10-07T14:05:32Z</time>
      </trkpt>
      <trkpt lat="45.58878" lon="6.12296">
        <ele>1209.0069580078</ele>
        <time>2010-10-07T14:05:42Z</time>
      </trkpt>
      <trkpt lat="45.58861" lon="6.12299">
        <ele>1210.6169433594</ele>
        <time>2010-10-07T14:05:52Z</time>
      </trkpt>
      <trkpt lat="45.58847" lon="6.12302">
        <ele>1212.083984375</ele>
        <time>2010-10-07T14:06:01Z</time>
      </trkpt>
      <trkpt lat="45.58843" lon="6.12303">
        <ele>1212.6590576172</ele>
        <time>2010-10-07T14:06:04Z</time>
      </trkpt>
      <trkpt lat="45.58838" lon="6.12296">
        <ele>1213.7180175781</ele>
        <time>2010-10-07T14:06:11Z</time>
      </trkpt>
      <trkpt lat="45.58847" lon="6.12293">
        <ele>1215.2099609375</ele>
        <time>2010-10-07T14:06:19Z</time>
      </trkpt>
      <trkpt lat="45.58857" lon="6.12289">
        <ele>1215.8459472656</ele>
        <time>2010-10-07T14:06:26Z</time>
      </trkpt>
      <trkpt lat="45.58865" lon="6.12276">
        <ele>1217.623046875</ele>
        <time>2010-10-07T14:06:34Z</time>
      </trkpt>
      <trkpt lat="45.5887" lon="6.12267">
        <ele>1218.8389892578</ele>
        <time>2010-10-07T14:06:41Z</time>
      </trkpt>
      <trkpt lat="45.58874" lon="6.12261">
        <ele>1219.7679443359</ele>
        <time>2010-10-07T14:06:46Z</time>
      </trkpt>
      <trkpt lat="45.58883" lon="6.12255">
        <ele>1221.0069580078</ele>
        <time>2010-10-07T14:06:53Z</time>
      </trkpt>
      <trkpt lat="45.58896" lon="6.1225">
        <ele>1222.1899414062</ele>
        <time>2010-10-07T14:07:02Z</time>
      </trkpt>
      <trkpt lat="45.58907" lon="6.12245">
        <ele>1223.1689453125</ele>
        <time>2010-10-07T14:07:10Z</time>
      </trkpt>
      <trkpt lat="45.5892" lon="6.12237">
        <ele>1224.5400390625</ele>
        <time>2010-10-07T14:07:19Z</time>
      </trkpt>
      <trkpt lat="45.5893" lon="6.12227">
        <ele>1225.1459960938</ele>
        <time>2010-10-07T14:07:26Z</time>
      </trkpt>
      <trkpt lat="45.58938" lon="6.12219">
        <ele>1225.9229736328</ele>
        <time>2010-10-07T14:07:33Z</time>
      </trkpt>
      <trkpt lat="45.58949" lon="6.12213">
        <ele>1227.3659667969</ele>
        <time>2010-10-07T14:07:40Z</time>
      </trkpt>
      <trkpt lat="45.58965" lon="6.12215">
        <ele>1229.2399902344</ele>
        <time>2010-10-07T14:07:49Z</time>
      </trkpt>
      <trkpt lat="45.5898" lon="6.12217">
        <ele>1230.4090576172</ele>
        <time>2010-10-07T14:07:58Z</time>
      </trkpt>
      <trkpt lat="45.58992" lon="6.12218">
        <ele>1232.2020263672</ele>
        <time>2010-10-07T14:08:06Z</time>
      </trkpt>
      <trkpt lat="45.59004" lon="6.12219">
        <ele>1233.0360107422</ele>
        <time>2010-10-07T14:08:14Z</time>
      </trkpt>
      <trkpt lat="45.59013" lon="6.12217">
        <ele>1233.95703125</ele>
        <time>2010-10-07T14:08:20Z</time>
      </trkpt>
      <trkpt lat="45.59023" lon="6.12213">
        <ele>1234.6829833984</ele>
        <time>2010-10-07T14:08:27Z</time>
      </trkpt>
      <trkpt lat="45.59025" lon="6.12212">
        <ele>1234.8990478516</ele>
        <time>2010-10-07T14:08:28Z</time>
      </trkpt>
      <trkpt lat="45.59025" lon="6.12204">
        <ele>1235.8160400391</ele>
        <time>2010-10-07T14:08:33Z</time>
      </trkpt>
      <trkpt lat="45.5902" lon="6.12206">
        <ele>1236.5250244141</ele>
        <time>2010-10-07T14:08:39Z</time>
      </trkpt>
      <trkpt lat="45.59016" lon="6.12209">
        <ele>1236.8950195312</ele>
        <time>2010-10-07T14:08:42Z</time>
      </trkpt>
      <trkpt lat="45.59006" lon="6.12211">
        <ele>1237.8759765625</ele>
        <time>2010-10-07T14:08:50Z</time>
      </trkpt>
      <trkpt lat="45.58994" lon="6.12204">
        <ele>1239.5059814453</ele>
        <time>2010-10-07T14:08:59Z</time>
      </trkpt>
      <trkpt lat="45.58982" lon="6.12193">
        <ele>1241.1290283203</ele>
        <time>2010-10-07T14:09:08Z</time>
      </trkpt>
      <trkpt lat="45.58971" lon="6.12182">
        <ele>1242.7170410156</ele>
        <time>2010-10-07T14:09:17Z</time>
      </trkpt>
      <trkpt lat="45.58962" lon="6.12174">
        <ele>1243.8819580078</ele>
        <time>2010-10-07T14:09:24Z</time>
      </trkpt>
      <trkpt lat="45.58951" lon="6.12167">
        <ele>1244.9520263672</ele>
        <time>2010-10-07T14:09:32Z</time>
      </trkpt>
      <trkpt lat="45.58937" lon="6.12163">
        <ele>1246.5059814453</ele>
        <time>2010-10-07T14:09:41Z</time>
      </trkpt>
      <trkpt lat="45.58926" lon="6.12161">
        <ele>1247.7840576172</ele>
        <time>2010-10-07T14:09:49Z</time>
      </trkpt>
      <trkpt lat="45.58917" lon="6.12161">
        <ele>1248.9520263672</ele>
        <time>2010-10-07T14:09:56Z</time>
      </trkpt>
      <trkpt lat="45.58905" lon="6.12165">
        <ele>1249.6379394531</ele>
        <time>2010-10-07T14:10:04Z</time>
      </trkpt>
      <trkpt lat="45.58893" lon="6.12171">
        <ele>1251.1999511719</ele>
        <time>2010-10-07T14:10:13Z</time>
      </trkpt>
      <trkpt lat="45.58881" lon="6.12175">
        <ele>1252.7349853516</ele>
        <time>2010-10-07T14:10:21Z</time>
      </trkpt>
      <trkpt lat="45.58869" lon="6.12179">
        <ele>1254.2430419922</ele>
        <time>2010-10-07T14:10:30Z</time>
      </trkpt>
      <trkpt lat="45.58856" lon="6.12177">
        <ele>1255.5240478516</ele>
        <time>2010-10-07T14:10:38Z</time>
      </trkpt>
      <trkpt lat="45.58841" lon="6.12172">
        <ele>1257.1829833984</ele>
        <time>2010-10-07T14:10:47Z</time>
      </trkpt>
      <trkpt lat="45.58827" lon="6.12171">
        <ele>1258.4219970703</ele>
        <time>2010-10-07T14:10:56Z</time>
      </trkpt>
      <trkpt lat="45.58817" lon="6.12174">
        <ele>1259.3430175781</ele>
        <time>2010-10-07T14:11:03Z</time>
      </trkpt>
      <trkpt lat="45.58814" lon="6.12174">
        <ele>1259.7760009766</ele>
        <time>2010-10-07T14:11:05Z</time>
      </trkpt>
      <trkpt lat="45.58809" lon="6.12166">
        <ele>1260.6529541016</ele>
        <time>2010-10-07T14:11:12Z</time>
      </trkpt>
      <trkpt lat="45.58819" lon="6.1216">
        <ele>1262.3299560547</ele>
        <time>2010-10-07T14:11:24Z</time>
      </trkpt>
      <trkpt lat="45.58831" lon="6.12153">
        <ele>1264.1340332031</ele>
        <time>2010-10-07T14:11:33Z</time>
      </trkpt>
      <trkpt lat="45.58843" lon="6.1215">
        <ele>1265.3449707031</ele>
        <time>2010-10-07T14:11:41Z</time>
      </trkpt>
      <trkpt lat="45.58856" lon="6.12144">
        <ele>1266.7430419922</ele>
        <time>2010-10-07T14:11:50Z</time>
      </trkpt>
      <trkpt lat="45.58865" lon="6.12138">
        <ele>1267.9870605469</ele>
        <time>2010-10-07T14:11:57Z</time>
      </trkpt>
      <trkpt lat="45.58868" lon="6.12136">
        <ele>1268.5</ele>
        <time>2010-10-07T14:12:02Z</time>
      </trkpt>
      <trkpt lat="45.58868" lon="6.12137">
        <ele>1268.4870605469</ele>
        <time>2010-10-07T14:12:10Z</time>
      </trkpt>
      <trkpt lat="45.5887" lon="6.12138">
        <ele>1268.7860107422</ele>
        <time>2010-10-07T14:12:20Z</time>
      </trkpt>
      <trkpt lat="45.58871" lon="6.12138">
        <ele>1268.5920410156</ele>
        <time>2010-10-07T14:12:29Z</time>
      </trkpt>
      <trkpt lat="45.58871" lon="6.12139">
        <ele>1268.6600341797</ele>
        <time>2010-10-07T14:12:37Z</time>
      </trkpt>
      <trkpt lat="45.58871" lon="6.12139">
        <ele>1268.7340087891</ele>
        <time>2010-10-07T14:12:44Z</time>
      </trkpt>
      <trkpt lat="45.58871" lon="6.12139">
        <ele>1268.9689941406</ele>
        <time>2010-10-07T14:12:55Z</time>
      </trkpt>
      <trkpt lat="45.58871" lon="6.12139">
        <ele>1268.6519775391</ele>
        <time>2010-10-07T14:13:11Z</time>
      </trkpt>
      <trkpt lat="45.58869" lon="6.12139">
        <ele>1268.7869873047</ele>
        <time>2010-10-07T14:13:32Z</time>
      </trkpt>
      <trkpt lat="45.58869" lon="6.12139">
        <ele>1269.0589599609</ele>
        <time>2010-10-07T14:13:42Z</time>
      </trkpt>
      <trkpt lat="45.5887" lon="6.12134">
        <ele>1269.2640380859</ele>
        <time>2010-10-07T14:14:06Z</time>
      </trkpt>
      <trkpt lat="45.58871" lon="6.12129">
        <ele>1269.8830566406</ele>
        <time>2010-10-07T14:14:14Z</time>
      </trkpt>
      <trkpt lat="45.58871" lon="6.12129">
        <ele>1269.2290039062</ele>
        <time>2010-10-07T14:14:25Z</time>
      </trkpt>
      <trkpt lat="45.58873" lon="6.1213">
        <ele>1269.2989501953</ele>
        <time>2010-10-07T14:15:45Z</time>
      </trkpt>
      <trkpt lat="45.58873" lon="6.1213">
        <ele>1269.4790039062</ele>
        <time>2010-10-07T14:15:46Z</time>
      </trkpt>
      <trkpt lat="45.58873" lon="6.12131">
        <ele>1269.8800048828</ele>
        <time>2010-10-07T14:16:11Z</time>
      </trkpt>
      <trkpt lat="45.58873" lon="6.12131">
        <ele>1270.0190429688</ele>
        <time>2010-10-07T14:16:13Z</time>
      </trkpt>
      <trkpt lat="45.58879" lon="6.12127">
        <ele>1270.6939697266</ele>
        <time>2010-10-07T14:16:19Z</time>
      </trkpt>
      <trkpt lat="45.58883" lon="6.12123">
        <ele>1271.0639648438</ele>
        <time>2010-10-07T14:16:22Z</time>
      </trkpt>
      <trkpt lat="45.58892" lon="6.12115">
        <ele>1271.873046875</ele>
        <time>2010-10-07T14:16:28Z</time>
      </trkpt>
      <trkpt lat="45.58898" lon="6.12111">
        <ele>1273.0520019531</ele>
        <time>2010-10-07T14:16:32Z</time>
      </trkpt>
      <trkpt lat="45.58907" lon="6.12104">
        <ele>1273.8459472656</ele>
        <time>2010-10-07T14:16:37Z</time>
      </trkpt>
      <trkpt lat="45.58917" lon="6.12095">
        <ele>1274.8289794922</ele>
        <time>2010-10-07T14:16:44Z</time>
      </trkpt>
      <trkpt lat="45.58925" lon="6.12087">
        <ele>1276.2779541016</ele>
        <time>2010-10-07T14:16:50Z</time>
      </trkpt>
      <trkpt lat="45.58938" lon="6.12079">
        <ele>1277.8900146484</ele>
        <time>2010-10-07T14:16:59Z</time>
      </trkpt>
      <trkpt lat="45.58943" lon="6.12076">
        <ele>1278.6459960938</ele>
        <time>2010-10-07T14:17:03Z</time>
      </trkpt>
      <trkpt lat="45.58951" lon="6.1207">
        <ele>1279.8199462891</ele>
        <time>2010-10-07T14:17:09Z</time>
      </trkpt>
      <trkpt lat="45.58953" lon="6.12069">
        <ele>1279.8590087891</ele>
        <time>2010-10-07T14:17:10Z</time>
      </trkpt>
      <trkpt lat="45.58968" lon="6.12061">
        <ele>1281.5679931641</ele>
        <time>2010-10-07T14:17:20Z</time>
      </trkpt>
      <trkpt lat="45.58979" lon="6.12056">
        <ele>1283.2359619141</ele>
        <time>2010-10-07T14:17:28Z</time>
      </trkpt>
      <trkpt lat="45.58989" lon="6.12053">
        <ele>1284.4530029297</ele>
        <time>2010-10-07T14:17:35Z</time>
      </trkpt>
      <trkpt lat="45.59" lon="6.12051">
        <ele>1286.0059814453</ele>
        <time>2010-10-07T14:17:43Z</time>
      </trkpt>
      <trkpt lat="45.5901" lon="6.1205">
        <ele>1287.6300048828</ele>
        <time>2010-10-07T14:17:51Z</time>
      </trkpt>
      <trkpt lat="45.59019" lon="6.12049">
        <ele>1288.6359863281</ele>
        <time>2010-10-07T14:17:58Z</time>
      </trkpt>
      <trkpt lat="45.59029" lon="6.1205">
        <ele>1290.1820068359</ele>
        <time>2010-10-07T14:18:06Z</time>
      </trkpt>
      <trkpt lat="45.5904" lon="6.1205">
        <ele>1291.7390136719</ele>
        <time>2010-10-07T14:18:15Z</time>
      </trkpt>
      <trkpt lat="45.59049" lon="6.12051">
        <ele>1292.6350097656</ele>
        <time>2010-10-07T14:18:22Z</time>
      </trkpt>
      <trkpt lat="45.59061" lon="6.12052">
        <ele>1293.7330322266</ele>
        <time>2010-10-07T14:18:31Z</time>
      </trkpt>
      <trkpt lat="45.59072" lon="6.12052">
        <ele>1295.3620605469</ele>
        <time>2010-10-07T14:18:39Z</time>
      </trkpt>
      <trkpt lat="45.59084" lon="6.12054">
        <ele>1296.5579833984</ele>
        <time>2010-10-07T14:18:47Z</time>
      </trkpt>
      <trkpt lat="45.59096" lon="6.12055">
        <ele>1298.0739746094</ele>
        <time>2010-10-07T14:18:56Z</time>
      </trkpt>
      <trkpt lat="45.59105" lon="6.12055">
        <ele>1299.3020019531</ele>
        <time>2010-10-07T14:19:03Z</time>
      </trkpt>
      <trkpt lat="45.59119" lon="6.12054">
        <ele>1300.9389648438</ele>
        <time>2010-10-07T14:19:13Z</time>
      </trkpt>
      <trkpt lat="45.59131" lon="6.12051">
        <ele>1301.9699707031</ele>
        <time>2010-10-07T14:19:22Z</time>
      </trkpt>
      <trkpt lat="45.59143" lon="6.12045">
        <ele>1303.5550537109</ele>
        <time>2010-10-07T14:19:31Z</time>
      </trkpt>
      <trkpt lat="45.59158" lon="6.12044">
        <ele>1305.0329589844</ele>
        <time>2010-10-07T14:19:41Z</time>
      </trkpt>
      <trkpt lat="45.59164" lon="6.12043">
        <ele>1306.0489501953</ele>
        <time>2010-10-07T14:19:46Z</time>
      </trkpt>
      <trkpt lat="45.59172" lon="6.1204">
        <ele>1307.0909423828</ele>
        <time>2010-10-07T14:19:52Z</time>
      </trkpt>
      <trkpt lat="45.59177" lon="6.12038">
        <ele>1308.001953125</ele>
        <time>2010-10-07T14:19:57Z</time>
      </trkpt>
      <trkpt lat="45.59181" lon="6.12038">
        <ele>1308.6579589844</ele>
        <time>2010-10-07T14:20:02Z</time>
      </trkpt>
      <trkpt lat="45.59188" lon="6.12038">
        <ele>1309.0720214844</ele>
        <time>2010-10-07T14:20:07Z</time>
      </trkpt>
      <trkpt lat="45.592" lon="6.12039">
        <ele>1310.0489501953</ele>
        <time>2010-10-07T14:20:13Z</time>
      </trkpt>
      <trkpt lat="45.59209" lon="6.12042">
        <ele>1310.7409667969</ele>
        <time>2010-10-07T14:20:19Z</time>
      </trkpt>
      <trkpt lat="45.59224" lon="6.12042">
        <ele>1311.2860107422</ele>
        <time>2010-10-07T14:20:26Z</time>
      </trkpt>
      <trkpt lat="45.5923" lon="6.12043">
        <ele>1311.2669677734</ele>
        <time>2010-10-07T14:20:30Z</time>
      </trkpt>
      <trkpt lat="45.5924" lon="6.12046">
        <ele>1311.373046875</ele>
        <time>2010-10-07T14:20:35Z</time>
      </trkpt>
      <trkpt lat="45.59251" lon="6.12051">
        <ele>1311.9449462891</ele>
        <time>2010-10-07T14:20:42Z</time>
      </trkpt>
      <trkpt lat="45.59266" lon="6.12056">
        <ele>1312.1619873047</ele>
        <time>2010-10-07T14:20:49Z</time>
      </trkpt>
      <trkpt lat="45.59276" lon="6.12061">
        <ele>1312.5469970703</ele>
        <time>2010-10-07T14:20:54Z</time>
      </trkpt>
      <trkpt lat="45.59289" lon="6.12068">
        <ele>1313.0009765625</ele>
        <time>2010-10-07T14:21:01Z</time>
      </trkpt>
      <trkpt lat="45.59302" lon="6.1207">
        <ele>1313.8959960938</ele>
        <time>2010-10-07T14:21:08Z</time>
      </trkpt>
      <trkpt lat="45.59316" lon="6.12071">
        <ele>1315.0479736328</ele>
        <time>2010-10-07T14:21:16Z</time>
      </trkpt>
      <trkpt lat="45.59327" lon="6.12074">
        <ele>1316.2810058594</ele>
        <time>2010-10-07T14:21:23Z</time>
      </trkpt>
      <trkpt lat="45.59341" lon="6.12079">
        <ele>1317.7230224609</ele>
        <time>2010-10-07T14:21:33Z</time>
      </trkpt>
      <trkpt lat="45.59357" lon="6.12082">
        <ele>1318.6929931641</ele>
        <time>2010-10-07T14:21:42Z</time>
      </trkpt>
      <trkpt lat="45.5937" lon="6.12084">
        <ele>1319.4709472656</ele>
        <time>2010-10-07T14:21:50Z</time>
      </trkpt>
      <trkpt lat="45.59385" lon="6.12085">
        <ele>1320.6770019531</ele>
        <time>2010-10-07T14:21:59Z</time>
      </trkpt>
      <trkpt lat="45.59396" lon="6.12088">
        <ele>1322.2459716797</ele>
        <time>2010-10-07T14:22:08Z</time>
      </trkpt>
      <trkpt lat="45.59406" lon="6.1209">
        <ele>1323.3399658203</ele>
        <time>2010-10-07T14:22:15Z</time>
      </trkpt>
      <trkpt lat="45.59412" lon="6.12091">
        <ele>1324.125</ele>
        <time>2010-10-07T14:22:20Z</time>
      </trkpt>
      <trkpt lat="45.59415" lon="6.12091">
        <ele>1324.7829589844</ele>
        <time>2010-10-07T14:22:27Z</time>
      </trkpt>
      <trkpt lat="45.59417" lon="6.12089">
        <ele>1325.0500488281</ele>
        <time>2010-10-07T14:22:33Z</time>
      </trkpt>
      <trkpt lat="45.59422" lon="6.12089">
        <ele>1326.3599853516</ele>
        <time>2010-10-07T14:22:40Z</time>
      </trkpt>
      <trkpt lat="45.59424" lon="6.1209">
        <ele>1327.4439697266</ele>
        <time>2010-10-07T14:22:46Z</time>
      </trkpt>
      <trkpt lat="45.59428" lon="6.12087">
        <ele>1328.8439941406</ele>
        <time>2010-10-07T14:22:53Z</time>
      </trkpt>
      <trkpt lat="45.59432" lon="6.12086">
        <ele>1329.958984375</ele>
        <time>2010-10-07T14:23:01Z</time>
      </trkpt>
      <trkpt lat="45.59435" lon="6.12085">
        <ele>1331.1650390625</ele>
        <time>2010-10-07T14:23:07Z</time>
      </trkpt>
      <trkpt lat="45.59438" lon="6.12083">
        <ele>1332.2309570312</ele>
        <time>2010-10-07T14:23:14Z</time>
      </trkpt>
      <trkpt lat="45.59441" lon="6.12084">
        <ele>1333.4320068359</ele>
        <time>2010-10-07T14:23:20Z</time>
      </trkpt>
      <trkpt lat="45.59443" lon="6.12082">
        <ele>1334.208984375</ele>
        <time>2010-10-07T14:23:26Z</time>
      </trkpt>
      <trkpt lat="45.59446" lon="6.12081">
        <ele>1335.1789550781</ele>
        <time>2010-10-07T14:23:31Z</time>
      </trkpt>
      <trkpt lat="45.59449" lon="6.1208">
        <ele>1336.1579589844</ele>
        <time>2010-10-07T14:23:36Z</time>
      </trkpt>
      <trkpt lat="45.59452" lon="6.12081">
        <ele>1336.9790039062</ele>
        <time>2010-10-07T14:23:42Z</time>
      </trkpt>
      <trkpt lat="45.59456" lon="6.1208">
        <ele>1337.79296875</ele>
        <time>2010-10-07T14:23:47Z</time>
      </trkpt>
      <trkpt lat="45.59462" lon="6.12081">
        <ele>1339.0329589844</ele>
        <time>2010-10-07T14:23:55Z</time>
      </trkpt>
      <trkpt lat="45.59468" lon="6.12081">
        <ele>1340.1300048828</ele>
        <time>2010-10-07T14:24:02Z</time>
      </trkpt>
      <trkpt lat="45.59475" lon="6.12082">
        <ele>1341.4050292969</ele>
        <time>2010-10-07T14:24:10Z</time>
      </trkpt>
      <trkpt lat="45.59478" lon="6.12082">
        <ele>1342.0269775391</ele>
        <time>2010-10-07T14:24:15Z</time>
      </trkpt>
      <trkpt lat="45.59481" lon="6.12085">
        <ele>1343.16796875</ele>
        <time>2010-10-07T14:24:22Z</time>
      </trkpt>
      <trkpt lat="45.59486" lon="6.12086">
        <ele>1344.4379882812</ele>
        <time>2010-10-07T14:24:30Z</time>
      </trkpt>
      <trkpt lat="45.59489" lon="6.12085">
        <ele>1345.3590087891</ele>
        <time>2010-10-07T14:24:36Z</time>
      </trkpt>
      <trkpt lat="45.59491" lon="6.12085">
        <ele>1346.1820068359</ele>
        <time>2010-10-07T14:24:41Z</time>
      </trkpt>
      <trkpt lat="45.59496" lon="6.12083">
        <ele>1347.6479492188</ele>
        <time>2010-10-07T14:24:48Z</time>
      </trkpt>
      <trkpt lat="45.595" lon="6.12079">
        <ele>1348.8489990234</ele>
        <time>2010-10-07T14:24:54Z</time>
      </trkpt>
      <trkpt lat="45.59503" lon="6.12079">
        <ele>1349.7769775391</ele>
        <time>2010-10-07T14:25:00Z</time>
      </trkpt>
      <trkpt lat="45.59507" lon="6.12078">
        <ele>1350.8370361328</ele>
        <time>2010-10-07T14:25:06Z</time>
      </trkpt>
      <trkpt lat="45.59512" lon="6.12079">
        <ele>1352.1330566406</ele>
        <time>2010-10-07T14:25:12Z</time>
      </trkpt>
      <trkpt lat="45.59515" lon="6.12078">
        <ele>1353.1710205078</ele>
        <time>2010-10-07T14:25:17Z</time>
      </trkpt>
      <trkpt lat="45.5952" lon="6.12078">
        <ele>1354.7280273438</ele>
        <time>2010-10-07T14:25:25Z</time>
      </trkpt>
      <trkpt lat="45.59525" lon="6.12075">
        <ele>1355.9360351562</ele>
        <time>2010-10-07T14:25:32Z</time>
      </trkpt>
      <trkpt lat="45.59528" lon="6.12075">
        <ele>1356.8039550781</ele>
        <time>2010-10-07T14:25:37Z</time>
      </trkpt>
      <trkpt lat="45.59534" lon="6.12074">
        <ele>1358.3780517578</ele>
        <time>2010-10-07T14:25:47Z</time>
      </trkpt>
      <trkpt lat="45.59538" lon="6.12073">
        <ele>1359.3740234375</ele>
        <time>2010-10-07T14:25:53Z</time>
      </trkpt>
      <trkpt lat="45.59541" lon="6.12072">
        <ele>1360.1899414062</ele>
        <time>2010-10-07T14:25:58Z</time>
      </trkpt>
      <trkpt lat="45.59548" lon="6.1207">
        <ele>1361.7130126953</ele>
        <time>2010-10-07T14:26:07Z</time>
      </trkpt>
      <trkpt lat="45.59556" lon="6.1207">
        <ele>1363.2399902344</ele>
        <time>2010-10-07T14:26:17Z</time>
      </trkpt>
      <trkpt lat="45.59563" lon="6.12069">
        <ele>1364.998046875</ele>
        <time>2010-10-07T14:26:28Z</time>
      </trkpt>
      <trkpt lat="45.59569" lon="6.12069">
        <ele>1366.5300292969</ele>
        <time>2010-10-07T14:26:38Z</time>
      </trkpt>
      <trkpt lat="45.59578" lon="6.12068">
        <ele>1368.0119628906</ele>
        <time>2010-10-07T14:26:50Z</time>
      </trkpt>
      <trkpt lat="45.59585" lon="6.12067">
        <ele>1369.29296875</ele>
        <time>2010-10-07T14:26:59Z</time>
      </trkpt>
      <trkpt lat="45.59591" lon="6.12068">
        <ele>1370.5350341797</ele>
        <time>2010-10-07T14:27:07Z</time>
      </trkpt>
      <trkpt lat="45.59598" lon="6.1207">
        <ele>1371.7490234375</ele>
        <time>2010-10-07T14:27:17Z</time>
      </trkpt>
      <trkpt lat="45.59605" lon="6.1207">
        <ele>1373.1789550781</ele>
        <time>2010-10-07T14:27:26Z</time>
      </trkpt>
      <trkpt lat="45.59611" lon="6.12071">
        <ele>1374.2850341797</ele>
        <time>2010-10-07T14:27:34Z</time>
      </trkpt>
      <trkpt lat="45.59611" lon="6.12071">
        <ele>1374.1850585938</ele>
        <time>2010-10-07T14:27:43Z</time>
      </trkpt>
      <trkpt lat="45.59615" lon="6.12072">
        <ele>1374.7449951172</ele>
        <time>2010-10-07T14:27:52Z</time>
      </trkpt>
      <trkpt lat="45.59623" lon="6.12072">
        <ele>1376.0469970703</ele>
        <time>2010-10-07T14:28:02Z</time>
      </trkpt>
      <trkpt lat="45.5963" lon="6.12073">
        <ele>1377.1240234375</ele>
        <time>2010-10-07T14:28:10Z</time>
      </trkpt>
      <trkpt lat="45.59637" lon="6.12073">
        <ele>1378.2629394531</ele>
        <time>2010-10-07T14:28:20Z</time>
      </trkpt>
      <trkpt lat="45.59641" lon="6.12073">
        <ele>1378.8050537109</ele>
        <time>2010-10-07T14:28:24Z</time>
      </trkpt>
      <trkpt lat="45.59646" lon="6.12073">
        <ele>1379.375</ele>
        <time>2010-10-07T14:28:29Z</time>
      </trkpt>
      <trkpt lat="45.5965" lon="6.12072">
        <ele>1379.8969726562</ele>
        <time>2010-10-07T14:28:37Z</time>
      </trkpt>
      <trkpt lat="45.5965" lon="6.12072">
        <ele>1380.1040039062</ele>
        <time>2010-10-07T14:28:44Z</time>
      </trkpt>
      <trkpt lat="45.5965" lon="6.12073">
        <ele>1379.8380126953</ele>
        <time>2010-10-07T14:29:04Z</time>
      </trkpt>
      <trkpt lat="45.59657" lon="6.12073">
        <ele>1380.2359619141</ele>
        <time>2010-10-07T14:29:10Z</time>
      </trkpt>
      <trkpt lat="45.59669" lon="6.1207">
        <ele>1381.7659912109</ele>
        <time>2010-10-07T14:29:19Z</time>
      </trkpt>
      <trkpt lat="45.5968" lon="6.12068">
        <ele>1382.5930175781</ele>
        <time>2010-10-07T14:29:27Z</time>
      </trkpt>
      <trkpt lat="45.5969" lon="6.12065">
        <ele>1383.4949951172</ele>
        <time>2010-10-07T14:29:35Z</time>
      </trkpt>
      <trkpt lat="45.59692" lon="6.12065">
        <ele>1383.6650390625</ele>
        <time>2010-10-07T14:29:36Z</time>
      </trkpt>
      <trkpt lat="45.59705" lon="6.12062">
        <ele>1385.5009765625</ele>
        <time>2010-10-07T14:29:46Z</time>
      </trkpt>
      <trkpt lat="45.59716" lon="6.12063">
        <ele>1386.5279541016</ele>
        <time>2010-10-07T14:29:54Z</time>
      </trkpt>
      <trkpt lat="45.59732" lon="6.12067">
        <ele>1388.0069580078</ele>
        <time>2010-10-07T14:30:05Z</time>
      </trkpt>
      <trkpt lat="45.59742" lon="6.1207">
        <ele>1389.0379638672</ele>
        <time>2010-10-07T14:30:12Z</time>
      </trkpt>
      <trkpt lat="45.59756" lon="6.12069">
        <ele>1390.0360107422</ele>
        <time>2010-10-07T14:30:22Z</time>
      </trkpt>
      <trkpt lat="45.59771" lon="6.12069">
        <ele>1390.9110107422</ele>
        <time>2010-10-07T14:30:31Z</time>
      </trkpt>
      <trkpt lat="45.59787" lon="6.12069">
        <ele>1391.8489990234</ele>
        <time>2010-10-07T14:30:40Z</time>
      </trkpt>
      <trkpt lat="45.598" lon="6.12068">
        <ele>1392.8079833984</ele>
        <time>2010-10-07T14:30:48Z</time>
      </trkpt>
      <trkpt lat="45.59813" lon="6.12072">
        <ele>1394.1040039062</ele>
        <time>2010-10-07T14:30:56Z</time>
      </trkpt>
      <trkpt lat="45.59825" lon="6.12078">
        <ele>1395.5810546875</ele>
        <time>2010-10-07T14:31:04Z</time>
      </trkpt>
      <trkpt lat="45.59834" lon="6.12086">
        <ele>1396.6689453125</ele>
        <time>2010-10-07T14:31:11Z</time>
      </trkpt>
      <trkpt lat="45.59848" lon="6.12091">
        <ele>1397.8220214844</ele>
        <time>2010-10-07T14:31:20Z</time>
      </trkpt>
      <trkpt lat="45.59864" lon="6.12092">
        <ele>1399.2869873047</ele>
        <time>2010-10-07T14:31:30Z</time>
      </trkpt>
      <trkpt lat="45.59875" lon="6.12096">
        <ele>1400.3310546875</ele>
        <time>2010-10-07T14:31:37Z</time>
      </trkpt>
      <trkpt lat="45.59887" lon="6.12097">
        <ele>1401.2769775391</ele>
        <time>2010-10-07T14:31:45Z</time>
      </trkpt>
      <trkpt lat="45.59889" lon="6.1209">
        <ele>1401.8039550781</ele>
        <time>2010-10-07T14:31:51Z</time>
      </trkpt>
      <trkpt lat="45.59887" lon="6.12086">
        <ele>1403.1519775391</ele>
        <time>2010-10-07T14:31:58Z</time>
      </trkpt>
      <trkpt lat="45.59883" lon="6.12078">
        <ele>1404.9050292969</ele>
        <time>2010-10-07T14:32:12Z</time>
      </trkpt>
      <trkpt lat="45.59879" lon="6.12072">
        <ele>1406.0340576172</ele>
        <time>2010-10-07T14:32:20Z</time>
      </trkpt>
      <trkpt lat="45.59875" lon="6.12068">
        <ele>1407.0989990234</ele>
        <time>2010-10-07T14:32:25Z</time>
      </trkpt>
      <trkpt lat="45.59871" lon="6.12063">
        <ele>1408.5570068359</ele>
        <time>2010-10-07T14:32:34Z</time>
      </trkpt>
      <trkpt lat="45.59868" lon="6.12057">
        <ele>1409.875</ele>
        <time>2010-10-07T14:32:41Z</time>
      </trkpt>
      <trkpt lat="45.59864" lon="6.12049">
        <ele>1410.7729492188</ele>
        <time>2010-10-07T14:32:49Z</time>
      </trkpt>
      <trkpt lat="45.59861" lon="6.12039">
        <ele>1413.0179443359</ele>
        <time>2010-10-07T14:33:02Z</time>
      </trkpt>
      <trkpt lat="45.59858" lon="6.12033">
        <ele>1413.9510498047</ele>
        <time>2010-10-07T14:33:08Z</time>
      </trkpt>
      <trkpt lat="45.59852" lon="6.12021">
        <ele>1415.3179931641</ele>
        <time>2010-10-07T14:33:18Z</time>
      </trkpt>
      <trkpt lat="45.59849" lon="6.12018">
        <ele>1416.2409667969</ele>
        <time>2010-10-07T14:33:24Z</time>
      </trkpt>
      <trkpt lat="45.59844" lon="6.12015">
        <ele>1417.5520019531</ele>
        <time>2010-10-07T14:33:30Z</time>
      </trkpt>
      <trkpt lat="45.59841" lon="6.12011">
        <ele>1418.1550292969</ele>
        <time>2010-10-07T14:33:35Z</time>
      </trkpt>
      <trkpt lat="45.59838" lon="6.12008">
        <ele>1419.1789550781</ele>
        <time>2010-10-07T14:33:41Z</time>
      </trkpt>
      <trkpt lat="45.59833" lon="6.12006">
        <ele>1420.8509521484</ele>
        <time>2010-10-07T14:33:52Z</time>
      </trkpt>
      <trkpt lat="45.59829" lon="6.12002">
        <ele>1421.833984375</ele>
        <time>2010-10-07T14:33:57Z</time>
      </trkpt>
      <trkpt lat="45.59827" lon="6.12">
        <ele>1422.7889404297</ele>
        <time>2010-10-07T14:34:03Z</time>
      </trkpt>
      <trkpt lat="45.59824" lon="6.11997">
        <ele>1424.0539550781</ele>
        <time>2010-10-07T14:34:08Z</time>
      </trkpt>
      <trkpt lat="45.59821" lon="6.11994">
        <ele>1425.0670166016</ele>
        <time>2010-10-07T14:34:14Z</time>
      </trkpt>
      <trkpt lat="45.59821" lon="6.11994">
        <ele>1425.4379882812</ele>
        <time>2010-10-07T14:34:17Z</time>
      </trkpt>
      <trkpt lat="45.59817" lon="6.11991">
        <ele>1426.5849609375</ele>
        <time>2010-10-07T14:34:23Z</time>
      </trkpt>
      <trkpt lat="45.59814" lon="6.11988">
        <ele>1427.1879882812</ele>
        <time>2010-10-07T14:34:28Z</time>
      </trkpt>
      <trkpt lat="45.59811" lon="6.11982">
        <ele>1428.6080322266</ele>
        <time>2010-10-07T14:34:36Z</time>
      </trkpt>
      <trkpt lat="45.59809" lon="6.11973">
        <ele>1430.6240234375</ele>
        <time>2010-10-07T14:34:48Z</time>
      </trkpt>
      <trkpt lat="45.59808" lon="6.11967">
        <ele>1431.4790039062</ele>
        <time>2010-10-07T14:34:54Z</time>
      </trkpt>
      <trkpt lat="45.59807" lon="6.11961">
        <ele>1432.8349609375</ele>
        <time>2010-10-07T14:35:02Z</time>
      </trkpt>
      <trkpt lat="45.59805" lon="6.11956">
        <ele>1433.6989746094</ele>
        <time>2010-10-07T14:35:08Z</time>
      </trkpt>
      <trkpt lat="45.59803" lon="6.11953">
        <ele>1434.3020019531</ele>
        <time>2010-10-07T14:35:11Z</time>
      </trkpt>
      <trkpt lat="45.598" lon="6.11946">
        <ele>1435.5920410156</ele>
        <time>2010-10-07T14:35:18Z</time>
      </trkpt>
      <trkpt lat="45.59796" lon="6.1194">
        <ele>1437.2020263672</ele>
        <time>2010-10-07T14:35:27Z</time>
      </trkpt>
      <trkpt lat="45.59793" lon="6.11936">
        <ele>1438.1829833984</ele>
        <time>2010-10-07T14:35:33Z</time>
      </trkpt>
      <trkpt lat="45.5979" lon="6.11931">
        <ele>1439.623046875</ele>
        <time>2010-10-07T14:35:41Z</time>
      </trkpt>
      <trkpt lat="45.59786" lon="6.11924">
        <ele>1440.8050537109</ele>
        <time>2010-10-07T14:35:49Z</time>
      </trkpt>
      <trkpt lat="45.59782" lon="6.11919">
        <ele>1442.2879638672</ele>
        <time>2010-10-07T14:35:57Z</time>
      </trkpt>
      <trkpt lat="45.59779" lon="6.11914">
        <ele>1443.3830566406</ele>
        <time>2010-10-07T14:36:04Z</time>
      </trkpt>
      <trkpt lat="45.59777" lon="6.11907">
        <ele>1444.6059570312</ele>
        <time>2010-10-07T14:36:11Z</time>
      </trkpt>
      <trkpt lat="45.59773" lon="6.11901">
        <ele>1445.7919921875</ele>
        <time>2010-10-07T14:36:20Z</time>
      </trkpt>
      <trkpt lat="45.59768" lon="6.11893">
        <ele>1446.9289550781</ele>
        <time>2010-10-07T14:36:29Z</time>
      </trkpt>
      <trkpt lat="45.59761" lon="6.11886">
        <ele>1448.0200195312</ele>
        <time>2010-10-07T14:36:38Z</time>
      </trkpt>
      <trkpt lat="45.5976" lon="6.11885">
        <ele>1448.5489501953</ele>
        <time>2010-10-07T14:36:45Z</time>
      </trkpt>
      <trkpt lat="45.59755" lon="6.11879">
        <ele>1448.9100341797</ele>
        <time>2010-10-07T14:36:50Z</time>
      </trkpt>
      <trkpt lat="45.59739" lon="6.11866">
        <ele>1451.3330078125</ele>
        <time>2010-10-07T14:37:02Z</time>
      </trkpt>
      <trkpt lat="45.5973" lon="6.1186">
        <ele>1452.8830566406</ele>
        <time>2010-10-07T14:37:09Z</time>
      </trkpt>
      <trkpt lat="45.59718" lon="6.11856">
        <ele>1454.6800537109</ele>
        <time>2010-10-07T14:37:18Z</time>
      </trkpt>
      <trkpt lat="45.59707" lon="6.11853">
        <ele>1455.7740478516</ele>
        <time>2010-10-07T14:37:27Z</time>
      </trkpt>
      <trkpt lat="45.59695" lon="6.11846">
        <ele>1456.6359863281</ele>
        <time>2010-10-07T14:37:36Z</time>
      </trkpt>
      <trkpt lat="45.59687" lon="6.11836">
        <ele>1457.5729980469</ele>
        <time>2010-10-07T14:37:44Z</time>
      </trkpt>
      <trkpt lat="45.59674" lon="6.11821">
        <ele>1459.2829589844</ele>
        <time>2010-10-07T14:37:56Z</time>
      </trkpt>
      <trkpt lat="45.59662" lon="6.11807">
        <ele>1461.0600585938</ele>
        <time>2010-10-07T14:38:07Z</time>
      </trkpt>
      <trkpt lat="45.59649" lon="6.11795">
        <ele>1463.4840087891</ele>
        <time>2010-10-07T14:38:18Z</time>
      </trkpt>
      <trkpt lat="45.59638" lon="6.11784">
        <ele>1464.9200439453</ele>
        <time>2010-10-07T14:38:28Z</time>
      </trkpt>
      <trkpt lat="45.59628" lon="6.11776">
        <ele>1465.6049804688</ele>
        <time>2010-10-07T14:38:36Z</time>
      </trkpt>
      <trkpt lat="45.5962" lon="6.11767">
        <ele>1466.3520507812</ele>
        <time>2010-10-07T14:38:43Z</time>
      </trkpt>
      <trkpt lat="45.59609" lon="6.11754">
        <ele>1467.3120117188</ele>
        <time>2010-10-07T14:38:52Z</time>
      </trkpt>
      <trkpt lat="45.59601" lon="6.1174">
        <ele>1468.2330322266</ele>
        <time>2010-10-07T14:39:00Z</time>
      </trkpt>
      <trkpt lat="45.59592" lon="6.11728">
        <ele>1469.4060058594</ele>
        <time>2010-10-07T14:39:08Z</time>
      </trkpt>
      <trkpt lat="45.59585" lon="6.11714">
        <ele>1470.5980224609</ele>
        <time>2010-10-07T14:39:16Z</time>
      </trkpt>
      <trkpt lat="45.59583" lon="6.11694">
        <ele>1470.7349853516</ele>
        <time>2010-10-07T14:39:25Z</time>
      </trkpt>
      <trkpt lat="45.5958" lon="6.11678">
        <ele>1471.5159912109</ele>
        <time>2010-10-07T14:39:33Z</time>
      </trkpt>
      <trkpt lat="45.5958" lon="6.11674">
        <ele>1472.1600341797</ele>
        <time>2010-10-07T14:39:39Z</time>
      </trkpt>
      <trkpt lat="45.59579" lon="6.11667">
        <ele>1473.3959960938</ele>
        <time>2010-10-07T14:39:48Z</time>
      </trkpt>
      <trkpt lat="45.59578" lon="6.11657">
        <ele>1475.3089599609</ele>
        <time>2010-10-07T14:39:58Z</time>
      </trkpt>
      <trkpt lat="45.59578" lon="6.11647">
        <ele>1477.8389892578</ele>
        <time>2010-10-07T14:40:09Z</time>
      </trkpt>
      <trkpt lat="45.59578" lon="6.11639">
        <ele>1479.0469970703</ele>
        <time>2010-10-07T14:40:17Z</time>
      </trkpt>
      <trkpt lat="45.59579" lon="6.11632">
        <ele>1480.4320068359</ele>
        <time>2010-10-07T14:40:25Z</time>
      </trkpt>
      <trkpt lat="45.59579" lon="6.11622">
        <ele>1481.4720458984</ele>
        <time>2010-10-07T14:40:34Z</time>
      </trkpt>
      <trkpt lat="45.5958" lon="6.11608">
        <ele>1483.4890136719</ele>
        <time>2010-10-07T14:40:45Z</time>
      </trkpt>
      <trkpt lat="45.5958" lon="6.11598">
        <ele>1484.9849853516</ele>
        <time>2010-10-07T14:40:55Z</time>
      </trkpt>
      <trkpt lat="45.5958" lon="6.11595">
        <ele>1485.9940185547</ele>
        <time>2010-10-07T14:41:05Z</time>
      </trkpt>
      <trkpt lat="45.59581" lon="6.11595">
        <ele>1485.6839599609</ele>
        <time>2010-10-07T14:41:18Z</time>
      </trkpt>
      <trkpt lat="45.59581" lon="6.1159">
        <ele>1486.7609863281</ele>
        <time>2010-10-07T14:41:31Z</time>
      </trkpt>
      <trkpt lat="45.59582" lon="6.11583">
        <ele>1488.1729736328</ele>
        <time>2010-10-07T14:41:39Z</time>
      </trkpt>
      <trkpt lat="45.59583" lon="6.11576">
        <ele>1489.9820556641</ele>
        <time>2010-10-07T14:41:48Z</time>
      </trkpt>
      <trkpt lat="45.59585" lon="6.11568">
        <ele>1491.8149414062</ele>
        <time>2010-10-07T14:41:57Z</time>
      </trkpt>
      <trkpt lat="45.59586" lon="6.11564">
        <ele>1492.5539550781</ele>
        <time>2010-10-07T14:42:01Z</time>
      </trkpt>
      <trkpt lat="45.59588" lon="6.11557">
        <ele>1494.2490234375</ele>
        <time>2010-10-07T14:42:10Z</time>
      </trkpt>
      <trkpt lat="45.5959" lon="6.11551">
        <ele>1496.0689697266</ele>
        <time>2010-10-07T14:42:21Z</time>
      </trkpt>
      <trkpt lat="45.59592" lon="6.11547">
        <ele>1496.8389892578</ele>
        <time>2010-10-07T14:42:32Z</time>
      </trkpt>
      <trkpt lat="45.59594" lon="6.11542">
        <ele>1497.8249511719</ele>
        <time>2010-10-07T14:42:37Z</time>
      </trkpt>
      <trkpt lat="45.59597" lon="6.11534">
        <ele>1499.3470458984</ele>
        <time>2010-10-07T14:42:46Z</time>
      </trkpt>
      <trkpt lat="45.596" lon="6.11527">
        <ele>1500.6479492188</ele>
        <time>2010-10-07T14:42:55Z</time>
      </trkpt>
      <trkpt lat="45.596" lon="6.11517">
        <ele>1501.6490478516</ele>
        <time>2010-10-07T14:43:04Z</time>
      </trkpt>
      <trkpt lat="45.59595" lon="6.11511">
        <ele>1502.4520263672</ele>
        <time>2010-10-07T14:43:12Z</time>
      </trkpt>
      <trkpt lat="45.59586" lon="6.11505">
        <ele>1503.4610595703</ele>
        <time>2010-10-07T14:43:22Z</time>
      </trkpt>
      <trkpt lat="45.59577" lon="6.11498">
        <ele>1504.9360351562</ele>
        <time>2010-10-07T14:43:33Z</time>
      </trkpt>
      <trkpt lat="45.59569" lon="6.11492">
        <ele>1506.2530517578</ele>
        <time>2010-10-07T14:43:43Z</time>
      </trkpt>
      <trkpt lat="45.59559" lon="6.11485">
        <ele>1508.5970458984</ele>
        <time>2010-10-07T14:43:56Z</time>
      </trkpt>
      <trkpt lat="45.59552" lon="6.1148">
        <ele>1510.1870117188</ele>
        <time>2010-10-07T14:44:05Z</time>
      </trkpt>
      <trkpt lat="45.59543" lon="6.11473">
        <ele>1512.3580322266</ele>
        <time>2010-10-07T14:44:18Z</time>
      </trkpt>
      <trkpt lat="45.59536" lon="6.11468">
        <ele>1513.8489990234</ele>
        <time>2010-10-07T14:44:28Z</time>
      </trkpt>
      <trkpt lat="45.59528" lon="6.11461">
        <ele>1515.3840332031</ele>
        <time>2010-10-07T14:44:39Z</time>
      </trkpt>
      <trkpt lat="45.59518" lon="6.11453">
        <ele>1517.6030273438</ele>
        <time>2010-10-07T14:44:51Z</time>
      </trkpt>
      <trkpt lat="45.59509" lon="6.11447">
        <ele>1519.3520507812</ele>
        <time>2010-10-07T14:45:03Z</time>
      </trkpt>
      <trkpt lat="45.59502" lon="6.11441">
        <ele>1521.0250244141</ele>
        <time>2010-10-07T14:45:13Z</time>
      </trkpt>
      <trkpt lat="45.59494" lon="6.11435">
        <ele>1522.7320556641</ele>
        <time>2010-10-07T14:45:24Z</time>
      </trkpt>
      <trkpt lat="45.59485" lon="6.11426">
        <ele>1524.7419433594</ele>
        <time>2010-10-07T14:45:37Z</time>
      </trkpt>
      <trkpt lat="45.59477" lon="6.1142">
        <ele>1526.6519775391</ele>
        <time>2010-10-07T14:45:48Z</time>
      </trkpt>
      <trkpt lat="45.5947" lon="6.11415">
        <ele>1528.1989746094</ele>
        <time>2010-10-07T14:45:58Z</time>
      </trkpt>
      <trkpt lat="45.59463" lon="6.11411">
        <ele>1530.0789794922</ele>
        <time>2010-10-07T14:46:08Z</time>
      </trkpt>
      <trkpt lat="45.59458" lon="6.11406">
        <ele>1531.5350341797</ele>
        <time>2010-10-07T14:46:16Z</time>
      </trkpt>
      <trkpt lat="45.59451" lon="6.114">
        <ele>1533.2010498047</ele>
        <time>2010-10-07T14:46:27Z</time>
      </trkpt>
      <trkpt lat="45.59447" lon="6.11398">
        <ele>1533.5889892578</ele>
        <time>2010-10-07T14:46:32Z</time>
      </trkpt>
      <trkpt lat="45.59446" lon="6.11398">
        <ele>1533.7960205078</ele>
        <time>2010-10-07T14:46:34Z</time>
      </trkpt>
      <trkpt lat="45.59436" lon="6.11392">
        <ele>1534.1850585938</ele>
        <time>2010-10-07T14:46:44Z</time>
      </trkpt>
      <trkpt lat="45.59426" lon="6.11389">
        <ele>1534.2609863281</ele>
        <time>2010-10-07T14:46:53Z</time>
      </trkpt>
      <trkpt lat="45.59414" lon="6.11385">
        <ele>1534.3869628906</ele>
        <time>2010-10-07T14:47:04Z</time>
      </trkpt>
      <trkpt lat="45.59405" lon="6.11386">
        <ele>1534.3399658203</ele>
        <time>2010-10-07T14:47:13Z</time>
      </trkpt>
      <trkpt lat="45.594" lon="6.11384">
        <ele>1534.4460449219</ele>
        <time>2010-10-07T14:47:19Z</time>
      </trkpt>
      <trkpt lat="45.59398" lon="6.11384">
        <ele>1534.5</ele>
        <time>2010-10-07T14:47:24Z</time>
      </trkpt>
      <trkpt lat="45.59398" lon="6.11384">
        <ele>1534.5350341797</ele>
        <time>2010-10-07T14:47:56Z</time>
      </trkpt>
      <trkpt lat="45.59398" lon="6.11384">
        <ele>1534.5889892578</ele>
        <time>2010-10-07T14:47:57Z</time>
      </trkpt>
      <trkpt lat="45.59398" lon="6.11384">
        <ele>1534.6359863281</ele>
        <time>2010-10-07T14:48:03Z</time>
      </trkpt>
      <trkpt lat="45.59399" lon="6.11382">
        <ele>1536.2829589844</ele>
        <time>2010-10-07T14:53:39Z</time>
      </trkpt>
      <trkpt lat="45.59398" lon="6.1138">
        <ele>1536.5789794922</ele>
        <time>2010-10-07T14:54:50Z</time>
      </trkpt>
      <trkpt lat="45.59398" lon="6.1138">
        <ele>1536.4699707031</ele>
        <time>2010-10-07T14:54:53Z</time>
      </trkpt>
      <trkpt lat="45.59394" lon="6.11372">
        <ele>1536.0529785156</ele>
        <time>2010-10-07T14:54:58Z</time>
      </trkpt>
      <trkpt lat="45.59386" lon="6.11355">
        <ele>1535.3840332031</ele>
        <time>2010-10-07T14:55:05Z</time>
      </trkpt>
      <trkpt lat="45.5938" lon="6.11343">
        <ele>1534.6669921875</ele>
        <time>2010-10-07T14:55:08Z</time>
      </trkpt>
      <trkpt lat="45.59356" lon="6.11319">
        <ele>1531.4350585938</ele>
        <time>2010-10-07T14:55:14Z</time>
      </trkpt>
      <trkpt lat="45.5932" lon="6.1129">
        <ele>1524.1240234375</ele>
        <time>2010-10-07T14:55:19Z</time>
      </trkpt>
      <trkpt lat="45.59299" lon="6.11265">
        <ele>1522.25</ele>
        <time>2010-10-07T14:55:22Z</time>
      </trkpt>
      <trkpt lat="45.59276" lon="6.11241">
        <ele>1524.373046875</ele>
        <time>2010-10-07T14:55:26Z</time>
      </trkpt>
      <trkpt lat="45.59262" lon="6.11224">
        <ele>1527.0849609375</ele>
        <time>2010-10-07T14:55:30Z</time>
      </trkpt>
      <trkpt lat="45.59251" lon="6.11203">
        <ele>1527.7750244141</ele>
        <time>2010-10-07T14:55:36Z</time>
      </trkpt>
      <trkpt lat="45.59233" lon="6.11183">
        <ele>1527.0439453125</ele>
        <time>2010-10-07T14:55:42Z</time>
      </trkpt>
      <trkpt lat="45.59215" lon="6.1117">
        <ele>1525.0529785156</ele>
        <time>2010-10-07T14:55:46Z</time>
      </trkpt>
      <trkpt lat="45.59202" lon="6.11159">
        <ele>1521.4649658203</ele>
        <time>2010-10-07T14:55:48Z</time>
      </trkpt>
      <trkpt lat="45.5917" lon="6.11139">
        <ele>1514.7659912109</ele>
        <time>2010-10-07T14:55:52Z</time>
      </trkpt>
      <trkpt lat="45.59131" lon="6.11109">
        <ele>1509.6610107422</ele>
        <time>2010-10-07T14:55:57Z</time>
      </trkpt>
      <trkpt lat="45.59124" lon="6.11103">
        <ele>1509.4350585938</ele>
        <time>2010-10-07T14:55:58Z</time>
      </trkpt>
      <trkpt lat="45.59117" lon="6.11098">
        <ele>1509.0310058594</ele>
        <time>2010-10-07T14:55:59Z</time>
      </trkpt>
      <trkpt lat="45.59074" lon="6.11076">
        <ele>1504.2220458984</ele>
        <time>2010-10-07T14:56:05Z</time>
      </trkpt>
      <trkpt lat="45.59039" lon="6.11056">
        <ele>1499.6860351562</ele>
        <time>2010-10-07T14:56:10Z</time>
      </trkpt>
      <trkpt lat="45.59007" lon="6.11047">
        <ele>1494.8669433594</ele>
        <time>2010-10-07T14:56:14Z</time>
      </trkpt>
      <trkpt lat="45.58984" lon="6.11047">
        <ele>1492.4470214844</ele>
        <time>2010-10-07T14:56:17Z</time>
      </trkpt>
      <trkpt lat="45.58946" lon="6.11049">
        <ele>1487.8370361328</ele>
        <time>2010-10-07T14:56:22Z</time>
      </trkpt>
      <trkpt lat="45.5894" lon="6.11051">
        <ele>1487.1510009766</ele>
        <time>2010-10-07T14:56:23Z</time>
      </trkpt>
      <trkpt lat="45.58915" lon="6.11052">
        <ele>1483.0300292969</ele>
        <time>2010-10-07T14:56:27Z</time>
      </trkpt>
      <trkpt lat="45.58891" lon="6.11047">
        <ele>1475.5419921875</ele>
        <time>2010-10-07T14:56:31Z</time>
      </trkpt>
      <trkpt lat="45.58862" lon="6.11039">
        <ele>1467.4639892578</ele>
        <time>2010-10-07T14:56:36Z</time>
      </trkpt>
      <trkpt lat="45.58857" lon="6.11035">
        <ele>1465.5500488281</ele>
        <time>2010-10-07T14:56:37Z</time>
      </trkpt>
      <trkpt lat="45.58831" lon="6.11023">
        <ele>1456.4890136719</ele>
        <time>2010-10-07T14:56:42Z</time>
      </trkpt>
      <trkpt lat="45.58801" lon="6.11007">
        <ele>1443.2530517578</ele>
        <time>2010-10-07T14:56:47Z</time>
      </trkpt>
      <trkpt lat="45.5878" lon="6.10994">
        <ele>1433.2239990234</ele>
        <time>2010-10-07T14:56:50Z</time>
      </trkpt>
      <trkpt lat="45.58727" lon="6.10972">
        <ele>1425.1190185547</ele>
        <time>2010-10-07T14:56:56Z</time>
      </trkpt>
      <trkpt lat="45.58685" lon="6.10943">
        <ele>1406.2650146484</ele>
        <time>2010-10-07T14:57:01Z</time>
      </trkpt>
      <trkpt lat="45.58646" lon="6.10911">
        <ele>1393.1979980469</ele>
        <time>2010-10-07T14:57:05Z</time>
      </trkpt>
      <trkpt lat="45.58614" lon="6.10882">
        <ele>1387.4539794922</ele>
        <time>2010-10-07T14:57:09Z</time>
      </trkpt>
      <trkpt lat="45.58578" lon="6.10854">
        <ele>1378.4949951172</ele>
        <time>2010-10-07T14:57:14Z</time>
      </trkpt>
      <trkpt lat="45.58553" lon="6.10837">
        <ele>1368.0920410156</ele>
        <time>2010-10-07T14:57:17Z</time>
      </trkpt>
      <trkpt lat="45.58524" lon="6.10819">
        <ele>1361.2409667969</ele>
        <time>2010-10-07T14:57:20Z</time>
      </trkpt>
      <trkpt lat="45.58495" lon="6.10793">
        <ele>1357.8790283203</ele>
        <time>2010-10-07T14:57:24Z</time>
      </trkpt>
      <trkpt lat="45.58477" lon="6.10767">
        <ele>1356.2349853516</ele>
        <time>2010-10-07T14:57:27Z</time>
      </trkpt>
      <trkpt lat="45.58472" lon="6.10741">
        <ele>1354.2989501953</ele>
        <time>2010-10-07T14:57:30Z</time>
      </trkpt>
      <trkpt lat="45.58461" lon="6.10706">
        <ele>1350.6040039062</ele>
        <time>2010-10-07T14:57:34Z</time>
      </trkpt>
      <trkpt lat="45.58451" lon="6.10683">
        <ele>1350.7490234375</ele>
        <time>2010-10-07T14:57:38Z</time>
      </trkpt>
      <trkpt lat="45.58447" lon="6.10664">
        <ele>1349.2750244141</ele>
        <time>2010-10-07T14:57:42Z</time>
      </trkpt>
      <trkpt lat="45.58447" lon="6.10642">
        <ele>1349.0350341797</ele>
        <time>2010-10-07T14:57:49Z</time>
      </trkpt>
      <trkpt lat="45.5845" lon="6.10625">
        <ele>1349.1800537109</ele>
        <time>2010-10-07T14:57:54Z</time>
      </trkpt>
      <trkpt lat="45.58459" lon="6.10607">
        <ele>1348.7270507812</ele>
        <time>2010-10-07T14:58:00Z</time>
      </trkpt>
      <trkpt lat="45.58474" lon="6.10603">
        <ele>1346.2750244141</ele>
        <time>2010-10-07T14:58:04Z</time>
      </trkpt>
      <trkpt lat="45.58506" lon="6.10601">
        <ele>1341.1989746094</ele>
        <time>2010-10-07T14:58:10Z</time>
      </trkpt>
      <trkpt lat="45.58535" lon="6.10608">
        <ele>1333.2600097656</ele>
        <time>2010-10-07T14:58:16Z</time>
      </trkpt>
      <trkpt lat="45.58546" lon="6.10601">
        <ele>1330.3270263672</ele>
        <time>2010-10-07T14:58:20Z</time>
      </trkpt>
      <trkpt lat="45.58545" lon="6.10592">
        <ele>1328.9300537109</ele>
        <time>2010-10-07T14:58:22Z</time>
      </trkpt>
      <trkpt lat="45.58537" lon="6.10579">
        <ele>1326.2399902344</ele>
        <time>2010-10-07T14:58:25Z</time>
      </trkpt>
      <trkpt lat="45.58513" lon="6.10558">
        <ele>1318.6059570312</ele>
        <time>2010-10-07T14:58:29Z</time>
      </trkpt>
      <trkpt lat="45.5848" lon="6.10525">
        <ele>1304.7619628906</ele>
        <time>2010-10-07T14:58:34Z</time>
      </trkpt>
      <trkpt lat="45.58456" lon="6.10497">
        <ele>1299.7740478516</ele>
        <time>2010-10-07T14:58:37Z</time>
      </trkpt>
      <trkpt lat="45.58416" lon="6.10444">
        <ele>1290.8249511719</ele>
        <time>2010-10-07T14:58:42Z</time>
      </trkpt>
      <trkpt lat="45.58381" lon="6.1039">
        <ele>1285.0679931641</ele>
        <time>2010-10-07T14:58:47Z</time>
      </trkpt>
      <trkpt lat="45.5835" lon="6.10333">
        <ele>1277.08203125</ele>
        <time>2010-10-07T14:58:52Z</time>
      </trkpt>
      <trkpt lat="45.58343" lon="6.1032">
        <ele>1275.8360595703</ele>
        <time>2010-10-07T14:58:53Z</time>
      </trkpt>
      <trkpt lat="45.58307" lon="6.10275">
        <ele>1265.7209472656</ele>
        <time>2010-10-07T14:58:58Z</time>
      </trkpt>
      <trkpt lat="45.58274" lon="6.10239">
        <ele>1262.54296875</ele>
        <time>2010-10-07T14:59:02Z</time>
      </trkpt>
      <trkpt lat="45.58248" lon="6.1023">
        <ele>1266.2760009766</ele>
        <time>2010-10-07T14:59:06Z</time>
      </trkpt>
      <trkpt lat="45.58244" lon="6.1023">
        <ele>1266.8239746094</ele>
        <time>2010-10-07T14:59:07Z</time>
      </trkpt>
      <trkpt lat="45.58228" lon="6.10232">
        <ele>1269.5059814453</ele>
        <time>2010-10-07T14:59:12Z</time>
      </trkpt>
      <trkpt lat="45.58218" lon="6.10236">
        <ele>1271.0279541016</ele>
        <time>2010-10-07T14:59:17Z</time>
      </trkpt>
      <trkpt lat="45.58214" lon="6.10238">
        <ele>1271.8310546875</ele>
        <time>2010-10-07T14:59:20Z</time>
      </trkpt>
      <trkpt lat="45.58204" lon="6.10241">
        <ele>1272.8540039062</ele>
        <time>2010-10-07T14:59:28Z</time>
      </trkpt>
      <trkpt lat="45.58195" lon="6.10244">
        <ele>1274.3950195312</ele>
        <time>2010-10-07T14:59:35Z</time>
      </trkpt>
      <trkpt lat="45.58189" lon="6.10246">
        <ele>1275.0419921875</ele>
        <time>2010-10-07T14:59:40Z</time>
      </trkpt>
      <trkpt lat="45.58179" lon="6.10245">
        <ele>1276.3540039062</ele>
        <time>2010-10-07T14:59:47Z</time>
      </trkpt>
      <trkpt lat="45.58174" lon="6.10244">
        <ele>1276.8139648438</ele>
        <time>2010-10-07T14:59:50Z</time>
      </trkpt>
      <trkpt lat="45.58165" lon="6.10242">
        <ele>1277.9410400391</ele>
        <time>2010-10-07T14:59:56Z</time>
      </trkpt>
      <trkpt lat="45.58155" lon="6.10241">
        <ele>1279.4820556641</ele>
        <time>2010-10-07T15:00:05Z</time>
      </trkpt>
      <trkpt lat="45.58144" lon="6.1024">
        <ele>1280.7120361328</ele>
        <time>2010-10-07T15:00:13Z</time>
      </trkpt>
      <trkpt lat="45.58138" lon="6.10238">
        <ele>1281.3540039062</ele>
        <time>2010-10-07T15:00:18Z</time>
      </trkpt>
      <trkpt lat="45.5813" lon="6.10236">
        <ele>1282.7629394531</ele>
        <time>2010-10-07T15:00:26Z</time>
      </trkpt>
      <trkpt lat="45.58124" lon="6.10231">
        <ele>1283.7309570312</ele>
        <time>2010-10-07T15:00:33Z</time>
      </trkpt>
      <trkpt lat="45.58117" lon="6.10225">
        <ele>1284.7039794922</ele>
        <time>2010-10-07T15:00:39Z</time>
      </trkpt>
      <trkpt lat="45.58106" lon="6.10219">
        <ele>1286.2430419922</ele>
        <time>2010-10-07T15:00:48Z</time>
      </trkpt>
      <trkpt lat="45.58095" lon="6.10211">
        <ele>1287.7719726562</ele>
        <time>2010-10-07T15:00:57Z</time>
      </trkpt>
      <trkpt lat="45.58094" lon="6.10211">
        <ele>1287.9899902344</ele>
        <time>2010-10-07T15:00:58Z</time>
      </trkpt>
      <trkpt lat="45.58084" lon="6.10208">
        <ele>1289.4659423828</ele>
        <time>2010-10-07T15:01:07Z</time>
      </trkpt>
      <trkpt lat="45.58073" lon="6.10199">
        <ele>1291.1149902344</ele>
        <time>2010-10-07T15:01:17Z</time>
      </trkpt>
      <trkpt lat="45.58067" lon="6.10194">
        <ele>1292.3580322266</ele>
        <time>2010-10-07T15:01:23Z</time>
      </trkpt>
      <trkpt lat="45.58061" lon="6.10189">
        <ele>1293.6040039062</ele>
        <time>2010-10-07T15:01:29Z</time>
      </trkpt>
      <trkpt lat="45.58054" lon="6.10182">
        <ele>1294.5529785156</ele>
        <time>2010-10-07T15:01:35Z</time>
      </trkpt>
      <trkpt lat="45.58043" lon="6.10174">
        <ele>1295.8449707031</ele>
        <time>2010-10-07T15:01:44Z</time>
      </trkpt>
      <trkpt lat="45.58031" lon="6.10167">
        <ele>1297.0600585938</ele>
        <time>2010-10-07T15:01:53Z</time>
      </trkpt>
      <trkpt lat="45.58022" lon="6.10159">
        <ele>1298.0190429688</ele>
        <time>2010-10-07T15:02:00Z</time>
      </trkpt>
      <trkpt lat="45.58014" lon="6.10154">
        <ele>1298.8570556641</ele>
        <time>2010-10-07T15:02:07Z</time>
      </trkpt>
      <trkpt lat="45.58005" lon="6.10146">
        <ele>1299.9119873047</ele>
        <time>2010-10-07T15:02:14Z</time>
      </trkpt>
      <trkpt lat="45.58001" lon="6.10143">
        <ele>1300.1540527344</ele>
        <time>2010-10-07T15:02:17Z</time>
      </trkpt>
      <trkpt lat="45.57995" lon="6.10137">
        <ele>1301.1409912109</ele>
        <time>2010-10-07T15:02:23Z</time>
      </trkpt>
      <trkpt lat="45.57991" lon="6.10134">
        <ele>1301.7430419922</ele>
        <time>2010-10-07T15:02:27Z</time>
      </trkpt>
      <trkpt lat="45.57984" lon="6.10126">
        <ele>1302.2149658203</ele>
        <time>2010-10-07T15:02:34Z</time>
      </trkpt>
      <trkpt lat="45.57976" lon="6.10118">
        <ele>1304.1810302734</ele>
        <time>2010-10-07T15:02:42Z</time>
      </trkpt>
      <trkpt lat="45.57969" lon="6.10112">
        <ele>1305.5670166016</ele>
        <time>2010-10-07T15:02:48Z</time>
      </trkpt>
      <trkpt lat="45.57964" lon="6.10108">
        <ele>1306.5260009766</ele>
        <time>2010-10-07T15:02:52Z</time>
      </trkpt>
      <trkpt lat="45.57953" lon="6.10097">
        <ele>1308.1359863281</ele>
        <time>2010-10-07T15:03:00Z</time>
      </trkpt>
      <trkpt lat="45.57944" lon="6.1009">
        <ele>1309.6779785156</ele>
        <time>2010-10-07T15:03:07Z</time>
      </trkpt>
      <trkpt lat="45.57935" lon="6.10087">
        <ele>1311.2490234375</ele>
        <time>2010-10-07T15:03:14Z</time>
      </trkpt>
      <trkpt lat="45.57928" lon="6.10084">
        <ele>1312.3110351562</ele>
        <time>2010-10-07T15:03:21Z</time>
      </trkpt>
      <trkpt lat="45.57925" lon="6.10082">
        <ele>1312.5310058594</ele>
        <time>2010-10-07T15:03:29Z</time>
      </trkpt>
      <trkpt lat="45.57923" lon="6.10076">
        <ele>1312.5770263672</ele>
        <time>2010-10-07T15:03:50Z</time>
      </trkpt>
      <trkpt lat="45.57925" lon="6.10074">
        <ele>1312.6290283203</ele>
        <time>2010-10-07T15:03:56Z</time>
      </trkpt>
      <trkpt lat="45.57926" lon="6.10074">
        <ele>1312.7039794922</ele>
        <time>2010-10-07T15:04:01Z</time>
      </trkpt>
      <trkpt lat="45.57925" lon="6.10074">
        <ele>1312.666015625</ele>
        <time>2010-10-07T15:04:06Z</time>
      </trkpt>
      <trkpt lat="45.57912" lon="6.10076">
        <ele>1313.1729736328</ele>
        <time>2010-10-07T15:04:14Z</time>
      </trkpt>
      <trkpt lat="45.57898" lon="6.10074">
        <ele>1314.8659667969</ele>
        <time>2010-10-07T15:04:21Z</time>
      </trkpt>
      <trkpt lat="45.57883" lon="6.10073">
        <ele>1317.3640136719</ele>
        <time>2010-10-07T15:04:29Z</time>
      </trkpt>
      <trkpt lat="45.57876" lon="6.10071">
        <ele>1318.3079833984</ele>
        <time>2010-10-07T15:04:33Z</time>
      </trkpt>
      <trkpt lat="45.57869" lon="6.10073">
        <ele>1319.3199462891</ele>
        <time>2010-10-07T15:04:38Z</time>
      </trkpt>
      <trkpt lat="45.5786" lon="6.10077">
        <ele>1320.5889892578</ele>
        <time>2010-10-07T15:04:44Z</time>
      </trkpt>
      <trkpt lat="45.57858" lon="6.10076">
        <ele>1320.7559814453</ele>
        <time>2010-10-07T15:04:45Z</time>
      </trkpt>
      <trkpt lat="45.57847" lon="6.10077">
        <ele>1322.0109863281</ele>
        <time>2010-10-07T15:04:52Z</time>
      </trkpt>
      <trkpt lat="45.57835" lon="6.10075">
        <ele>1323.3630371094</ele>
        <time>2010-10-07T15:05:00Z</time>
      </trkpt>
      <trkpt lat="45.5782" lon="6.10069">
        <ele>1324.7259521484</ele>
        <time>2010-10-07T15:05:07Z</time>
      </trkpt>
      <trkpt lat="45.57809" lon="6.10066">
        <ele>1325.8139648438</ele>
        <time>2010-10-07T15:05:13Z</time>
      </trkpt>
      <trkpt lat="45.57796" lon="6.10064">
        <ele>1327.4799804688</ele>
        <time>2010-10-07T15:05:21Z</time>
      </trkpt>
      <trkpt lat="45.57782" lon="6.10061">
        <ele>1329.4820556641</ele>
        <time>2010-10-07T15:05:29Z</time>
      </trkpt>
      <trkpt lat="45.5778" lon="6.1006">
        <ele>1329.5319824219</ele>
        <time>2010-10-07T15:05:30Z</time>
      </trkpt>
      <trkpt lat="45.57772" lon="6.10061">
        <ele>1330.0710449219</ele>
        <time>2010-10-07T15:05:36Z</time>
      </trkpt>
      <trkpt lat="45.57764" lon="6.10062">
        <ele>1330.8120117188</ele>
        <time>2010-10-07T15:05:42Z</time>
      </trkpt>
      <trkpt lat="45.57752" lon="6.10061">
        <ele>1331.6369628906</ele>
        <time>2010-10-07T15:05:49Z</time>
      </trkpt>
      <trkpt lat="45.57751" lon="6.10061">
        <ele>1331.7130126953</ele>
        <time>2010-10-07T15:05:50Z</time>
      </trkpt>
      <trkpt lat="45.57732" lon="6.10056">
        <ele>1331.6180419922</ele>
        <time>2010-10-07T15:05:59Z</time>
      </trkpt>
      <trkpt lat="45.57717" lon="6.10054">
        <ele>1331.7149658203</ele>
        <time>2010-10-07T15:06:05Z</time>
      </trkpt>
      <trkpt lat="45.57705" lon="6.10051">
        <ele>1331.8819580078</ele>
        <time>2010-10-07T15:06:10Z</time>
      </trkpt>
      <trkpt lat="45.57702" lon="6.10051">
        <ele>1331.9379882812</ele>
        <time>2010-10-07T15:06:11Z</time>
      </trkpt>
      <trkpt lat="45.57682" lon="6.10034">
        <ele>1333.4510498047</ele>
        <time>2010-10-07T15:06:20Z</time>
      </trkpt>
      <trkpt lat="45.57664" lon="6.1003">
        <ele>1334.3249511719</ele>
        <time>2010-10-07T15:06:27Z</time>
      </trkpt>
      <trkpt lat="45.57638" lon="6.1003">
        <ele>1335.2700195312</ele>
        <time>2010-10-07T15:06:36Z</time>
      </trkpt>
      <trkpt lat="45.57618" lon="6.10034">
        <ele>1335.9270019531</ele>
        <time>2010-10-07T15:06:43Z</time>
      </trkpt>
      <trkpt lat="45.57594" lon="6.10036">
        <ele>1336.7170410156</ele>
        <time>2010-10-07T15:06:51Z</time>
      </trkpt>
      <trkpt lat="45.57576" lon="6.10031">
        <ele>1336.1540527344</ele>
        <time>2010-10-07T15:06:56Z</time>
      </trkpt>
      <trkpt lat="45.57557" lon="6.1003">
        <ele>1336.5290527344</ele>
        <time>2010-10-07T15:07:01Z</time>
      </trkpt>
      <trkpt lat="45.57539" lon="6.10026">
        <ele>1336.5789794922</ele>
        <time>2010-10-07T15:07:06Z</time>
      </trkpt>
      <trkpt lat="45.57523" lon="6.1003">
        <ele>1335.8239746094</ele>
        <time>2010-10-07T15:07:11Z</time>
      </trkpt>
      <trkpt lat="45.57512" lon="6.10035">
        <ele>1335.2010498047</ele>
        <time>2010-10-07T15:07:14Z</time>
      </trkpt>
      <trkpt lat="45.57489" lon="6.1004">
        <ele>1333.8360595703</ele>
        <time>2010-10-07T15:07:19Z</time>
      </trkpt>
      <trkpt lat="45.57469" lon="6.10039">
        <ele>1332.8609619141</ele>
        <time>2010-10-07T15:07:23Z</time>
      </trkpt>
      <trkpt lat="45.57452" lon="6.10049">
        <ele>1332.5350341797</ele>
        <time>2010-10-07T15:07:27Z</time>
      </trkpt>
      <trkpt lat="45.57438" lon="6.10057">
        <ele>1331.7659912109</ele>
        <time>2010-10-07T15:07:30Z</time>
      </trkpt>
      <trkpt lat="45.5741" lon="6.10077">
        <ele>1328.2020263672</ele>
        <time>2010-10-07T15:07:35Z</time>
      </trkpt>
      <trkpt lat="45.5737" lon="6.10105">
        <ele>1325.5679931641</ele>
        <time>2010-10-07T15:07:41Z</time>
      </trkpt>
      <trkpt lat="45.57339" lon="6.1012">
        <ele>1326.0780029297</ele>
        <time>2010-10-07T15:07:46Z</time>
      </trkpt>
      <trkpt lat="45.57333" lon="6.10121">
        <ele>1326.0870361328</ele>
        <time>2010-10-07T15:07:47Z</time>
      </trkpt>
      <trkpt lat="45.5731" lon="6.10128">
        <ele>1327.9840087891</ele>
        <time>2010-10-07T15:07:52Z</time>
      </trkpt>
      <trkpt lat="45.57299" lon="6.10132">
        <ele>1328.8940429688</ele>
        <time>2010-10-07T15:07:56Z</time>
      </trkpt>
      <trkpt lat="45.57288" lon="6.10138">
        <ele>1329.4689941406</ele>
        <time>2010-10-07T15:08:01Z</time>
      </trkpt>
      <trkpt lat="45.57277" lon="6.10141">
        <ele>1330.4379882812</ele>
        <time>2010-10-07T15:08:06Z</time>
      </trkpt>
      <trkpt lat="45.57261" lon="6.10144">
        <ele>1332.3060302734</ele>
        <time>2010-10-07T15:08:13Z</time>
      </trkpt>
      <trkpt lat="45.57254" lon="6.10143">
        <ele>1333.3039550781</ele>
        <time>2010-10-07T15:08:18Z</time>
      </trkpt>
      <trkpt lat="45.57243" lon="6.10143">
        <ele>1334.6569824219</ele>
        <time>2010-10-07T15:08:24Z</time>
      </trkpt>
      <trkpt lat="45.57233" lon="6.10144">
        <ele>1335.8840332031</ele>
        <time>2010-10-07T15:08:31Z</time>
      </trkpt>
      <trkpt lat="45.57211" lon="6.10146">
        <ele>1338.6070556641</ele>
        <time>2010-10-07T15:08:46Z</time>
      </trkpt>
      <trkpt lat="45.57208" lon="6.10145">
        <ele>1339.0129394531</ele>
        <time>2010-10-07T15:08:48Z</time>
      </trkpt>
      <trkpt lat="45.57198" lon="6.10147">
        <ele>1340.2550048828</ele>
        <time>2010-10-07T15:08:55Z</time>
      </trkpt>
      <trkpt lat="45.57183" lon="6.10149">
        <ele>1341.7390136719</ele>
        <time>2010-10-07T15:09:04Z</time>
      </trkpt>
      <trkpt lat="45.57174" lon="6.10151">
        <ele>1342.9239501953</ele>
        <time>2010-10-07T15:09:10Z</time>
      </trkpt>
      <trkpt lat="45.57164" lon="6.10149">
        <ele>1343.8110351562</ele>
        <time>2010-10-07T15:09:17Z</time>
      </trkpt>
      <trkpt lat="45.57157" lon="6.10143">
        <ele>1344.5030517578</ele>
        <time>2010-10-07T15:09:22Z</time>
      </trkpt>
      <trkpt lat="45.57151" lon="6.10136">
        <ele>1344.8280029297</ele>
        <time>2010-10-07T15:09:26Z</time>
      </trkpt>
      <trkpt lat="45.57141" lon="6.10125">
        <ele>1345.7800292969</ele>
        <time>2010-10-07T15:09:34Z</time>
      </trkpt>
      <trkpt lat="45.57137" lon="6.10121">
        <ele>1346.4279785156</ele>
        <time>2010-10-07T15:09:40Z</time>
      </trkpt>
      <trkpt lat="45.57131" lon="6.10114">
        <ele>1346.9639892578</ele>
        <time>2010-10-07T15:09:46Z</time>
      </trkpt>
      <trkpt lat="45.57124" lon="6.10103">
        <ele>1347.6240234375</ele>
        <time>2010-10-07T15:09:53Z</time>
      </trkpt>
      <trkpt lat="45.57119" lon="6.10097">
        <ele>1348.1390380859</ele>
        <time>2010-10-07T15:09:57Z</time>
      </trkpt>
      <trkpt lat="45.57109" lon="6.10085">
        <ele>1348.6510009766</ele>
        <time>2010-10-07T15:10:04Z</time>
      </trkpt>
      <trkpt lat="45.57105" lon="6.10082">
        <ele>1348.6739501953</ele>
        <time>2010-10-07T15:10:06Z</time>
      </trkpt>
      <trkpt lat="45.57095" lon="6.10073">
        <ele>1349.1700439453</ele>
        <time>2010-10-07T15:10:12Z</time>
      </trkpt>
      <trkpt lat="45.57093" lon="6.10072">
        <ele>1349.3310546875</ele>
        <time>2010-10-07T15:10:13Z</time>
      </trkpt>
      <trkpt lat="45.57089" lon="6.10067">
        <ele>1349.4770507812</ele>
        <time>2010-10-07T15:10:15Z</time>
      </trkpt>
      <trkpt lat="45.57077" lon="6.10055">
        <ele>1350.5329589844</ele>
        <time>2010-10-07T15:10:23Z</time>
      </trkpt>
      <trkpt lat="45.57069" lon="6.10047">
        <ele>1351.1330566406</ele>
        <time>2010-10-07T15:10:28Z</time>
      </trkpt>
      <trkpt lat="45.57057" lon="6.10033">
        <ele>1352.3530273438</ele>
        <time>2010-10-07T15:10:35Z</time>
      </trkpt>
      <trkpt lat="45.57054" lon="6.10028">
        <ele>1352.9749755859</ele>
        <time>2010-10-07T15:10:38Z</time>
      </trkpt>
      <trkpt lat="45.57049" lon="6.1002">
        <ele>1353.5780029297</ele>
        <time>2010-10-07T15:10:43Z</time>
      </trkpt>
      <trkpt lat="45.57044" lon="6.10011">
        <ele>1354.1510009766</ele>
        <time>2010-10-07T15:10:49Z</time>
      </trkpt>
      <trkpt lat="45.57043" lon="6.1001">
        <ele>1354.2380371094</ele>
        <time>2010-10-07T15:10:50Z</time>
      </trkpt>
      <trkpt lat="45.57037" lon="6.10001">
        <ele>1354.9720458984</ele>
        <time>2010-10-07T15:10:56Z</time>
      </trkpt>
      <trkpt lat="45.5703" lon="6.09986">
        <ele>1356.5620117188</ele>
        <time>2010-10-07T15:11:05Z</time>
      </trkpt>
      <trkpt lat="45.57024" lon="6.09975">
        <ele>1357.7939453125</ele>
        <time>2010-10-07T15:11:11Z</time>
      </trkpt>
      <trkpt lat="45.57018" lon="6.09966">
        <ele>1358.9830322266</ele>
        <time>2010-10-07T15:11:17Z</time>
      </trkpt>
      <trkpt lat="45.57015" lon="6.09964">
        <ele>1359.7359619141</ele>
        <time>2010-10-07T15:11:20Z</time>
      </trkpt>
      <trkpt lat="45.57006" lon="6.09951">
        <ele>1361.0909423828</ele>
        <time>2010-10-07T15:11:28Z</time>
      </trkpt>
      <trkpt lat="45.57003" lon="6.09947">
        <ele>1361.3229980469</ele>
        <time>2010-10-07T15:11:30Z</time>
      </trkpt>
      <trkpt lat="45.56995" lon="6.09937">
        <ele>1361.79296875</ele>
        <time>2010-10-07T15:11:38Z</time>
      </trkpt>
      <trkpt lat="45.56993" lon="6.09932">
        <ele>1362.083984375</ele>
        <time>2010-10-07T15:11:40Z</time>
      </trkpt>
      <trkpt lat="45.56987" lon="6.09921">
        <ele>1362.4010009766</ele>
        <time>2010-10-07T15:11:46Z</time>
      </trkpt>
      <trkpt lat="45.56981" lon="6.09908">
        <ele>1362.7719726562</ele>
        <time>2010-10-07T15:11:53Z</time>
      </trkpt>
      <trkpt lat="45.56979" lon="6.09901">
        <ele>1363.0770263672</ele>
        <time>2010-10-07T15:11:56Z</time>
      </trkpt>
      <trkpt lat="45.56976" lon="6.09888">
        <ele>1362.4300537109</ele>
        <time>2010-10-07T15:12:02Z</time>
      </trkpt>
      <trkpt lat="45.56975" lon="6.09884">
        <ele>1362.3950195312</ele>
        <time>2010-10-07T15:12:03Z</time>
      </trkpt>
      <trkpt lat="45.56966" lon="6.09865">
        <ele>1361.1330566406</ele>
        <time>2010-10-07T15:12:09Z</time>
      </trkpt>
      <trkpt lat="45.56963" lon="6.09861">
        <ele>1360.4959716797</ele>
        <time>2010-10-07T15:12:11Z</time>
      </trkpt>
      <trkpt lat="45.56952" lon="6.09845">
        <ele>1357.1760253906</ele>
        <time>2010-10-07T15:12:16Z</time>
      </trkpt>
      <trkpt lat="45.56936" lon="6.09822">
        <ele>1354.5570068359</ele>
        <time>2010-10-07T15:12:20Z</time>
      </trkpt>
      <trkpt lat="45.56929" lon="6.09804">
        <ele>1353.4949951172</ele>
        <time>2010-10-07T15:12:23Z</time>
      </trkpt>
      <trkpt lat="45.56924" lon="6.09792">
        <ele>1352.2299804688</ele>
        <time>2010-10-07T15:12:25Z</time>
      </trkpt>
      <trkpt lat="45.56913" lon="6.09758">
        <ele>1350.3599853516</ele>
        <time>2010-10-07T15:12:30Z</time>
      </trkpt>
      <trkpt lat="45.56906" lon="6.09726">
        <ele>1351.1750488281</ele>
        <time>2010-10-07T15:12:35Z</time>
      </trkpt>
      <trkpt lat="45.56899" lon="6.09701">
        <ele>1350.6209716797</ele>
        <time>2010-10-07T15:12:40Z</time>
      </trkpt>
      <trkpt lat="45.56886" lon="6.09678">
        <ele>1348.5190429688</ele>
        <time>2010-10-07T15:12:45Z</time>
      </trkpt>
      <trkpt lat="45.56882" lon="6.09667">
        <ele>1348.2659912109</ele>
        <time>2010-10-07T15:12:46Z</time>
      </trkpt>
      <trkpt lat="45.56876" lon="6.09645">
        <ele>1347.8969726562</ele>
        <time>2010-10-07T15:12:51Z</time>
      </trkpt>
      <trkpt lat="45.56875" lon="6.09642">
        <ele>1347.8979492188</ele>
        <time>2010-10-07T15:12:52Z</time>
      </trkpt>
      <trkpt lat="45.56868" lon="6.09619">
        <ele>1347.3170166016</ele>
        <time>2010-10-07T15:12:58Z</time>
      </trkpt>
      <trkpt lat="45.56865" lon="6.09612">
        <ele>1347.2790527344</ele>
        <time>2010-10-07T15:13:00Z</time>
      </trkpt>
      <trkpt lat="45.56861" lon="6.0958">
        <ele>1347.2060546875</ele>
        <time>2010-10-07T15:13:06Z</time>
      </trkpt>
      <trkpt lat="45.56858" lon="6.09558">
        <ele>1347.0250244141</ele>
        <time>2010-10-07T15:13:11Z</time>
      </trkpt>
      <trkpt lat="45.56853" lon="6.09541">
        <ele>1347.1519775391</ele>
        <time>2010-10-07T15:13:16Z</time>
      </trkpt>
      <trkpt lat="45.56845" lon="6.09513">
        <ele>1348.6610107422</ele>
        <time>2010-10-07T15:13:26Z</time>
      </trkpt>
      <trkpt lat="45.56841" lon="6.09505">
        <ele>1349.4949951172</ele>
        <time>2010-10-07T15:13:31Z</time>
      </trkpt>
      <trkpt lat="45.56838" lon="6.09495">
        <ele>1350.2569580078</ele>
        <time>2010-10-07T15:13:35Z</time>
      </trkpt>
      <trkpt lat="45.56836" lon="6.09491">
        <ele>1350.6789550781</ele>
        <time>2010-10-07T15:13:37Z</time>
      </trkpt>
      <trkpt lat="45.56833" lon="6.09487">
        <ele>1350.7879638672</ele>
        <time>2010-10-07T15:13:39Z</time>
      </trkpt>
      <trkpt lat="45.56825" lon="6.09475">
        <ele>1351.4219970703</ele>
        <time>2010-10-07T15:13:44Z</time>
      </trkpt>
      <trkpt lat="45.56816" lon="6.09463">
        <ele>1352.4880371094</ele>
        <time>2010-10-07T15:13:51Z</time>
      </trkpt>
      <trkpt lat="45.5681" lon="6.0944">
        <ele>1352.1300048828</ele>
        <time>2010-10-07T15:14:16Z</time>
      </trkpt>
      <trkpt lat="45.56812" lon="6.09436">
        <ele>1351.70703125</ele>
        <time>2010-10-07T15:14:23Z</time>
      </trkpt>
      <trkpt lat="45.56816" lon="6.09431">
        <ele>1350.9919433594</ele>
        <time>2010-10-07T15:14:27Z</time>
      </trkpt>
      <trkpt lat="45.56824" lon="6.09444">
        <ele>1348.2540283203</ele>
        <time>2010-10-07T15:14:32Z</time>
      </trkpt>
      <trkpt lat="45.56833" lon="6.09455">
        <ele>1346.7580566406</ele>
        <time>2010-10-07T15:14:35Z</time>
      </trkpt>
      <trkpt lat="45.56836" lon="6.09462">
        <ele>1346.0200195312</ele>
        <time>2010-10-07T15:14:37Z</time>
      </trkpt>
      <trkpt lat="45.5684" lon="6.09468">
        <ele>1345.7619628906</ele>
        <time>2010-10-07T15:14:39Z</time>
      </trkpt>
      <trkpt lat="45.56843" lon="6.09466">
        <ele>1345.4659423828</ele>
        <time>2010-10-07T15:14:43Z</time>
      </trkpt>
      <trkpt lat="45.56845" lon="6.09465">
        <ele>1345.2409667969</ele>
        <time>2010-10-07T15:14:47Z</time>
      </trkpt>
      <trkpt lat="45.56844" lon="6.09456">
        <ele>1344.0799560547</ele>
        <time>2010-10-07T15:14:53Z</time>
      </trkpt>
      <trkpt lat="45.56843" lon="6.09448">
        <ele>1343.0720214844</ele>
        <time>2010-10-07T15:14:59Z</time>
      </trkpt>
      <trkpt lat="45.56844" lon="6.0943">
        <ele>1340.8120117188</ele>
        <time>2010-10-07T15:15:04Z</time>
      </trkpt>
      <trkpt lat="45.56845" lon="6.09426">
        <ele>1340.3699951172</ele>
        <time>2010-10-07T15:15:05Z</time>
      </trkpt>
      <trkpt lat="45.56843" lon="6.09408">
        <ele>1337.2139892578</ele>
        <time>2010-10-07T15:15:11Z</time>
      </trkpt>
      <trkpt lat="45.56841" lon="6.09401">
        <ele>1336.2320556641</ele>
        <time>2010-10-07T15:15:17Z</time>
      </trkpt>
      <trkpt lat="45.56841" lon="6.09404">
        <ele>1337.1350097656</ele>
        <time>2010-10-07T15:15:28Z</time>
      </trkpt>
      <trkpt lat="45.56841" lon="6.09407">
        <ele>1337.5570068359</ele>
        <time>2010-10-07T15:15:31Z</time>
      </trkpt>
      <trkpt lat="45.56841" lon="6.09412">
        <ele>1338.4260253906</ele>
        <time>2010-10-07T15:15:39Z</time>
      </trkpt>
      <trkpt lat="45.56844" lon="6.09419">
        <ele>1339.8819580078</ele>
        <time>2010-10-07T15:15:47Z</time>
      </trkpt>
      <trkpt lat="45.56845" lon="6.09422">
        <ele>1340.2049560547</ele>
        <time>2010-10-07T15:15:50Z</time>
      </trkpt>
      <trkpt lat="45.56846" lon="6.09431">
        <ele>1341.7120361328</ele>
        <time>2010-10-07T15:15:58Z</time>
      </trkpt>
      <trkpt lat="45.56847" lon="6.09436">
        <ele>1342.3459472656</ele>
        <time>2010-10-07T15:16:03Z</time>
      </trkpt>
      <trkpt lat="45.56847" lon="6.09443">
        <ele>1343.3790283203</ele>
        <time>2010-10-07T15:16:10Z</time>
      </trkpt>
      <trkpt lat="45.56848" lon="6.09452">
        <ele>1344.5959472656</ele>
        <time>2010-10-07T15:16:18Z</time>
      </trkpt>
      <trkpt lat="45.56849" lon="6.09461">
        <ele>1345.0980224609</ele>
        <time>2010-10-07T15:16:25Z</time>
      </trkpt>
      <trkpt lat="45.56847" lon="6.09465">
        <ele>1345.7060546875</ele>
        <time>2010-10-07T15:16:32Z</time>
      </trkpt>
      <trkpt lat="45.56844" lon="6.09463">
        <ele>1345.9689941406</ele>
        <time>2010-10-07T15:16:39Z</time>
      </trkpt>
      <trkpt lat="45.56844" lon="6.09462">
        <ele>1346.1199951172</ele>
        <time>2010-10-07T15:16:40Z</time>
      </trkpt>
      <trkpt lat="45.56842" lon="6.09458">
        <ele>1346.3089599609</ele>
        <time>2010-10-07T15:16:43Z</time>
      </trkpt>
      <trkpt lat="45.56836" lon="6.09449">
        <ele>1347.9460449219</ele>
        <time>2010-10-07T15:16:52Z</time>
      </trkpt>
      <trkpt lat="45.56829" lon="6.0944">
        <ele>1349.4000244141</ele>
        <time>2010-10-07T15:17:00Z</time>
      </trkpt>
      <trkpt lat="45.56827" lon="6.09436">
        <ele>1349.9010009766</ele>
        <time>2010-10-07T15:17:03Z</time>
      </trkpt>
      <trkpt lat="45.5682" lon="6.09429">
        <ele>1350.708984375</ele>
        <time>2010-10-07T15:17:09Z</time>
      </trkpt>
      <trkpt lat="45.56811" lon="6.0942">
        <ele>1351.7679443359</ele>
        <time>2010-10-07T15:17:17Z</time>
      </trkpt>
      <trkpt lat="45.56799" lon="6.0941">
        <ele>1352.4909667969</ele>
        <time>2010-10-07T15:17:25Z</time>
      </trkpt>
      <trkpt lat="45.5679" lon="6.09403">
        <ele>1353.2969970703</ele>
        <time>2010-10-07T15:17:32Z</time>
      </trkpt>
      <trkpt lat="45.56789" lon="6.09403">
        <ele>1353.4489746094</ele>
        <time>2010-10-07T15:17:33Z</time>
      </trkpt>
      <trkpt lat="45.56779" lon="6.09395">
        <ele>1354.8489990234</ele>
        <time>2010-10-07T15:17:41Z</time>
      </trkpt>
      <trkpt lat="45.5677" lon="6.09388">
        <ele>1356.1729736328</ele>
        <time>2010-10-07T15:17:47Z</time>
      </trkpt>
      <trkpt lat="45.5676" lon="6.09379">
        <ele>1357.7790527344</ele>
        <time>2010-10-07T15:17:54Z</time>
      </trkpt>
      <trkpt lat="45.56752" lon="6.09372">
        <ele>1359.3280029297</ele>
        <time>2010-10-07T15:18:01Z</time>
      </trkpt>
      <trkpt lat="45.56741" lon="6.09366">
        <ele>1360.7049560547</ele>
        <time>2010-10-07T15:18:09Z</time>
      </trkpt>
      <trkpt lat="45.56729" lon="6.09363">
        <ele>1361.8489990234</ele>
        <time>2010-10-07T15:18:18Z</time>
      </trkpt>
      <trkpt lat="45.56719" lon="6.09366">
        <ele>1362.7390136719</ele>
        <time>2010-10-07T15:18:25Z</time>
      </trkpt>
      <trkpt lat="45.56709" lon="6.09366">
        <ele>1363.5639648438</ele>
        <time>2010-10-07T15:18:33Z</time>
      </trkpt>
      <trkpt lat="45.56699" lon="6.09361">
        <ele>1364.6850585938</ele>
        <time>2010-10-07T15:18:40Z</time>
      </trkpt>
      <trkpt lat="45.56691" lon="6.09361">
        <ele>1365.5930175781</ele>
        <time>2010-10-07T15:18:47Z</time>
      </trkpt>
      <trkpt lat="45.56684" lon="6.0936">
        <ele>1366.5670166016</ele>
        <time>2010-10-07T15:18:54Z</time>
      </trkpt>
      <trkpt lat="45.56677" lon="6.09356">
        <ele>1367.7419433594</ele>
        <time>2010-10-07T15:19:00Z</time>
      </trkpt>
      <trkpt lat="45.56667" lon="6.09351">
        <ele>1369.4510498047</ele>
        <time>2010-10-07T15:19:10Z</time>
      </trkpt>
      <trkpt lat="45.56659" lon="6.09349">
        <ele>1371.3280029297</ele>
        <time>2010-10-07T15:19:17Z</time>
      </trkpt>
      <trkpt lat="45.56653" lon="6.09341">
        <ele>1371.8869628906</ele>
        <time>2010-10-07T15:19:21Z</time>
      </trkpt>
      <trkpt lat="45.56645" lon="6.09327">
        <ele>1373.125</ele>
        <time>2010-10-07T15:19:30Z</time>
      </trkpt>
      <trkpt lat="45.56636" lon="6.0931">
        <ele>1374.1929931641</ele>
        <time>2010-10-07T15:19:38Z</time>
      </trkpt>
      <trkpt lat="45.56627" lon="6.09291">
        <ele>1374.8549804688</ele>
        <time>2010-10-07T15:19:46Z</time>
      </trkpt>
      <trkpt lat="45.56621" lon="6.09278">
        <ele>1375.0329589844</ele>
        <time>2010-10-07T15:19:52Z</time>
      </trkpt>
      <trkpt lat="45.56616" lon="6.09265">
        <ele>1375.6710205078</ele>
        <time>2010-10-07T15:19:57Z</time>
      </trkpt>
      <trkpt lat="45.56607" lon="6.09252">
        <ele>1376.5860595703</ele>
        <time>2010-10-07T15:20:03Z</time>
      </trkpt>
      <trkpt lat="45.56602" lon="6.09243">
        <ele>1377.0560302734</ele>
        <time>2010-10-07T15:20:08Z</time>
      </trkpt>
      <trkpt lat="45.56594" lon="6.09226">
        <ele>1377.6109619141</ele>
        <time>2010-10-07T15:20:14Z</time>
      </trkpt>
      <trkpt lat="45.56587" lon="6.09212">
        <ele>1377.6920166016</ele>
        <time>2010-10-07T15:20:19Z</time>
      </trkpt>
      <trkpt lat="45.56581" lon="6.09197">
        <ele>1378.0159912109</ele>
        <time>2010-10-07T15:20:25Z</time>
      </trkpt>
      <trkpt lat="45.56578" lon="6.09183">
        <ele>1378.3470458984</ele>
        <time>2010-10-07T15:20:30Z</time>
      </trkpt>
      <trkpt lat="45.56574" lon="6.09169">
        <ele>1377.9899902344</ele>
        <time>2010-10-07T15:20:35Z</time>
      </trkpt>
      <trkpt lat="45.56573" lon="6.09167">
        <ele>1378.0579833984</ele>
        <time>2010-10-07T15:20:36Z</time>
      </trkpt>
      <trkpt lat="45.56569" lon="6.09148">
        <ele>1378.2020263672</ele>
        <time>2010-10-07T15:20:43Z</time>
      </trkpt>
      <trkpt lat="45.56571" lon="6.09136">
        <ele>1378.0340576172</ele>
        <time>2010-10-07T15:20:47Z</time>
      </trkpt>
      <trkpt lat="45.56583" lon="6.09117">
        <ele>1376.5899658203</ele>
        <time>2010-10-07T15:20:53Z</time>
      </trkpt>
      <trkpt lat="45.56595" lon="6.09102">
        <ele>1375.5939941406</ele>
        <time>2010-10-07T15:20:57Z</time>
      </trkpt>
      <trkpt lat="45.56606" lon="6.09092">
        <ele>1374.5920410156</ele>
        <time>2010-10-07T15:21:00Z</time>
      </trkpt>
      <trkpt lat="45.56604" lon="6.09073">
        <ele>1373.0780029297</ele>
        <time>2010-10-07T15:21:04Z</time>
      </trkpt>
      <trkpt lat="45.56596" lon="6.09057">
        <ele>1371.2659912109</ele>
        <time>2010-10-07T15:21:08Z</time>
      </trkpt>
      <trkpt lat="45.5659" lon="6.09047">
        <ele>1370.4300537109</ele>
        <time>2010-10-07T15:21:10Z</time>
      </trkpt>
      <trkpt lat="45.56582" lon="6.09039">
        <ele>1369.2099609375</ele>
        <time>2010-10-07T15:21:12Z</time>
      </trkpt>
      <trkpt lat="45.56572" lon="6.09033">
        <ele>1368.4260253906</ele>
        <time>2010-10-07T15:21:14Z</time>
      </trkpt>
      <trkpt lat="45.56559" lon="6.0903">
        <ele>1367.3110351562</ele>
        <time>2010-10-07T15:21:18Z</time>
      </trkpt>
      <trkpt lat="45.56554" lon="6.09017">
        <ele>1366.1929931641</ele>
        <time>2010-10-07T15:21:22Z</time>
      </trkpt>
      <trkpt lat="45.5655" lon="6.09008">
        <ele>1365.5699462891</ele>
        <time>2010-10-07T15:21:24Z</time>
      </trkpt>
      <trkpt lat="45.56529" lon="6.08988">
        <ele>1362.7249755859</ele>
        <time>2010-10-07T15:21:29Z</time>
      </trkpt>
      <trkpt lat="45.56522" lon="6.08975">
        <ele>1361.1739501953</ele>
        <time>2010-10-07T15:21:31Z</time>
      </trkpt>
      <trkpt lat="45.56504" lon="6.08925">
        <ele>1357.4969482422</ele>
        <time>2010-10-07T15:21:38Z</time>
      </trkpt>
      <trkpt lat="45.56502" lon="6.08918">
        <ele>1356.916015625</ele>
        <time>2010-10-07T15:21:39Z</time>
      </trkpt>
      <trkpt lat="45.56496" lon="6.0888">
        <ele>1354.0689697266</ele>
        <time>2010-10-07T15:21:45Z</time>
      </trkpt>
      <trkpt lat="45.56501" lon="6.08854">
        <ele>1352.5489501953</ele>
        <time>2010-10-07T15:21:50Z</time>
      </trkpt>
      <trkpt lat="45.56501" lon="6.08845">
        <ele>1351.6419677734</ele>
        <time>2010-10-07T15:21:52Z</time>
      </trkpt>
      <trkpt lat="45.565" lon="6.08841">
        <ele>1351.4439697266</ele>
        <time>2010-10-07T15:21:53Z</time>
      </trkpt>
      <trkpt lat="45.5649" lon="6.0882">
        <ele>1351.0949707031</ele>
        <time>2010-10-07T15:22:00Z</time>
      </trkpt>
      <trkpt lat="45.56484" lon="6.08805">
        <ele>1350.3139648438</ele>
        <time>2010-10-07T15:22:06Z</time>
      </trkpt>
      <trkpt lat="45.56483" lon="6.08805">
        <ele>1349.873046875</ele>
        <time>2010-10-07T15:22:16Z</time>
      </trkpt>
      <trkpt lat="45.56485" lon="6.08806">
        <ele>1350.3430175781</ele>
        <time>2010-10-07T15:23:03Z</time>
      </trkpt>
      <trkpt lat="45.56482" lon="6.08795">
        <ele>1348.791015625</ele>
        <time>2010-10-07T15:23:07Z</time>
      </trkpt>
      <trkpt lat="45.56475" lon="6.08771">
        <ele>1345.9019775391</ele>
        <time>2010-10-07T15:23:13Z</time>
      </trkpt>
      <trkpt lat="45.56468" lon="6.0875">
        <ele>1343.7900390625</ele>
        <time>2010-10-07T15:23:17Z</time>
      </trkpt>
      <trkpt lat="45.56453" lon="6.08729">
        <ele>1339.4499511719</ele>
        <time>2010-10-07T15:23:22Z</time>
      </trkpt>
      <trkpt lat="45.56433" lon="6.0871">
        <ele>1335.6219482422</ele>
        <time>2010-10-07T15:23:27Z</time>
      </trkpt>
      <trkpt lat="45.56422" lon="6.08702">
        <ele>1332.2159423828</ele>
        <time>2010-10-07T15:23:30Z</time>
      </trkpt>
      <trkpt lat="45.56411" lon="6.08683">
        <ele>1328.16796875</ele>
        <time>2010-10-07T15:23:34Z</time>
      </trkpt>
      <trkpt lat="45.56405" lon="6.08653">
        <ele>1324.4610595703</ele>
        <time>2010-10-07T15:23:39Z</time>
      </trkpt>
      <trkpt lat="45.56398" lon="6.08619">
        <ele>1317.5989990234</ele>
        <time>2010-10-07T15:23:45Z</time>
      </trkpt>
      <trkpt lat="45.56398" lon="6.08612">
        <ele>1316.3310546875</ele>
        <time>2010-10-07T15:23:47Z</time>
      </trkpt>
      <trkpt lat="45.56401" lon="6.08606">
        <ele>1314.9899902344</ele>
        <time>2010-10-07T15:23:50Z</time>
      </trkpt>
      <trkpt lat="45.56403" lon="6.08597">
        <ele>1313.5069580078</ele>
        <time>2010-10-07T15:23:54Z</time>
      </trkpt>
      <trkpt lat="45.56402" lon="6.08597">
        <ele>1313.6350097656</ele>
        <time>2010-10-07T15:23:56Z</time>
      </trkpt>
      <trkpt lat="45.56393" lon="6.08595">
        <ele>1313.5870361328</ele>
        <time>2010-10-07T15:24:03Z</time>
      </trkpt>
      <trkpt lat="45.56391" lon="6.08595">
        <ele>1313.6350097656</ele>
        <time>2010-10-07T15:24:04Z</time>
      </trkpt>
      <trkpt lat="45.56387" lon="6.08593">
        <ele>1313.7320556641</ele>
        <time>2010-10-07T15:24:10Z</time>
      </trkpt>
      <trkpt lat="45.56389" lon="6.08594">
        <ele>1314.0069580078</ele>
        <time>2010-10-07T15:24:18Z</time>
      </trkpt>
      <trkpt lat="45.56388" lon="6.08598">
        <ele>1314.5250244141</ele>
        <time>2010-10-07T15:24:23Z</time>
      </trkpt>
      <trkpt lat="45.56385" lon="6.08601">
        <ele>1315.1970214844</ele>
        <time>2010-10-07T15:24:28Z</time>
      </trkpt>
      <trkpt lat="45.56383" lon="6.08603">
        <ele>1314.9670410156</ele>
        <time>2010-10-07T15:24:33Z</time>
      </trkpt>
      <trkpt lat="45.56381" lon="6.08606">
        <ele>1315.1459960938</ele>
        <time>2010-10-07T15:24:37Z</time>
      </trkpt>
      <trkpt lat="45.56378" lon="6.08606">
        <ele>1314.5250244141</ele>
        <time>2010-10-07T15:24:41Z</time>
      </trkpt>
      <trkpt lat="45.56374" lon="6.0861">
        <ele>1313.916015625</ele>
        <time>2010-10-07T15:24:47Z</time>
      </trkpt>
      <trkpt lat="45.56363" lon="6.08622">
        <ele>1311.4300537109</ele>
        <time>2010-10-07T15:24:51Z</time>
      </trkpt>
      <trkpt lat="45.56359" lon="6.08632">
        <ele>1310.5479736328</ele>
        <time>2010-10-07T15:24:53Z</time>
      </trkpt>
      <trkpt lat="45.56356" lon="6.08645">
        <ele>1309.2370605469</ele>
        <time>2010-10-07T15:24:56Z</time>
      </trkpt>
      <trkpt lat="45.56356" lon="6.08662">
        <ele>1306.7030029297</ele>
        <time>2010-10-07T15:25:01Z</time>
      </trkpt>
      <trkpt lat="45.56357" lon="6.08663">
        <ele>1306.4350585938</ele>
        <time>2010-10-07T15:25:02Z</time>
      </trkpt>
      <trkpt lat="45.56357" lon="6.08667">
        <ele>1305.7769775391</ele>
        <time>2010-10-07T15:25:08Z</time>
      </trkpt>
      <trkpt lat="45.56355" lon="6.08669">
        <ele>1305.2349853516</ele>
        <time>2010-10-07T15:25:14Z</time>
      </trkpt>
      <trkpt lat="45.5635" lon="6.08668">
        <ele>1304.8289794922</ele>
        <time>2010-10-07T15:25:21Z</time>
      </trkpt>
      <trkpt lat="45.56349" lon="6.08667">
        <ele>1305.0629882812</ele>
        <time>2010-10-07T15:25:26Z</time>
      </trkpt>
      <trkpt lat="45.56345" lon="6.08665">
        <ele>1306.2659912109</ele>
        <time>2010-10-07T15:25:32Z</time>
      </trkpt>
      <trkpt lat="45.56339" lon="6.08664">
        <ele>1307.4639892578</ele>
        <time>2010-10-07T15:25:39Z</time>
      </trkpt>
      <trkpt lat="45.56335" lon="6.08663">
        <ele>1308.6400146484</ele>
        <time>2010-10-07T15:25:45Z</time>
      </trkpt>
      <trkpt lat="45.5633" lon="6.08662">
        <ele>1309.9549560547</ele>
        <time>2010-10-07T15:25:51Z</time>
      </trkpt>
      <trkpt lat="45.56329" lon="6.08662">
        <ele>1310.2060546875</ele>
        <time>2010-10-07T15:25:52Z</time>
      </trkpt>
      <trkpt lat="45.56325" lon="6.08661">
        <ele>1311.5150146484</ele>
        <time>2010-10-07T15:25:58Z</time>
      </trkpt>
      <trkpt lat="45.56318" lon="6.08661">
        <ele>1312.7459716797</ele>
        <time>2010-10-07T15:26:07Z</time>
      </trkpt>
      <trkpt lat="45.56313" lon="6.0866">
        <ele>1312.3170166016</ele>
        <time>2010-10-07T15:26:14Z</time>
      </trkpt>
      <trkpt lat="45.56309" lon="6.08657">
        <ele>1312.3470458984</ele>
        <time>2010-10-07T15:26:20Z</time>
      </trkpt>
      <trkpt lat="45.56307" lon="6.08655">
        <ele>1312.3570556641</ele>
        <time>2010-10-07T15:26:32Z</time>
      </trkpt>
      <trkpt lat="45.56302" lon="6.08655">
        <ele>1312.9790039062</ele>
        <time>2010-10-07T15:26:42Z</time>
      </trkpt>
      <trkpt lat="45.56296" lon="6.08658">
        <ele>1314.9959716797</ele>
        <time>2010-10-07T15:26:50Z</time>
      </trkpt>
      <trkpt lat="45.5629" lon="6.08658">
        <ele>1315.6639404297</ele>
        <time>2010-10-07T15:26:56Z</time>
      </trkpt>
      <trkpt lat="45.56278" lon="6.08658">
        <ele>1312.7340087891</ele>
        <time>2010-10-07T15:27:02Z</time>
      </trkpt>
      <trkpt lat="45.56273" lon="6.08656">
        <ele>1312.0770263672</ele>
        <time>2010-10-07T15:27:04Z</time>
      </trkpt>
      <trkpt lat="45.56264" lon="6.08655">
        <ele>1310.2459716797</ele>
        <time>2010-10-07T15:27:09Z</time>
      </trkpt>
      <trkpt lat="45.56256" lon="6.08652">
        <ele>1307.9959716797</ele>
        <time>2010-10-07T15:27:13Z</time>
      </trkpt>
      <trkpt lat="45.56246" lon="6.08648">
        <ele>1304.5720214844</ele>
        <time>2010-10-07T15:27:18Z</time>
      </trkpt>
      <trkpt lat="45.56236" lon="6.08643">
        <ele>1300.3139648438</ele>
        <time>2010-10-07T15:27:24Z</time>
      </trkpt>
      <trkpt lat="45.56227" lon="6.08639">
        <ele>1296.7810058594</ele>
        <time>2010-10-07T15:27:28Z</time>
      </trkpt>
      <trkpt lat="45.56219" lon="6.08637">
        <ele>1294.9040527344</ele>
        <time>2010-10-07T15:27:32Z</time>
      </trkpt>
      <trkpt lat="45.5621" lon="6.08632">
        <ele>1293.1949462891</ele>
        <time>2010-10-07T15:27:36Z</time>
      </trkpt>
      <trkpt lat="45.56205" lon="6.08628">
        <ele>1291.8360595703</ele>
        <time>2010-10-07T15:27:40Z</time>
      </trkpt>
      <trkpt lat="45.56203" lon="6.08625">
        <ele>1291.4809570312</ele>
        <time>2010-10-07T15:27:46Z</time>
      </trkpt>
      <trkpt lat="45.56202" lon="6.08624">
        <ele>1291.0539550781</ele>
        <time>2010-10-07T15:27:49Z</time>
      </trkpt>
      <trkpt lat="45.56197" lon="6.08622">
        <ele>1290.7220458984</ele>
        <time>2010-10-07T15:27:54Z</time>
      </trkpt>
      <trkpt lat="45.56192" lon="6.0862">
        <ele>1289.8179931641</ele>
        <time>2010-10-07T15:28:01Z</time>
      </trkpt>
      <trkpt lat="45.56186" lon="6.08621">
        <ele>1289.0939941406</ele>
        <time>2010-10-07T15:28:07Z</time>
      </trkpt>
      <trkpt lat="45.56185" lon="6.08622">
        <ele>1288.7299804688</ele>
        <time>2010-10-07T15:28:09Z</time>
      </trkpt>
      <trkpt lat="45.56179" lon="6.08629">
        <ele>1286.8669433594</ele>
        <time>2010-10-07T15:28:16Z</time>
      </trkpt>
      <trkpt lat="45.56176" lon="6.08632">
        <ele>1286.25</ele>
        <time>2010-10-07T15:28:21Z</time>
      </trkpt>
      <trkpt lat="45.56176" lon="6.08632">
        <ele>1286.0870361328</ele>
        <time>2010-10-07T15:28:22Z</time>
      </trkpt>
      <trkpt lat="45.56173" lon="6.08633">
        <ele>1286.2459716797</ele>
        <time>2010-10-07T15:28:27Z</time>
      </trkpt>
      <trkpt lat="45.56169" lon="6.08628">
        <ele>1288.9890136719</ele>
        <time>2010-10-07T15:28:37Z</time>
      </trkpt>
      <trkpt lat="45.56166" lon="6.08623">
        <ele>1289.4949951172</ele>
        <time>2010-10-07T15:28:42Z</time>
      </trkpt>
      <trkpt lat="45.56163" lon="6.08618">
        <ele>1290.0190429688</ele>
        <time>2010-10-07T15:28:47Z</time>
      </trkpt>
      <trkpt lat="45.56161" lon="6.08616">
        <ele>1290.8020019531</ele>
        <time>2010-10-07T15:28:51Z</time>
      </trkpt>
      <trkpt lat="45.56157" lon="6.0861">
        <ele>1291.7139892578</ele>
        <time>2010-10-07T15:29:02Z</time>
      </trkpt>
      <trkpt lat="45.56146" lon="6.08605">
        <ele>1289.6529541016</ele>
        <time>2010-10-07T15:29:08Z</time>
      </trkpt>
      <trkpt lat="45.56137" lon="6.086">
        <ele>1288.5059814453</ele>
        <time>2010-10-07T15:29:13Z</time>
      </trkpt>
      <trkpt lat="45.56126" lon="6.08598">
        <ele>1288.5589599609</ele>
        <time>2010-10-07T15:29:18Z</time>
      </trkpt>
      <trkpt lat="45.56119" lon="6.08594">
        <ele>1287.8029785156</ele>
        <time>2010-10-07T15:29:22Z</time>
      </trkpt>
      <trkpt lat="45.56109" lon="6.08596">
        <ele>1287.0050048828</ele>
        <time>2010-10-07T15:29:28Z</time>
      </trkpt>
      <trkpt lat="45.56102" lon="6.08597">
        <ele>1285.7550048828</ele>
        <time>2010-10-07T15:29:32Z</time>
      </trkpt>
      <trkpt lat="45.56093" lon="6.08596">
        <ele>1284.6770019531</ele>
        <time>2010-10-07T15:29:37Z</time>
      </trkpt>
      <trkpt lat="45.56088" lon="6.08592">
        <ele>1284.5489501953</ele>
        <time>2010-10-07T15:29:41Z</time>
      </trkpt>
      <trkpt lat="45.56084" lon="6.08584">
        <ele>1285.373046875</ele>
        <time>2010-10-07T15:29:51Z</time>
      </trkpt>
      <trkpt lat="45.5608" lon="6.08583">
        <ele>1285.3869628906</ele>
        <time>2010-10-07T15:30:00Z</time>
      </trkpt>
      <trkpt lat="45.56079" lon="6.0858">
        <ele>1285.0579833984</ele>
        <time>2010-10-07T15:30:05Z</time>
      </trkpt>
      <trkpt lat="45.56074" lon="6.0857">
        <ele>1283.2740478516</ele>
        <time>2010-10-07T15:30:09Z</time>
      </trkpt>
      <trkpt lat="45.56072" lon="6.08568">
        <ele>1282.3669433594</ele>
        <time>2010-10-07T15:30:11Z</time>
      </trkpt>
      <trkpt lat="45.56066" lon="6.08558">
        <ele>1280.3139648438</ele>
        <time>2010-10-07T15:30:15Z</time>
      </trkpt>
      <trkpt lat="45.56064" lon="6.08556">
        <ele>1279.7969970703</ele>
        <time>2010-10-07T15:30:16Z</time>
      </trkpt>
      <trkpt lat="45.56061" lon="6.08551">
        <ele>1278.1710205078</ele>
        <time>2010-10-07T15:30:20Z</time>
      </trkpt>
      <trkpt lat="45.56056" lon="6.08543">
        <ele>1276.0140380859</ele>
        <time>2010-10-07T15:30:24Z</time>
      </trkpt>
      <trkpt lat="45.56047" lon="6.08532">
        <ele>1273.126953125</ele>
        <time>2010-10-07T15:30:29Z</time>
      </trkpt>
      <trkpt lat="45.56042" lon="6.08519">
        <ele>1269.9659423828</ele>
        <time>2010-10-07T15:30:33Z</time>
      </trkpt>
      <trkpt lat="45.56036" lon="6.08505">
        <ele>1265.7989501953</ele>
        <time>2010-10-07T15:30:38Z</time>
      </trkpt>
      <trkpt lat="45.56035" lon="6.08503">
        <ele>1265.5240478516</ele>
        <time>2010-10-07T15:30:39Z</time>
      </trkpt>
      <trkpt lat="45.56031" lon="6.08492">
        <ele>1263.1850585938</ele>
        <time>2010-10-07T15:30:43Z</time>
      </trkpt>
      <trkpt lat="45.56031" lon="6.08489">
        <ele>1262.8859863281</ele>
        <time>2010-10-07T15:30:44Z</time>
      </trkpt>
      <trkpt lat="45.56025" lon="6.08475">
        <ele>1258.6569824219</ele>
        <time>2010-10-07T15:30:49Z</time>
      </trkpt>
      <trkpt lat="45.56022" lon="6.08461">
        <ele>1254.1500244141</ele>
        <time>2010-10-07T15:30:54Z</time>
      </trkpt>
      <trkpt lat="45.56021" lon="6.08455">
        <ele>1252.0250244141</ele>
        <time>2010-10-07T15:30:58Z</time>
      </trkpt>
      <trkpt lat="45.56023" lon="6.0845">
        <ele>1252.1579589844</ele>
        <time>2010-10-07T15:31:17Z</time>
      </trkpt>
      <trkpt lat="45.56025" lon="6.08451">
        <ele>1251.2860107422</ele>
        <time>2010-10-07T15:31:26Z</time>
      </trkpt>
      <trkpt lat="45.56028" lon="6.08451">
        <ele>1250.5849609375</ele>
        <time>2010-10-07T15:31:34Z</time>
      </trkpt>
      <trkpt lat="45.56032" lon="6.08444">
        <ele>1247.6669921875</ele>
        <time>2010-10-07T15:32:00Z</time>
      </trkpt>
      <trkpt lat="45.56034" lon="6.08444">
        <ele>1246.8360595703</ele>
        <time>2010-10-07T15:32:06Z</time>
      </trkpt>
      <trkpt lat="45.56038" lon="6.08443">
        <ele>1246.1070556641</ele>
        <time>2010-10-07T15:32:11Z</time>
      </trkpt>
      <trkpt lat="45.5604" lon="6.08442">
        <ele>1244.8449707031</ele>
        <time>2010-10-07T15:32:17Z</time>
      </trkpt>
      <trkpt lat="45.5604" lon="6.08441">
        <ele>1244.8249511719</ele>
        <time>2010-10-07T15:32:19Z</time>
      </trkpt>
      <trkpt lat="45.56038" lon="6.08434">
        <ele>1243.6989746094</ele>
        <time>2010-10-07T15:32:23Z</time>
      </trkpt>
      <trkpt lat="45.56032" lon="6.08427">
        <ele>1242.0200195312</ele>
        <time>2010-10-07T15:32:29Z</time>
      </trkpt>
      <trkpt lat="45.56031" lon="6.08424">
        <ele>1241.9680175781</ele>
        <time>2010-10-07T15:32:32Z</time>
      </trkpt>
      <trkpt lat="45.5603" lon="6.08423">
        <ele>1241.8370361328</ele>
        <time>2010-10-07T15:32:34Z</time>
      </trkpt>
      <trkpt lat="45.56024" lon="6.08419">
        <ele>1240.7320556641</ele>
        <time>2010-10-07T15:32:41Z</time>
      </trkpt>
      <trkpt lat="45.5602" lon="6.08414">
        <ele>1241.3530273438</ele>
        <time>2010-10-07T15:32:48Z</time>
      </trkpt>
      <trkpt lat="45.56014" lon="6.08407">
        <ele>1240.8079833984</ele>
        <time>2010-10-07T15:32:55Z</time>
      </trkpt>
      <trkpt lat="45.56011" lon="6.08406">
        <ele>1240.4790039062</ele>
        <time>2010-10-07T15:33:02Z</time>
      </trkpt>
      <trkpt lat="45.56013" lon="6.08404">
        <ele>1240.5939941406</ele>
        <time>2010-10-07T15:33:17Z</time>
      </trkpt>
      <trkpt lat="45.56013" lon="6.08401">
        <ele>1240.6219482422</ele>
        <time>2010-10-07T15:33:21Z</time>
      </trkpt>
      <trkpt lat="45.56009" lon="6.08399">
        <ele>1239.8270263672</ele>
        <time>2010-10-07T15:33:27Z</time>
      </trkpt>
      <trkpt lat="45.56008" lon="6.08398">
        <ele>1239.751953125</ele>
        <time>2010-10-07T15:33:28Z</time>
      </trkpt>
      <trkpt lat="45.56004" lon="6.08396">
        <ele>1239.3129882812</ele>
        <time>2010-10-07T15:33:32Z</time>
      </trkpt>
      <trkpt lat="45.55997" lon="6.08394">
        <ele>1238.7850341797</ele>
        <time>2010-10-07T15:33:38Z</time>
      </trkpt>
      <trkpt lat="45.55996" lon="6.08392">
        <ele>1238.6789550781</ele>
        <time>2010-10-07T15:33:39Z</time>
      </trkpt>
      <trkpt lat="45.55986" lon="6.08389">
        <ele>1238.5639648438</ele>
        <time>2010-10-07T15:33:46Z</time>
      </trkpt>
      <trkpt lat="45.5598" lon="6.08386">
        <ele>1238.7989501953</ele>
        <time>2010-10-07T15:33:53Z</time>
      </trkpt>
      <trkpt lat="45.55979" lon="6.08386">
        <ele>1238.9100341797</ele>
        <time>2010-10-07T15:33:54Z</time>
      </trkpt>
      <trkpt lat="45.55973" lon="6.08383">
        <ele>1238.0689697266</ele>
        <time>2010-10-07T15:33:59Z</time>
      </trkpt>
      <trkpt lat="45.55967" lon="6.08382">
        <ele>1236.6020507812</ele>
        <time>2010-10-07T15:34:05Z</time>
      </trkpt>
      <trkpt lat="45.55962" lon="6.0838">
        <ele>1236.333984375</ele>
        <time>2010-10-07T15:34:10Z</time>
      </trkpt>
      <trkpt lat="45.5596" lon="6.08374">
        <ele>1236.2709960938</ele>
        <time>2010-10-07T15:34:15Z</time>
      </trkpt>
      <trkpt lat="45.55954" lon="6.0837">
        <ele>1236.2249755859</ele>
        <time>2010-10-07T15:34:22Z</time>
      </trkpt>
      <trkpt lat="45.55952" lon="6.0837">
        <ele>1235.9919433594</ele>
        <time>2010-10-07T15:34:29Z</time>
      </trkpt>
      <trkpt lat="45.55949" lon="6.08368">
        <ele>1236.8439941406</ele>
        <time>2010-10-07T15:34:33Z</time>
      </trkpt>
      <trkpt lat="45.55943" lon="6.08368">
        <ele>1238.0059814453</ele>
        <time>2010-10-07T15:34:40Z</time>
      </trkpt>
      <trkpt lat="45.55936" lon="6.08366">
        <ele>1238.1350097656</ele>
        <time>2010-10-07T15:34:46Z</time>
      </trkpt>
      <trkpt lat="45.5593" lon="6.08365">
        <ele>1237.7220458984</ele>
        <time>2010-10-07T15:34:52Z</time>
      </trkpt>
      <trkpt lat="45.55924" lon="6.08363">
        <ele>1236.7629394531</ele>
        <time>2010-10-07T15:34:58Z</time>
      </trkpt>
      <trkpt lat="45.55923" lon="6.08364">
        <ele>1236.4079589844</ele>
        <time>2010-10-07T15:34:59Z</time>
      </trkpt>
      <trkpt lat="45.55916" lon="6.08364">
        <ele>1234.9649658203</ele>
        <time>2010-10-07T15:35:04Z</time>
      </trkpt>
      <trkpt lat="45.55915" lon="6.08364">
        <ele>1234.8420410156</ele>
        <time>2010-10-07T15:35:05Z</time>
      </trkpt>
      <trkpt lat="45.55909" lon="6.08363">
        <ele>1235.3879394531</ele>
        <time>2010-10-07T15:35:11Z</time>
      </trkpt>
      <trkpt lat="45.55905" lon="6.0836">
        <ele>1235.3869628906</ele>
        <time>2010-10-07T15:35:16Z</time>
      </trkpt>
      <trkpt lat="45.55901" lon="6.08361">
        <ele>1235.4329833984</ele>
        <time>2010-10-07T15:35:22Z</time>
      </trkpt>
      <trkpt lat="45.55898" lon="6.08359">
        <ele>1235.6219482422</ele>
        <time>2010-10-07T15:35:27Z</time>
      </trkpt>
      <trkpt lat="45.55895" lon="6.08358">
        <ele>1235.8890380859</ele>
        <time>2010-10-07T15:35:29Z</time>
      </trkpt>
      <trkpt lat="45.55892" lon="6.08357">
        <ele>1235.9119873047</ele>
        <time>2010-10-07T15:35:32Z</time>
      </trkpt>
      <trkpt lat="45.55881" lon="6.08351">
        <ele>1234.4909667969</ele>
        <time>2010-10-07T15:35:39Z</time>
      </trkpt>
      <trkpt lat="45.55879" lon="6.0835">
        <ele>1233.8669433594</ele>
        <time>2010-10-07T15:35:42Z</time>
      </trkpt>
      <trkpt lat="45.55872" lon="6.08347">
        <ele>1232.5620117188</ele>
        <time>2010-10-07T15:35:48Z</time>
      </trkpt>
      <trkpt lat="45.5587" lon="6.08345">
        <ele>1232.1169433594</ele>
        <time>2010-10-07T15:35:50Z</time>
      </trkpt>
      <trkpt lat="45.55869" lon="6.08344">
        <ele>1231.8249511719</ele>
        <time>2010-10-07T15:35:52Z</time>
      </trkpt>
      <trkpt lat="45.55866" lon="6.08341">
        <ele>1231.6459960938</ele>
        <time>2010-10-07T15:35:55Z</time>
      </trkpt>
      <trkpt lat="45.55865" lon="6.08338">
        <ele>1231.4959716797</ele>
        <time>2010-10-07T15:35:57Z</time>
      </trkpt>
      <trkpt lat="45.55862" lon="6.08334">
        <ele>1230.9320068359</ele>
        <time>2010-10-07T15:36:04Z</time>
      </trkpt>
      <trkpt lat="45.55862" lon="6.08334">
        <ele>1230.4799804688</ele>
        <time>2010-10-07T15:36:13Z</time>
      </trkpt>
      <trkpt lat="45.55858" lon="6.08334">
        <ele>1230.6070556641</ele>
        <time>2010-10-07T15:36:17Z</time>
      </trkpt>
      <trkpt lat="45.55853" lon="6.0833">
        <ele>1230.0329589844</ele>
        <time>2010-10-07T15:36:24Z</time>
      </trkpt>
      <trkpt lat="45.55846" lon="6.08323">
        <ele>1230.1140136719</ele>
        <time>2010-10-07T15:36:29Z</time>
      </trkpt>
      <trkpt lat="45.55841" lon="6.08321">
        <ele>1229.4890136719</ele>
        <time>2010-10-07T15:36:35Z</time>
      </trkpt>
      <trkpt lat="45.5584" lon="6.08322">
        <ele>1229.2209472656</ele>
        <time>2010-10-07T15:36:37Z</time>
      </trkpt>
      <trkpt lat="45.55836" lon="6.08323">
        <ele>1227.8630371094</ele>
        <time>2010-10-07T15:36:40Z</time>
      </trkpt>
      <trkpt lat="45.55829" lon="6.08323">
        <ele>1226.5620117188</ele>
        <time>2010-10-07T15:36:48Z</time>
      </trkpt>
      <trkpt lat="45.55824" lon="6.08323">
        <ele>1225.8170166016</ele>
        <time>2010-10-07T15:36:54Z</time>
      </trkpt>
      <trkpt lat="45.55816" lon="6.08322">
        <ele>1224.4389648438</ele>
        <time>2010-10-07T15:36:59Z</time>
      </trkpt>
      <trkpt lat="45.5581" lon="6.0832">
        <ele>1223.6440429688</ele>
        <time>2010-10-07T15:37:04Z</time>
      </trkpt>
      <trkpt lat="45.55803" lon="6.0832">
        <ele>1222.7330322266</ele>
        <time>2010-10-07T15:37:17Z</time>
      </trkpt>
      <trkpt lat="45.55804" lon="6.08319">
        <ele>1222.9809570312</ele>
        <time>2010-10-07T15:37:32Z</time>
      </trkpt>
      <trkpt lat="45.55799" lon="6.08317">
        <ele>1221.8979492188</ele>
        <time>2010-10-07T15:37:38Z</time>
      </trkpt>
      <trkpt lat="45.55795" lon="6.08316">
        <ele>1220.8990478516</ele>
        <time>2010-10-07T15:37:44Z</time>
      </trkpt>
      <trkpt lat="45.55792" lon="6.08314">
        <ele>1220.2810058594</ele>
        <time>2010-10-07T15:37:48Z</time>
      </trkpt>
      <trkpt lat="45.55791" lon="6.08313">
        <ele>1220.0670166016</ele>
        <time>2010-10-07T15:37:49Z</time>
      </trkpt>
      <trkpt lat="45.55785" lon="6.0831">
        <ele>1218.8640136719</ele>
        <time>2010-10-07T15:37:55Z</time>
      </trkpt>
      <trkpt lat="45.55775" lon="6.08307">
        <ele>1216.8969726562</ele>
        <time>2010-10-07T15:38:02Z</time>
      </trkpt>
      <trkpt lat="45.55769" lon="6.08303">
        <ele>1215.3540039062</ele>
        <time>2010-10-07T15:38:05Z</time>
      </trkpt>
      <trkpt lat="45.55764" lon="6.08299">
        <ele>1214.4560546875</ele>
        <time>2010-10-07T15:38:10Z</time>
      </trkpt>
      <trkpt lat="45.5576" lon="6.08296">
        <ele>1213.7430419922</ele>
        <time>2010-10-07T15:38:14Z</time>
      </trkpt>
      <trkpt lat="45.5575" lon="6.08285">
        <ele>1211.8239746094</ele>
        <time>2010-10-07T15:38:19Z</time>
      </trkpt>
      <trkpt lat="45.55747" lon="6.08283">
        <ele>1211.2800292969</ele>
        <time>2010-10-07T15:38:20Z</time>
      </trkpt>
      <trkpt lat="45.55738" lon="6.08278">
        <ele>1209.3709716797</ele>
        <time>2010-10-07T15:38:24Z</time>
      </trkpt>
      <trkpt lat="45.55724" lon="6.08269">
        <ele>1208.4749755859</ele>
        <time>2010-10-07T15:38:29Z</time>
      </trkpt>
      <trkpt lat="45.55718" lon="6.08268">
        <ele>1207.8499755859</ele>
        <time>2010-10-07T15:38:34Z</time>
      </trkpt>
      <trkpt lat="45.55715" lon="6.08267">
        <ele>1207.4549560547</ele>
        <time>2010-10-07T15:38:36Z</time>
      </trkpt>
      <trkpt lat="45.55704" lon="6.08266">
        <ele>1206.3489990234</ele>
        <time>2010-10-07T15:38:42Z</time>
      </trkpt>
      <trkpt lat="45.55698" lon="6.08269">
        <ele>1205.4420166016</ele>
        <time>2010-10-07T15:38:48Z</time>
      </trkpt>
      <trkpt lat="45.55693" lon="6.08272">
        <ele>1204.4790039062</ele>
        <time>2010-10-07T15:38:52Z</time>
      </trkpt>
      <trkpt lat="45.55683" lon="6.08277">
        <ele>1201.9749755859</ele>
        <time>2010-10-07T15:38:57Z</time>
      </trkpt>
      <trkpt lat="45.5568" lon="6.08278">
        <ele>1201.5059814453</ele>
        <time>2010-10-07T15:38:58Z</time>
      </trkpt>
      <trkpt lat="45.55667" lon="6.08269">
        <ele>1199.6870117188</ele>
        <time>2010-10-07T15:39:05Z</time>
      </trkpt>
      <trkpt lat="45.55646" lon="6.08246">
        <ele>1197.2399902344</ele>
        <time>2010-10-07T15:39:13Z</time>
      </trkpt>
      <trkpt lat="45.55636" lon="6.08235">
        <ele>1195.8070068359</ele>
        <time>2010-10-07T15:39:16Z</time>
      </trkpt>
      <trkpt lat="45.55622" lon="6.08221">
        <ele>1193.7760009766</ele>
        <time>2010-10-07T15:39:21Z</time>
      </trkpt>
      <trkpt lat="45.55612" lon="6.08215">
        <ele>1191.6610107422</ele>
        <time>2010-10-07T15:39:25Z</time>
      </trkpt>
      <trkpt lat="45.556" lon="6.0821">
        <ele>1188.5520019531</ele>
        <time>2010-10-07T15:39:29Z</time>
      </trkpt>
      <trkpt lat="45.55597" lon="6.08208">
        <ele>1188.2729492188</ele>
        <time>2010-10-07T15:39:30Z</time>
      </trkpt>
      <trkpt lat="45.55585" lon="6.08204">
        <ele>1185.1379394531</ele>
        <time>2010-10-07T15:39:34Z</time>
      </trkpt>
      <trkpt lat="45.55573" lon="6.08202">
        <ele>1181.2550048828</ele>
        <time>2010-10-07T15:39:39Z</time>
      </trkpt>
      <trkpt lat="45.55559" lon="6.08201">
        <ele>1176.1600341797</ele>
        <time>2010-10-07T15:39:45Z</time>
      </trkpt>
      <trkpt lat="45.55553" lon="6.08201">
        <ele>1174.9470214844</ele>
        <time>2010-10-07T15:39:47Z</time>
      </trkpt>
      <trkpt lat="45.55542" lon="6.08192">
        <ele>1172.3120117188</ele>
        <time>2010-10-07T15:39:52Z</time>
      </trkpt>
      <trkpt lat="45.55534" lon="6.08184">
        <ele>1170.0369873047</ele>
        <time>2010-10-07T15:39:56Z</time>
      </trkpt>
      <trkpt lat="45.5552" lon="6.08175">
        <ele>1166.4880371094</ele>
        <time>2010-10-07T15:40:01Z</time>
      </trkpt>
      <trkpt lat="45.55505" lon="6.08176">
        <ele>1162.4210205078</ele>
        <time>2010-10-07T15:40:05Z</time>
      </trkpt>
      <trkpt lat="45.55492" lon="6.08174">
        <ele>1159.5720214844</ele>
        <time>2010-10-07T15:40:09Z</time>
      </trkpt>
      <trkpt lat="45.55477" lon="6.08163">
        <ele>1155.3599853516</ele>
        <time>2010-10-07T15:40:13Z</time>
      </trkpt>
      <trkpt lat="45.55448" lon="6.08141">
        <ele>1150.6479492188</ele>
        <time>2010-10-07T15:40:18Z</time>
      </trkpt>
      <trkpt lat="45.55433" lon="6.0813">
        <ele>1149.0040283203</ele>
        <time>2010-10-07T15:40:21Z</time>
      </trkpt>
      <trkpt lat="45.55425" lon="6.08122">
        <ele>1148.7669677734</ele>
        <time>2010-10-07T15:40:24Z</time>
      </trkpt>
      <trkpt lat="45.5542" lon="6.08115">
        <ele>1147.2889404297</ele>
        <time>2010-10-07T15:40:27Z</time>
      </trkpt>
      <trkpt lat="45.55412" lon="6.08101">
        <ele>1143.6739501953</ele>
        <time>2010-10-07T15:40:32Z</time>
      </trkpt>
      <trkpt lat="45.55401" lon="6.08085">
        <ele>1138.6350097656</ele>
        <time>2010-10-07T15:40:37Z</time>
      </trkpt>
      <trkpt lat="45.55391" lon="6.08073">
        <ele>1134.9890136719</ele>
        <time>2010-10-07T15:40:41Z</time>
      </trkpt>
      <trkpt lat="45.55384" lon="6.08059">
        <ele>1129.7159423828</ele>
        <time>2010-10-07T15:40:45Z</time>
      </trkpt>
      <trkpt lat="45.55373" lon="6.08041">
        <ele>1124.0119628906</ele>
        <time>2010-10-07T15:40:51Z</time>
      </trkpt>
      <trkpt lat="45.55365" lon="6.08031">
        <ele>1119.7919921875</ele>
        <time>2010-10-07T15:40:56Z</time>
      </trkpt>
      <trkpt lat="45.5536" lon="6.08025">
        <ele>1116.7189941406</ele>
        <time>2010-10-07T15:40:59Z</time>
      </trkpt>
      <trkpt lat="45.55346" lon="6.0801">
        <ele>1111.5670166016</ele>
        <time>2010-10-07T15:41:04Z</time>
      </trkpt>
      <trkpt lat="45.55331" lon="6.07992">
        <ele>1106.6350097656</ele>
        <time>2010-10-07T15:41:10Z</time>
      </trkpt>
      <trkpt lat="45.55326" lon="6.07985">
        <ele>1103.9809570312</ele>
        <time>2010-10-07T15:41:12Z</time>
      </trkpt>
      <trkpt lat="45.55309" lon="6.07973">
        <ele>1099.6540527344</ele>
        <time>2010-10-07T15:41:17Z</time>
      </trkpt>
      <trkpt lat="45.55305" lon="6.07969">
        <ele>1098.8570556641</ele>
        <time>2010-10-07T15:41:19Z</time>
      </trkpt>
      <trkpt lat="45.553" lon="6.07964">
        <ele>1097.5710449219</ele>
        <time>2010-10-07T15:41:22Z</time>
      </trkpt>
      <trkpt lat="45.55291" lon="6.07958">
        <ele>1094.4479980469</ele>
        <time>2010-10-07T15:41:28Z</time>
      </trkpt>
      <trkpt lat="45.55283" lon="6.07951">
        <ele>1091.4620361328</ele>
        <time>2010-10-07T15:41:33Z</time>
      </trkpt>
      <trkpt lat="45.55276" lon="6.07942">
        <ele>1091.1440429688</ele>
        <time>2010-10-07T15:41:41Z</time>
      </trkpt>
      <trkpt lat="45.55268" lon="6.0794">
        <ele>1088.2590332031</ele>
        <time>2010-10-07T15:41:47Z</time>
      </trkpt>
      <trkpt lat="45.55266" lon="6.0794">
        <ele>1087.0870361328</ele>
        <time>2010-10-07T15:41:53Z</time>
      </trkpt>
      <trkpt lat="45.5526" lon="6.0794">
        <ele>1084.0340576172</ele>
        <time>2010-10-07T15:42:00Z</time>
      </trkpt>
      <trkpt lat="45.55254" lon="6.07941">
        <ele>1080.5369873047</ele>
        <time>2010-10-07T15:42:07Z</time>
      </trkpt>
      <trkpt lat="45.55251" lon="6.0794">
        <ele>1079.1750488281</ele>
        <time>2010-10-07T15:42:09Z</time>
      </trkpt>
      <trkpt lat="45.55249" lon="6.07941">
        <ele>1078.2249755859</ele>
        <time>2010-10-07T15:42:11Z</time>
      </trkpt>
      <trkpt lat="45.55247" lon="6.0794">
        <ele>1076.4279785156</ele>
        <time>2010-10-07T15:42:15Z</time>
      </trkpt>
      <trkpt lat="45.5524" lon="6.07936">
        <ele>1073.9470214844</ele>
        <time>2010-10-07T15:42:22Z</time>
      </trkpt>
      <trkpt lat="45.55239" lon="6.07934">
        <ele>1072.95703125</ele>
        <time>2010-10-07T15:42:26Z</time>
      </trkpt>
      <trkpt lat="45.55236" lon="6.07919">
        <ele>1070.2110595703</ele>
        <time>2010-10-07T15:42:31Z</time>
      </trkpt>
      <trkpt lat="45.55237" lon="6.07904">
        <ele>1067.0460205078</ele>
        <time>2010-10-07T15:42:36Z</time>
      </trkpt>
      <trkpt lat="45.55241" lon="6.07892">
        <ele>1063.7860107422</ele>
        <time>2010-10-07T15:42:42Z</time>
      </trkpt>
      <trkpt lat="45.55244" lon="6.07882">
        <ele>1062.04296875</ele>
        <time>2010-10-07T15:42:46Z</time>
      </trkpt>
      <trkpt lat="45.5524" lon="6.07869">
        <ele>1059.3409423828</ele>
        <time>2010-10-07T15:42:51Z</time>
      </trkpt>
      <trkpt lat="45.55238" lon="6.07861">
        <ele>1057.5600585938</ele>
        <time>2010-10-07T15:42:54Z</time>
      </trkpt>
      <trkpt lat="45.55237" lon="6.07858">
        <ele>1056.7709960938</ele>
        <time>2010-10-07T15:42:59Z</time>
      </trkpt>
      <trkpt lat="45.55237" lon="6.07857">
        <ele>1056.3540039062</ele>
        <time>2010-10-07T15:43:00Z</time>
      </trkpt>
      <trkpt lat="45.55235" lon="6.07853">
        <ele>1054.5860595703</ele>
        <time>2010-10-07T15:43:04Z</time>
      </trkpt>
      <trkpt lat="45.5523" lon="6.07847">
        <ele>1051.6700439453</ele>
        <time>2010-10-07T15:43:11Z</time>
      </trkpt>
      <trkpt lat="45.55228" lon="6.07844">
        <ele>1049.833984375</ele>
        <time>2010-10-07T15:43:16Z</time>
      </trkpt>
      <trkpt lat="45.55227" lon="6.07842">
        <ele>1049.0269775391</ele>
        <time>2010-10-07T15:43:18Z</time>
      </trkpt>
      <trkpt lat="45.55225" lon="6.07839">
        <ele>1047.2530517578</ele>
        <time>2010-10-07T15:43:22Z</time>
      </trkpt>
      <trkpt lat="45.55217" lon="6.07835">
        <ele>1043.5200195312</ele>
        <time>2010-10-07T15:43:31Z</time>
      </trkpt>
      <trkpt lat="45.55216" lon="6.07835">
        <ele>1043.3149414062</ele>
        <time>2010-10-07T15:43:32Z</time>
      </trkpt>
      <trkpt lat="45.55211" lon="6.07833">
        <ele>1041.8360595703</ele>
        <time>2010-10-07T15:43:37Z</time>
      </trkpt>
      <trkpt lat="45.55197" lon="6.07827">
        <ele>1038.0510253906</ele>
        <time>2010-10-07T15:43:42Z</time>
      </trkpt>
      <trkpt lat="45.55186" lon="6.07815">
        <ele>1034.0889892578</ele>
        <time>2010-10-07T15:43:46Z</time>
      </trkpt>
      <trkpt lat="45.55184" lon="6.0781">
        <ele>1032.9849853516</ele>
        <time>2010-10-07T15:43:47Z</time>
      </trkpt>
      <trkpt lat="45.55168" lon="6.07777">
        <ele>1027.0909423828</ele>
        <time>2010-10-07T15:43:52Z</time>
      </trkpt>
      <trkpt lat="45.55163" lon="6.07771">
        <ele>1026.0639648438</ele>
        <time>2010-10-07T15:43:53Z</time>
      </trkpt>
      <trkpt lat="45.55149" lon="6.07751">
        <ele>1023.6539916992</ele>
        <time>2010-10-07T15:43:56Z</time>
      </trkpt>
      <trkpt lat="45.55135" lon="6.07733">
        <ele>1021.2680053711</ele>
        <time>2010-10-07T15:44:00Z</time>
      </trkpt>
      <trkpt lat="45.55124" lon="6.07722">
        <ele>1018.8969726562</ele>
        <time>2010-10-07T15:44:05Z</time>
      </trkpt>
      <trkpt lat="45.55121" lon="6.07718">
        <ele>1017.2030029297</ele>
        <time>2010-10-07T15:44:06Z</time>
      </trkpt>
      <trkpt lat="45.55105" lon="6.07707">
        <ele>1011.1190185547</ele>
        <time>2010-10-07T15:44:11Z</time>
      </trkpt>
      <trkpt lat="45.55094" lon="6.07695">
        <ele>1005.9110107422</ele>
        <time>2010-10-07T15:44:16Z</time>
      </trkpt>
      <trkpt lat="45.55088" lon="6.07684">
        <ele>1002.3150024414</ele>
        <time>2010-10-07T15:44:20Z</time>
      </trkpt>
      <trkpt lat="45.55089" lon="6.07666">
        <ele>998.55499267578</ele>
        <time>2010-10-07T15:44:24Z</time>
      </trkpt>
      <trkpt lat="45.55096" lon="6.07657">
        <ele>997.98199462891</ele>
        <time>2010-10-07T15:44:27Z</time>
      </trkpt>
      <trkpt lat="45.55119" lon="6.07649">
        <ele>995.35400390625</ele>
        <time>2010-10-07T15:44:32Z</time>
      </trkpt>
      <trkpt lat="45.55125" lon="6.07648">
        <ele>995.05297851562</ele>
        <time>2010-10-07T15:44:33Z</time>
      </trkpt>
      <trkpt lat="45.55137" lon="6.07644">
        <ele>993.82598876953</ele>
        <time>2010-10-07T15:44:35Z</time>
      </trkpt>
      <trkpt lat="45.55158" lon="6.07639">
        <ele>992.25701904297</ele>
        <time>2010-10-07T15:44:38Z</time>
      </trkpt>
      <trkpt lat="45.55186" lon="6.07633">
        <ele>989.65698242188</ele>
        <time>2010-10-07T15:44:42Z</time>
      </trkpt>
      <trkpt lat="45.55204" lon="6.07628">
        <ele>989.29602050781</ele>
        <time>2010-10-07T15:44:46Z</time>
      </trkpt>
      <trkpt lat="45.55203" lon="6.07618">
        <ele>988.75299072266</ele>
        <time>2010-10-07T15:44:48Z</time>
      </trkpt>
      <trkpt lat="45.5519" lon="6.07614">
        <ele>987.61102294922</ele>
        <time>2010-10-07T15:44:51Z</time>
      </trkpt>
      <trkpt lat="45.55185" lon="6.07615">
        <ele>987.19396972656</ele>
        <time>2010-10-07T15:44:52Z</time>
      </trkpt>
      <trkpt lat="45.55166" lon="6.07616">
        <ele>985.80700683594</ele>
        <time>2010-10-07T15:44:56Z</time>
      </trkpt>
      <trkpt lat="45.5513" lon="6.07605">
        <ele>982.80401611328</ele>
        <time>2010-10-07T15:45:02Z</time>
      </trkpt>
      <trkpt lat="45.55116" lon="6.076">
        <ele>980.88702392578</ele>
        <time>2010-10-07T15:45:04Z</time>
      </trkpt>
      <trkpt lat="45.55089" lon="6.07579">
        <ele>977.77899169922</ele>
        <time>2010-10-07T15:45:08Z</time>
      </trkpt>
      <trkpt lat="45.55063" lon="6.07575">
        <ele>976.54400634766</ele>
        <time>2010-10-07T15:45:12Z</time>
      </trkpt>
      <trkpt lat="45.5505" lon="6.07587">
        <ele>975.17199707031</ele>
        <time>2010-10-07T15:45:15Z</time>
      </trkpt>
      <trkpt lat="45.5503" lon="6.07606">
        <ele>974.01898193359</ele>
        <time>2010-10-07T15:45:21Z</time>
      </trkpt>
      <trkpt lat="45.5502" lon="6.07614">
        <ele>973.09497070312</ele>
        <time>2010-10-07T15:45:26Z</time>
      </trkpt>
      <trkpt lat="45.55006" lon="6.0762">
        <ele>971.80499267578</ele>
        <time>2010-10-07T15:45:31Z</time>
      </trkpt>
      <trkpt lat="45.55003" lon="6.07619">
        <ele>971.71398925781</ele>
        <time>2010-10-07T15:45:34Z</time>
      </trkpt>
    </trkseg>
  </trk>
</gpx>